<?xml version="1.0" encoding="UTF-8" standalone="no" ?>
<gpx xmlns="http://www.topografix.com/GPX/1/1" xmlns:xsi="http://www.w3.org/2001/XMLSchema-instance" xsi:schemaLocation="http://www.topografix.com/GPX/1/1 http://www.topografix.com/GPX/1/1/gpx.xsd" version="1.1" creator="VisuGPX - https://www.visugpx.com">
  <metadata>
    <name>Ski à Couraduque</name>
    <desc><![CDATA[Stationner au parking du col de Couraduque "Val d'Azun".
Itinéraire aller/retour jusqu'au col du Soulor.]]></desc>
  </metadata>
  <trk>
    <name><![CDATA[Ski Couraduque]]></name>
    <trkseg>
      <trkpt lat="42.99109" lon="-0.20289">
        <ele>1371.4</ele>
        <time>2018-01-12T09:17:37Z</time>
      </trkpt>
      <trkpt lat="42.99109" lon="-0.20289">
        <ele>1370.9</ele>
        <time>2018-01-12T09:17:38Z</time>
      </trkpt>
      <trkpt lat="42.99113" lon="-0.20305">
        <ele>1365.3</ele>
        <time>2018-01-12T09:19:22Z</time>
      </trkpt>
      <trkpt lat="42.99114" lon="-0.20307">
        <ele>1365.4</ele>
        <time>2018-01-12T09:19:23Z</time>
      </trkpt>
      <trkpt lat="42.9912" lon="-0.20327">
        <ele>1365.3</ele>
        <time>2018-01-12T09:19:37Z</time>
      </trkpt>
      <trkpt lat="42.99124" lon="-0.20337">
        <ele>1363.9</ele>
        <time>2018-01-12T09:19:45Z</time>
      </trkpt>
      <trkpt lat="42.99132" lon="-0.20342">
        <ele>1364.5</ele>
        <time>2018-01-12T09:19:53Z</time>
      </trkpt>
      <trkpt lat="42.9914" lon="-0.20343">
        <ele>1364.6</ele>
        <time>2018-01-12T09:20:00Z</time>
      </trkpt>
      <trkpt lat="42.99148" lon="-0.20345">
        <ele>1364.2</ele>
        <time>2018-01-12T09:20:05Z</time>
      </trkpt>
      <trkpt lat="42.99155" lon="-0.20347">
        <ele>1362.9</ele>
        <time>2018-01-12T09:20:10Z</time>
      </trkpt>
      <trkpt lat="42.99163" lon="-0.2035">
        <ele>1361.6</ele>
        <time>2018-01-12T09:20:16Z</time>
      </trkpt>
      <trkpt lat="42.99171" lon="-0.20354">
        <ele>1360.4</ele>
        <time>2018-01-12T09:20:23Z</time>
      </trkpt>
      <trkpt lat="42.99172" lon="-0.20355">
        <ele>1360.4</ele>
        <time>2018-01-12T09:20:24Z</time>
      </trkpt>
      <trkpt lat="42.99185" lon="-0.20368">
        <ele>1360.3</ele>
        <time>2018-01-12T09:20:37Z</time>
      </trkpt>
      <trkpt lat="42.99192" lon="-0.20374">
        <ele>1361.6</ele>
        <time>2018-01-12T09:20:44Z</time>
      </trkpt>
      <trkpt lat="42.99199" lon="-0.20379">
        <ele>1362.3</ele>
        <time>2018-01-12T09:20:49Z</time>
      </trkpt>
      <trkpt lat="42.99206" lon="-0.20383">
        <ele>1363.3</ele>
        <time>2018-01-12T09:20:54Z</time>
      </trkpt>
      <trkpt lat="42.99214" lon="-0.20386">
        <ele>1365.3</ele>
        <time>2018-01-12T09:20:59Z</time>
      </trkpt>
      <trkpt lat="42.99221" lon="-0.20391">
        <ele>1365.9</ele>
        <time>2018-01-12T09:21:05Z</time>
      </trkpt>
      <trkpt lat="42.99229" lon="-0.20396">
        <ele>1367.4</ele>
        <time>2018-01-12T09:21:13Z</time>
      </trkpt>
      <trkpt lat="42.99235" lon="-0.20403">
        <ele>1369</ele>
        <time>2018-01-12T09:21:20Z</time>
      </trkpt>
      <trkpt lat="42.99241" lon="-0.2041">
        <ele>1369.8</ele>
        <time>2018-01-12T09:21:28Z</time>
      </trkpt>
      <trkpt lat="42.99242" lon="-0.20411">
        <ele>1370</ele>
        <time>2018-01-12T09:21:29Z</time>
      </trkpt>
      <trkpt lat="42.99255" lon="-0.20425">
        <ele>1374.1</ele>
        <time>2018-01-12T09:21:41Z</time>
      </trkpt>
      <trkpt lat="42.99262" lon="-0.20431">
        <ele>1376.8</ele>
        <time>2018-01-12T09:21:47Z</time>
      </trkpt>
      <trkpt lat="42.99268" lon="-0.20437">
        <ele>1377.7</ele>
        <time>2018-01-12T09:21:53Z</time>
      </trkpt>
      <trkpt lat="42.99274" lon="-0.20446">
        <ele>1375.8</ele>
        <time>2018-01-12T09:22:00Z</time>
      </trkpt>
      <trkpt lat="42.9928" lon="-0.20454">
        <ele>1374.5</ele>
        <time>2018-01-12T09:22:07Z</time>
      </trkpt>
      <trkpt lat="42.99288" lon="-0.20458">
        <ele>1376.8</ele>
        <time>2018-01-12T09:22:13Z</time>
      </trkpt>
      <trkpt lat="42.99296" lon="-0.2046">
        <ele>1378.7</ele>
        <time>2018-01-12T09:22:18Z</time>
      </trkpt>
      <trkpt lat="42.99303" lon="-0.20461">
        <ele>1380.1</ele>
        <time>2018-01-12T09:22:24Z</time>
      </trkpt>
      <trkpt lat="42.99312" lon="-0.20462">
        <ele>1380.2</ele>
        <time>2018-01-12T09:22:29Z</time>
      </trkpt>
      <trkpt lat="42.99313" lon="-0.20463">
        <ele>1380.2</ele>
        <time>2018-01-12T09:22:30Z</time>
      </trkpt>
      <trkpt lat="42.99328" lon="-0.20465">
        <ele>1377.5</ele>
        <time>2018-01-12T09:22:40Z</time>
      </trkpt>
      <trkpt lat="42.99336" lon="-0.20466">
        <ele>1375.8</ele>
        <time>2018-01-12T09:22:45Z</time>
      </trkpt>
      <trkpt lat="42.99343" lon="-0.20468">
        <ele>1374.3</ele>
        <time>2018-01-12T09:22:49Z</time>
      </trkpt>
      <trkpt lat="42.99351" lon="-0.20472">
        <ele>1373</ele>
        <time>2018-01-12T09:22:53Z</time>
      </trkpt>
      <trkpt lat="42.99357" lon="-0.20478">
        <ele>1372</ele>
        <time>2018-01-12T09:22:57Z</time>
      </trkpt>
      <trkpt lat="42.99365" lon="-0.20482">
        <ele>1371.8</ele>
        <time>2018-01-12T09:23:04Z</time>
      </trkpt>
      <trkpt lat="42.99373" lon="-0.20488">
        <ele>1375</ele>
        <time>2018-01-12T09:23:14Z</time>
      </trkpt>
      <trkpt lat="42.99379" lon="-0.20496">
        <ele>1376.4</ele>
        <time>2018-01-12T09:23:21Z</time>
      </trkpt>
      <trkpt lat="42.99386" lon="-0.20502">
        <ele>1376.2</ele>
        <time>2018-01-12T09:23:27Z</time>
      </trkpt>
      <trkpt lat="42.99392" lon="-0.20508">
        <ele>1376.2</ele>
        <time>2018-01-12T09:23:32Z</time>
      </trkpt>
      <trkpt lat="42.99393" lon="-0.20509">
        <ele>1376.2</ele>
        <time>2018-01-12T09:23:33Z</time>
      </trkpt>
      <trkpt lat="42.99401" lon="-0.20527">
        <ele>1374.5</ele>
        <time>2018-01-12T09:23:43Z</time>
      </trkpt>
      <trkpt lat="42.99407" lon="-0.20536">
        <ele>1373.7</ele>
        <time>2018-01-12T09:23:48Z</time>
      </trkpt>
      <trkpt lat="42.99413" lon="-0.20542">
        <ele>1372.4</ele>
        <time>2018-01-12T09:23:52Z</time>
      </trkpt>
      <trkpt lat="42.9942" lon="-0.20548">
        <ele>1370.8</ele>
        <time>2018-01-12T09:23:56Z</time>
      </trkpt>
      <trkpt lat="42.99426" lon="-0.20552">
        <ele>1369.6</ele>
        <time>2018-01-12T09:23:59Z</time>
      </trkpt>
      <trkpt lat="42.99432" lon="-0.20559">
        <ele>1368.4</ele>
        <time>2018-01-12T09:24:03Z</time>
      </trkpt>
      <trkpt lat="42.99439" lon="-0.20566">
        <ele>1369</ele>
        <time>2018-01-12T09:24:08Z</time>
      </trkpt>
      <trkpt lat="42.99446" lon="-0.20573">
        <ele>1369.5</ele>
        <time>2018-01-12T09:24:13Z</time>
      </trkpt>
      <trkpt lat="42.99453" lon="-0.2058">
        <ele>1369.4</ele>
        <time>2018-01-12T09:24:18Z</time>
      </trkpt>
      <trkpt lat="42.9946" lon="-0.20586">
        <ele>1369.1</ele>
        <time>2018-01-12T09:24:23Z</time>
      </trkpt>
      <trkpt lat="42.99468" lon="-0.20589">
        <ele>1368.4</ele>
        <time>2018-01-12T09:24:27Z</time>
      </trkpt>
      <trkpt lat="42.99476" lon="-0.20591">
        <ele>1367.8</ele>
        <time>2018-01-12T09:24:31Z</time>
      </trkpt>
      <trkpt lat="42.99484" lon="-0.20592">
        <ele>1369</ele>
        <time>2018-01-12T09:24:36Z</time>
      </trkpt>
      <trkpt lat="42.99485" lon="-0.20592">
        <ele>1369.5</ele>
        <time>2018-01-12T09:24:37Z</time>
      </trkpt>
      <trkpt lat="42.995" lon="-0.20593">
        <ele>1373.4</ele>
        <time>2018-01-12T09:24:52Z</time>
      </trkpt>
      <trkpt lat="42.99507" lon="-0.20591">
        <ele>1373.5</ele>
        <time>2018-01-12T09:24:58Z</time>
      </trkpt>
      <trkpt lat="42.99515" lon="-0.20591">
        <ele>1372.3</ele>
        <time>2018-01-12T09:25:03Z</time>
      </trkpt>
      <trkpt lat="42.99523" lon="-0.20589">
        <ele>1370.8</ele>
        <time>2018-01-12T09:25:08Z</time>
      </trkpt>
      <trkpt lat="42.99529" lon="-0.20583">
        <ele>1371.1</ele>
        <time>2018-01-12T09:25:14Z</time>
      </trkpt>
      <trkpt lat="42.99536" lon="-0.20575">
        <ele>1377.2</ele>
        <time>2018-01-12T09:25:21Z</time>
      </trkpt>
      <trkpt lat="42.99539" lon="-0.20565">
        <ele>1381.6</ele>
        <time>2018-01-12T09:25:26Z</time>
      </trkpt>
      <trkpt lat="42.99543" lon="-0.20556">
        <ele>1384.5</ele>
        <time>2018-01-12T09:25:30Z</time>
      </trkpt>
      <trkpt lat="42.99547" lon="-0.20547">
        <ele>1386.8</ele>
        <time>2018-01-12T09:25:34Z</time>
      </trkpt>
      <trkpt lat="42.9955" lon="-0.20536">
        <ele>1389</ele>
        <time>2018-01-12T09:25:38Z</time>
      </trkpt>
      <trkpt lat="42.99551" lon="-0.20534">
        <ele>1389.5</ele>
        <time>2018-01-12T09:25:39Z</time>
      </trkpt>
      <trkpt lat="42.99563" lon="-0.20521">
        <ele>1390</ele>
        <time>2018-01-12T09:25:45Z</time>
      </trkpt>
      <trkpt lat="42.99569" lon="-0.20515">
        <ele>1389.5</ele>
        <time>2018-01-12T09:25:47Z</time>
      </trkpt>
      <trkpt lat="42.99574" lon="-0.20507">
        <ele>1388.1</ele>
        <time>2018-01-12T09:25:49Z</time>
      </trkpt>
      <trkpt lat="42.9958" lon="-0.20499">
        <ele>1385.5</ele>
        <time>2018-01-12T09:25:51Z</time>
      </trkpt>
      <trkpt lat="42.99588" lon="-0.20494">
        <ele>1382.4</ele>
        <time>2018-01-12T09:25:53Z</time>
      </trkpt>
      <trkpt lat="42.99596" lon="-0.20492">
        <ele>1378.9</ele>
        <time>2018-01-12T09:25:55Z</time>
      </trkpt>
      <trkpt lat="42.99602" lon="-0.2049">
        <ele>1375.3</ele>
        <time>2018-01-12T09:25:57Z</time>
      </trkpt>
      <trkpt lat="42.99609" lon="-0.20487">
        <ele>1370.4</ele>
        <time>2018-01-12T09:26:00Z</time>
      </trkpt>
      <trkpt lat="42.99617" lon="-0.20482">
        <ele>1366.4</ele>
        <time>2018-01-12T09:26:03Z</time>
      </trkpt>
      <trkpt lat="42.99622" lon="-0.20476">
        <ele>1364.1</ele>
        <time>2018-01-12T09:26:06Z</time>
      </trkpt>
      <trkpt lat="42.99626" lon="-0.20467">
        <ele>1363.8</ele>
        <time>2018-01-12T09:26:09Z</time>
      </trkpt>
      <trkpt lat="42.9963" lon="-0.20458">
        <ele>1370.5</ele>
        <time>2018-01-12T09:26:12Z</time>
      </trkpt>
      <trkpt lat="42.99635" lon="-0.20449">
        <ele>1374.5</ele>
        <time>2018-01-12T09:26:15Z</time>
      </trkpt>
      <trkpt lat="42.9964" lon="-0.20441">
        <ele>1376.8</ele>
        <time>2018-01-12T09:26:19Z</time>
      </trkpt>
      <trkpt lat="42.99648" lon="-0.20438">
        <ele>1378.1</ele>
        <time>2018-01-12T09:26:23Z</time>
      </trkpt>
      <trkpt lat="42.99656" lon="-0.20439">
        <ele>1378.3</ele>
        <time>2018-01-12T09:26:27Z</time>
      </trkpt>
      <trkpt lat="42.99663" lon="-0.20442">
        <ele>1379.2</ele>
        <time>2018-01-12T09:26:31Z</time>
      </trkpt>
      <trkpt lat="42.9967" lon="-0.20443">
        <ele>1379.5</ele>
        <time>2018-01-12T09:26:34Z</time>
      </trkpt>
      <trkpt lat="42.99676" lon="-0.20446">
        <ele>1379.6</ele>
        <time>2018-01-12T09:26:37Z</time>
      </trkpt>
      <trkpt lat="42.99685" lon="-0.20448">
        <ele>1379.9</ele>
        <time>2018-01-12T09:26:40Z</time>
      </trkpt>
      <trkpt lat="42.99688" lon="-0.20449">
        <ele>1380</ele>
        <time>2018-01-12T09:26:41Z</time>
      </trkpt>
      <trkpt lat="42.99699" lon="-0.20451">
        <ele>1378.9</ele>
        <time>2018-01-12T09:26:43Z</time>
      </trkpt>
      <trkpt lat="42.99708" lon="-0.20453">
        <ele>1378.4</ele>
        <time>2018-01-12T09:26:45Z</time>
      </trkpt>
      <trkpt lat="42.99714" lon="-0.20456">
        <ele>1378.1</ele>
        <time>2018-01-12T09:26:47Z</time>
      </trkpt>
      <trkpt lat="42.99721" lon="-0.20458">
        <ele>1378.5</ele>
        <time>2018-01-12T09:26:50Z</time>
      </trkpt>
      <trkpt lat="42.99729" lon="-0.20461">
        <ele>1377.5</ele>
        <time>2018-01-12T09:26:54Z</time>
      </trkpt>
      <trkpt lat="42.99736" lon="-0.20465">
        <ele>1377.5</ele>
        <time>2018-01-12T09:26:59Z</time>
      </trkpt>
      <trkpt lat="42.99744" lon="-0.20469">
        <ele>1377.3</ele>
        <time>2018-01-12T09:27:03Z</time>
      </trkpt>
      <trkpt lat="42.99753" lon="-0.20471">
        <ele>1377.2</ele>
        <time>2018-01-12T09:27:07Z</time>
      </trkpt>
      <trkpt lat="42.9976" lon="-0.20475">
        <ele>1377.3</ele>
        <time>2018-01-12T09:27:11Z</time>
      </trkpt>
      <trkpt lat="42.99767" lon="-0.20479">
        <ele>1377.2</ele>
        <time>2018-01-12T09:27:15Z</time>
      </trkpt>
      <trkpt lat="42.99774" lon="-0.20482">
        <ele>1378.2</ele>
        <time>2018-01-12T09:27:19Z</time>
      </trkpt>
      <trkpt lat="42.99782" lon="-0.20485">
        <ele>1377.1</ele>
        <time>2018-01-12T09:27:23Z</time>
      </trkpt>
      <trkpt lat="42.99788" lon="-0.20487">
        <ele>1377</ele>
        <time>2018-01-12T09:27:27Z</time>
      </trkpt>
      <trkpt lat="42.99797" lon="-0.2049">
        <ele>1377.6</ele>
        <time>2018-01-12T09:27:31Z</time>
      </trkpt>
      <trkpt lat="42.99806" lon="-0.20491">
        <ele>1377</ele>
        <time>2018-01-12T09:27:35Z</time>
      </trkpt>
      <trkpt lat="42.99814" lon="-0.20494">
        <ele>1378.5</ele>
        <time>2018-01-12T09:27:39Z</time>
      </trkpt>
      <trkpt lat="42.99821" lon="-0.20497">
        <ele>1378.2</ele>
        <time>2018-01-12T09:27:43Z</time>
      </trkpt>
      <trkpt lat="42.99823" lon="-0.20497">
        <ele>1378.2</ele>
        <time>2018-01-12T09:27:44Z</time>
      </trkpt>
      <trkpt lat="42.99836" lon="-0.20503">
        <ele>1378.8</ele>
        <time>2018-01-12T09:27:50Z</time>
      </trkpt>
      <trkpt lat="42.99844" lon="-0.20507">
        <ele>1378.5</ele>
        <time>2018-01-12T09:27:55Z</time>
      </trkpt>
      <trkpt lat="42.99851" lon="-0.20509">
        <ele>1378.5</ele>
        <time>2018-01-12T09:27:59Z</time>
      </trkpt>
      <trkpt lat="42.9986" lon="-0.20511">
        <ele>1379.6</ele>
        <time>2018-01-12T09:28:06Z</time>
      </trkpt>
      <trkpt lat="42.99868" lon="-0.20506">
        <ele>1379.9</ele>
        <time>2018-01-12T09:28:15Z</time>
      </trkpt>
      <trkpt lat="42.99874" lon="-0.20499">
        <ele>1381.3</ele>
        <time>2018-01-12T09:28:19Z</time>
      </trkpt>
      <trkpt lat="42.99882" lon="-0.20494">
        <ele>1381.3</ele>
        <time>2018-01-12T09:28:25Z</time>
      </trkpt>
      <trkpt lat="42.9989" lon="-0.20497">
        <ele>1380.7</ele>
        <time>2018-01-12T09:28:30Z</time>
      </trkpt>
      <trkpt lat="42.99893" lon="-0.20508">
        <ele>1379.6</ele>
        <time>2018-01-12T09:28:36Z</time>
      </trkpt>
      <trkpt lat="42.99892" lon="-0.2052">
        <ele>1380.8</ele>
        <time>2018-01-12T09:28:42Z</time>
      </trkpt>
      <trkpt lat="42.9989" lon="-0.20531">
        <ele>1381.1</ele>
        <time>2018-01-12T09:28:47Z</time>
      </trkpt>
      <trkpt lat="42.99889" lon="-0.20533">
        <ele>1381.3</ele>
        <time>2018-01-12T09:28:48Z</time>
      </trkpt>
      <trkpt lat="42.99887" lon="-0.20553">
        <ele>1383.8</ele>
        <time>2018-01-12T09:28:57Z</time>
      </trkpt>
      <trkpt lat="42.99885" lon="-0.20564">
        <ele>1384</ele>
        <time>2018-01-12T09:29:01Z</time>
      </trkpt>
      <trkpt lat="42.99885" lon="-0.20573">
        <ele>1383.5</ele>
        <time>2018-01-12T09:29:04Z</time>
      </trkpt>
      <trkpt lat="42.99883" lon="-0.20583">
        <ele>1382.5</ele>
        <time>2018-01-12T09:29:07Z</time>
      </trkpt>
      <trkpt lat="42.99882" lon="-0.20592">
        <ele>1382.2</ele>
        <time>2018-01-12T09:29:10Z</time>
      </trkpt>
      <trkpt lat="42.99879" lon="-0.20602">
        <ele>1382.1</ele>
        <time>2018-01-12T09:29:13Z</time>
      </trkpt>
      <trkpt lat="42.99876" lon="-0.20611">
        <ele>1382.2</ele>
        <time>2018-01-12T09:29:16Z</time>
      </trkpt>
      <trkpt lat="42.99875" lon="-0.2062">
        <ele>1382</ele>
        <time>2018-01-12T09:29:18Z</time>
      </trkpt>
      <trkpt lat="42.99873" lon="-0.20628">
        <ele>1381.8</ele>
        <time>2018-01-12T09:29:20Z</time>
      </trkpt>
      <trkpt lat="42.99872" lon="-0.20636">
        <ele>1381.8</ele>
        <time>2018-01-12T09:29:22Z</time>
      </trkpt>
      <trkpt lat="42.99871" lon="-0.20646">
        <ele>1381.5</ele>
        <time>2018-01-12T09:29:24Z</time>
      </trkpt>
      <trkpt lat="42.99869" lon="-0.20657">
        <ele>1381</ele>
        <time>2018-01-12T09:29:26Z</time>
      </trkpt>
      <trkpt lat="42.99868" lon="-0.20668">
        <ele>1380.3</ele>
        <time>2018-01-12T09:29:28Z</time>
      </trkpt>
      <trkpt lat="42.99867" lon="-0.20678">
        <ele>1379.7</ele>
        <time>2018-01-12T09:29:30Z</time>
      </trkpt>
      <trkpt lat="42.99866" lon="-0.20687">
        <ele>1379.8</ele>
        <time>2018-01-12T09:29:32Z</time>
      </trkpt>
      <trkpt lat="42.99866" lon="-0.20696">
        <ele>1379.1</ele>
        <time>2018-01-12T09:29:34Z</time>
      </trkpt>
      <trkpt lat="42.99866" lon="-0.20705">
        <ele>1378.2</ele>
        <time>2018-01-12T09:29:36Z</time>
      </trkpt>
      <trkpt lat="42.99867" lon="-0.20713">
        <ele>1377.8</ele>
        <time>2018-01-12T09:29:38Z</time>
      </trkpt>
      <trkpt lat="42.99869" lon="-0.20725">
        <ele>1377.2</ele>
        <time>2018-01-12T09:29:41Z</time>
      </trkpt>
      <trkpt lat="42.99869" lon="-0.20736">
        <ele>1376.7</ele>
        <time>2018-01-12T09:29:44Z</time>
      </trkpt>
      <trkpt lat="42.99868" lon="-0.20746">
        <ele>1376.4</ele>
        <time>2018-01-12T09:29:47Z</time>
      </trkpt>
      <trkpt lat="42.99866" lon="-0.20756">
        <ele>1375.6</ele>
        <time>2018-01-12T09:29:51Z</time>
      </trkpt>
      <trkpt lat="42.99866" lon="-0.20758">
        <ele>1375.4</ele>
        <time>2018-01-12T09:29:52Z</time>
      </trkpt>
      <trkpt lat="42.99869" lon="-0.20778">
        <ele>1376.3</ele>
        <time>2018-01-12T09:30:01Z</time>
      </trkpt>
      <trkpt lat="42.99871" lon="-0.20788">
        <ele>1375.3</ele>
        <time>2018-01-12T09:30:06Z</time>
      </trkpt>
      <trkpt lat="42.99874" lon="-0.208">
        <ele>1376.4</ele>
        <time>2018-01-12T09:30:12Z</time>
      </trkpt>
      <trkpt lat="42.99875" lon="-0.20811">
        <ele>1377.8</ele>
        <time>2018-01-12T09:30:17Z</time>
      </trkpt>
      <trkpt lat="42.99875" lon="-0.20823">
        <ele>1376.9</ele>
        <time>2018-01-12T09:30:22Z</time>
      </trkpt>
      <trkpt lat="42.99877" lon="-0.20835">
        <ele>1377.1</ele>
        <time>2018-01-12T09:30:27Z</time>
      </trkpt>
      <trkpt lat="42.99879" lon="-0.20845">
        <ele>1378.4</ele>
        <time>2018-01-12T09:30:32Z</time>
      </trkpt>
      <trkpt lat="42.9988" lon="-0.20857">
        <ele>1378.8</ele>
        <time>2018-01-12T09:30:37Z</time>
      </trkpt>
      <trkpt lat="42.99879" lon="-0.20867">
        <ele>1378.6</ele>
        <time>2018-01-12T09:30:42Z</time>
      </trkpt>
      <trkpt lat="42.99879" lon="-0.2088">
        <ele>1380</ele>
        <time>2018-01-12T09:30:48Z</time>
      </trkpt>
      <trkpt lat="42.99881" lon="-0.2089">
        <ele>1380.6</ele>
        <time>2018-01-12T09:30:53Z</time>
      </trkpt>
      <trkpt lat="42.99884" lon="-0.20901">
        <ele>1381.8</ele>
        <time>2018-01-12T09:30:59Z</time>
      </trkpt>
      <trkpt lat="42.99884" lon="-0.20903">
        <ele>1381.9</ele>
        <time>2018-01-12T09:31:00Z</time>
      </trkpt>
      <trkpt lat="42.9989" lon="-0.20923">
        <ele>1385</ele>
        <time>2018-01-12T09:31:13Z</time>
      </trkpt>
      <trkpt lat="42.99892" lon="-0.20933">
        <ele>1385.5</ele>
        <time>2018-01-12T09:31:19Z</time>
      </trkpt>
      <trkpt lat="42.99892" lon="-0.20943">
        <ele>1386.8</ele>
        <time>2018-01-12T09:31:24Z</time>
      </trkpt>
      <trkpt lat="42.99892" lon="-0.20955">
        <ele>1387.2</ele>
        <time>2018-01-12T09:31:29Z</time>
      </trkpt>
      <trkpt lat="42.99888" lon="-0.20965">
        <ele>1387.7</ele>
        <time>2018-01-12T09:31:34Z</time>
      </trkpt>
      <trkpt lat="42.99883" lon="-0.20974">
        <ele>1387.8</ele>
        <time>2018-01-12T09:31:39Z</time>
      </trkpt>
      <trkpt lat="42.99878" lon="-0.20983">
        <ele>1388.5</ele>
        <time>2018-01-12T09:31:44Z</time>
      </trkpt>
      <trkpt lat="42.99873" lon="-0.20993">
        <ele>1387.5</ele>
        <time>2018-01-12T09:31:49Z</time>
      </trkpt>
      <trkpt lat="42.99867" lon="-0.21">
        <ele>1387.9</ele>
        <time>2018-01-12T09:31:53Z</time>
      </trkpt>
      <trkpt lat="42.99862" lon="-0.21008">
        <ele>1388.8</ele>
        <time>2018-01-12T09:31:57Z</time>
      </trkpt>
      <trkpt lat="42.99857" lon="-0.21015">
        <ele>1388.2</ele>
        <time>2018-01-12T09:32:00Z</time>
      </trkpt>
      <trkpt lat="42.9985" lon="-0.21022">
        <ele>1387.7</ele>
        <time>2018-01-12T09:32:04Z</time>
      </trkpt>
      <trkpt lat="42.99849" lon="-0.21024">
        <ele>1387.6</ele>
        <time>2018-01-12T09:32:05Z</time>
      </trkpt>
      <trkpt lat="42.99836" lon="-0.21034">
        <ele>1388.2</ele>
        <time>2018-01-12T09:32:13Z</time>
      </trkpt>
      <trkpt lat="42.99831" lon="-0.2104">
        <ele>1387.9</ele>
        <time>2018-01-12T09:32:16Z</time>
      </trkpt>
      <trkpt lat="42.99824" lon="-0.21045">
        <ele>1387.8</ele>
        <time>2018-01-12T09:32:19Z</time>
      </trkpt>
      <trkpt lat="42.99817" lon="-0.2105">
        <ele>1386.3</ele>
        <time>2018-01-12T09:32:23Z</time>
      </trkpt>
      <trkpt lat="42.99809" lon="-0.21054">
        <ele>1386.9</ele>
        <time>2018-01-12T09:32:28Z</time>
      </trkpt>
      <trkpt lat="42.99801" lon="-0.21059">
        <ele>1387.8</ele>
        <time>2018-01-12T09:32:34Z</time>
      </trkpt>
      <trkpt lat="42.99794" lon="-0.2106">
        <ele>1387.9</ele>
        <time>2018-01-12T09:32:39Z</time>
      </trkpt>
      <trkpt lat="42.99786" lon="-0.21063">
        <ele>1387.7</ele>
        <time>2018-01-12T09:32:44Z</time>
      </trkpt>
      <trkpt lat="42.99779" lon="-0.21067">
        <ele>1388.2</ele>
        <time>2018-01-12T09:32:49Z</time>
      </trkpt>
      <trkpt lat="42.99771" lon="-0.21072">
        <ele>1389.4</ele>
        <time>2018-01-12T09:32:54Z</time>
      </trkpt>
      <trkpt lat="42.99763" lon="-0.21075">
        <ele>1389.4</ele>
        <time>2018-01-12T09:32:59Z</time>
      </trkpt>
      <trkpt lat="42.99755" lon="-0.21081">
        <ele>1389.3</ele>
        <time>2018-01-12T09:33:05Z</time>
      </trkpt>
      <trkpt lat="42.99748" lon="-0.21086">
        <ele>1390.2</ele>
        <time>2018-01-12T09:33:10Z</time>
      </trkpt>
      <trkpt lat="42.99747" lon="-0.21087">
        <ele>1390.4</ele>
        <time>2018-01-12T09:33:11Z</time>
      </trkpt>
      <trkpt lat="42.99733" lon="-0.21096">
        <ele>1391.8</ele>
        <time>2018-01-12T09:33:20Z</time>
      </trkpt>
      <trkpt lat="42.99725" lon="-0.21101">
        <ele>1392.9</ele>
        <time>2018-01-12T09:33:26Z</time>
      </trkpt>
      <trkpt lat="42.99717" lon="-0.21106">
        <ele>1394.2</ele>
        <time>2018-01-12T09:33:32Z</time>
      </trkpt>
      <trkpt lat="42.9971" lon="-0.21112">
        <ele>1392.9</ele>
        <time>2018-01-12T09:33:37Z</time>
      </trkpt>
      <trkpt lat="42.99704" lon="-0.21118">
        <ele>1393.1</ele>
        <time>2018-01-12T09:33:41Z</time>
      </trkpt>
      <trkpt lat="42.99698" lon="-0.21125">
        <ele>1394.3</ele>
        <time>2018-01-12T09:33:45Z</time>
      </trkpt>
      <trkpt lat="42.99693" lon="-0.21132">
        <ele>1394.4</ele>
        <time>2018-01-12T09:33:49Z</time>
      </trkpt>
      <trkpt lat="42.99687" lon="-0.2114">
        <ele>1394.7</ele>
        <time>2018-01-12T09:33:53Z</time>
      </trkpt>
      <trkpt lat="42.99682" lon="-0.21148">
        <ele>1395.3</ele>
        <time>2018-01-12T09:33:57Z</time>
      </trkpt>
      <trkpt lat="42.99677" lon="-0.21156">
        <ele>1394.9</ele>
        <time>2018-01-12T09:34:01Z</time>
      </trkpt>
      <trkpt lat="42.99671" lon="-0.21165">
        <ele>1393.9</ele>
        <time>2018-01-12T09:34:07Z</time>
      </trkpt>
      <trkpt lat="42.99665" lon="-0.21172">
        <ele>1393.7</ele>
        <time>2018-01-12T09:34:15Z</time>
      </trkpt>
      <trkpt lat="42.99664" lon="-0.21173">
        <ele>1394</ele>
        <time>2018-01-12T09:34:16Z</time>
      </trkpt>
      <trkpt lat="42.99649" lon="-0.2118">
        <ele>1395.2</ele>
        <time>2018-01-12T09:34:50Z</time>
      </trkpt>
      <trkpt lat="42.99641" lon="-0.21184">
        <ele>1395.3</ele>
        <time>2018-01-12T09:34:56Z</time>
      </trkpt>
      <trkpt lat="42.99632" lon="-0.21186">
        <ele>1395.3</ele>
        <time>2018-01-12T09:35:02Z</time>
      </trkpt>
      <trkpt lat="42.99624" lon="-0.21188">
        <ele>1396</ele>
        <time>2018-01-12T09:35:07Z</time>
      </trkpt>
      <trkpt lat="42.99617" lon="-0.21188">
        <ele>1396.3</ele>
        <time>2018-01-12T09:35:11Z</time>
      </trkpt>
      <trkpt lat="42.99608" lon="-0.21187">
        <ele>1396.6</ele>
        <time>2018-01-12T09:35:16Z</time>
      </trkpt>
      <trkpt lat="42.99606" lon="-0.21187">
        <ele>1397.1</ele>
        <time>2018-01-12T09:35:17Z</time>
      </trkpt>
      <trkpt lat="42.99591" lon="-0.21186">
        <ele>1398.9</ele>
        <time>2018-01-12T09:35:26Z</time>
      </trkpt>
      <trkpt lat="42.99583" lon="-0.21184">
        <ele>1399.3</ele>
        <time>2018-01-12T09:35:31Z</time>
      </trkpt>
      <trkpt lat="42.99575" lon="-0.21182">
        <ele>1401.4</ele>
        <time>2018-01-12T09:35:36Z</time>
      </trkpt>
      <trkpt lat="42.99568" lon="-0.21179">
        <ele>1401.3</ele>
        <time>2018-01-12T09:35:41Z</time>
      </trkpt>
      <trkpt lat="42.99559" lon="-0.21178">
        <ele>1402.3</ele>
        <time>2018-01-12T09:35:46Z</time>
      </trkpt>
      <trkpt lat="42.99551" lon="-0.21176">
        <ele>1401.7</ele>
        <time>2018-01-12T09:35:51Z</time>
      </trkpt>
      <trkpt lat="42.99544" lon="-0.21173">
        <ele>1401.9</ele>
        <time>2018-01-12T09:35:56Z</time>
      </trkpt>
      <trkpt lat="42.99536" lon="-0.2117">
        <ele>1403.5</ele>
        <time>2018-01-12T09:36:01Z</time>
      </trkpt>
      <trkpt lat="42.99527" lon="-0.21166">
        <ele>1403.1</ele>
        <time>2018-01-12T09:36:07Z</time>
      </trkpt>
      <trkpt lat="42.99519" lon="-0.21164">
        <ele>1404.3</ele>
        <time>2018-01-12T09:36:13Z</time>
      </trkpt>
      <trkpt lat="42.99511" lon="-0.21161">
        <ele>1404.7</ele>
        <time>2018-01-12T09:36:19Z</time>
      </trkpt>
      <trkpt lat="42.99509" lon="-0.21161">
        <ele>1405</ele>
        <time>2018-01-12T09:36:20Z</time>
      </trkpt>
      <trkpt lat="42.99495" lon="-0.21155">
        <ele>1407.3</ele>
        <time>2018-01-12T09:36:30Z</time>
      </trkpt>
      <trkpt lat="42.99488" lon="-0.21151">
        <ele>1407.7</ele>
        <time>2018-01-12T09:36:35Z</time>
      </trkpt>
      <trkpt lat="42.99481" lon="-0.21144">
        <ele>1407.9</ele>
        <time>2018-01-12T09:36:41Z</time>
      </trkpt>
      <trkpt lat="42.99474" lon="-0.2114">
        <ele>1409.8</ele>
        <time>2018-01-12T09:36:46Z</time>
      </trkpt>
      <trkpt lat="42.99466" lon="-0.21136">
        <ele>1411.6</ele>
        <time>2018-01-12T09:36:51Z</time>
      </trkpt>
      <trkpt lat="42.99459" lon="-0.21137">
        <ele>1412.3</ele>
        <time>2018-01-12T09:36:56Z</time>
      </trkpt>
      <trkpt lat="42.99451" lon="-0.21137">
        <ele>1412.7</ele>
        <time>2018-01-12T09:37:01Z</time>
      </trkpt>
      <trkpt lat="42.99444" lon="-0.21135">
        <ele>1413.1</ele>
        <time>2018-01-12T09:37:05Z</time>
      </trkpt>
      <trkpt lat="42.99435" lon="-0.21134">
        <ele>1412.5</ele>
        <time>2018-01-12T09:37:10Z</time>
      </trkpt>
      <trkpt lat="42.99426" lon="-0.21131">
        <ele>1413.3</ele>
        <time>2018-01-12T09:37:17Z</time>
      </trkpt>
      <trkpt lat="42.99418" lon="-0.21129">
        <ele>1413.9</ele>
        <time>2018-01-12T09:37:23Z</time>
      </trkpt>
      <trkpt lat="42.99417" lon="-0.21129">
        <ele>1414</ele>
        <time>2018-01-12T09:37:24Z</time>
      </trkpt>
      <trkpt lat="42.99402" lon="-0.21126">
        <ele>1416</ele>
        <time>2018-01-12T09:37:35Z</time>
      </trkpt>
      <trkpt lat="42.99393" lon="-0.21126">
        <ele>1415.7</ele>
        <time>2018-01-12T09:37:41Z</time>
      </trkpt>
      <trkpt lat="42.99385" lon="-0.21123">
        <ele>1415.3</ele>
        <time>2018-01-12T09:37:47Z</time>
      </trkpt>
      <trkpt lat="42.99377" lon="-0.21121">
        <ele>1416.8</ele>
        <time>2018-01-12T09:37:52Z</time>
      </trkpt>
      <trkpt lat="42.9937" lon="-0.21118">
        <ele>1417.3</ele>
        <time>2018-01-12T09:37:57Z</time>
      </trkpt>
      <trkpt lat="42.99363" lon="-0.21113">
        <ele>1418</ele>
        <time>2018-01-12T09:38:02Z</time>
      </trkpt>
      <trkpt lat="42.99356" lon="-0.21108">
        <ele>1419.1</ele>
        <time>2018-01-12T09:38:08Z</time>
      </trkpt>
      <trkpt lat="42.99348" lon="-0.21105">
        <ele>1420.6</ele>
        <time>2018-01-12T09:38:14Z</time>
      </trkpt>
      <trkpt lat="42.9934" lon="-0.21101">
        <ele>1421.5</ele>
        <time>2018-01-12T09:38:20Z</time>
      </trkpt>
      <trkpt lat="42.99332" lon="-0.21097">
        <ele>1422.5</ele>
        <time>2018-01-12T09:38:26Z</time>
      </trkpt>
      <trkpt lat="42.9933" lon="-0.21097">
        <ele>1422.9</ele>
        <time>2018-01-12T09:38:27Z</time>
      </trkpt>
      <trkpt lat="42.99315" lon="-0.21091">
        <ele>1424.7</ele>
        <time>2018-01-12T09:38:38Z</time>
      </trkpt>
      <trkpt lat="42.99307" lon="-0.21088">
        <ele>1425</ele>
        <time>2018-01-12T09:38:44Z</time>
      </trkpt>
      <trkpt lat="42.99299" lon="-0.21085">
        <ele>1426.4</ele>
        <time>2018-01-12T09:38:50Z</time>
      </trkpt>
      <trkpt lat="42.99291" lon="-0.21082">
        <ele>1427</ele>
        <time>2018-01-12T09:38:56Z</time>
      </trkpt>
      <trkpt lat="42.99283" lon="-0.21078">
        <ele>1428.1</ele>
        <time>2018-01-12T09:39:02Z</time>
      </trkpt>
      <trkpt lat="42.99275" lon="-0.21074">
        <ele>1429.6</ele>
        <time>2018-01-12T09:39:08Z</time>
      </trkpt>
      <trkpt lat="42.99267" lon="-0.21071">
        <ele>1430</ele>
        <time>2018-01-12T09:39:14Z</time>
      </trkpt>
      <trkpt lat="42.99259" lon="-0.2107">
        <ele>1430.5</ele>
        <time>2018-01-12T09:39:20Z</time>
      </trkpt>
      <trkpt lat="42.99252" lon="-0.21066">
        <ele>1431.9</ele>
        <time>2018-01-12T09:39:26Z</time>
      </trkpt>
      <trkpt lat="42.99244" lon="-0.21062">
        <ele>1433.6</ele>
        <time>2018-01-12T09:39:33Z</time>
      </trkpt>
      <trkpt lat="42.99242" lon="-0.21062">
        <ele>1434.4</ele>
        <time>2018-01-12T09:39:34Z</time>
      </trkpt>
      <trkpt lat="42.99227" lon="-0.21057">
        <ele>1436.6</ele>
        <time>2018-01-12T09:39:47Z</time>
      </trkpt>
      <trkpt lat="42.99218" lon="-0.21055">
        <ele>1436.2</ele>
        <time>2018-01-12T09:39:53Z</time>
      </trkpt>
      <trkpt lat="42.99209" lon="-0.21056">
        <ele>1437.1</ele>
        <time>2018-01-12T09:40:00Z</time>
      </trkpt>
      <trkpt lat="42.99202" lon="-0.21057">
        <ele>1438.2</ele>
        <time>2018-01-12T09:40:05Z</time>
      </trkpt>
      <trkpt lat="42.99194" lon="-0.21058">
        <ele>1437.7</ele>
        <time>2018-01-12T09:40:11Z</time>
      </trkpt>
      <trkpt lat="42.99186" lon="-0.21062">
        <ele>1439.2</ele>
        <time>2018-01-12T09:40:17Z</time>
      </trkpt>
      <trkpt lat="42.99179" lon="-0.21065">
        <ele>1438.6</ele>
        <time>2018-01-12T09:40:23Z</time>
      </trkpt>
      <trkpt lat="42.99171" lon="-0.2107">
        <ele>1439.1</ele>
        <time>2018-01-12T09:40:30Z</time>
      </trkpt>
      <trkpt lat="42.99164" lon="-0.21074">
        <ele>1439.9</ele>
        <time>2018-01-12T09:40:36Z</time>
      </trkpt>
      <trkpt lat="42.99162" lon="-0.21075">
        <ele>1440.2</ele>
        <time>2018-01-12T09:40:37Z</time>
      </trkpt>
      <trkpt lat="42.99147" lon="-0.21082">
        <ele>1441</ele>
        <time>2018-01-12T09:40:46Z</time>
      </trkpt>
      <trkpt lat="42.99139" lon="-0.21084">
        <ele>1442.3</ele>
        <time>2018-01-12T09:40:50Z</time>
      </trkpt>
      <trkpt lat="42.99132" lon="-0.21087">
        <ele>1441.7</ele>
        <time>2018-01-12T09:40:55Z</time>
      </trkpt>
      <trkpt lat="42.99125" lon="-0.21094">
        <ele>1442.7</ele>
        <time>2018-01-12T09:41:01Z</time>
      </trkpt>
      <trkpt lat="42.99118" lon="-0.211">
        <ele>1442.7</ele>
        <time>2018-01-12T09:41:07Z</time>
      </trkpt>
      <trkpt lat="42.99111" lon="-0.21104">
        <ele>1442.6</ele>
        <time>2018-01-12T09:41:13Z</time>
      </trkpt>
      <trkpt lat="42.99103" lon="-0.21107">
        <ele>1443.4</ele>
        <time>2018-01-12T09:41:19Z</time>
      </trkpt>
      <trkpt lat="42.99102" lon="-0.21119">
        <ele>1444.3</ele>
        <time>2018-01-12T09:42:36Z</time>
      </trkpt>
      <trkpt lat="42.99102" lon="-0.21119">
        <ele>1444.2</ele>
        <time>2018-01-12T09:42:37Z</time>
      </trkpt>
      <trkpt lat="42.99095" lon="-0.21138">
        <ele>1443.9</ele>
        <time>2018-01-12T09:42:52Z</time>
      </trkpt>
      <trkpt lat="42.99091" lon="-0.21147">
        <ele>1445.4</ele>
        <time>2018-01-12T09:42:59Z</time>
      </trkpt>
      <trkpt lat="42.99086" lon="-0.21157">
        <ele>1446.4</ele>
        <time>2018-01-12T09:43:06Z</time>
      </trkpt>
      <trkpt lat="42.99083" lon="-0.21166">
        <ele>1447.2</ele>
        <time>2018-01-12T09:43:12Z</time>
      </trkpt>
      <trkpt lat="42.9908" lon="-0.21177">
        <ele>1448.3</ele>
        <time>2018-01-12T09:43:18Z</time>
      </trkpt>
      <trkpt lat="42.99078" lon="-0.21188">
        <ele>1448.3</ele>
        <time>2018-01-12T09:43:23Z</time>
      </trkpt>
      <trkpt lat="42.99074" lon="-0.21197">
        <ele>1447.9</ele>
        <time>2018-01-12T09:43:28Z</time>
      </trkpt>
      <trkpt lat="42.99069" lon="-0.21208">
        <ele>1448.2</ele>
        <time>2018-01-12T09:43:34Z</time>
      </trkpt>
      <trkpt lat="42.99065" lon="-0.21216">
        <ele>1448.7</ele>
        <time>2018-01-12T09:43:39Z</time>
      </trkpt>
      <trkpt lat="42.99064" lon="-0.21218">
        <ele>1449</ele>
        <time>2018-01-12T09:43:40Z</time>
      </trkpt>
      <trkpt lat="42.99057" lon="-0.21236">
        <ele>1450.1</ele>
        <time>2018-01-12T09:43:49Z</time>
      </trkpt>
      <trkpt lat="42.99052" lon="-0.21243">
        <ele>1450.5</ele>
        <time>2018-01-12T09:43:54Z</time>
      </trkpt>
      <trkpt lat="42.99046" lon="-0.21251">
        <ele>1450.9</ele>
        <time>2018-01-12T09:43:59Z</time>
      </trkpt>
      <trkpt lat="42.99039" lon="-0.21257">
        <ele>1451.3</ele>
        <time>2018-01-12T09:44:04Z</time>
      </trkpt>
      <trkpt lat="42.99033" lon="-0.21265">
        <ele>1452.4</ele>
        <time>2018-01-12T09:44:09Z</time>
      </trkpt>
      <trkpt lat="42.99027" lon="-0.21273">
        <ele>1452.9</ele>
        <time>2018-01-12T09:44:14Z</time>
      </trkpt>
      <trkpt lat="42.99022" lon="-0.2128">
        <ele>1453.1</ele>
        <time>2018-01-12T09:44:19Z</time>
      </trkpt>
      <trkpt lat="42.99018" lon="-0.2129">
        <ele>1453.9</ele>
        <time>2018-01-12T09:44:24Z</time>
      </trkpt>
      <trkpt lat="42.99015" lon="-0.21302">
        <ele>1454.7</ele>
        <time>2018-01-12T09:44:30Z</time>
      </trkpt>
      <trkpt lat="42.99012" lon="-0.21313">
        <ele>1455.5</ele>
        <time>2018-01-12T09:44:36Z</time>
      </trkpt>
      <trkpt lat="42.99009" lon="-0.21323">
        <ele>1456.1</ele>
        <time>2018-01-12T09:44:41Z</time>
      </trkpt>
      <trkpt lat="42.99005" lon="-0.21332">
        <ele>1455.7</ele>
        <time>2018-01-12T09:44:46Z</time>
      </trkpt>
      <trkpt lat="42.99004" lon="-0.21334">
        <ele>1456.2</ele>
        <time>2018-01-12T09:44:47Z</time>
      </trkpt>
      <trkpt lat="42.98996" lon="-0.21349">
        <ele>1458.6</ele>
        <time>2018-01-12T09:44:56Z</time>
      </trkpt>
      <trkpt lat="42.9899" lon="-0.21356">
        <ele>1458.6</ele>
        <time>2018-01-12T09:45:01Z</time>
      </trkpt>
      <trkpt lat="42.98983" lon="-0.2136">
        <ele>1459.4</ele>
        <time>2018-01-12T09:45:06Z</time>
      </trkpt>
      <trkpt lat="42.98975" lon="-0.21364">
        <ele>1459.8</ele>
        <time>2018-01-12T09:45:11Z</time>
      </trkpt>
      <trkpt lat="42.98968" lon="-0.21369">
        <ele>1462.4</ele>
        <time>2018-01-12T09:45:17Z</time>
      </trkpt>
      <trkpt lat="42.98961" lon="-0.21371">
        <ele>1462.2</ele>
        <time>2018-01-12T09:45:22Z</time>
      </trkpt>
      <trkpt lat="42.98953" lon="-0.21375">
        <ele>1463</ele>
        <time>2018-01-12T09:45:27Z</time>
      </trkpt>
      <trkpt lat="42.98946" lon="-0.21381">
        <ele>1463.3</ele>
        <time>2018-01-12T09:45:32Z</time>
      </trkpt>
      <trkpt lat="42.9894" lon="-0.2139">
        <ele>1464.6</ele>
        <time>2018-01-12T09:45:38Z</time>
      </trkpt>
      <trkpt lat="42.98936" lon="-0.214">
        <ele>1464.6</ele>
        <time>2018-01-12T09:45:44Z</time>
      </trkpt>
      <trkpt lat="42.98932" lon="-0.2141">
        <ele>1463.8</ele>
        <time>2018-01-12T09:45:50Z</time>
      </trkpt>
      <trkpt lat="42.98932" lon="-0.21412">
        <ele>1464.5</ele>
        <time>2018-01-12T09:45:51Z</time>
      </trkpt>
      <trkpt lat="42.98927" lon="-0.2143">
        <ele>1468</ele>
        <time>2018-01-12T09:46:01Z</time>
      </trkpt>
      <trkpt lat="42.98924" lon="-0.21441">
        <ele>1468.2</ele>
        <time>2018-01-12T09:46:07Z</time>
      </trkpt>
      <trkpt lat="42.9892" lon="-0.21451">
        <ele>1468.4</ele>
        <time>2018-01-12T09:46:12Z</time>
      </trkpt>
      <trkpt lat="42.98916" lon="-0.21461">
        <ele>1468.7</ele>
        <time>2018-01-12T09:46:18Z</time>
      </trkpt>
      <trkpt lat="42.98912" lon="-0.21471">
        <ele>1469.1</ele>
        <time>2018-01-12T09:46:24Z</time>
      </trkpt>
      <trkpt lat="42.98907" lon="-0.21482">
        <ele>1468.7</ele>
        <time>2018-01-12T09:46:30Z</time>
      </trkpt>
      <trkpt lat="42.98903" lon="-0.2149">
        <ele>1469.4</ele>
        <time>2018-01-12T09:46:35Z</time>
      </trkpt>
      <trkpt lat="42.98898" lon="-0.21499">
        <ele>1469.2</ele>
        <time>2018-01-12T09:46:40Z</time>
      </trkpt>
      <trkpt lat="42.98894" lon="-0.21509">
        <ele>1469.8</ele>
        <time>2018-01-12T09:46:45Z</time>
      </trkpt>
      <trkpt lat="42.9889" lon="-0.21519">
        <ele>1470.6</ele>
        <time>2018-01-12T09:46:50Z</time>
      </trkpt>
      <trkpt lat="42.98887" lon="-0.21531">
        <ele>1470.8</ele>
        <time>2018-01-12T09:46:56Z</time>
      </trkpt>
      <trkpt lat="42.98886" lon="-0.21532">
        <ele>1470.8</ele>
        <time>2018-01-12T09:46:57Z</time>
      </trkpt>
      <trkpt lat="42.98878" lon="-0.21548">
        <ele>1472.4</ele>
        <time>2018-01-12T09:47:08Z</time>
      </trkpt>
      <trkpt lat="42.9887" lon="-0.21554">
        <ele>1473.6</ele>
        <time>2018-01-12T09:47:14Z</time>
      </trkpt>
      <trkpt lat="42.98863" lon="-0.2156">
        <ele>1473.7</ele>
        <time>2018-01-12T09:47:19Z</time>
      </trkpt>
      <trkpt lat="42.98856" lon="-0.21565">
        <ele>1474.5</ele>
        <time>2018-01-12T09:47:24Z</time>
      </trkpt>
      <trkpt lat="42.98848" lon="-0.21569">
        <ele>1473.7</ele>
        <time>2018-01-12T09:47:29Z</time>
      </trkpt>
      <trkpt lat="42.98842" lon="-0.21575">
        <ele>1475.8</ele>
        <time>2018-01-12T09:47:34Z</time>
      </trkpt>
      <trkpt lat="42.98837" lon="-0.21584">
        <ele>1477.1</ele>
        <time>2018-01-12T09:47:39Z</time>
      </trkpt>
      <trkpt lat="42.98831" lon="-0.2159">
        <ele>1477.6</ele>
        <time>2018-01-12T09:47:45Z</time>
      </trkpt>
      <trkpt lat="42.98825" lon="-0.21596">
        <ele>1478.8</ele>
        <time>2018-01-12T09:47:50Z</time>
      </trkpt>
      <trkpt lat="42.98819" lon="-0.21603">
        <ele>1478.8</ele>
        <time>2018-01-12T09:47:55Z</time>
      </trkpt>
      <trkpt lat="42.98812" lon="-0.21608">
        <ele>1479.1</ele>
        <time>2018-01-12T09:48:00Z</time>
      </trkpt>
      <trkpt lat="42.9881" lon="-0.21609">
        <ele>1479</ele>
        <time>2018-01-12T09:48:01Z</time>
      </trkpt>
      <trkpt lat="42.98798" lon="-0.21616">
        <ele>1480.4</ele>
        <time>2018-01-12T09:48:08Z</time>
      </trkpt>
      <trkpt lat="42.98791" lon="-0.21619">
        <ele>1482.3</ele>
        <time>2018-01-12T09:48:12Z</time>
      </trkpt>
      <trkpt lat="42.98783" lon="-0.21619">
        <ele>1481.7</ele>
        <time>2018-01-12T09:48:16Z</time>
      </trkpt>
      <trkpt lat="42.98776" lon="-0.21624">
        <ele>1481.7</ele>
        <time>2018-01-12T09:48:21Z</time>
      </trkpt>
      <trkpt lat="42.98768" lon="-0.21627">
        <ele>1482.6</ele>
        <time>2018-01-12T09:48:26Z</time>
      </trkpt>
      <trkpt lat="42.98761" lon="-0.21629">
        <ele>1482.6</ele>
        <time>2018-01-12T09:48:30Z</time>
      </trkpt>
      <trkpt lat="42.98752" lon="-0.21631">
        <ele>1483.2</ele>
        <time>2018-01-12T09:48:36Z</time>
      </trkpt>
      <trkpt lat="42.98744" lon="-0.21633">
        <ele>1482.7</ele>
        <time>2018-01-12T09:48:42Z</time>
      </trkpt>
      <trkpt lat="42.98736" lon="-0.21636">
        <ele>1483.8</ele>
        <time>2018-01-12T09:48:48Z</time>
      </trkpt>
      <trkpt lat="42.98728" lon="-0.21635">
        <ele>1484</ele>
        <time>2018-01-12T09:48:53Z</time>
      </trkpt>
      <trkpt lat="42.98719" lon="-0.21634">
        <ele>1483.6</ele>
        <time>2018-01-12T09:48:59Z</time>
      </trkpt>
      <trkpt lat="42.98712" lon="-0.21632">
        <ele>1484.8</ele>
        <time>2018-01-12T09:49:03Z</time>
      </trkpt>
      <trkpt lat="42.9871" lon="-0.21632">
        <ele>1485</ele>
        <time>2018-01-12T09:49:04Z</time>
      </trkpt>
      <trkpt lat="42.98697" lon="-0.21629">
        <ele>1486.1</ele>
        <time>2018-01-12T09:49:12Z</time>
      </trkpt>
      <trkpt lat="42.98689" lon="-0.21626">
        <ele>1486.1</ele>
        <time>2018-01-12T09:49:15Z</time>
      </trkpt>
      <trkpt lat="42.98681" lon="-0.21624">
        <ele>1486.2</ele>
        <time>2018-01-12T09:49:17Z</time>
      </trkpt>
      <trkpt lat="42.98674" lon="-0.21625">
        <ele>1484.9</ele>
        <time>2018-01-12T09:49:19Z</time>
      </trkpt>
      <trkpt lat="42.98666" lon="-0.21627">
        <ele>1484.2</ele>
        <time>2018-01-12T09:49:22Z</time>
      </trkpt>
      <trkpt lat="42.98658" lon="-0.2163">
        <ele>1483.7</ele>
        <time>2018-01-12T09:49:27Z</time>
      </trkpt>
      <trkpt lat="42.98651" lon="-0.21632">
        <ele>1483.3</ele>
        <time>2018-01-12T09:49:31Z</time>
      </trkpt>
      <trkpt lat="42.98643" lon="-0.21636">
        <ele>1483.4</ele>
        <time>2018-01-12T09:49:36Z</time>
      </trkpt>
      <trkpt lat="42.98635" lon="-0.21639">
        <ele>1483.2</ele>
        <time>2018-01-12T09:49:41Z</time>
      </trkpt>
      <trkpt lat="42.98639" lon="-0.2165">
        <ele>1487.8</ele>
        <time>2018-01-12T09:50:04Z</time>
      </trkpt>
      <trkpt lat="42.98648" lon="-0.21648">
        <ele>1487.9</ele>
        <time>2018-01-12T09:50:11Z</time>
      </trkpt>
      <trkpt lat="42.98649" lon="-0.21648">
        <ele>1488.2</ele>
        <time>2018-01-12T09:50:12Z</time>
      </trkpt>
      <trkpt lat="42.98663" lon="-0.21647">
        <ele>1489.2</ele>
        <time>2018-01-12T09:50:21Z</time>
      </trkpt>
      <trkpt lat="42.98672" lon="-0.21647">
        <ele>1488.6</ele>
        <time>2018-01-12T09:50:26Z</time>
      </trkpt>
      <trkpt lat="42.9868" lon="-0.21647">
        <ele>1489.2</ele>
        <time>2018-01-12T09:50:31Z</time>
      </trkpt>
      <trkpt lat="42.98689" lon="-0.21647">
        <ele>1490</ele>
        <time>2018-01-12T09:50:36Z</time>
      </trkpt>
      <trkpt lat="42.98697" lon="-0.21649">
        <ele>1490.6</ele>
        <time>2018-01-12T09:50:41Z</time>
      </trkpt>
      <trkpt lat="42.98704" lon="-0.21651">
        <ele>1491.3</ele>
        <time>2018-01-12T09:50:46Z</time>
      </trkpt>
      <trkpt lat="42.98712" lon="-0.21654">
        <ele>1492.5</ele>
        <time>2018-01-12T09:50:52Z</time>
      </trkpt>
      <trkpt lat="42.98719" lon="-0.21656">
        <ele>1493.3</ele>
        <time>2018-01-12T09:50:57Z</time>
      </trkpt>
      <trkpt lat="42.98727" lon="-0.21659">
        <ele>1493.3</ele>
        <time>2018-01-12T09:51:02Z</time>
      </trkpt>
      <trkpt lat="42.98735" lon="-0.21662">
        <ele>1493.5</ele>
        <time>2018-01-12T09:51:08Z</time>
      </trkpt>
      <trkpt lat="42.98742" lon="-0.21665">
        <ele>1494.7</ele>
        <time>2018-01-12T09:51:14Z</time>
      </trkpt>
      <trkpt lat="42.98744" lon="-0.21665">
        <ele>1494.9</ele>
        <time>2018-01-12T09:51:15Z</time>
      </trkpt>
      <trkpt lat="42.98758" lon="-0.21668">
        <ele>1497</ele>
        <time>2018-01-12T09:51:29Z</time>
      </trkpt>
      <trkpt lat="42.98767" lon="-0.21667">
        <ele>1497.2</ele>
        <time>2018-01-12T09:51:35Z</time>
      </trkpt>
      <trkpt lat="42.98776" lon="-0.21665">
        <ele>1497.7</ele>
        <time>2018-01-12T09:51:40Z</time>
      </trkpt>
      <trkpt lat="42.98784" lon="-0.21664">
        <ele>1498</ele>
        <time>2018-01-12T09:51:45Z</time>
      </trkpt>
      <trkpt lat="42.98792" lon="-0.2166">
        <ele>1499.1</ele>
        <time>2018-01-12T09:51:51Z</time>
      </trkpt>
      <trkpt lat="42.988" lon="-0.21657">
        <ele>1499.6</ele>
        <time>2018-01-12T09:51:56Z</time>
      </trkpt>
      <trkpt lat="42.98807" lon="-0.21655">
        <ele>1500.1</ele>
        <time>2018-01-12T09:52:01Z</time>
      </trkpt>
      <trkpt lat="42.98816" lon="-0.21653">
        <ele>1500.4</ele>
        <time>2018-01-12T09:52:06Z</time>
      </trkpt>
      <trkpt lat="42.98824" lon="-0.21651">
        <ele>1501.7</ele>
        <time>2018-01-12T09:52:12Z</time>
      </trkpt>
      <trkpt lat="42.98832" lon="-0.2165">
        <ele>1502.8</ele>
        <time>2018-01-12T09:52:17Z</time>
      </trkpt>
      <trkpt lat="42.98834" lon="-0.2165">
        <ele>1502.9</ele>
        <time>2018-01-12T09:52:18Z</time>
      </trkpt>
      <trkpt lat="42.98847" lon="-0.21652">
        <ele>1503.8</ele>
        <time>2018-01-12T09:52:25Z</time>
      </trkpt>
      <trkpt lat="42.98855" lon="-0.21654">
        <ele>1502.8</ele>
        <time>2018-01-12T09:52:29Z</time>
      </trkpt>
      <trkpt lat="42.98862" lon="-0.21659">
        <ele>1503</ele>
        <time>2018-01-12T09:52:33Z</time>
      </trkpt>
      <trkpt lat="42.98868" lon="-0.21667">
        <ele>1503.3</ele>
        <time>2018-01-12T09:52:37Z</time>
      </trkpt>
      <trkpt lat="42.98873" lon="-0.21674">
        <ele>1503.2</ele>
        <time>2018-01-12T09:52:41Z</time>
      </trkpt>
      <trkpt lat="42.98878" lon="-0.21684">
        <ele>1503.6</ele>
        <time>2018-01-12T09:52:47Z</time>
      </trkpt>
      <trkpt lat="42.98882" lon="-0.21693">
        <ele>1504.1</ele>
        <time>2018-01-12T09:52:53Z</time>
      </trkpt>
      <trkpt lat="42.98885" lon="-0.21703">
        <ele>1504.8</ele>
        <time>2018-01-12T09:52:59Z</time>
      </trkpt>
      <trkpt lat="42.98888" lon="-0.21713">
        <ele>1505.3</ele>
        <time>2018-01-12T09:53:04Z</time>
      </trkpt>
      <trkpt lat="42.98889" lon="-0.21724">
        <ele>1506.1</ele>
        <time>2018-01-12T09:53:09Z</time>
      </trkpt>
      <trkpt lat="42.9889" lon="-0.21735">
        <ele>1505.8</ele>
        <time>2018-01-12T09:53:14Z</time>
      </trkpt>
      <trkpt lat="42.9889" lon="-0.21745">
        <ele>1506.5</ele>
        <time>2018-01-12T09:53:19Z</time>
      </trkpt>
      <trkpt lat="42.9889" lon="-0.21748">
        <ele>1506.9</ele>
        <time>2018-01-12T09:53:20Z</time>
      </trkpt>
      <trkpt lat="42.9889" lon="-0.21769">
        <ele>1508</ele>
        <time>2018-01-12T09:53:29Z</time>
      </trkpt>
      <trkpt lat="42.9889" lon="-0.2178">
        <ele>1508.6</ele>
        <time>2018-01-12T09:53:34Z</time>
      </trkpt>
      <trkpt lat="42.9889" lon="-0.21791">
        <ele>1508.7</ele>
        <time>2018-01-12T09:53:39Z</time>
      </trkpt>
      <trkpt lat="42.9889" lon="-0.21802">
        <ele>1510.3</ele>
        <time>2018-01-12T09:53:44Z</time>
      </trkpt>
      <trkpt lat="42.9889" lon="-0.21812">
        <ele>1510.1</ele>
        <time>2018-01-12T09:53:48Z</time>
      </trkpt>
      <trkpt lat="42.98893" lon="-0.21821">
        <ele>1511.3</ele>
        <time>2018-01-12T09:53:53Z</time>
      </trkpt>
      <trkpt lat="42.98894" lon="-0.21831">
        <ele>1511.2</ele>
        <time>2018-01-12T09:53:58Z</time>
      </trkpt>
      <trkpt lat="42.98895" lon="-0.21841">
        <ele>1511.3</ele>
        <time>2018-01-12T09:54:02Z</time>
      </trkpt>
      <trkpt lat="42.98894" lon="-0.21852">
        <ele>1511.7</ele>
        <time>2018-01-12T09:54:07Z</time>
      </trkpt>
      <trkpt lat="42.98892" lon="-0.21864">
        <ele>1511.6</ele>
        <time>2018-01-12T09:54:13Z</time>
      </trkpt>
      <trkpt lat="42.98889" lon="-0.21875">
        <ele>1513.7</ele>
        <time>2018-01-12T09:54:19Z</time>
      </trkpt>
      <trkpt lat="42.98885" lon="-0.21885">
        <ele>1514.5</ele>
        <time>2018-01-12T09:54:25Z</time>
      </trkpt>
      <trkpt lat="42.98885" lon="-0.21887">
        <ele>1514.4</ele>
        <time>2018-01-12T09:54:26Z</time>
      </trkpt>
      <trkpt lat="42.98881" lon="-0.21907">
        <ele>1515</ele>
        <time>2018-01-12T09:54:36Z</time>
      </trkpt>
      <trkpt lat="42.98879" lon="-0.21919">
        <ele>1515.2</ele>
        <time>2018-01-12T09:54:41Z</time>
      </trkpt>
      <trkpt lat="42.98877" lon="-0.21929">
        <ele>1516</ele>
        <time>2018-01-12T09:54:46Z</time>
      </trkpt>
      <trkpt lat="42.98875" lon="-0.2194">
        <ele>1516.7</ele>
        <time>2018-01-12T09:54:51Z</time>
      </trkpt>
      <trkpt lat="42.98873" lon="-0.21951">
        <ele>1515.6</ele>
        <time>2018-01-12T09:54:56Z</time>
      </trkpt>
      <trkpt lat="42.98871" lon="-0.21961">
        <ele>1517.4</ele>
        <time>2018-01-12T09:55:01Z</time>
      </trkpt>
      <trkpt lat="42.98869" lon="-0.21972">
        <ele>1518.4</ele>
        <time>2018-01-12T09:55:06Z</time>
      </trkpt>
      <trkpt lat="42.98867" lon="-0.21983">
        <ele>1518.6</ele>
        <time>2018-01-12T09:55:11Z</time>
      </trkpt>
      <trkpt lat="42.98864" lon="-0.21993">
        <ele>1519.6</ele>
        <time>2018-01-12T09:55:15Z</time>
      </trkpt>
      <trkpt lat="42.98862" lon="-0.22004">
        <ele>1519.7</ele>
        <time>2018-01-12T09:55:20Z</time>
      </trkpt>
      <trkpt lat="42.98861" lon="-0.22016">
        <ele>1521.2</ele>
        <time>2018-01-12T09:55:25Z</time>
      </trkpt>
      <trkpt lat="42.98861" lon="-0.22028">
        <ele>1521.6</ele>
        <time>2018-01-12T09:55:30Z</time>
      </trkpt>
      <trkpt lat="42.98861" lon="-0.2203">
        <ele>1521.5</ele>
        <time>2018-01-12T09:55:31Z</time>
      </trkpt>
      <trkpt lat="42.98861" lon="-0.2205">
        <ele>1520.4</ele>
        <time>2018-01-12T09:55:39Z</time>
      </trkpt>
      <trkpt lat="42.98861" lon="-0.22062">
        <ele>1520.1</ele>
        <time>2018-01-12T09:55:44Z</time>
      </trkpt>
      <trkpt lat="42.98861" lon="-0.22074">
        <ele>1520</ele>
        <time>2018-01-12T09:55:48Z</time>
      </trkpt>
      <trkpt lat="42.98861" lon="-0.22083">
        <ele>1520.1</ele>
        <time>2018-01-12T09:55:51Z</time>
      </trkpt>
      <trkpt lat="42.9886" lon="-0.22093">
        <ele>1520.2</ele>
        <time>2018-01-12T09:55:54Z</time>
      </trkpt>
      <trkpt lat="42.98862" lon="-0.22105">
        <ele>1520.5</ele>
        <time>2018-01-12T09:55:59Z</time>
      </trkpt>
      <trkpt lat="42.98863" lon="-0.22116">
        <ele>1519.1</ele>
        <time>2018-01-12T09:56:04Z</time>
      </trkpt>
      <trkpt lat="42.98868" lon="-0.22124">
        <ele>1519.2</ele>
        <time>2018-01-12T09:56:09Z</time>
      </trkpt>
      <trkpt lat="42.98872" lon="-0.22134">
        <ele>1519.2</ele>
        <time>2018-01-12T09:56:13Z</time>
      </trkpt>
      <trkpt lat="42.98874" lon="-0.22144">
        <ele>1520.7</ele>
        <time>2018-01-12T09:56:18Z</time>
      </trkpt>
      <trkpt lat="42.98876" lon="-0.22155">
        <ele>1519.8</ele>
        <time>2018-01-12T09:56:22Z</time>
      </trkpt>
      <trkpt lat="42.9888" lon="-0.22166">
        <ele>1519.8</ele>
        <time>2018-01-12T09:56:27Z</time>
      </trkpt>
      <trkpt lat="42.98888" lon="-0.2217">
        <ele>1520.3</ele>
        <time>2018-01-12T09:56:34Z</time>
      </trkpt>
      <trkpt lat="42.98889" lon="-0.22169">
        <ele>1520.3</ele>
        <time>2018-01-12T09:56:35Z</time>
      </trkpt>
      <trkpt lat="42.98902" lon="-0.22172">
        <ele>1520.2</ele>
        <time>2018-01-12T09:56:40Z</time>
      </trkpt>
      <trkpt lat="42.98909" lon="-0.22174">
        <ele>1520.3</ele>
        <time>2018-01-12T09:56:43Z</time>
      </trkpt>
      <trkpt lat="42.98918" lon="-0.22177">
        <ele>1519.8</ele>
        <time>2018-01-12T09:56:47Z</time>
      </trkpt>
      <trkpt lat="42.98926" lon="-0.22182">
        <ele>1519.7</ele>
        <time>2018-01-12T09:56:52Z</time>
      </trkpt>
      <trkpt lat="42.98933" lon="-0.22186">
        <ele>1520.4</ele>
        <time>2018-01-12T09:56:56Z</time>
      </trkpt>
      <trkpt lat="42.98939" lon="-0.22192">
        <ele>1520.5</ele>
        <time>2018-01-12T09:57:00Z</time>
      </trkpt>
      <trkpt lat="42.98945" lon="-0.22199">
        <ele>1520.4</ele>
        <time>2018-01-12T09:57:04Z</time>
      </trkpt>
      <trkpt lat="42.98952" lon="-0.22206">
        <ele>1521.3</ele>
        <time>2018-01-12T09:57:09Z</time>
      </trkpt>
      <trkpt lat="42.98958" lon="-0.22212">
        <ele>1520.7</ele>
        <time>2018-01-12T09:57:13Z</time>
      </trkpt>
      <trkpt lat="42.98964" lon="-0.22221">
        <ele>1520.8</ele>
        <time>2018-01-12T09:57:18Z</time>
      </trkpt>
      <trkpt lat="42.9897" lon="-0.22229">
        <ele>1520.5</ele>
        <time>2018-01-12T09:57:22Z</time>
      </trkpt>
      <trkpt lat="42.98975" lon="-0.22235">
        <ele>1521.6</ele>
        <time>2018-01-12T09:57:25Z</time>
      </trkpt>
      <trkpt lat="42.98981" lon="-0.22243">
        <ele>1521.5</ele>
        <time>2018-01-12T09:57:29Z</time>
      </trkpt>
      <trkpt lat="42.98986" lon="-0.2225">
        <ele>1519.9</ele>
        <time>2018-01-12T09:57:33Z</time>
      </trkpt>
      <trkpt lat="42.98994" lon="-0.22255">
        <ele>1520.6</ele>
        <time>2018-01-12T09:57:37Z</time>
      </trkpt>
      <trkpt lat="42.98995" lon="-0.22257">
        <ele>1520.9</ele>
        <time>2018-01-12T09:57:38Z</time>
      </trkpt>
      <trkpt lat="42.99006" lon="-0.22268">
        <ele>1521.6</ele>
        <time>2018-01-12T09:57:45Z</time>
      </trkpt>
      <trkpt lat="42.99013" lon="-0.22275">
        <ele>1521.1</ele>
        <time>2018-01-12T09:57:49Z</time>
      </trkpt>
      <trkpt lat="42.99019" lon="-0.22281">
        <ele>1520.9</ele>
        <time>2018-01-12T09:57:53Z</time>
      </trkpt>
      <trkpt lat="42.99025" lon="-0.22289">
        <ele>1520.5</ele>
        <time>2018-01-12T09:57:57Z</time>
      </trkpt>
      <trkpt lat="42.99031" lon="-0.22296">
        <ele>1521.2</ele>
        <time>2018-01-12T09:58:01Z</time>
      </trkpt>
      <trkpt lat="42.99035" lon="-0.22304">
        <ele>1520.8</ele>
        <time>2018-01-12T09:58:05Z</time>
      </trkpt>
      <trkpt lat="42.99041" lon="-0.22312">
        <ele>1520.9</ele>
        <time>2018-01-12T09:58:09Z</time>
      </trkpt>
      <trkpt lat="42.99047" lon="-0.22321">
        <ele>1521.6</ele>
        <time>2018-01-12T09:58:14Z</time>
      </trkpt>
      <trkpt lat="42.99051" lon="-0.22329">
        <ele>1522.4</ele>
        <time>2018-01-12T09:58:18Z</time>
      </trkpt>
      <trkpt lat="42.99056" lon="-0.22339">
        <ele>1521.7</ele>
        <time>2018-01-12T09:58:23Z</time>
      </trkpt>
      <trkpt lat="42.99057" lon="-0.22349">
        <ele>1521.1</ele>
        <time>2018-01-12T09:58:27Z</time>
      </trkpt>
      <trkpt lat="42.99061" lon="-0.22359">
        <ele>1521.2</ele>
        <time>2018-01-12T09:58:31Z</time>
      </trkpt>
      <trkpt lat="42.99064" lon="-0.22369">
        <ele>1521.3</ele>
        <time>2018-01-12T09:58:35Z</time>
      </trkpt>
      <trkpt lat="42.99067" lon="-0.2238">
        <ele>1521.7</ele>
        <time>2018-01-12T09:58:39Z</time>
      </trkpt>
      <trkpt lat="42.99068" lon="-0.22384">
        <ele>1521.7</ele>
        <time>2018-01-12T09:58:40Z</time>
      </trkpt>
      <trkpt lat="42.99072" lon="-0.224">
        <ele>1522</ele>
        <time>2018-01-12T09:58:46Z</time>
      </trkpt>
      <trkpt lat="42.99077" lon="-0.2241">
        <ele>1521.6</ele>
        <time>2018-01-12T09:58:50Z</time>
      </trkpt>
      <trkpt lat="42.99081" lon="-0.22421">
        <ele>1521.1</ele>
        <time>2018-01-12T09:58:53Z</time>
      </trkpt>
      <trkpt lat="42.99086" lon="-0.22429">
        <ele>1521</ele>
        <time>2018-01-12T09:58:55Z</time>
      </trkpt>
      <trkpt lat="42.99088" lon="-0.22435">
        <ele>1520.3</ele>
        <time>2018-01-12T09:58:56Z</time>
      </trkpt>
      <trkpt lat="42.9909" lon="-0.22441">
        <ele>1519.7</ele>
        <time>2018-01-12T09:58:57Z</time>
      </trkpt>
      <trkpt lat="42.99093" lon="-0.22447">
        <ele>1519.3</ele>
        <time>2018-01-12T09:58:58Z</time>
      </trkpt>
      <trkpt lat="42.99095" lon="-0.22453">
        <ele>1519</ele>
        <time>2018-01-12T09:58:59Z</time>
      </trkpt>
      <trkpt lat="42.99098" lon="-0.22465">
        <ele>1518.7</ele>
        <time>2018-01-12T09:59:01Z</time>
      </trkpt>
      <trkpt lat="42.99099" lon="-0.22473">
        <ele>1518.2</ele>
        <time>2018-01-12T09:59:03Z</time>
      </trkpt>
      <trkpt lat="42.99102" lon="-0.22484">
        <ele>1518</ele>
        <time>2018-01-12T09:59:06Z</time>
      </trkpt>
      <trkpt lat="42.99105" lon="-0.22493">
        <ele>1517.7</ele>
        <time>2018-01-12T09:59:09Z</time>
      </trkpt>
      <trkpt lat="42.99109" lon="-0.22503">
        <ele>1518.6</ele>
        <time>2018-01-12T09:59:13Z</time>
      </trkpt>
      <trkpt lat="42.99114" lon="-0.22513">
        <ele>1518.8</ele>
        <time>2018-01-12T09:59:17Z</time>
      </trkpt>
      <trkpt lat="42.99117" lon="-0.22521">
        <ele>1517.2</ele>
        <time>2018-01-12T09:59:20Z</time>
      </trkpt>
      <trkpt lat="42.99122" lon="-0.22529">
        <ele>1517.5</ele>
        <time>2018-01-12T09:59:23Z</time>
      </trkpt>
      <trkpt lat="42.99126" lon="-0.22536">
        <ele>1517.7</ele>
        <time>2018-01-12T09:59:26Z</time>
      </trkpt>
      <trkpt lat="42.99131" lon="-0.22542">
        <ele>1517.4</ele>
        <time>2018-01-12T09:59:29Z</time>
      </trkpt>
      <trkpt lat="42.99137" lon="-0.2255">
        <ele>1517.6</ele>
        <time>2018-01-12T09:59:33Z</time>
      </trkpt>
      <trkpt lat="42.99141" lon="-0.22559">
        <ele>1516.8</ele>
        <time>2018-01-12T09:59:37Z</time>
      </trkpt>
      <trkpt lat="42.99146" lon="-0.22568">
        <ele>1518.1</ele>
        <time>2018-01-12T09:59:41Z</time>
      </trkpt>
      <trkpt lat="42.99147" lon="-0.22571">
        <ele>1518.4</ele>
        <time>2018-01-12T09:59:42Z</time>
      </trkpt>
      <trkpt lat="42.99152" lon="-0.22589">
        <ele>1516.8</ele>
        <time>2018-01-12T10:01:19Z</time>
      </trkpt>
      <trkpt lat="42.99152" lon="-0.22592">
        <ele>1516.7</ele>
        <time>2018-01-12T10:01:20Z</time>
      </trkpt>
      <trkpt lat="42.9915" lon="-0.22607">
        <ele>1516.8</ele>
        <time>2018-01-12T10:01:24Z</time>
      </trkpt>
      <trkpt lat="42.99148" lon="-0.22616">
        <ele>1516.4</ele>
        <time>2018-01-12T10:01:26Z</time>
      </trkpt>
      <trkpt lat="42.99146" lon="-0.22625">
        <ele>1515.8</ele>
        <time>2018-01-12T10:01:28Z</time>
      </trkpt>
      <trkpt lat="42.99143" lon="-0.22634">
        <ele>1516.1</ele>
        <time>2018-01-12T10:01:30Z</time>
      </trkpt>
      <trkpt lat="42.9914" lon="-0.22641">
        <ele>1515.8</ele>
        <time>2018-01-12T10:01:32Z</time>
      </trkpt>
      <trkpt lat="42.99136" lon="-0.22647">
        <ele>1515.3</ele>
        <time>2018-01-12T10:01:34Z</time>
      </trkpt>
      <trkpt lat="42.9913" lon="-0.22655">
        <ele>1514.6</ele>
        <time>2018-01-12T10:01:37Z</time>
      </trkpt>
      <trkpt lat="42.99124" lon="-0.22662">
        <ele>1514.5</ele>
        <time>2018-01-12T10:01:40Z</time>
      </trkpt>
      <trkpt lat="42.99117" lon="-0.22669">
        <ele>1514.5</ele>
        <time>2018-01-12T10:01:44Z</time>
      </trkpt>
      <trkpt lat="42.9911" lon="-0.22676">
        <ele>1513.6</ele>
        <time>2018-01-12T10:01:48Z</time>
      </trkpt>
      <trkpt lat="42.99104" lon="-0.22682">
        <ele>1513.4</ele>
        <time>2018-01-12T10:01:52Z</time>
      </trkpt>
      <trkpt lat="42.99097" lon="-0.22688">
        <ele>1513.8</ele>
        <time>2018-01-12T10:01:56Z</time>
      </trkpt>
      <trkpt lat="42.99091" lon="-0.22695">
        <ele>1512.5</ele>
        <time>2018-01-12T10:02:00Z</time>
      </trkpt>
      <trkpt lat="42.99084" lon="-0.22701">
        <ele>1512.5</ele>
        <time>2018-01-12T10:02:04Z</time>
      </trkpt>
      <trkpt lat="42.99077" lon="-0.22706">
        <ele>1513.2</ele>
        <time>2018-01-12T10:02:09Z</time>
      </trkpt>
      <trkpt lat="42.99071" lon="-0.2271">
        <ele>1513.3</ele>
        <time>2018-01-12T10:02:13Z</time>
      </trkpt>
      <trkpt lat="42.99063" lon="-0.22714">
        <ele>1513</ele>
        <time>2018-01-12T10:02:17Z</time>
      </trkpt>
      <trkpt lat="42.99056" lon="-0.22716">
        <ele>1513.9</ele>
        <time>2018-01-12T10:02:21Z</time>
      </trkpt>
      <trkpt lat="42.99048" lon="-0.22718">
        <ele>1514.9</ele>
        <time>2018-01-12T10:02:26Z</time>
      </trkpt>
      <trkpt lat="42.99046" lon="-0.22718">
        <ele>1514.5</ele>
        <time>2018-01-12T10:02:27Z</time>
      </trkpt>
      <trkpt lat="42.99033" lon="-0.22717">
        <ele>1513.6</ele>
        <time>2018-01-12T10:02:34Z</time>
      </trkpt>
      <trkpt lat="42.99025" lon="-0.22714">
        <ele>1514.9</ele>
        <time>2018-01-12T10:02:39Z</time>
      </trkpt>
      <trkpt lat="42.99017" lon="-0.2271">
        <ele>1514.8</ele>
        <time>2018-01-12T10:02:44Z</time>
      </trkpt>
      <trkpt lat="42.9901" lon="-0.22706">
        <ele>1515.8</ele>
        <time>2018-01-12T10:02:49Z</time>
      </trkpt>
      <trkpt lat="42.99003" lon="-0.22702">
        <ele>1516.4</ele>
        <time>2018-01-12T10:02:54Z</time>
      </trkpt>
      <trkpt lat="42.98996" lon="-0.22696">
        <ele>1517</ele>
        <time>2018-01-12T10:02:59Z</time>
      </trkpt>
      <trkpt lat="42.98989" lon="-0.22691">
        <ele>1517.5</ele>
        <time>2018-01-12T10:03:04Z</time>
      </trkpt>
      <trkpt lat="42.98981" lon="-0.22688">
        <ele>1517.2</ele>
        <time>2018-01-12T10:03:09Z</time>
      </trkpt>
      <trkpt lat="42.98974" lon="-0.22685">
        <ele>1517.7</ele>
        <time>2018-01-12T10:03:14Z</time>
      </trkpt>
      <trkpt lat="42.98966" lon="-0.22682">
        <ele>1518.4</ele>
        <time>2018-01-12T10:03:19Z</time>
      </trkpt>
      <trkpt lat="42.98958" lon="-0.22678">
        <ele>1518.8</ele>
        <time>2018-01-12T10:03:25Z</time>
      </trkpt>
      <trkpt lat="42.9895" lon="-0.22675">
        <ele>1519.2</ele>
        <time>2018-01-12T10:03:30Z</time>
      </trkpt>
      <trkpt lat="42.98948" lon="-0.22675">
        <ele>1519.6</ele>
        <time>2018-01-12T10:03:31Z</time>
      </trkpt>
      <trkpt lat="42.98932" lon="-0.22677">
        <ele>1519.4</ele>
        <time>2018-01-12T10:03:40Z</time>
      </trkpt>
      <trkpt lat="42.98925" lon="-0.22679">
        <ele>1519.7</ele>
        <time>2018-01-12T10:03:44Z</time>
      </trkpt>
      <trkpt lat="42.98918" lon="-0.22683">
        <ele>1519.7</ele>
        <time>2018-01-12T10:03:48Z</time>
      </trkpt>
      <trkpt lat="42.98911" lon="-0.22687">
        <ele>1519.5</ele>
        <time>2018-01-12T10:03:52Z</time>
      </trkpt>
      <trkpt lat="42.98903" lon="-0.22689">
        <ele>1519.6</ele>
        <time>2018-01-12T10:03:57Z</time>
      </trkpt>
      <trkpt lat="42.98896" lon="-0.22691">
        <ele>1519.8</ele>
        <time>2018-01-12T10:04:01Z</time>
      </trkpt>
      <trkpt lat="42.98889" lon="-0.22693">
        <ele>1520.6</ele>
        <time>2018-01-12T10:04:05Z</time>
      </trkpt>
      <trkpt lat="42.98882" lon="-0.22695">
        <ele>1520.7</ele>
        <time>2018-01-12T10:04:09Z</time>
      </trkpt>
      <trkpt lat="42.98873" lon="-0.22698">
        <ele>1520.8</ele>
        <time>2018-01-12T10:04:14Z</time>
      </trkpt>
      <trkpt lat="42.98864" lon="-0.227">
        <ele>1521.6</ele>
        <time>2018-01-12T10:04:19Z</time>
      </trkpt>
      <trkpt lat="42.98856" lon="-0.22701">
        <ele>1521.2</ele>
        <time>2018-01-12T10:04:24Z</time>
      </trkpt>
      <trkpt lat="42.98847" lon="-0.22702">
        <ele>1522.5</ele>
        <time>2018-01-12T10:04:29Z</time>
      </trkpt>
      <trkpt lat="42.9884" lon="-0.22706">
        <ele>1522.6</ele>
        <time>2018-01-12T10:04:33Z</time>
      </trkpt>
      <trkpt lat="42.98838" lon="-0.22707">
        <ele>1522.6</ele>
        <time>2018-01-12T10:04:34Z</time>
      </trkpt>
      <trkpt lat="42.98824" lon="-0.22716">
        <ele>1521.9</ele>
        <time>2018-01-12T10:04:43Z</time>
      </trkpt>
      <trkpt lat="42.98817" lon="-0.22719">
        <ele>1522.1</ele>
        <time>2018-01-12T10:04:47Z</time>
      </trkpt>
      <trkpt lat="42.98809" lon="-0.22722">
        <ele>1522.1</ele>
        <time>2018-01-12T10:04:51Z</time>
      </trkpt>
      <trkpt lat="42.98802" lon="-0.22727">
        <ele>1522.3</ele>
        <time>2018-01-12T10:04:55Z</time>
      </trkpt>
      <trkpt lat="42.98795" lon="-0.22732">
        <ele>1522.5</ele>
        <time>2018-01-12T10:04:59Z</time>
      </trkpt>
      <trkpt lat="42.98788" lon="-0.22736">
        <ele>1522.5</ele>
        <time>2018-01-12T10:05:03Z</time>
      </trkpt>
      <trkpt lat="42.9878" lon="-0.22741">
        <ele>1522.4</ele>
        <time>2018-01-12T10:05:07Z</time>
      </trkpt>
      <trkpt lat="42.98772" lon="-0.22744">
        <ele>1522.4</ele>
        <time>2018-01-12T10:05:11Z</time>
      </trkpt>
      <trkpt lat="42.98764" lon="-0.22746">
        <ele>1523</ele>
        <time>2018-01-12T10:05:15Z</time>
      </trkpt>
      <trkpt lat="42.98757" lon="-0.22748">
        <ele>1522.9</ele>
        <time>2018-01-12T10:05:19Z</time>
      </trkpt>
      <trkpt lat="42.9875" lon="-0.22752">
        <ele>1523.5</ele>
        <time>2018-01-12T10:05:23Z</time>
      </trkpt>
      <trkpt lat="42.98743" lon="-0.22755">
        <ele>1524.2</ele>
        <time>2018-01-12T10:05:26Z</time>
      </trkpt>
      <trkpt lat="42.98736" lon="-0.22759">
        <ele>1523.1</ele>
        <time>2018-01-12T10:05:30Z</time>
      </trkpt>
      <trkpt lat="42.98729" lon="-0.22763">
        <ele>1523.7</ele>
        <time>2018-01-12T10:05:34Z</time>
      </trkpt>
      <trkpt lat="42.98722" lon="-0.22768">
        <ele>1523.9</ele>
        <time>2018-01-12T10:05:38Z</time>
      </trkpt>
      <trkpt lat="42.9872" lon="-0.22769">
        <ele>1523.9</ele>
        <time>2018-01-12T10:05:39Z</time>
      </trkpt>
      <trkpt lat="42.98709" lon="-0.22779">
        <ele>1524.2</ele>
        <time>2018-01-12T10:05:46Z</time>
      </trkpt>
      <trkpt lat="42.98704" lon="-0.22788">
        <ele>1524.5</ele>
        <time>2018-01-12T10:05:50Z</time>
      </trkpt>
      <trkpt lat="42.98702" lon="-0.22798">
        <ele>1524.6</ele>
        <time>2018-01-12T10:05:54Z</time>
      </trkpt>
      <trkpt lat="42.98697" lon="-0.22808">
        <ele>1524</ele>
        <time>2018-01-12T10:05:58Z</time>
      </trkpt>
      <trkpt lat="42.98692" lon="-0.22815">
        <ele>1523.8</ele>
        <time>2018-01-12T10:06:02Z</time>
      </trkpt>
      <trkpt lat="42.98685" lon="-0.22821">
        <ele>1523.5</ele>
        <time>2018-01-12T10:06:07Z</time>
      </trkpt>
      <trkpt lat="42.98678" lon="-0.22825">
        <ele>1524.9</ele>
        <time>2018-01-12T10:06:11Z</time>
      </trkpt>
      <trkpt lat="42.98671" lon="-0.22826">
        <ele>1524.8</ele>
        <time>2018-01-12T10:06:15Z</time>
      </trkpt>
      <trkpt lat="42.98663" lon="-0.22827">
        <ele>1524.7</ele>
        <time>2018-01-12T10:06:19Z</time>
      </trkpt>
      <trkpt lat="42.98654" lon="-0.22828">
        <ele>1525</ele>
        <time>2018-01-12T10:06:23Z</time>
      </trkpt>
      <trkpt lat="42.98647" lon="-0.22828">
        <ele>1524.8</ele>
        <time>2018-01-12T10:06:26Z</time>
      </trkpt>
      <trkpt lat="42.98641" lon="-0.22829">
        <ele>1524.4</ele>
        <time>2018-01-12T10:06:28Z</time>
      </trkpt>
      <trkpt lat="42.98634" lon="-0.22829">
        <ele>1524.1</ele>
        <time>2018-01-12T10:06:30Z</time>
      </trkpt>
      <trkpt lat="42.98628" lon="-0.2283">
        <ele>1523.9</ele>
        <time>2018-01-12T10:06:32Z</time>
      </trkpt>
      <trkpt lat="42.9862" lon="-0.22831">
        <ele>1523.9</ele>
        <time>2018-01-12T10:06:35Z</time>
      </trkpt>
      <trkpt lat="42.98612" lon="-0.22833">
        <ele>1523.5</ele>
        <time>2018-01-12T10:06:38Z</time>
      </trkpt>
      <trkpt lat="42.98605" lon="-0.22836">
        <ele>1522.7</ele>
        <time>2018-01-12T10:06:41Z</time>
      </trkpt>
      <trkpt lat="42.98602" lon="-0.22837">
        <ele>1522.6</ele>
        <time>2018-01-12T10:06:42Z</time>
      </trkpt>
      <trkpt lat="42.9859" lon="-0.22842">
        <ele>1522.2</ele>
        <time>2018-01-12T10:06:47Z</time>
      </trkpt>
      <trkpt lat="42.98582" lon="-0.22845">
        <ele>1521</ele>
        <time>2018-01-12T10:06:51Z</time>
      </trkpt>
      <trkpt lat="42.98574" lon="-0.22849">
        <ele>1521.8</ele>
        <time>2018-01-12T10:06:55Z</time>
      </trkpt>
      <trkpt lat="42.98567" lon="-0.22852">
        <ele>1521.8</ele>
        <time>2018-01-12T10:06:58Z</time>
      </trkpt>
      <trkpt lat="42.9856" lon="-0.22858">
        <ele>1521.6</ele>
        <time>2018-01-12T10:07:02Z</time>
      </trkpt>
      <trkpt lat="42.98553" lon="-0.22863">
        <ele>1520.9</ele>
        <time>2018-01-12T10:07:06Z</time>
      </trkpt>
      <trkpt lat="42.98547" lon="-0.22868">
        <ele>1521</ele>
        <time>2018-01-12T10:07:09Z</time>
      </trkpt>
      <trkpt lat="42.98542" lon="-0.22874">
        <ele>1520.8</ele>
        <time>2018-01-12T10:07:12Z</time>
      </trkpt>
      <trkpt lat="42.98535" lon="-0.22881">
        <ele>1521</ele>
        <time>2018-01-12T10:07:16Z</time>
      </trkpt>
      <trkpt lat="42.9853" lon="-0.22891">
        <ele>1520.4</ele>
        <time>2018-01-12T10:07:20Z</time>
      </trkpt>
      <trkpt lat="42.98528" lon="-0.229">
        <ele>1521</ele>
        <time>2018-01-12T10:07:23Z</time>
      </trkpt>
      <trkpt lat="42.98527" lon="-0.22911">
        <ele>1520.7</ele>
        <time>2018-01-12T10:07:26Z</time>
      </trkpt>
      <trkpt lat="42.98526" lon="-0.2292">
        <ele>1519.7</ele>
        <time>2018-01-12T10:07:28Z</time>
      </trkpt>
      <trkpt lat="42.98525" lon="-0.2293">
        <ele>1519.2</ele>
        <time>2018-01-12T10:07:30Z</time>
      </trkpt>
      <trkpt lat="42.98525" lon="-0.2294">
        <ele>1519</ele>
        <time>2018-01-12T10:07:32Z</time>
      </trkpt>
      <trkpt lat="42.98528" lon="-0.2295">
        <ele>1518.1</ele>
        <time>2018-01-12T10:07:34Z</time>
      </trkpt>
      <trkpt lat="42.98529" lon="-0.22961">
        <ele>1517.2</ele>
        <time>2018-01-12T10:07:36Z</time>
      </trkpt>
      <trkpt lat="42.98531" lon="-0.22972">
        <ele>1516.3</ele>
        <time>2018-01-12T10:07:38Z</time>
      </trkpt>
      <trkpt lat="42.98533" lon="-0.22978">
        <ele>1516</ele>
        <time>2018-01-12T10:07:39Z</time>
      </trkpt>
      <trkpt lat="42.98535" lon="-0.22983">
        <ele>1515.4</ele>
        <time>2018-01-12T10:07:40Z</time>
      </trkpt>
      <trkpt lat="42.98538" lon="-0.22988">
        <ele>1515</ele>
        <time>2018-01-12T10:07:41Z</time>
      </trkpt>
      <trkpt lat="42.98541" lon="-0.22993">
        <ele>1514.6</ele>
        <time>2018-01-12T10:07:42Z</time>
      </trkpt>
      <trkpt lat="42.98544" lon="-0.22998">
        <ele>1513.9</ele>
        <time>2018-01-12T10:07:43Z</time>
      </trkpt>
      <trkpt lat="42.98547" lon="-0.23004">
        <ele>1513.4</ele>
        <time>2018-01-12T10:07:44Z</time>
      </trkpt>
      <trkpt lat="42.9855" lon="-0.23009">
        <ele>1512.9</ele>
        <time>2018-01-12T10:07:45Z</time>
      </trkpt>
      <trkpt lat="42.98555" lon="-0.23018">
        <ele>1511.6</ele>
        <time>2018-01-12T10:07:47Z</time>
      </trkpt>
      <trkpt lat="42.9856" lon="-0.23028">
        <ele>1510.6</ele>
        <time>2018-01-12T10:07:49Z</time>
      </trkpt>
      <trkpt lat="42.98563" lon="-0.23038">
        <ele>1509.8</ele>
        <time>2018-01-12T10:07:51Z</time>
      </trkpt>
      <trkpt lat="42.98566" lon="-0.23049">
        <ele>1509.5</ele>
        <time>2018-01-12T10:07:53Z</time>
      </trkpt>
      <trkpt lat="42.98569" lon="-0.2306">
        <ele>1509.3</ele>
        <time>2018-01-12T10:07:55Z</time>
      </trkpt>
      <trkpt lat="42.98572" lon="-0.23072">
        <ele>1508.9</ele>
        <time>2018-01-12T10:07:57Z</time>
      </trkpt>
      <trkpt lat="42.98574" lon="-0.23083">
        <ele>1508.7</ele>
        <time>2018-01-12T10:07:59Z</time>
      </trkpt>
      <trkpt lat="42.98575" lon="-0.23089">
        <ele>1508.7</ele>
        <time>2018-01-12T10:08:00Z</time>
      </trkpt>
      <trkpt lat="42.98577" lon="-0.23096">
        <ele>1508.8</ele>
        <time>2018-01-12T10:08:01Z</time>
      </trkpt>
      <trkpt lat="42.98577" lon="-0.23102">
        <ele>1507.9</ele>
        <time>2018-01-12T10:08:02Z</time>
      </trkpt>
      <trkpt lat="42.98578" lon="-0.23108">
        <ele>1507.2</ele>
        <time>2018-01-12T10:08:03Z</time>
      </trkpt>
      <trkpt lat="42.98579" lon="-0.23115">
        <ele>1506.8</ele>
        <time>2018-01-12T10:08:04Z</time>
      </trkpt>
      <trkpt lat="42.9858" lon="-0.23122">
        <ele>1505.5</ele>
        <time>2018-01-12T10:08:05Z</time>
      </trkpt>
      <trkpt lat="42.9858" lon="-0.23129">
        <ele>1504.6</ele>
        <time>2018-01-12T10:08:06Z</time>
      </trkpt>
      <trkpt lat="42.98581" lon="-0.23136">
        <ele>1503.9</ele>
        <time>2018-01-12T10:08:07Z</time>
      </trkpt>
      <trkpt lat="42.98581" lon="-0.23144">
        <ele>1503.5</ele>
        <time>2018-01-12T10:08:08Z</time>
      </trkpt>
      <trkpt lat="42.98581" lon="-0.23151">
        <ele>1503.3</ele>
        <time>2018-01-12T10:08:09Z</time>
      </trkpt>
      <trkpt lat="42.98581" lon="-0.23158">
        <ele>1503.1</ele>
        <time>2018-01-12T10:08:10Z</time>
      </trkpt>
      <trkpt lat="42.98581" lon="-0.23165">
        <ele>1502.6</ele>
        <time>2018-01-12T10:08:11Z</time>
      </trkpt>
      <trkpt lat="42.98581" lon="-0.23173">
        <ele>1502.3</ele>
        <time>2018-01-12T10:08:12Z</time>
      </trkpt>
      <trkpt lat="42.9858" lon="-0.2318">
        <ele>1502</ele>
        <time>2018-01-12T10:08:13Z</time>
      </trkpt>
      <trkpt lat="42.9858" lon="-0.23187">
        <ele>1501.8</ele>
        <time>2018-01-12T10:08:14Z</time>
      </trkpt>
      <trkpt lat="42.98579" lon="-0.23194">
        <ele>1501.1</ele>
        <time>2018-01-12T10:08:15Z</time>
      </trkpt>
      <trkpt lat="42.98578" lon="-0.23201">
        <ele>1500.6</ele>
        <time>2018-01-12T10:08:16Z</time>
      </trkpt>
      <trkpt lat="42.98577" lon="-0.23212">
        <ele>1499.9</ele>
        <time>2018-01-12T10:08:18Z</time>
      </trkpt>
      <trkpt lat="42.98576" lon="-0.23221">
        <ele>1499.5</ele>
        <time>2018-01-12T10:08:20Z</time>
      </trkpt>
      <trkpt lat="42.98575" lon="-0.23232">
        <ele>1498.6</ele>
        <time>2018-01-12T10:08:23Z</time>
      </trkpt>
      <trkpt lat="42.98572" lon="-0.23243">
        <ele>1498.2</ele>
        <time>2018-01-12T10:08:27Z</time>
      </trkpt>
      <trkpt lat="42.98571" lon="-0.23254">
        <ele>1498.8</ele>
        <time>2018-01-12T10:08:31Z</time>
      </trkpt>
      <trkpt lat="42.98569" lon="-0.23264">
        <ele>1499.3</ele>
        <time>2018-01-12T10:08:35Z</time>
      </trkpt>
      <trkpt lat="42.98567" lon="-0.23275">
        <ele>1499.1</ele>
        <time>2018-01-12T10:08:39Z</time>
      </trkpt>
      <trkpt lat="42.98566" lon="-0.23286">
        <ele>1499.6</ele>
        <time>2018-01-12T10:08:44Z</time>
      </trkpt>
      <trkpt lat="42.98565" lon="-0.23298">
        <ele>1500.6</ele>
        <time>2018-01-12T10:08:49Z</time>
      </trkpt>
      <trkpt lat="42.98566" lon="-0.23301">
        <ele>1500.7</ele>
        <time>2018-01-12T10:08:50Z</time>
      </trkpt>
      <trkpt lat="42.98567" lon="-0.23318">
        <ele>1500.1</ele>
        <time>2018-01-12T10:08:56Z</time>
      </trkpt>
      <trkpt lat="42.98574" lon="-0.23327">
        <ele>1500.1</ele>
        <time>2018-01-12T10:09:01Z</time>
      </trkpt>
      <trkpt lat="42.9858" lon="-0.23335">
        <ele>1499.7</ele>
        <time>2018-01-12T10:09:08Z</time>
      </trkpt>
      <trkpt lat="42.98585" lon="-0.23344">
        <ele>1499.4</ele>
        <time>2018-01-12T10:09:35Z</time>
      </trkpt>
      <trkpt lat="42.98587" lon="-0.23354">
        <ele>1498.9</ele>
        <time>2018-01-12T10:09:40Z</time>
      </trkpt>
      <trkpt lat="42.98587" lon="-0.23364">
        <ele>1499.2</ele>
        <time>2018-01-12T10:09:44Z</time>
      </trkpt>
      <trkpt lat="42.98588" lon="-0.23375">
        <ele>1497.9</ele>
        <time>2018-01-12T10:09:48Z</time>
      </trkpt>
      <trkpt lat="42.98588" lon="-0.23387">
        <ele>1496.9</ele>
        <time>2018-01-12T10:09:52Z</time>
      </trkpt>
      <trkpt lat="42.98587" lon="-0.23391">
        <ele>1496.8</ele>
        <time>2018-01-12T10:09:53Z</time>
      </trkpt>
      <trkpt lat="42.98587" lon="-0.23404">
        <ele>1497.5</ele>
        <time>2018-01-12T10:09:56Z</time>
      </trkpt>
      <trkpt lat="42.98586" lon="-0.23415">
        <ele>1496.4</ele>
        <time>2018-01-12T10:09:58Z</time>
      </trkpt>
      <trkpt lat="42.98584" lon="-0.23426">
        <ele>1495.4</ele>
        <time>2018-01-12T10:10:00Z</time>
      </trkpt>
      <trkpt lat="42.98583" lon="-0.23432">
        <ele>1495</ele>
        <time>2018-01-12T10:10:01Z</time>
      </trkpt>
      <trkpt lat="42.98582" lon="-0.23438">
        <ele>1494.6</ele>
        <time>2018-01-12T10:10:02Z</time>
      </trkpt>
      <trkpt lat="42.98579" lon="-0.2345">
        <ele>1493.3</ele>
        <time>2018-01-12T10:10:04Z</time>
      </trkpt>
      <trkpt lat="42.98576" lon="-0.23461">
        <ele>1492.5</ele>
        <time>2018-01-12T10:10:06Z</time>
      </trkpt>
      <trkpt lat="42.98573" lon="-0.23471">
        <ele>1492</ele>
        <time>2018-01-12T10:10:08Z</time>
      </trkpt>
      <trkpt lat="42.9857" lon="-0.23482">
        <ele>1491.6</ele>
        <time>2018-01-12T10:10:10Z</time>
      </trkpt>
      <trkpt lat="42.98568" lon="-0.23487">
        <ele>1491.4</ele>
        <time>2018-01-12T10:10:11Z</time>
      </trkpt>
      <trkpt lat="42.98566" lon="-0.23493">
        <ele>1491.3</ele>
        <time>2018-01-12T10:10:12Z</time>
      </trkpt>
      <trkpt lat="42.98563" lon="-0.23499">
        <ele>1490.6</ele>
        <time>2018-01-12T10:10:13Z</time>
      </trkpt>
      <trkpt lat="42.98559" lon="-0.23505">
        <ele>1490.1</ele>
        <time>2018-01-12T10:10:14Z</time>
      </trkpt>
      <trkpt lat="42.98556" lon="-0.23511">
        <ele>1489.7</ele>
        <time>2018-01-12T10:10:15Z</time>
      </trkpt>
      <trkpt lat="42.98553" lon="-0.23517">
        <ele>1488.5</ele>
        <time>2018-01-12T10:10:16Z</time>
      </trkpt>
      <trkpt lat="42.98551" lon="-0.23528">
        <ele>1486.9</ele>
        <time>2018-01-12T10:10:18Z</time>
      </trkpt>
      <trkpt lat="42.98551" lon="-0.23538">
        <ele>1486.9</ele>
        <time>2018-01-12T10:10:21Z</time>
      </trkpt>
      <trkpt lat="42.98551" lon="-0.23549">
        <ele>1487.5</ele>
        <time>2018-01-12T10:10:25Z</time>
      </trkpt>
      <trkpt lat="42.98551" lon="-0.2356">
        <ele>1487.4</ele>
        <time>2018-01-12T10:10:28Z</time>
      </trkpt>
      <trkpt lat="42.98551" lon="-0.23568">
        <ele>1486.5</ele>
        <time>2018-01-12T10:10:30Z</time>
      </trkpt>
      <trkpt lat="42.9855" lon="-0.23578">
        <ele>1485.3</ele>
        <time>2018-01-12T10:10:32Z</time>
      </trkpt>
      <trkpt lat="42.9855" lon="-0.23588">
        <ele>1484.2</ele>
        <time>2018-01-12T10:10:34Z</time>
      </trkpt>
      <trkpt lat="42.98551" lon="-0.23599">
        <ele>1484.3</ele>
        <time>2018-01-12T10:10:36Z</time>
      </trkpt>
      <trkpt lat="42.98554" lon="-0.2361">
        <ele>1483.9</ele>
        <time>2018-01-12T10:10:38Z</time>
      </trkpt>
      <trkpt lat="42.98555" lon="-0.23616">
        <ele>1483.6</ele>
        <time>2018-01-12T10:10:39Z</time>
      </trkpt>
      <trkpt lat="42.98556" lon="-0.23623">
        <ele>1483.4</ele>
        <time>2018-01-12T10:10:40Z</time>
      </trkpt>
      <trkpt lat="42.98556" lon="-0.2363">
        <ele>1482.8</ele>
        <time>2018-01-12T10:10:41Z</time>
      </trkpt>
      <trkpt lat="42.98557" lon="-0.23637">
        <ele>1482.4</ele>
        <time>2018-01-12T10:10:42Z</time>
      </trkpt>
      <trkpt lat="42.98557" lon="-0.23643">
        <ele>1482</ele>
        <time>2018-01-12T10:10:43Z</time>
      </trkpt>
      <trkpt lat="42.98557" lon="-0.23649">
        <ele>1481.8</ele>
        <time>2018-01-12T10:10:44Z</time>
      </trkpt>
      <trkpt lat="42.98558" lon="-0.23656">
        <ele>1481.2</ele>
        <time>2018-01-12T10:10:45Z</time>
      </trkpt>
      <trkpt lat="42.98559" lon="-0.23663">
        <ele>1480.8</ele>
        <time>2018-01-12T10:10:46Z</time>
      </trkpt>
      <trkpt lat="42.98559" lon="-0.2367">
        <ele>1480.4</ele>
        <time>2018-01-12T10:10:47Z</time>
      </trkpt>
      <trkpt lat="42.9856" lon="-0.23678">
        <ele>1479.4</ele>
        <time>2018-01-12T10:10:48Z</time>
      </trkpt>
      <trkpt lat="42.9856" lon="-0.23686">
        <ele>1478.7</ele>
        <time>2018-01-12T10:10:49Z</time>
      </trkpt>
      <trkpt lat="42.98561" lon="-0.23693">
        <ele>1478.1</ele>
        <time>2018-01-12T10:10:50Z</time>
      </trkpt>
      <trkpt lat="42.98562" lon="-0.237">
        <ele>1477</ele>
        <time>2018-01-12T10:10:51Z</time>
      </trkpt>
      <trkpt lat="42.98562" lon="-0.23708">
        <ele>1476.1</ele>
        <time>2018-01-12T10:10:52Z</time>
      </trkpt>
      <trkpt lat="42.98563" lon="-0.23715">
        <ele>1475.5</ele>
        <time>2018-01-12T10:10:53Z</time>
      </trkpt>
      <trkpt lat="42.98565" lon="-0.23723">
        <ele>1474.6</ele>
        <time>2018-01-12T10:10:54Z</time>
      </trkpt>
      <trkpt lat="42.98566" lon="-0.23729">
        <ele>1473.9</ele>
        <time>2018-01-12T10:10:55Z</time>
      </trkpt>
      <trkpt lat="42.98568" lon="-0.23735">
        <ele>1473.4</ele>
        <time>2018-01-12T10:10:56Z</time>
      </trkpt>
      <trkpt lat="42.98569" lon="-0.23741">
        <ele>1473.4</ele>
        <time>2018-01-12T10:10:57Z</time>
      </trkpt>
      <trkpt lat="42.98571" lon="-0.23747">
        <ele>1473.5</ele>
        <time>2018-01-12T10:10:58Z</time>
      </trkpt>
      <trkpt lat="42.98572" lon="-0.23754">
        <ele>1473.5</ele>
        <time>2018-01-12T10:10:59Z</time>
      </trkpt>
      <trkpt lat="42.98574" lon="-0.2376">
        <ele>1473.5</ele>
        <time>2018-01-12T10:11:00Z</time>
      </trkpt>
      <trkpt lat="42.98575" lon="-0.23767">
        <ele>1472.6</ele>
        <time>2018-01-12T10:11:01Z</time>
      </trkpt>
      <trkpt lat="42.98577" lon="-0.23773">
        <ele>1472</ele>
        <time>2018-01-12T10:11:02Z</time>
      </trkpt>
      <trkpt lat="42.98578" lon="-0.23779">
        <ele>1471.5</ele>
        <time>2018-01-12T10:11:03Z</time>
      </trkpt>
      <trkpt lat="42.98581" lon="-0.2379">
        <ele>1471.6</ele>
        <time>2018-01-12T10:11:05Z</time>
      </trkpt>
      <trkpt lat="42.98585" lon="-0.23801">
        <ele>1470.8</ele>
        <time>2018-01-12T10:11:07Z</time>
      </trkpt>
      <trkpt lat="42.9859" lon="-0.2381">
        <ele>1469.6</ele>
        <time>2018-01-12T10:11:09Z</time>
      </trkpt>
      <trkpt lat="42.98593" lon="-0.23818">
        <ele>1468.5</ele>
        <time>2018-01-12T10:11:11Z</time>
      </trkpt>
      <trkpt lat="42.98597" lon="-0.23825">
        <ele>1468.2</ele>
        <time>2018-01-12T10:11:13Z</time>
      </trkpt>
      <trkpt lat="42.986" lon="-0.23832">
        <ele>1468.3</ele>
        <time>2018-01-12T10:11:15Z</time>
      </trkpt>
      <trkpt lat="42.98605" lon="-0.23838">
        <ele>1468.4</ele>
        <time>2018-01-12T10:11:17Z</time>
      </trkpt>
      <trkpt lat="42.98609" lon="-0.23844">
        <ele>1468.4</ele>
        <time>2018-01-12T10:11:19Z</time>
      </trkpt>
      <trkpt lat="42.98615" lon="-0.23849">
        <ele>1468.6</ele>
        <time>2018-01-12T10:11:21Z</time>
      </trkpt>
      <trkpt lat="42.98622" lon="-0.23855">
        <ele>1467.9</ele>
        <time>2018-01-12T10:11:23Z</time>
      </trkpt>
      <trkpt lat="42.98629" lon="-0.2386">
        <ele>1466.9</ele>
        <time>2018-01-12T10:11:25Z</time>
      </trkpt>
      <trkpt lat="42.98636" lon="-0.23866">
        <ele>1466.8</ele>
        <time>2018-01-12T10:11:27Z</time>
      </trkpt>
      <trkpt lat="42.98643" lon="-0.23872">
        <ele>1466.2</ele>
        <time>2018-01-12T10:11:29Z</time>
      </trkpt>
      <trkpt lat="42.98648" lon="-0.23878">
        <ele>1465.6</ele>
        <time>2018-01-12T10:11:31Z</time>
      </trkpt>
      <trkpt lat="42.98652" lon="-0.23885">
        <ele>1465.4</ele>
        <time>2018-01-12T10:11:33Z</time>
      </trkpt>
      <trkpt lat="42.98656" lon="-0.23894">
        <ele>1465.6</ele>
        <time>2018-01-12T10:11:36Z</time>
      </trkpt>
      <trkpt lat="42.98661" lon="-0.23904">
        <ele>1465.9</ele>
        <time>2018-01-12T10:11:40Z</time>
      </trkpt>
      <trkpt lat="42.98663" lon="-0.23913">
        <ele>1465</ele>
        <time>2018-01-12T10:11:43Z</time>
      </trkpt>
      <trkpt lat="42.98664" lon="-0.23923">
        <ele>1464.5</ele>
        <time>2018-01-12T10:11:46Z</time>
      </trkpt>
      <trkpt lat="42.98665" lon="-0.23934">
        <ele>1464.6</ele>
        <time>2018-01-12T10:11:49Z</time>
      </trkpt>
      <trkpt lat="42.98665" lon="-0.23942">
        <ele>1465</ele>
        <time>2018-01-12T10:11:51Z</time>
      </trkpt>
      <trkpt lat="42.98665" lon="-0.2395">
        <ele>1464</ele>
        <time>2018-01-12T10:11:53Z</time>
      </trkpt>
      <trkpt lat="42.98665" lon="-0.23959">
        <ele>1464.1</ele>
        <time>2018-01-12T10:11:55Z</time>
      </trkpt>
      <trkpt lat="42.98665" lon="-0.23968">
        <ele>1464.5</ele>
        <time>2018-01-12T10:11:57Z</time>
      </trkpt>
      <trkpt lat="42.98665" lon="-0.23972">
        <ele>1464.3</ele>
        <time>2018-01-12T10:11:58Z</time>
      </trkpt>
      <trkpt lat="42.98663" lon="-0.23987">
        <ele>1463.4</ele>
        <time>2018-01-12T10:12:01Z</time>
      </trkpt>
      <trkpt lat="42.98662" lon="-0.23997">
        <ele>1462.6</ele>
        <time>2018-01-12T10:12:03Z</time>
      </trkpt>
      <trkpt lat="42.98661" lon="-0.24007">
        <ele>1462</ele>
        <time>2018-01-12T10:12:05Z</time>
      </trkpt>
      <trkpt lat="42.98659" lon="-0.24016">
        <ele>1461.6</ele>
        <time>2018-01-12T10:12:07Z</time>
      </trkpt>
      <trkpt lat="42.98657" lon="-0.24025">
        <ele>1461</ele>
        <time>2018-01-12T10:12:09Z</time>
      </trkpt>
      <trkpt lat="42.98655" lon="-0.24035">
        <ele>1460</ele>
        <time>2018-01-12T10:12:11Z</time>
      </trkpt>
      <trkpt lat="42.98653" lon="-0.24046">
        <ele>1459</ele>
        <time>2018-01-12T10:12:13Z</time>
      </trkpt>
      <trkpt lat="42.9865" lon="-0.24057">
        <ele>1458.9</ele>
        <time>2018-01-12T10:12:15Z</time>
      </trkpt>
      <trkpt lat="42.98646" lon="-0.24068">
        <ele>1458.5</ele>
        <time>2018-01-12T10:12:17Z</time>
      </trkpt>
      <trkpt lat="42.98642" lon="-0.24079">
        <ele>1458.1</ele>
        <time>2018-01-12T10:12:19Z</time>
      </trkpt>
      <trkpt lat="42.9864" lon="-0.24084">
        <ele>1457.9</ele>
        <time>2018-01-12T10:12:20Z</time>
      </trkpt>
      <trkpt lat="42.98639" lon="-0.2409">
        <ele>1457.7</ele>
        <time>2018-01-12T10:12:21Z</time>
      </trkpt>
      <trkpt lat="42.98638" lon="-0.24097">
        <ele>1457.6</ele>
        <time>2018-01-12T10:12:22Z</time>
      </trkpt>
      <trkpt lat="42.98636" lon="-0.24108">
        <ele>1456.8</ele>
        <time>2018-01-12T10:12:24Z</time>
      </trkpt>
      <trkpt lat="42.98638" lon="-0.24118">
        <ele>1455.9</ele>
        <time>2018-01-12T10:12:26Z</time>
      </trkpt>
      <trkpt lat="42.9864" lon="-0.24123">
        <ele>1454.6</ele>
        <time>2018-01-12T10:12:27Z</time>
      </trkpt>
      <trkpt lat="42.98639" lon="-0.2413">
        <ele>1453.6</ele>
        <time>2018-01-12T10:12:28Z</time>
      </trkpt>
      <trkpt lat="42.98636" lon="-0.24139">
        <ele>1452.9</ele>
        <time>2018-01-12T10:12:29Z</time>
      </trkpt>
      <trkpt lat="42.98634" lon="-0.24148">
        <ele>1452.3</ele>
        <time>2018-01-12T10:12:30Z</time>
      </trkpt>
      <trkpt lat="42.98634" lon="-0.24157">
        <ele>1451.8</ele>
        <time>2018-01-12T10:12:31Z</time>
      </trkpt>
      <trkpt lat="42.98633" lon="-0.24165">
        <ele>1451.5</ele>
        <time>2018-01-12T10:12:32Z</time>
      </trkpt>
      <trkpt lat="42.98632" lon="-0.24171">
        <ele>1450.5</ele>
        <time>2018-01-12T10:12:33Z</time>
      </trkpt>
      <trkpt lat="42.98632" lon="-0.24178">
        <ele>1449.8</ele>
        <time>2018-01-12T10:12:34Z</time>
      </trkpt>
      <trkpt lat="42.98631" lon="-0.24185">
        <ele>1449.3</ele>
        <time>2018-01-12T10:12:35Z</time>
      </trkpt>
      <trkpt lat="42.98631" lon="-0.24193">
        <ele>1448.8</ele>
        <time>2018-01-12T10:12:36Z</time>
      </trkpt>
      <trkpt lat="42.98631" lon="-0.242">
        <ele>1448.4</ele>
        <time>2018-01-12T10:12:37Z</time>
      </trkpt>
      <trkpt lat="42.98632" lon="-0.24208">
        <ele>1448.1</ele>
        <time>2018-01-12T10:12:38Z</time>
      </trkpt>
      <trkpt lat="42.98633" lon="-0.24214">
        <ele>1447.9</ele>
        <time>2018-01-12T10:12:39Z</time>
      </trkpt>
      <trkpt lat="42.98636" lon="-0.24224">
        <ele>1447.8</ele>
        <time>2018-01-12T10:12:41Z</time>
      </trkpt>
      <trkpt lat="42.98637" lon="-0.24229">
        <ele>1447.8</ele>
        <time>2018-01-12T10:12:42Z</time>
      </trkpt>
      <trkpt lat="42.98638" lon="-0.24236">
        <ele>1446.9</ele>
        <time>2018-01-12T10:12:43Z</time>
      </trkpt>
      <trkpt lat="42.98639" lon="-0.24243">
        <ele>1446.3</ele>
        <time>2018-01-12T10:12:44Z</time>
      </trkpt>
      <trkpt lat="42.98639" lon="-0.24249">
        <ele>1445.8</ele>
        <time>2018-01-12T10:12:45Z</time>
      </trkpt>
      <trkpt lat="42.98639" lon="-0.24256">
        <ele>1445.8</ele>
        <time>2018-01-12T10:12:46Z</time>
      </trkpt>
      <trkpt lat="42.98639" lon="-0.24263">
        <ele>1445.8</ele>
        <time>2018-01-12T10:12:47Z</time>
      </trkpt>
      <trkpt lat="42.9864" lon="-0.24271">
        <ele>1445.8</ele>
        <time>2018-01-12T10:12:48Z</time>
      </trkpt>
      <trkpt lat="42.9864" lon="-0.24278">
        <ele>1445.1</ele>
        <time>2018-01-12T10:12:49Z</time>
      </trkpt>
      <trkpt lat="42.98641" lon="-0.24285">
        <ele>1444.6</ele>
        <time>2018-01-12T10:12:50Z</time>
      </trkpt>
      <trkpt lat="42.98642" lon="-0.24292">
        <ele>1444.2</ele>
        <time>2018-01-12T10:12:51Z</time>
      </trkpt>
      <trkpt lat="42.98642" lon="-0.24301">
        <ele>1443.1</ele>
        <time>2018-01-12T10:12:52Z</time>
      </trkpt>
      <trkpt lat="42.98642" lon="-0.24309">
        <ele>1442.3</ele>
        <time>2018-01-12T10:12:53Z</time>
      </trkpt>
      <trkpt lat="42.98643" lon="-0.24316">
        <ele>1441.7</ele>
        <time>2018-01-12T10:12:54Z</time>
      </trkpt>
      <trkpt lat="42.98643" lon="-0.24323">
        <ele>1441.3</ele>
        <time>2018-01-12T10:12:55Z</time>
      </trkpt>
      <trkpt lat="42.98643" lon="-0.2433">
        <ele>1440.8</ele>
        <time>2018-01-12T10:12:56Z</time>
      </trkpt>
      <trkpt lat="42.98643" lon="-0.24337">
        <ele>1440.5</ele>
        <time>2018-01-12T10:12:57Z</time>
      </trkpt>
      <trkpt lat="42.98645" lon="-0.24348">
        <ele>1440</ele>
        <time>2018-01-12T10:12:59Z</time>
      </trkpt>
      <trkpt lat="42.98646" lon="-0.24357">
        <ele>1439.6</ele>
        <time>2018-01-12T10:13:01Z</time>
      </trkpt>
      <trkpt lat="42.98646" lon="-0.24362">
        <ele>1439.3</ele>
        <time>2018-01-12T10:13:02Z</time>
      </trkpt>
      <trkpt lat="42.98646" lon="-0.24376">
        <ele>1438.6</ele>
        <time>2018-01-12T10:13:05Z</time>
      </trkpt>
      <trkpt lat="42.98646" lon="-0.24384">
        <ele>1438.3</ele>
        <time>2018-01-12T10:13:07Z</time>
      </trkpt>
      <trkpt lat="42.98646" lon="-0.24393">
        <ele>1438.6</ele>
        <time>2018-01-12T10:13:09Z</time>
      </trkpt>
      <trkpt lat="42.98646" lon="-0.24401">
        <ele>1438.8</ele>
        <time>2018-01-12T10:13:11Z</time>
      </trkpt>
      <trkpt lat="42.98645" lon="-0.24409">
        <ele>1438.7</ele>
        <time>2018-01-12T10:13:13Z</time>
      </trkpt>
      <trkpt lat="42.98645" lon="-0.24421">
        <ele>1438.5</ele>
        <time>2018-01-12T10:13:16Z</time>
      </trkpt>
      <trkpt lat="42.98644" lon="-0.24433">
        <ele>1438.8</ele>
        <time>2018-01-12T10:13:20Z</time>
      </trkpt>
      <trkpt lat="42.98644" lon="-0.24443">
        <ele>1439.4</ele>
        <time>2018-01-12T10:13:24Z</time>
      </trkpt>
      <trkpt lat="42.98643" lon="-0.24454">
        <ele>1439.6</ele>
        <time>2018-01-12T10:13:29Z</time>
      </trkpt>
      <trkpt lat="42.98641" lon="-0.24465">
        <ele>1439.7</ele>
        <time>2018-01-12T10:13:34Z</time>
      </trkpt>
      <trkpt lat="42.98639" lon="-0.24476">
        <ele>1440.6</ele>
        <time>2018-01-12T10:13:39Z</time>
      </trkpt>
      <trkpt lat="42.98638" lon="-0.24487">
        <ele>1440</ele>
        <time>2018-01-12T10:13:44Z</time>
      </trkpt>
      <trkpt lat="42.98637" lon="-0.245">
        <ele>1440.6</ele>
        <time>2018-01-12T10:13:50Z</time>
      </trkpt>
      <trkpt lat="42.98636" lon="-0.24512">
        <ele>1441.6</ele>
        <time>2018-01-12T10:13:56Z</time>
      </trkpt>
      <trkpt lat="42.98635" lon="-0.24524">
        <ele>1441.8</ele>
        <time>2018-01-12T10:14:01Z</time>
      </trkpt>
      <trkpt lat="42.98635" lon="-0.24536">
        <ele>1442</ele>
        <time>2018-01-12T10:14:07Z</time>
      </trkpt>
      <trkpt lat="42.98635" lon="-0.24538">
        <ele>1442</ele>
        <time>2018-01-12T10:14:08Z</time>
      </trkpt>
      <trkpt lat="42.98633" lon="-0.24557">
        <ele>1443.2</ele>
        <time>2018-01-12T10:14:17Z</time>
      </trkpt>
      <trkpt lat="42.9863" lon="-0.24567">
        <ele>1443.4</ele>
        <time>2018-01-12T10:14:22Z</time>
      </trkpt>
      <trkpt lat="42.98627" lon="-0.24577">
        <ele>1444.2</ele>
        <time>2018-01-12T10:14:27Z</time>
      </trkpt>
      <trkpt lat="42.9862" lon="-0.24586">
        <ele>1444.2</ele>
        <time>2018-01-12T10:14:33Z</time>
      </trkpt>
      <trkpt lat="42.98613" lon="-0.24592">
        <ele>1444.7</ele>
        <time>2018-01-12T10:14:39Z</time>
      </trkpt>
      <trkpt lat="42.98605" lon="-0.24596">
        <ele>1444.9</ele>
        <time>2018-01-12T10:14:45Z</time>
      </trkpt>
      <trkpt lat="42.98597" lon="-0.24598">
        <ele>1445.5</ele>
        <time>2018-01-12T10:14:51Z</time>
      </trkpt>
      <trkpt lat="42.98589" lon="-0.24599">
        <ele>1446.3</ele>
        <time>2018-01-12T10:14:57Z</time>
      </trkpt>
      <trkpt lat="42.98581" lon="-0.24602">
        <ele>1447.5</ele>
        <time>2018-01-12T10:15:03Z</time>
      </trkpt>
      <trkpt lat="42.98573" lon="-0.24603">
        <ele>1449.2</ele>
        <time>2018-01-12T10:15:08Z</time>
      </trkpt>
      <trkpt lat="42.98572" lon="-0.24604">
        <ele>1449.4</ele>
        <time>2018-01-12T10:15:09Z</time>
      </trkpt>
      <trkpt lat="42.98558" lon="-0.24605">
        <ele>1449.1</ele>
        <time>2018-01-12T10:15:18Z</time>
      </trkpt>
      <trkpt lat="42.9855" lon="-0.24603">
        <ele>1449.9</ele>
        <time>2018-01-12T10:15:23Z</time>
      </trkpt>
      <trkpt lat="42.98542" lon="-0.24601">
        <ele>1451</ele>
        <time>2018-01-12T10:15:29Z</time>
      </trkpt>
      <trkpt lat="42.98534" lon="-0.24596">
        <ele>1451.4</ele>
        <time>2018-01-12T10:15:35Z</time>
      </trkpt>
      <trkpt lat="42.98527" lon="-0.24589">
        <ele>1452.3</ele>
        <time>2018-01-12T10:15:41Z</time>
      </trkpt>
      <trkpt lat="42.98522" lon="-0.2458">
        <ele>1452.3</ele>
        <time>2018-01-12T10:15:47Z</time>
      </trkpt>
      <trkpt lat="42.98516" lon="-0.24572">
        <ele>1452.4</ele>
        <time>2018-01-12T10:15:53Z</time>
      </trkpt>
      <trkpt lat="42.9851" lon="-0.24564">
        <ele>1453.3</ele>
        <time>2018-01-12T10:15:59Z</time>
      </trkpt>
      <trkpt lat="42.98504" lon="-0.24556">
        <ele>1454.6</ele>
        <time>2018-01-12T10:16:05Z</time>
      </trkpt>
      <trkpt lat="42.98499" lon="-0.24547">
        <ele>1455.4</ele>
        <time>2018-01-12T10:16:11Z</time>
      </trkpt>
      <trkpt lat="42.98498" lon="-0.24546">
        <ele>1455.3</ele>
        <time>2018-01-12T10:16:12Z</time>
      </trkpt>
      <trkpt lat="42.98486" lon="-0.24531">
        <ele>1456.4</ele>
        <time>2018-01-12T10:16:23Z</time>
      </trkpt>
      <trkpt lat="42.98479" lon="-0.24523">
        <ele>1459.5</ele>
        <time>2018-01-12T10:19:01Z</time>
      </trkpt>
      <trkpt lat="42.98478" lon="-0.24523">
        <ele>1459.5</ele>
        <time>2018-01-12T10:19:02Z</time>
      </trkpt>
      <trkpt lat="42.98466" lon="-0.24511">
        <ele>1459.6</ele>
        <time>2018-01-12T10:19:12Z</time>
      </trkpt>
      <trkpt lat="42.9846" lon="-0.24506">
        <ele>1459.8</ele>
        <time>2018-01-12T10:19:17Z</time>
      </trkpt>
      <trkpt lat="42.98453" lon="-0.245">
        <ele>1460</ele>
        <time>2018-01-12T10:19:22Z</time>
      </trkpt>
      <trkpt lat="42.98446" lon="-0.24494">
        <ele>1460.5</ele>
        <time>2018-01-12T10:19:27Z</time>
      </trkpt>
      <trkpt lat="42.9844" lon="-0.24488">
        <ele>1460.9</ele>
        <time>2018-01-12T10:19:31Z</time>
      </trkpt>
      <trkpt lat="42.98433" lon="-0.24483">
        <ele>1460.9</ele>
        <time>2018-01-12T10:19:35Z</time>
      </trkpt>
      <trkpt lat="42.98426" lon="-0.24478">
        <ele>1460.9</ele>
        <time>2018-01-12T10:19:38Z</time>
      </trkpt>
      <trkpt lat="42.98419" lon="-0.24475">
        <ele>1461.9</ele>
        <time>2018-01-12T10:19:43Z</time>
      </trkpt>
      <trkpt lat="42.98411" lon="-0.24471">
        <ele>1462.3</ele>
        <time>2018-01-12T10:19:48Z</time>
      </trkpt>
      <trkpt lat="42.98404" lon="-0.24465">
        <ele>1462.4</ele>
        <time>2018-01-12T10:19:53Z</time>
      </trkpt>
      <trkpt lat="42.98397" lon="-0.24461">
        <ele>1462.3</ele>
        <time>2018-01-12T10:19:57Z</time>
      </trkpt>
      <trkpt lat="42.98389" lon="-0.24458">
        <ele>1462.7</ele>
        <time>2018-01-12T10:20:02Z</time>
      </trkpt>
      <trkpt lat="42.9838" lon="-0.24456">
        <ele>1463.9</ele>
        <time>2018-01-12T10:20:07Z</time>
      </trkpt>
      <trkpt lat="42.98379" lon="-0.24456">
        <ele>1463.6</ele>
        <time>2018-01-12T10:20:08Z</time>
      </trkpt>
      <trkpt lat="42.98365" lon="-0.24451">
        <ele>1465.2</ele>
        <time>2018-01-12T10:20:16Z</time>
      </trkpt>
      <trkpt lat="42.98357" lon="-0.2445">
        <ele>1464.6</ele>
        <time>2018-01-12T10:20:20Z</time>
      </trkpt>
      <trkpt lat="42.98349" lon="-0.2445">
        <ele>1464.3</ele>
        <time>2018-01-12T10:20:25Z</time>
      </trkpt>
      <trkpt lat="42.98341" lon="-0.24452">
        <ele>1465.2</ele>
        <time>2018-01-12T10:20:30Z</time>
      </trkpt>
      <trkpt lat="42.98332" lon="-0.24451">
        <ele>1465.9</ele>
        <time>2018-01-12T10:20:35Z</time>
      </trkpt>
      <trkpt lat="42.98324" lon="-0.24448">
        <ele>1466.6</ele>
        <time>2018-01-12T10:20:40Z</time>
      </trkpt>
      <trkpt lat="42.98318" lon="-0.24443">
        <ele>1466.9</ele>
        <time>2018-01-12T10:20:44Z</time>
      </trkpt>
      <trkpt lat="42.9831" lon="-0.24436">
        <ele>1465.5</ele>
        <time>2018-01-12T10:20:48Z</time>
      </trkpt>
      <trkpt lat="42.98304" lon="-0.2443">
        <ele>1465.7</ele>
        <time>2018-01-12T10:20:51Z</time>
      </trkpt>
      <trkpt lat="42.98297" lon="-0.24423">
        <ele>1465.9</ele>
        <time>2018-01-12T10:20:55Z</time>
      </trkpt>
      <trkpt lat="42.98289" lon="-0.24425">
        <ele>1466.1</ele>
        <time>2018-01-12T10:21:01Z</time>
      </trkpt>
      <trkpt lat="42.98283" lon="-0.24432">
        <ele>1466.5</ele>
        <time>2018-01-12T10:21:07Z</time>
      </trkpt>
      <trkpt lat="42.98278" lon="-0.2444">
        <ele>1466.7</ele>
        <time>2018-01-12T10:21:13Z</time>
      </trkpt>
      <trkpt lat="42.98277" lon="-0.24442">
        <ele>1466.8</ele>
        <time>2018-01-12T10:21:14Z</time>
      </trkpt>
      <trkpt lat="42.98266" lon="-0.24456">
        <ele>1467.9</ele>
        <time>2018-01-12T10:21:24Z</time>
      </trkpt>
      <trkpt lat="42.98259" lon="-0.24464">
        <ele>1468.1</ele>
        <time>2018-01-12T10:21:29Z</time>
      </trkpt>
      <trkpt lat="42.98253" lon="-0.24471">
        <ele>1468.8</ele>
        <time>2018-01-12T10:21:34Z</time>
      </trkpt>
      <trkpt lat="42.98246" lon="-0.24476">
        <ele>1469</ele>
        <time>2018-01-12T10:21:39Z</time>
      </trkpt>
      <trkpt lat="42.98239" lon="-0.24478">
        <ele>1469.4</ele>
        <time>2018-01-12T10:21:44Z</time>
      </trkpt>
      <trkpt lat="42.98231" lon="-0.24472">
        <ele>1470.4</ele>
        <time>2018-01-12T10:21:51Z</time>
      </trkpt>
      <trkpt lat="42.98222" lon="-0.2447">
        <ele>1470.1</ele>
        <time>2018-01-12T10:23:07Z</time>
      </trkpt>
      <trkpt lat="42.98221" lon="-0.24471">
        <ele>1470.2</ele>
        <time>2018-01-12T10:23:08Z</time>
      </trkpt>
      <trkpt lat="42.98207" lon="-0.24479">
        <ele>1471.9</ele>
        <time>2018-01-12T10:23:20Z</time>
      </trkpt>
      <trkpt lat="42.98199" lon="-0.24483">
        <ele>1472.6</ele>
        <time>2018-01-12T10:23:26Z</time>
      </trkpt>
      <trkpt lat="42.98192" lon="-0.24487">
        <ele>1473.3</ele>
        <time>2018-01-12T10:23:31Z</time>
      </trkpt>
      <trkpt lat="42.98184" lon="-0.2449">
        <ele>1473.3</ele>
        <time>2018-01-12T10:23:36Z</time>
      </trkpt>
      <trkpt lat="42.98177" lon="-0.24495">
        <ele>1474.1</ele>
        <time>2018-01-12T10:23:41Z</time>
      </trkpt>
      <trkpt lat="42.9817" lon="-0.24498">
        <ele>1473.6</ele>
        <time>2018-01-12T10:23:46Z</time>
      </trkpt>
      <trkpt lat="42.98162" lon="-0.24503">
        <ele>1474.5</ele>
        <time>2018-01-12T10:23:51Z</time>
      </trkpt>
      <trkpt lat="42.98155" lon="-0.24507">
        <ele>1475</ele>
        <time>2018-01-12T10:23:56Z</time>
      </trkpt>
      <trkpt lat="42.98148" lon="-0.24512">
        <ele>1474.6</ele>
        <time>2018-01-12T10:24:01Z</time>
      </trkpt>
      <trkpt lat="42.98141" lon="-0.24518">
        <ele>1474.7</ele>
        <time>2018-01-12T10:24:07Z</time>
      </trkpt>
      <trkpt lat="42.98134" lon="-0.24525">
        <ele>1475.9</ele>
        <time>2018-01-12T10:24:13Z</time>
      </trkpt>
      <trkpt lat="42.98133" lon="-0.24526">
        <ele>1476.2</ele>
        <time>2018-01-12T10:24:14Z</time>
      </trkpt>
      <trkpt lat="42.98123" lon="-0.24542">
        <ele>1477.9</ele>
        <time>2018-01-12T10:24:25Z</time>
      </trkpt>
      <trkpt lat="42.98117" lon="-0.24551">
        <ele>1478.9</ele>
        <time>2018-01-12T10:24:31Z</time>
      </trkpt>
      <trkpt lat="42.98112" lon="-0.24559">
        <ele>1479.6</ele>
        <time>2018-01-12T10:24:36Z</time>
      </trkpt>
      <trkpt lat="42.98107" lon="-0.24567">
        <ele>1479.8</ele>
        <time>2018-01-12T10:24:41Z</time>
      </trkpt>
      <trkpt lat="42.98102" lon="-0.24576">
        <ele>1480.2</ele>
        <time>2018-01-12T10:24:46Z</time>
      </trkpt>
      <trkpt lat="42.98097" lon="-0.24584">
        <ele>1480.1</ele>
        <time>2018-01-12T10:24:51Z</time>
      </trkpt>
      <trkpt lat="42.98091" lon="-0.24591">
        <ele>1481.2</ele>
        <time>2018-01-12T10:24:56Z</time>
      </trkpt>
      <trkpt lat="42.98085" lon="-0.246">
        <ele>1481.7</ele>
        <time>2018-01-12T10:25:01Z</time>
      </trkpt>
      <trkpt lat="42.9808" lon="-0.2461">
        <ele>1481.9</ele>
        <time>2018-01-12T10:25:07Z</time>
      </trkpt>
      <trkpt lat="42.98077" lon="-0.2462">
        <ele>1482.8</ele>
        <time>2018-01-12T10:25:13Z</time>
      </trkpt>
      <trkpt lat="42.98075" lon="-0.2463">
        <ele>1482.9</ele>
        <time>2018-01-12T10:25:18Z</time>
      </trkpt>
      <trkpt lat="42.98074" lon="-0.24633">
        <ele>1483.5</ele>
        <time>2018-01-12T10:25:19Z</time>
      </trkpt>
      <trkpt lat="42.98072" lon="-0.24652">
        <ele>1483.8</ele>
        <time>2018-01-12T10:25:29Z</time>
      </trkpt>
      <trkpt lat="42.98071" lon="-0.24664">
        <ele>1485.9</ele>
        <time>2018-01-12T10:25:36Z</time>
      </trkpt>
      <trkpt lat="42.98069" lon="-0.24675">
        <ele>1488.5</ele>
        <time>2018-01-12T10:25:44Z</time>
      </trkpt>
      <trkpt lat="42.98067" lon="-0.24687">
        <ele>1488.9</ele>
        <time>2018-01-12T10:25:52Z</time>
      </trkpt>
      <trkpt lat="42.98066" lon="-0.24699">
        <ele>1489.5</ele>
        <time>2018-01-12T10:26:00Z</time>
      </trkpt>
      <trkpt lat="42.98058" lon="-0.24695">
        <ele>1489.5</ele>
        <time>2018-01-12T10:26:13Z</time>
      </trkpt>
      <trkpt lat="42.98056" lon="-0.24684">
        <ele>1491.4</ele>
        <time>2018-01-12T10:26:20Z</time>
      </trkpt>
      <trkpt lat="42.98055" lon="-0.24672">
        <ele>1492.3</ele>
        <time>2018-01-12T10:26:26Z</time>
      </trkpt>
      <trkpt lat="42.98055" lon="-0.24671">
        <ele>1492.5</ele>
        <time>2018-01-12T10:26:27Z</time>
      </trkpt>
      <trkpt lat="42.9805" lon="-0.24652">
        <ele>1493.7</ele>
        <time>2018-01-12T10:26:39Z</time>
      </trkpt>
      <trkpt lat="42.98047" lon="-0.24641">
        <ele>1494.4</ele>
        <time>2018-01-12T10:26:46Z</time>
      </trkpt>
      <trkpt lat="42.98046" lon="-0.24629">
        <ele>1496</ele>
        <time>2018-01-12T10:26:52Z</time>
      </trkpt>
      <trkpt lat="42.98046" lon="-0.24617">
        <ele>1496.6</ele>
        <time>2018-01-12T10:26:58Z</time>
      </trkpt>
      <trkpt lat="42.98046" lon="-0.24606">
        <ele>1497.8</ele>
        <time>2018-01-12T10:27:03Z</time>
      </trkpt>
      <trkpt lat="42.98048" lon="-0.24595">
        <ele>1497.8</ele>
        <time>2018-01-12T10:27:08Z</time>
      </trkpt>
      <trkpt lat="42.98051" lon="-0.24584">
        <ele>1498.3</ele>
        <time>2018-01-12T10:27:13Z</time>
      </trkpt>
      <trkpt lat="42.98056" lon="-0.24573">
        <ele>1497.7</ele>
        <time>2018-01-12T10:27:18Z</time>
      </trkpt>
      <trkpt lat="42.9806" lon="-0.24564">
        <ele>1497.5</ele>
        <time>2018-01-12T10:27:23Z</time>
      </trkpt>
      <trkpt lat="42.98064" lon="-0.24555">
        <ele>1498.2</ele>
        <time>2018-01-12T10:27:29Z</time>
      </trkpt>
      <trkpt lat="42.98065" lon="-0.24553">
        <ele>1498.4</ele>
        <time>2018-01-12T10:27:30Z</time>
      </trkpt>
      <trkpt lat="42.98067" lon="-0.24533">
        <ele>1499.9</ele>
        <time>2018-01-12T10:27:42Z</time>
      </trkpt>
      <trkpt lat="42.98064" lon="-0.24522">
        <ele>1501.5</ele>
        <time>2018-01-12T10:27:48Z</time>
      </trkpt>
      <trkpt lat="42.9806" lon="-0.24513">
        <ele>1501.8</ele>
        <time>2018-01-12T10:27:53Z</time>
      </trkpt>
      <trkpt lat="42.98057" lon="-0.24504">
        <ele>1502.5</ele>
        <time>2018-01-12T10:27:58Z</time>
      </trkpt>
      <trkpt lat="42.98057" lon="-0.24493">
        <ele>1503.3</ele>
        <time>2018-01-12T10:28:03Z</time>
      </trkpt>
      <trkpt lat="42.98059" lon="-0.24483">
        <ele>1502.5</ele>
        <time>2018-01-12T10:28:08Z</time>
      </trkpt>
      <trkpt lat="42.98064" lon="-0.24473">
        <ele>1504.5</ele>
        <time>2018-01-12T10:28:14Z</time>
      </trkpt>
      <trkpt lat="42.98072" lon="-0.24467">
        <ele>1504.5</ele>
        <time>2018-01-12T10:28:20Z</time>
      </trkpt>
      <trkpt lat="42.9808" lon="-0.24462">
        <ele>1504.3</ele>
        <time>2018-01-12T10:28:26Z</time>
      </trkpt>
      <trkpt lat="42.98086" lon="-0.24456">
        <ele>1506.1</ele>
        <time>2018-01-12T10:28:31Z</time>
      </trkpt>
      <trkpt lat="42.98094" lon="-0.24451">
        <ele>1506.5</ele>
        <time>2018-01-12T10:28:37Z</time>
      </trkpt>
      <trkpt lat="42.98095" lon="-0.2445">
        <ele>1506.7</ele>
        <time>2018-01-12T10:28:38Z</time>
      </trkpt>
      <trkpt lat="42.98109" lon="-0.24443">
        <ele>1507.6</ele>
        <time>2018-01-12T10:28:47Z</time>
      </trkpt>
      <trkpt lat="42.98116" lon="-0.24438">
        <ele>1508.1</ele>
        <time>2018-01-12T10:28:52Z</time>
      </trkpt>
      <trkpt lat="42.98125" lon="-0.24434">
        <ele>1508.1</ele>
        <time>2018-01-12T10:28:58Z</time>
      </trkpt>
      <trkpt lat="42.98132" lon="-0.24428">
        <ele>1509.8</ele>
        <time>2018-01-12T10:29:04Z</time>
      </trkpt>
      <trkpt lat="42.98138" lon="-0.2442">
        <ele>1510.3</ele>
        <time>2018-01-12T10:29:09Z</time>
      </trkpt>
      <trkpt lat="42.98142" lon="-0.24411">
        <ele>1510.9</ele>
        <time>2018-01-12T10:29:14Z</time>
      </trkpt>
      <trkpt lat="42.98143" lon="-0.244">
        <ele>1512.5</ele>
        <time>2018-01-12T10:29:19Z</time>
      </trkpt>
      <trkpt lat="42.98143" lon="-0.2439">
        <ele>1512.7</ele>
        <time>2018-01-12T10:29:24Z</time>
      </trkpt>
      <trkpt lat="42.98145" lon="-0.24379">
        <ele>1513.7</ele>
        <time>2018-01-12T10:29:29Z</time>
      </trkpt>
      <trkpt lat="42.98148" lon="-0.2437">
        <ele>1514.2</ele>
        <time>2018-01-12T10:29:34Z</time>
      </trkpt>
      <trkpt lat="42.98153" lon="-0.24362">
        <ele>1514.7</ele>
        <time>2018-01-12T10:29:39Z</time>
      </trkpt>
      <trkpt lat="42.98154" lon="-0.2436">
        <ele>1514.8</ele>
        <time>2018-01-12T10:29:40Z</time>
      </trkpt>
      <trkpt lat="42.98165" lon="-0.24345">
        <ele>1515.8</ele>
        <time>2018-01-12T10:29:50Z</time>
      </trkpt>
      <trkpt lat="42.98171" lon="-0.24337">
        <ele>1516.1</ele>
        <time>2018-01-12T10:29:56Z</time>
      </trkpt>
      <trkpt lat="42.98178" lon="-0.24331">
        <ele>1517.3</ele>
        <time>2018-01-12T10:30:02Z</time>
      </trkpt>
      <trkpt lat="42.98185" lon="-0.24326">
        <ele>1517.1</ele>
        <time>2018-01-12T10:30:07Z</time>
      </trkpt>
      <trkpt lat="42.98192" lon="-0.2432">
        <ele>1517.5</ele>
        <time>2018-01-12T10:30:12Z</time>
      </trkpt>
      <trkpt lat="42.98198" lon="-0.24314">
        <ele>1518.7</ele>
        <time>2018-01-12T10:30:17Z</time>
      </trkpt>
      <trkpt lat="42.98205" lon="-0.24307">
        <ele>1519.7</ele>
        <time>2018-01-12T10:30:22Z</time>
      </trkpt>
      <trkpt lat="42.98211" lon="-0.243">
        <ele>1520.5</ele>
        <time>2018-01-12T10:30:27Z</time>
      </trkpt>
      <trkpt lat="42.98217" lon="-0.24292">
        <ele>1520.5</ele>
        <time>2018-01-12T10:30:32Z</time>
      </trkpt>
      <trkpt lat="42.98222" lon="-0.24283">
        <ele>1520.8</ele>
        <time>2018-01-12T10:30:37Z</time>
      </trkpt>
      <trkpt lat="42.98227" lon="-0.24273">
        <ele>1521.7</ele>
        <time>2018-01-12T10:30:42Z</time>
      </trkpt>
      <trkpt lat="42.98227" lon="-0.24271">
        <ele>1521.9</ele>
        <time>2018-01-12T10:30:43Z</time>
      </trkpt>
      <trkpt lat="42.98232" lon="-0.24252">
        <ele>1523</ele>
        <time>2018-01-12T10:30:52Z</time>
      </trkpt>
      <trkpt lat="42.98234" lon="-0.24242">
        <ele>1523.2</ele>
        <time>2018-01-12T10:30:57Z</time>
      </trkpt>
      <trkpt lat="42.98236" lon="-0.24232">
        <ele>1523.5</ele>
        <time>2018-01-12T10:31:02Z</time>
      </trkpt>
      <trkpt lat="42.98238" lon="-0.24221">
        <ele>1524.4</ele>
        <time>2018-01-12T10:31:07Z</time>
      </trkpt>
      <trkpt lat="42.9824" lon="-0.24211">
        <ele>1525.1</ele>
        <time>2018-01-12T10:31:12Z</time>
      </trkpt>
      <trkpt lat="42.98244" lon="-0.24202">
        <ele>1525.1</ele>
        <time>2018-01-12T10:31:17Z</time>
      </trkpt>
      <trkpt lat="42.98247" lon="-0.24193">
        <ele>1525.9</ele>
        <time>2018-01-12T10:31:22Z</time>
      </trkpt>
      <trkpt lat="42.98251" lon="-0.24183">
        <ele>1527.2</ele>
        <time>2018-01-12T10:31:27Z</time>
      </trkpt>
      <trkpt lat="42.98255" lon="-0.24173">
        <ele>1528</ele>
        <time>2018-01-12T10:31:33Z</time>
      </trkpt>
      <trkpt lat="42.98259" lon="-0.24163">
        <ele>1528.9</ele>
        <time>2018-01-12T10:31:39Z</time>
      </trkpt>
      <trkpt lat="42.98263" lon="-0.24152">
        <ele>1529.3</ele>
        <time>2018-01-12T10:31:45Z</time>
      </trkpt>
      <trkpt lat="42.98263" lon="-0.24151">
        <ele>1530.1</ele>
        <time>2018-01-12T10:31:46Z</time>
      </trkpt>
      <trkpt lat="42.98272" lon="-0.24135">
        <ele>1531.6</ele>
        <time>2018-01-12T10:31:59Z</time>
      </trkpt>
      <trkpt lat="42.98275" lon="-0.24124">
        <ele>1532.1</ele>
        <time>2018-01-12T10:32:07Z</time>
      </trkpt>
      <trkpt lat="42.98274" lon="-0.24112">
        <ele>1534.2</ele>
        <time>2018-01-12T10:32:19Z</time>
      </trkpt>
      <trkpt lat="42.9827" lon="-0.24122">
        <ele>1533.5</ele>
        <time>2018-01-12T10:33:51Z</time>
      </trkpt>
      <trkpt lat="42.98268" lon="-0.24125">
        <ele>1533.4</ele>
        <time>2018-01-12T10:33:52Z</time>
      </trkpt>
      <trkpt lat="42.98262" lon="-0.24135">
        <ele>1533.2</ele>
        <time>2018-01-12T10:33:55Z</time>
      </trkpt>
      <trkpt lat="42.98257" lon="-0.24144">
        <ele>1532.5</ele>
        <time>2018-01-12T10:33:58Z</time>
      </trkpt>
      <trkpt lat="42.98252" lon="-0.24153">
        <ele>1532.4</ele>
        <time>2018-01-12T10:34:02Z</time>
      </trkpt>
      <trkpt lat="42.98247" lon="-0.24162">
        <ele>1532.1</ele>
        <time>2018-01-12T10:34:06Z</time>
      </trkpt>
      <trkpt lat="42.98243" lon="-0.2417">
        <ele>1532.3</ele>
        <time>2018-01-12T10:34:09Z</time>
      </trkpt>
      <trkpt lat="42.98239" lon="-0.24179">
        <ele>1532.2</ele>
        <time>2018-01-12T10:34:12Z</time>
      </trkpt>
      <trkpt lat="42.98236" lon="-0.2419">
        <ele>1532.4</ele>
        <time>2018-01-12T10:34:15Z</time>
      </trkpt>
      <trkpt lat="42.98233" lon="-0.24201">
        <ele>1533.4</ele>
        <time>2018-01-12T10:34:18Z</time>
      </trkpt>
      <trkpt lat="42.9823" lon="-0.24209">
        <ele>1532.8</ele>
        <time>2018-01-12T10:34:20Z</time>
      </trkpt>
      <trkpt lat="42.98228" lon="-0.24218">
        <ele>1532.2</ele>
        <time>2018-01-12T10:34:22Z</time>
      </trkpt>
      <trkpt lat="42.98225" lon="-0.24226">
        <ele>1531.8</ele>
        <time>2018-01-12T10:34:24Z</time>
      </trkpt>
      <trkpt lat="42.98223" lon="-0.24235">
        <ele>1531.3</ele>
        <time>2018-01-12T10:34:26Z</time>
      </trkpt>
      <trkpt lat="42.9822" lon="-0.24243">
        <ele>1530.4</ele>
        <time>2018-01-12T10:34:28Z</time>
      </trkpt>
      <trkpt lat="42.98218" lon="-0.24251">
        <ele>1529.4</ele>
        <time>2018-01-12T10:34:30Z</time>
      </trkpt>
      <trkpt lat="42.98215" lon="-0.24259">
        <ele>1529.1</ele>
        <time>2018-01-12T10:34:32Z</time>
      </trkpt>
      <trkpt lat="42.98211" lon="-0.24266">
        <ele>1529.1</ele>
        <time>2018-01-12T10:34:34Z</time>
      </trkpt>
      <trkpt lat="42.98205" lon="-0.24276">
        <ele>1528.9</ele>
        <time>2018-01-12T10:34:37Z</time>
      </trkpt>
      <trkpt lat="42.982" lon="-0.24282">
        <ele>1528.1</ele>
        <time>2018-01-12T10:34:40Z</time>
      </trkpt>
      <trkpt lat="42.98193" lon="-0.24289">
        <ele>1528.2</ele>
        <time>2018-01-12T10:34:44Z</time>
      </trkpt>
      <trkpt lat="42.98187" lon="-0.24296">
        <ele>1528.1</ele>
        <time>2018-01-12T10:34:48Z</time>
      </trkpt>
      <trkpt lat="42.98181" lon="-0.24301">
        <ele>1528</ele>
        <time>2018-01-12T10:34:51Z</time>
      </trkpt>
      <trkpt lat="42.98175" lon="-0.24306">
        <ele>1527.9</ele>
        <time>2018-01-12T10:34:54Z</time>
      </trkpt>
      <trkpt lat="42.98173" lon="-0.24307">
        <ele>1527.8</ele>
        <time>2018-01-12T10:34:55Z</time>
      </trkpt>
      <trkpt lat="42.98162" lon="-0.24317">
        <ele>1527.2</ele>
        <time>2018-01-12T10:35:00Z</time>
      </trkpt>
      <trkpt lat="42.98156" lon="-0.24324">
        <ele>1526.5</ele>
        <time>2018-01-12T10:35:03Z</time>
      </trkpt>
      <trkpt lat="42.98151" lon="-0.2433">
        <ele>1526.8</ele>
        <time>2018-01-12T10:35:06Z</time>
      </trkpt>
      <trkpt lat="42.98145" lon="-0.24338">
        <ele>1525.8</ele>
        <time>2018-01-12T10:35:10Z</time>
      </trkpt>
      <trkpt lat="42.9814" lon="-0.24346">
        <ele>1525.5</ele>
        <time>2018-01-12T10:35:14Z</time>
      </trkpt>
      <trkpt lat="42.98134" lon="-0.24353">
        <ele>1525.5</ele>
        <time>2018-01-12T10:35:17Z</time>
      </trkpt>
      <trkpt lat="42.98127" lon="-0.24361">
        <ele>1525.9</ele>
        <time>2018-01-12T10:35:20Z</time>
      </trkpt>
      <trkpt lat="42.98123" lon="-0.24367">
        <ele>1526.1</ele>
        <time>2018-01-12T10:35:22Z</time>
      </trkpt>
      <trkpt lat="42.98118" lon="-0.24372">
        <ele>1525</ele>
        <time>2018-01-12T10:35:24Z</time>
      </trkpt>
      <trkpt lat="42.98113" lon="-0.24378">
        <ele>1524.5</ele>
        <time>2018-01-12T10:35:26Z</time>
      </trkpt>
      <trkpt lat="42.98108" lon="-0.24383">
        <ele>1524.3</ele>
        <time>2018-01-12T10:35:28Z</time>
      </trkpt>
      <trkpt lat="42.98103" lon="-0.24388">
        <ele>1524.3</ele>
        <time>2018-01-12T10:35:30Z</time>
      </trkpt>
      <trkpt lat="42.98096" lon="-0.24394">
        <ele>1524.6</ele>
        <time>2018-01-12T10:35:33Z</time>
      </trkpt>
      <trkpt lat="42.98089" lon="-0.24399">
        <ele>1524.4</ele>
        <time>2018-01-12T10:35:36Z</time>
      </trkpt>
      <trkpt lat="42.98082" lon="-0.24404">
        <ele>1524.5</ele>
        <time>2018-01-12T10:35:39Z</time>
      </trkpt>
      <trkpt lat="42.98076" lon="-0.24408">
        <ele>1525</ele>
        <time>2018-01-12T10:35:41Z</time>
      </trkpt>
      <trkpt lat="42.9807" lon="-0.24412">
        <ele>1524</ele>
        <time>2018-01-12T10:35:43Z</time>
      </trkpt>
      <trkpt lat="42.98064" lon="-0.24416">
        <ele>1523.2</ele>
        <time>2018-01-12T10:35:45Z</time>
      </trkpt>
      <trkpt lat="42.98058" lon="-0.24421">
        <ele>1522.6</ele>
        <time>2018-01-12T10:35:47Z</time>
      </trkpt>
      <trkpt lat="42.98053" lon="-0.24427">
        <ele>1522.6</ele>
        <time>2018-01-12T10:35:49Z</time>
      </trkpt>
      <trkpt lat="42.98047" lon="-0.24434">
        <ele>1522.6</ele>
        <time>2018-01-12T10:35:52Z</time>
      </trkpt>
      <trkpt lat="42.9804" lon="-0.24442">
        <ele>1522.4</ele>
        <time>2018-01-12T10:35:56Z</time>
      </trkpt>
      <trkpt lat="42.98034" lon="-0.2445">
        <ele>1521.7</ele>
        <time>2018-01-12T10:36:00Z</time>
      </trkpt>
      <trkpt lat="42.98033" lon="-0.24453">
        <ele>1521.4</ele>
        <time>2018-01-12T10:36:01Z</time>
      </trkpt>
      <trkpt lat="42.98025" lon="-0.24469">
        <ele>1520.5</ele>
        <time>2018-01-12T10:36:06Z</time>
      </trkpt>
      <trkpt lat="42.98023" lon="-0.2448">
        <ele>1520.6</ele>
        <time>2018-01-12T10:36:10Z</time>
      </trkpt>
      <trkpt lat="42.98022" lon="-0.24491">
        <ele>1520.5</ele>
        <time>2018-01-12T10:36:14Z</time>
      </trkpt>
      <trkpt lat="42.98022" lon="-0.24502">
        <ele>1520.7</ele>
        <time>2018-01-12T10:36:17Z</time>
      </trkpt>
      <trkpt lat="42.98023" lon="-0.24513">
        <ele>1520.5</ele>
        <time>2018-01-12T10:36:20Z</time>
      </trkpt>
      <trkpt lat="42.98024" lon="-0.24523">
        <ele>1520</ele>
        <time>2018-01-12T10:36:24Z</time>
      </trkpt>
      <trkpt lat="42.98024" lon="-0.24532">
        <ele>1520</ele>
        <time>2018-01-12T10:36:27Z</time>
      </trkpt>
      <trkpt lat="42.98024" lon="-0.24542">
        <ele>1520.3</ele>
        <time>2018-01-12T10:36:30Z</time>
      </trkpt>
      <trkpt lat="42.98023" lon="-0.24553">
        <ele>1520.6</ele>
        <time>2018-01-12T10:36:34Z</time>
      </trkpt>
      <trkpt lat="42.98021" lon="-0.24565">
        <ele>1520.7</ele>
        <time>2018-01-12T10:36:38Z</time>
      </trkpt>
      <trkpt lat="42.9802" lon="-0.24577">
        <ele>1519.9</ele>
        <time>2018-01-12T10:36:42Z</time>
      </trkpt>
      <trkpt lat="42.98018" lon="-0.24589">
        <ele>1519.9</ele>
        <time>2018-01-12T10:36:46Z</time>
      </trkpt>
      <trkpt lat="42.98017" lon="-0.24601">
        <ele>1519.4</ele>
        <time>2018-01-12T10:36:50Z</time>
      </trkpt>
      <trkpt lat="42.98017" lon="-0.2461">
        <ele>1518.7</ele>
        <time>2018-01-12T10:36:53Z</time>
      </trkpt>
      <trkpt lat="42.98016" lon="-0.24618">
        <ele>1518.3</ele>
        <time>2018-01-12T10:36:55Z</time>
      </trkpt>
      <trkpt lat="42.98014" lon="-0.2463">
        <ele>1517.8</ele>
        <time>2018-01-12T10:36:58Z</time>
      </trkpt>
      <trkpt lat="42.98011" lon="-0.2464">
        <ele>1517.5</ele>
        <time>2018-01-12T10:37:01Z</time>
      </trkpt>
      <trkpt lat="42.98008" lon="-0.24649">
        <ele>1517.4</ele>
        <time>2018-01-12T10:37:04Z</time>
      </trkpt>
      <trkpt lat="42.98006" lon="-0.24652">
        <ele>1517.7</ele>
        <time>2018-01-12T10:37:05Z</time>
      </trkpt>
      <trkpt lat="42.97995" lon="-0.24664">
        <ele>1518.6</ele>
        <time>2018-01-12T10:37:13Z</time>
      </trkpt>
      <trkpt lat="42.97988" lon="-0.24669">
        <ele>1518</ele>
        <time>2018-01-12T10:37:17Z</time>
      </trkpt>
      <trkpt lat="42.97982" lon="-0.24675">
        <ele>1517.7</ele>
        <time>2018-01-12T10:37:21Z</time>
      </trkpt>
      <trkpt lat="42.97974" lon="-0.24681">
        <ele>1518.5</ele>
        <time>2018-01-12T10:37:25Z</time>
      </trkpt>
      <trkpt lat="42.97969" lon="-0.24686">
        <ele>1518.4</ele>
        <time>2018-01-12T10:37:28Z</time>
      </trkpt>
      <trkpt lat="42.97961" lon="-0.24691">
        <ele>1517.5</ele>
        <time>2018-01-12T10:37:31Z</time>
      </trkpt>
      <trkpt lat="42.97955" lon="-0.24694">
        <ele>1517</ele>
        <time>2018-01-12T10:37:33Z</time>
      </trkpt>
      <trkpt lat="42.97948" lon="-0.24696">
        <ele>1516.8</ele>
        <time>2018-01-12T10:37:35Z</time>
      </trkpt>
      <trkpt lat="42.97942" lon="-0.24699">
        <ele>1516.5</ele>
        <time>2018-01-12T10:37:37Z</time>
      </trkpt>
      <trkpt lat="42.97934" lon="-0.24701">
        <ele>1516.4</ele>
        <time>2018-01-12T10:37:40Z</time>
      </trkpt>
      <trkpt lat="42.97925" lon="-0.24704">
        <ele>1516.7</ele>
        <time>2018-01-12T10:37:44Z</time>
      </trkpt>
      <trkpt lat="42.97919" lon="-0.24707">
        <ele>1516.8</ele>
        <time>2018-01-12T10:37:47Z</time>
      </trkpt>
      <trkpt lat="42.9791" lon="-0.2471">
        <ele>1516.4</ele>
        <time>2018-01-12T10:37:51Z</time>
      </trkpt>
      <trkpt lat="42.97903" lon="-0.24712">
        <ele>1516.5</ele>
        <time>2018-01-12T10:37:54Z</time>
      </trkpt>
      <trkpt lat="42.97897" lon="-0.24718">
        <ele>1516.3</ele>
        <time>2018-01-12T10:37:58Z</time>
      </trkpt>
      <trkpt lat="42.97891" lon="-0.24725">
        <ele>1517.1</ele>
        <time>2018-01-12T10:38:01Z</time>
      </trkpt>
      <trkpt lat="42.97885" lon="-0.24731">
        <ele>1516.7</ele>
        <time>2018-01-12T10:38:04Z</time>
      </trkpt>
      <trkpt lat="42.97878" lon="-0.24736">
        <ele>1515.9</ele>
        <time>2018-01-12T10:38:07Z</time>
      </trkpt>
      <trkpt lat="42.97876" lon="-0.24738">
        <ele>1515.8</ele>
        <time>2018-01-12T10:38:08Z</time>
      </trkpt>
      <trkpt lat="42.97866" lon="-0.24747">
        <ele>1516.3</ele>
        <time>2018-01-12T10:38:13Z</time>
      </trkpt>
      <trkpt lat="42.9786" lon="-0.24752">
        <ele>1515.3</ele>
        <time>2018-01-12T10:38:16Z</time>
      </trkpt>
      <trkpt lat="42.97853" lon="-0.24758">
        <ele>1515.1</ele>
        <time>2018-01-12T10:38:19Z</time>
      </trkpt>
      <trkpt lat="42.97847" lon="-0.24762">
        <ele>1515.3</ele>
        <time>2018-01-12T10:38:22Z</time>
      </trkpt>
      <trkpt lat="42.97839" lon="-0.24767">
        <ele>1515.5</ele>
        <time>2018-01-12T10:38:26Z</time>
      </trkpt>
      <trkpt lat="42.9783" lon="-0.2477">
        <ele>1514.7</ele>
        <time>2018-01-12T10:38:30Z</time>
      </trkpt>
      <trkpt lat="42.97823" lon="-0.24771">
        <ele>1514.5</ele>
        <time>2018-01-12T10:38:33Z</time>
      </trkpt>
      <trkpt lat="42.97816" lon="-0.24772">
        <ele>1514.4</ele>
        <time>2018-01-12T10:38:36Z</time>
      </trkpt>
      <trkpt lat="42.97809" lon="-0.24771">
        <ele>1514.1</ele>
        <time>2018-01-12T10:38:39Z</time>
      </trkpt>
      <trkpt lat="42.97801" lon="-0.24769">
        <ele>1513.5</ele>
        <time>2018-01-12T10:38:42Z</time>
      </trkpt>
      <trkpt lat="42.97793" lon="-0.24766">
        <ele>1513.7</ele>
        <time>2018-01-12T10:38:45Z</time>
      </trkpt>
      <trkpt lat="42.97787" lon="-0.24763">
        <ele>1513.3</ele>
        <time>2018-01-12T10:38:47Z</time>
      </trkpt>
      <trkpt lat="42.97781" lon="-0.2476">
        <ele>1512.6</ele>
        <time>2018-01-12T10:38:49Z</time>
      </trkpt>
      <trkpt lat="42.97775" lon="-0.24758">
        <ele>1512.5</ele>
        <time>2018-01-12T10:38:51Z</time>
      </trkpt>
      <trkpt lat="42.97767" lon="-0.24755">
        <ele>1512</ele>
        <time>2018-01-12T10:38:54Z</time>
      </trkpt>
      <trkpt lat="42.9776" lon="-0.24748">
        <ele>1511.7</ele>
        <time>2018-01-12T10:38:57Z</time>
      </trkpt>
      <trkpt lat="42.97756" lon="-0.24739">
        <ele>1511.7</ele>
        <time>2018-01-12T10:39:00Z</time>
      </trkpt>
      <trkpt lat="42.97753" lon="-0.2473">
        <ele>1511.9</ele>
        <time>2018-01-12T10:39:03Z</time>
      </trkpt>
      <trkpt lat="42.97749" lon="-0.24721">
        <ele>1511.2</ele>
        <time>2018-01-12T10:39:06Z</time>
      </trkpt>
      <trkpt lat="42.97743" lon="-0.24713">
        <ele>1510.4</ele>
        <time>2018-01-12T10:39:09Z</time>
      </trkpt>
      <trkpt lat="42.97741" lon="-0.24711">
        <ele>1510.5</ele>
        <time>2018-01-12T10:39:10Z</time>
      </trkpt>
      <trkpt lat="42.97729" lon="-0.24704">
        <ele>1509.7</ele>
        <time>2018-01-12T10:39:16Z</time>
      </trkpt>
      <trkpt lat="42.97721" lon="-0.24702">
        <ele>1509.4</ele>
        <time>2018-01-12T10:39:20Z</time>
      </trkpt>
      <trkpt lat="42.97713" lon="-0.24702">
        <ele>1509.6</ele>
        <time>2018-01-12T10:39:23Z</time>
      </trkpt>
      <trkpt lat="42.97705" lon="-0.24702">
        <ele>1509.5</ele>
        <time>2018-01-12T10:39:26Z</time>
      </trkpt>
      <trkpt lat="42.97698" lon="-0.247">
        <ele>1509.4</ele>
        <time>2018-01-12T10:39:29Z</time>
      </trkpt>
      <trkpt lat="42.9769" lon="-0.24698">
        <ele>1509.3</ele>
        <time>2018-01-12T10:39:32Z</time>
      </trkpt>
      <trkpt lat="42.97682" lon="-0.24696">
        <ele>1509</ele>
        <time>2018-01-12T10:39:35Z</time>
      </trkpt>
      <trkpt lat="42.97673" lon="-0.24695">
        <ele>1508.8</ele>
        <time>2018-01-12T10:39:38Z</time>
      </trkpt>
      <trkpt lat="42.97664" lon="-0.24694">
        <ele>1509.1</ele>
        <time>2018-01-12T10:39:41Z</time>
      </trkpt>
      <trkpt lat="42.97656" lon="-0.24695">
        <ele>1508.6</ele>
        <time>2018-01-12T10:39:44Z</time>
      </trkpt>
      <trkpt lat="42.9765" lon="-0.24696">
        <ele>1507.9</ele>
        <time>2018-01-12T10:39:46Z</time>
      </trkpt>
      <trkpt lat="42.97643" lon="-0.24698">
        <ele>1507.5</ele>
        <time>2018-01-12T10:39:48Z</time>
      </trkpt>
      <trkpt lat="42.97637" lon="-0.24702">
        <ele>1507.4</ele>
        <time>2018-01-12T10:39:50Z</time>
      </trkpt>
      <trkpt lat="42.97631" lon="-0.24705">
        <ele>1507</ele>
        <time>2018-01-12T10:39:52Z</time>
      </trkpt>
      <trkpt lat="42.97623" lon="-0.2471">
        <ele>1507.5</ele>
        <time>2018-01-12T10:39:56Z</time>
      </trkpt>
      <trkpt lat="42.97617" lon="-0.24717">
        <ele>1506.9</ele>
        <time>2018-01-12T10:40:01Z</time>
      </trkpt>
      <trkpt lat="42.9761" lon="-0.24724">
        <ele>1506.5</ele>
        <time>2018-01-12T10:40:06Z</time>
      </trkpt>
      <trkpt lat="42.97603" lon="-0.24729">
        <ele>1508.5</ele>
        <time>2018-01-12T10:40:10Z</time>
      </trkpt>
      <trkpt lat="42.97596" lon="-0.24733">
        <ele>1507.6</ele>
        <time>2018-01-12T10:40:15Z</time>
      </trkpt>
      <trkpt lat="42.97594" lon="-0.24734">
        <ele>1507.9</ele>
        <time>2018-01-12T10:40:16Z</time>
      </trkpt>
      <trkpt lat="42.9758" lon="-0.2474">
        <ele>1508.3</ele>
        <time>2018-01-12T10:40:25Z</time>
      </trkpt>
      <trkpt lat="42.97572" lon="-0.24744">
        <ele>1508.8</ele>
        <time>2018-01-12T10:40:30Z</time>
      </trkpt>
      <trkpt lat="42.97564" lon="-0.24747">
        <ele>1508.8</ele>
        <time>2018-01-12T10:40:34Z</time>
      </trkpt>
      <trkpt lat="42.97557" lon="-0.24752">
        <ele>1509.6</ele>
        <time>2018-01-12T10:40:37Z</time>
      </trkpt>
      <trkpt lat="42.9755" lon="-0.24755">
        <ele>1509.2</ele>
        <time>2018-01-12T10:40:40Z</time>
      </trkpt>
      <trkpt lat="42.97542" lon="-0.24758">
        <ele>1508.4</ele>
        <time>2018-01-12T10:40:44Z</time>
      </trkpt>
      <trkpt lat="42.97534" lon="-0.24756">
        <ele>1507.5</ele>
        <time>2018-01-12T10:40:49Z</time>
      </trkpt>
      <trkpt lat="42.97529" lon="-0.24748">
        <ele>1507.7</ele>
        <time>2018-01-12T10:40:54Z</time>
      </trkpt>
      <trkpt lat="42.97524" lon="-0.2474">
        <ele>1508.8</ele>
        <time>2018-01-12T10:40:59Z</time>
      </trkpt>
      <trkpt lat="42.97517" lon="-0.24733">
        <ele>1508.9</ele>
        <time>2018-01-12T10:41:05Z</time>
      </trkpt>
      <trkpt lat="42.97509" lon="-0.2473">
        <ele>1508.7</ele>
        <time>2018-01-12T10:41:12Z</time>
      </trkpt>
      <trkpt lat="42.97501" lon="-0.24724">
        <ele>1509.7</ele>
        <time>2018-01-12T10:41:26Z</time>
      </trkpt>
      <trkpt lat="42.97501" lon="-0.24724">
        <ele>1509.7</ele>
        <time>2018-01-12T10:41:27Z</time>
      </trkpt>
      <trkpt lat="42.97485" lon="-0.2473">
        <ele>1508.9</ele>
        <time>2018-01-12T10:41:46Z</time>
      </trkpt>
      <trkpt lat="42.97477" lon="-0.24729">
        <ele>1509.5</ele>
        <time>2018-01-12T10:41:51Z</time>
      </trkpt>
      <trkpt lat="42.97468" lon="-0.2473">
        <ele>1509.7</ele>
        <time>2018-01-12T10:41:56Z</time>
      </trkpt>
      <trkpt lat="42.9746" lon="-0.24731">
        <ele>1511.1</ele>
        <time>2018-01-12T10:42:01Z</time>
      </trkpt>
      <trkpt lat="42.97452" lon="-0.24732">
        <ele>1512.2</ele>
        <time>2018-01-12T10:42:06Z</time>
      </trkpt>
      <trkpt lat="42.97444" lon="-0.24734">
        <ele>1511.8</ele>
        <time>2018-01-12T10:42:11Z</time>
      </trkpt>
      <trkpt lat="42.97435" lon="-0.24736">
        <ele>1512.3</ele>
        <time>2018-01-12T10:42:16Z</time>
      </trkpt>
      <trkpt lat="42.97427" lon="-0.2474">
        <ele>1514.4</ele>
        <time>2018-01-12T10:42:22Z</time>
      </trkpt>
      <trkpt lat="42.9742" lon="-0.24746">
        <ele>1515.1</ele>
        <time>2018-01-12T10:42:28Z</time>
      </trkpt>
      <trkpt lat="42.97413" lon="-0.24752">
        <ele>1515.3</ele>
        <time>2018-01-12T10:42:34Z</time>
      </trkpt>
      <trkpt lat="42.97412" lon="-0.24753">
        <ele>1515.6</ele>
        <time>2018-01-12T10:42:35Z</time>
      </trkpt>
      <trkpt lat="42.97398" lon="-0.2476">
        <ele>1516.9</ele>
        <time>2018-01-12T10:42:47Z</time>
      </trkpt>
      <trkpt lat="42.97389" lon="-0.24761">
        <ele>1518.2</ele>
        <time>2018-01-12T10:42:54Z</time>
      </trkpt>
      <trkpt lat="42.97382" lon="-0.2476">
        <ele>1518.9</ele>
        <time>2018-01-12T10:43:00Z</time>
      </trkpt>
      <trkpt lat="42.97373" lon="-0.24759">
        <ele>1520.1</ele>
        <time>2018-01-12T10:43:06Z</time>
      </trkpt>
      <trkpt lat="42.97365" lon="-0.24758">
        <ele>1520.6</ele>
        <time>2018-01-12T10:43:12Z</time>
      </trkpt>
      <trkpt lat="42.97357" lon="-0.24758">
        <ele>1521.9</ele>
        <time>2018-01-12T10:43:18Z</time>
      </trkpt>
      <trkpt lat="42.97349" lon="-0.2476">
        <ele>1522.5</ele>
        <time>2018-01-12T10:43:25Z</time>
      </trkpt>
      <trkpt lat="42.9734" lon="-0.24761">
        <ele>1524.4</ele>
        <time>2018-01-12T10:43:32Z</time>
      </trkpt>
      <trkpt lat="42.97332" lon="-0.24761">
        <ele>1524.8</ele>
        <time>2018-01-12T10:43:38Z</time>
      </trkpt>
      <trkpt lat="42.97331" lon="-0.24762">
        <ele>1524.8</ele>
        <time>2018-01-12T10:43:39Z</time>
      </trkpt>
      <trkpt lat="42.97316" lon="-0.24768">
        <ele>1526.3</ele>
        <time>2018-01-12T10:43:50Z</time>
      </trkpt>
      <trkpt lat="42.97307" lon="-0.24772">
        <ele>1526.9</ele>
        <time>2018-01-12T10:43:56Z</time>
      </trkpt>
      <trkpt lat="42.97299" lon="-0.24778">
        <ele>1527.6</ele>
        <time>2018-01-12T10:44:02Z</time>
      </trkpt>
      <trkpt lat="42.97293" lon="-0.24784">
        <ele>1527.7</ele>
        <time>2018-01-12T10:44:07Z</time>
      </trkpt>
      <trkpt lat="42.97286" lon="-0.24792">
        <ele>1529</ele>
        <time>2018-01-12T10:44:13Z</time>
      </trkpt>
      <trkpt lat="42.97281" lon="-0.248">
        <ele>1528.7</ele>
        <time>2018-01-12T10:44:18Z</time>
      </trkpt>
      <trkpt lat="42.97277" lon="-0.24808">
        <ele>1528.7</ele>
        <time>2018-01-12T10:44:23Z</time>
      </trkpt>
      <trkpt lat="42.97272" lon="-0.24817">
        <ele>1528.6</ele>
        <time>2018-01-12T10:44:28Z</time>
      </trkpt>
      <trkpt lat="42.97268" lon="-0.24827">
        <ele>1529.5</ele>
        <time>2018-01-12T10:44:33Z</time>
      </trkpt>
      <trkpt lat="42.97263" lon="-0.24836">
        <ele>1529.7</ele>
        <time>2018-01-12T10:44:38Z</time>
      </trkpt>
      <trkpt lat="42.97258" lon="-0.24845">
        <ele>1530.6</ele>
        <time>2018-01-12T10:44:43Z</time>
      </trkpt>
      <trkpt lat="42.97257" lon="-0.24847">
        <ele>1530.7</ele>
        <time>2018-01-12T10:44:44Z</time>
      </trkpt>
      <trkpt lat="42.97247" lon="-0.24863">
        <ele>1531.4</ele>
        <time>2018-01-12T10:44:54Z</time>
      </trkpt>
      <trkpt lat="42.97241" lon="-0.24871">
        <ele>1532.3</ele>
        <time>2018-01-12T10:45:00Z</time>
      </trkpt>
      <trkpt lat="42.97235" lon="-0.24878">
        <ele>1532.4</ele>
        <time>2018-01-12T10:45:05Z</time>
      </trkpt>
      <trkpt lat="42.97228" lon="-0.24885">
        <ele>1532.9</ele>
        <time>2018-01-12T10:45:09Z</time>
      </trkpt>
      <trkpt lat="42.97222" lon="-0.24892">
        <ele>1532.9</ele>
        <time>2018-01-12T10:45:12Z</time>
      </trkpt>
      <trkpt lat="42.97216" lon="-0.249">
        <ele>1532.5</ele>
        <time>2018-01-12T10:45:15Z</time>
      </trkpt>
      <trkpt lat="42.9721" lon="-0.24907">
        <ele>1531.9</ele>
        <time>2018-01-12T10:45:17Z</time>
      </trkpt>
      <trkpt lat="42.97206" lon="-0.24915">
        <ele>1531.6</ele>
        <time>2018-01-12T10:45:19Z</time>
      </trkpt>
      <trkpt lat="42.97202" lon="-0.24925">
        <ele>1530.4</ele>
        <time>2018-01-12T10:45:22Z</time>
      </trkpt>
      <trkpt lat="42.972" lon="-0.24935">
        <ele>1530</ele>
        <time>2018-01-12T10:45:28Z</time>
      </trkpt>
      <trkpt lat="42.97198" lon="-0.24946">
        <ele>1530.4</ele>
        <time>2018-01-12T10:45:33Z</time>
      </trkpt>
      <trkpt lat="42.97195" lon="-0.24957">
        <ele>1530.5</ele>
        <time>2018-01-12T10:45:38Z</time>
      </trkpt>
      <trkpt lat="42.97192" lon="-0.24968">
        <ele>1530.3</ele>
        <time>2018-01-12T10:45:43Z</time>
      </trkpt>
      <trkpt lat="42.97189" lon="-0.24979">
        <ele>1530.9</ele>
        <time>2018-01-12T10:45:48Z</time>
      </trkpt>
      <trkpt lat="42.97188" lon="-0.24982">
        <ele>1530.9</ele>
        <time>2018-01-12T10:45:49Z</time>
      </trkpt>
      <trkpt lat="42.97185" lon="-0.25">
        <ele>1532.3</ele>
        <time>2018-01-12T10:45:56Z</time>
      </trkpt>
      <trkpt lat="42.97184" lon="-0.25009">
        <ele>1531.8</ele>
        <time>2018-01-12T10:45:59Z</time>
      </trkpt>
      <trkpt lat="42.97184" lon="-0.2502">
        <ele>1531.3</ele>
        <time>2018-01-12T10:46:03Z</time>
      </trkpt>
      <trkpt lat="42.97183" lon="-0.25032">
        <ele>1532</ele>
        <time>2018-01-12T10:46:07Z</time>
      </trkpt>
      <trkpt lat="42.97182" lon="-0.25042">
        <ele>1532</ele>
        <time>2018-01-12T10:46:11Z</time>
      </trkpt>
      <trkpt lat="42.97181" lon="-0.25052">
        <ele>1531.1</ele>
        <time>2018-01-12T10:46:15Z</time>
      </trkpt>
      <trkpt lat="42.9718" lon="-0.25062">
        <ele>1531.7</ele>
        <time>2018-01-12T10:46:19Z</time>
      </trkpt>
      <trkpt lat="42.97178" lon="-0.25074">
        <ele>1531.1</ele>
        <time>2018-01-12T10:46:24Z</time>
      </trkpt>
      <trkpt lat="42.97177" lon="-0.25085">
        <ele>1530.9</ele>
        <time>2018-01-12T10:46:29Z</time>
      </trkpt>
      <trkpt lat="42.97174" lon="-0.25096">
        <ele>1531.9</ele>
        <time>2018-01-12T10:46:34Z</time>
      </trkpt>
      <trkpt lat="42.97172" lon="-0.25106">
        <ele>1532.4</ele>
        <time>2018-01-12T10:46:39Z</time>
      </trkpt>
      <trkpt lat="42.9717" lon="-0.25117">
        <ele>1532.5</ele>
        <time>2018-01-12T10:46:44Z</time>
      </trkpt>
      <trkpt lat="42.97169" lon="-0.25128">
        <ele>1533.4</ele>
        <time>2018-01-12T10:46:48Z</time>
      </trkpt>
      <trkpt lat="42.97171" lon="-0.25139">
        <ele>1534</ele>
        <time>2018-01-12T10:46:53Z</time>
      </trkpt>
      <trkpt lat="42.97172" lon="-0.25141">
        <ele>1534</ele>
        <time>2018-01-12T10:46:54Z</time>
      </trkpt>
      <trkpt lat="42.97177" lon="-0.2516">
        <ele>1533.2</ele>
        <time>2018-01-12T10:47:02Z</time>
      </trkpt>
      <trkpt lat="42.97179" lon="-0.2517">
        <ele>1532.7</ele>
        <time>2018-01-12T10:47:05Z</time>
      </trkpt>
      <trkpt lat="42.97181" lon="-0.25182">
        <ele>1531.8</ele>
        <time>2018-01-12T10:47:08Z</time>
      </trkpt>
      <trkpt lat="42.97183" lon="-0.25193">
        <ele>1531.5</ele>
        <time>2018-01-12T10:47:11Z</time>
      </trkpt>
      <trkpt lat="42.97186" lon="-0.25203">
        <ele>1531.3</ele>
        <time>2018-01-12T10:47:14Z</time>
      </trkpt>
      <trkpt lat="42.97188" lon="-0.25213">
        <ele>1531.6</ele>
        <time>2018-01-12T10:47:17Z</time>
      </trkpt>
      <trkpt lat="42.97191" lon="-0.25221">
        <ele>1531.1</ele>
        <time>2018-01-12T10:47:19Z</time>
      </trkpt>
      <trkpt lat="42.97193" lon="-0.25228">
        <ele>1530.9</ele>
        <time>2018-01-12T10:47:21Z</time>
      </trkpt>
      <trkpt lat="42.97196" lon="-0.25236">
        <ele>1530.7</ele>
        <time>2018-01-12T10:47:23Z</time>
      </trkpt>
      <trkpt lat="42.97198" lon="-0.25245">
        <ele>1530.3</ele>
        <time>2018-01-12T10:47:25Z</time>
      </trkpt>
      <trkpt lat="42.972" lon="-0.25253">
        <ele>1529.5</ele>
        <time>2018-01-12T10:47:27Z</time>
      </trkpt>
      <trkpt lat="42.97202" lon="-0.25261">
        <ele>1528.7</ele>
        <time>2018-01-12T10:47:29Z</time>
      </trkpt>
      <trkpt lat="42.97203" lon="-0.25273">
        <ele>1528.9</ele>
        <time>2018-01-12T10:47:32Z</time>
      </trkpt>
      <trkpt lat="42.97205" lon="-0.25284">
        <ele>1528.4</ele>
        <time>2018-01-12T10:47:35Z</time>
      </trkpt>
      <trkpt lat="42.97205" lon="-0.25294">
        <ele>1527.8</ele>
        <time>2018-01-12T10:47:38Z</time>
      </trkpt>
      <trkpt lat="42.97205" lon="-0.25305">
        <ele>1527.6</ele>
        <time>2018-01-12T10:47:42Z</time>
      </trkpt>
      <trkpt lat="42.97203" lon="-0.25317">
        <ele>1527.2</ele>
        <time>2018-01-12T10:47:47Z</time>
      </trkpt>
      <trkpt lat="42.97202" lon="-0.25327">
        <ele>1527.5</ele>
        <time>2018-01-12T10:47:51Z</time>
      </trkpt>
      <trkpt lat="42.97201" lon="-0.25337">
        <ele>1527.7</ele>
        <time>2018-01-12T10:47:54Z</time>
      </trkpt>
      <trkpt lat="42.97201" lon="-0.25346">
        <ele>1527.6</ele>
        <time>2018-01-12T10:47:56Z</time>
      </trkpt>
      <trkpt lat="42.97201" lon="-0.2535">
        <ele>1527.5</ele>
        <time>2018-01-12T10:47:57Z</time>
      </trkpt>
      <trkpt lat="42.97201" lon="-0.25363">
        <ele>1526.6</ele>
        <time>2018-01-12T10:48:00Z</time>
      </trkpt>
      <trkpt lat="42.972" lon="-0.25375">
        <ele>1526.2</ele>
        <time>2018-01-12T10:48:02Z</time>
      </trkpt>
      <trkpt lat="42.97199" lon="-0.25381">
        <ele>1526.1</ele>
        <time>2018-01-12T10:48:03Z</time>
      </trkpt>
      <trkpt lat="42.97198" lon="-0.25387">
        <ele>1526</ele>
        <time>2018-01-12T10:48:04Z</time>
      </trkpt>
      <trkpt lat="42.97197" lon="-0.25394">
        <ele>1526</ele>
        <time>2018-01-12T10:48:05Z</time>
      </trkpt>
      <trkpt lat="42.97195" lon="-0.254">
        <ele>1525.3</ele>
        <time>2018-01-12T10:48:06Z</time>
      </trkpt>
      <trkpt lat="42.97192" lon="-0.25411">
        <ele>1524.3</ele>
        <time>2018-01-12T10:48:08Z</time>
      </trkpt>
      <trkpt lat="42.97189" lon="-0.2542">
        <ele>1523.4</ele>
        <time>2018-01-12T10:48:10Z</time>
      </trkpt>
      <trkpt lat="42.97186" lon="-0.25428">
        <ele>1523.4</ele>
        <time>2018-01-12T10:48:12Z</time>
      </trkpt>
      <trkpt lat="42.97183" lon="-0.25435">
        <ele>1523.8</ele>
        <time>2018-01-12T10:48:14Z</time>
      </trkpt>
      <trkpt lat="42.9718" lon="-0.25443">
        <ele>1523</ele>
        <time>2018-01-12T10:48:16Z</time>
      </trkpt>
      <trkpt lat="42.97177" lon="-0.25451">
        <ele>1522.3</ele>
        <time>2018-01-12T10:48:18Z</time>
      </trkpt>
      <trkpt lat="42.97173" lon="-0.2546">
        <ele>1521.8</ele>
        <time>2018-01-12T10:48:20Z</time>
      </trkpt>
      <trkpt lat="42.9717" lon="-0.25468">
        <ele>1521.6</ele>
        <time>2018-01-12T10:48:22Z</time>
      </trkpt>
      <trkpt lat="42.97168" lon="-0.25477">
        <ele>1521.7</ele>
        <time>2018-01-12T10:48:24Z</time>
      </trkpt>
      <trkpt lat="42.97165" lon="-0.25486">
        <ele>1520.9</ele>
        <time>2018-01-12T10:48:26Z</time>
      </trkpt>
      <trkpt lat="42.97163" lon="-0.25495">
        <ele>1521</ele>
        <time>2018-01-12T10:48:28Z</time>
      </trkpt>
      <trkpt lat="42.97159" lon="-0.25505">
        <ele>1520.8</ele>
        <time>2018-01-12T10:48:31Z</time>
      </trkpt>
      <trkpt lat="42.97155" lon="-0.25516">
        <ele>1520.3</ele>
        <time>2018-01-12T10:48:36Z</time>
      </trkpt>
      <trkpt lat="42.97152" lon="-0.25525">
        <ele>1519.2</ele>
        <time>2018-01-12T10:48:40Z</time>
      </trkpt>
      <trkpt lat="42.97148" lon="-0.25535">
        <ele>1519.1</ele>
        <time>2018-01-12T10:48:44Z</time>
      </trkpt>
      <trkpt lat="42.97144" lon="-0.25545">
        <ele>1519.9</ele>
        <time>2018-01-12T10:48:48Z</time>
      </trkpt>
      <trkpt lat="42.9714" lon="-0.25554">
        <ele>1519.3</ele>
        <time>2018-01-12T10:48:52Z</time>
      </trkpt>
      <trkpt lat="42.97136" lon="-0.25565">
        <ele>1519.1</ele>
        <time>2018-01-12T10:48:56Z</time>
      </trkpt>
      <trkpt lat="42.97129" lon="-0.25574">
        <ele>1518.8</ele>
        <time>2018-01-12T10:49:00Z</time>
      </trkpt>
      <trkpt lat="42.97127" lon="-0.25575">
        <ele>1518.6</ele>
        <time>2018-01-12T10:49:01Z</time>
      </trkpt>
      <trkpt lat="42.97116" lon="-0.25586">
        <ele>1518.2</ele>
        <time>2018-01-12T10:49:06Z</time>
      </trkpt>
      <trkpt lat="42.97118" lon="-0.25598">
        <ele>1518.2</ele>
        <time>2018-01-12T10:49:11Z</time>
      </trkpt>
      <trkpt lat="42.97123" lon="-0.25606">
        <ele>1518.4</ele>
        <time>2018-01-12T10:49:17Z</time>
      </trkpt>
      <trkpt lat="42.97128" lon="-0.25615">
        <ele>1518.2</ele>
        <time>2018-01-12T10:49:22Z</time>
      </trkpt>
      <trkpt lat="42.97131" lon="-0.25626">
        <ele>1518.1</ele>
        <time>2018-01-12T10:49:28Z</time>
      </trkpt>
      <trkpt lat="42.97132" lon="-0.25636">
        <ele>1518.1</ele>
        <time>2018-01-12T10:49:33Z</time>
      </trkpt>
      <trkpt lat="42.97133" lon="-0.25649">
        <ele>1518.9</ele>
        <time>2018-01-12T10:49:38Z</time>
      </trkpt>
      <trkpt lat="42.97133" lon="-0.2566">
        <ele>1518.8</ele>
        <time>2018-01-12T10:49:43Z</time>
      </trkpt>
      <trkpt lat="42.97133" lon="-0.25671">
        <ele>1518.7</ele>
        <time>2018-01-12T10:49:48Z</time>
      </trkpt>
      <trkpt lat="42.97133" lon="-0.25681">
        <ele>1519.3</ele>
        <time>2018-01-12T10:49:53Z</time>
      </trkpt>
      <trkpt lat="42.97131" lon="-0.25693">
        <ele>1520.5</ele>
        <time>2018-01-12T10:49:59Z</time>
      </trkpt>
      <trkpt lat="42.97129" lon="-0.25704">
        <ele>1521.5</ele>
        <time>2018-01-12T10:50:05Z</time>
      </trkpt>
      <trkpt lat="42.97129" lon="-0.25706">
        <ele>1521.7</ele>
        <time>2018-01-12T10:50:06Z</time>
      </trkpt>
      <trkpt lat="42.97124" lon="-0.25725">
        <ele>1523.6</ele>
        <time>2018-01-12T10:50:17Z</time>
      </trkpt>
      <trkpt lat="42.97121" lon="-0.25736">
        <ele>1523.9</ele>
        <time>2018-01-12T10:50:23Z</time>
      </trkpt>
      <trkpt lat="42.97117" lon="-0.25747">
        <ele>1524.7</ele>
        <time>2018-01-12T10:50:29Z</time>
      </trkpt>
      <trkpt lat="42.97114" lon="-0.25757">
        <ele>1526.2</ele>
        <time>2018-01-12T10:50:34Z</time>
      </trkpt>
      <trkpt lat="42.97111" lon="-0.25767">
        <ele>1525.1</ele>
        <time>2018-01-12T10:50:39Z</time>
      </trkpt>
      <trkpt lat="42.97109" lon="-0.25779">
        <ele>1525.7</ele>
        <time>2018-01-12T10:50:44Z</time>
      </trkpt>
      <trkpt lat="42.97109" lon="-0.2579">
        <ele>1526.4</ele>
        <time>2018-01-12T10:50:48Z</time>
      </trkpt>
      <trkpt lat="42.97108" lon="-0.25801">
        <ele>1527</ele>
        <time>2018-01-12T10:50:52Z</time>
      </trkpt>
      <trkpt lat="42.97107" lon="-0.25811">
        <ele>1526.4</ele>
        <time>2018-01-12T10:50:55Z</time>
      </trkpt>
      <trkpt lat="42.97108" lon="-0.25823">
        <ele>1526</ele>
        <time>2018-01-12T10:51:00Z</time>
      </trkpt>
      <trkpt lat="42.97114" lon="-0.25831">
        <ele>1526.7</ele>
        <time>2018-01-12T10:51:07Z</time>
      </trkpt>
      <trkpt lat="42.97115" lon="-0.25832">
        <ele>1527</ele>
        <time>2018-01-12T10:51:08Z</time>
      </trkpt>
      <trkpt lat="42.97127" lon="-0.25845">
        <ele>1528.4</ele>
        <time>2018-01-12T10:51:18Z</time>
      </trkpt>
      <trkpt lat="42.97131" lon="-0.25854">
        <ele>1528.7</ele>
        <time>2018-01-12T10:51:23Z</time>
      </trkpt>
      <trkpt lat="42.97133" lon="-0.25865">
        <ele>1528.7</ele>
        <time>2018-01-12T10:51:28Z</time>
      </trkpt>
      <trkpt lat="42.97134" lon="-0.25877">
        <ele>1528.8</ele>
        <time>2018-01-12T10:51:34Z</time>
      </trkpt>
      <trkpt lat="42.97137" lon="-0.25887">
        <ele>1529.8</ele>
        <time>2018-01-12T10:51:39Z</time>
      </trkpt>
      <trkpt lat="42.97141" lon="-0.25895">
        <ele>1530.2</ele>
        <time>2018-01-12T10:51:44Z</time>
      </trkpt>
      <trkpt lat="42.97146" lon="-0.25904">
        <ele>1530.8</ele>
        <time>2018-01-12T10:51:49Z</time>
      </trkpt>
      <trkpt lat="42.97152" lon="-0.25913">
        <ele>1531.5</ele>
        <time>2018-01-12T10:51:54Z</time>
      </trkpt>
      <trkpt lat="42.97156" lon="-0.25923">
        <ele>1530.8</ele>
        <time>2018-01-12T10:51:59Z</time>
      </trkpt>
      <trkpt lat="42.97159" lon="-0.25932">
        <ele>1531.6</ele>
        <time>2018-01-12T10:52:03Z</time>
      </trkpt>
      <trkpt lat="42.97161" lon="-0.25942">
        <ele>1531.5</ele>
        <time>2018-01-12T10:52:07Z</time>
      </trkpt>
      <trkpt lat="42.97162" lon="-0.25954">
        <ele>1531.2</ele>
        <time>2018-01-12T10:52:12Z</time>
      </trkpt>
      <trkpt lat="42.97162" lon="-0.25957">
        <ele>1531.3</ele>
        <time>2018-01-12T10:52:13Z</time>
      </trkpt>
      <trkpt lat="42.97165" lon="-0.25974">
        <ele>1531.5</ele>
        <time>2018-01-12T10:52:20Z</time>
      </trkpt>
      <trkpt lat="42.97168" lon="-0.25984">
        <ele>1532.2</ele>
        <time>2018-01-12T10:52:24Z</time>
      </trkpt>
      <trkpt lat="42.9717" lon="-0.25994">
        <ele>1532.4</ele>
        <time>2018-01-12T10:52:28Z</time>
      </trkpt>
      <trkpt lat="42.97172" lon="-0.26004">
        <ele>1532.4</ele>
        <time>2018-01-12T10:52:32Z</time>
      </trkpt>
      <trkpt lat="42.97174" lon="-0.26014">
        <ele>1531.8</ele>
        <time>2018-01-12T10:52:36Z</time>
      </trkpt>
      <trkpt lat="42.97176" lon="-0.26026">
        <ele>1530.9</ele>
        <time>2018-01-12T10:52:40Z</time>
      </trkpt>
      <trkpt lat="42.97177" lon="-0.26037">
        <ele>1531.1</ele>
        <time>2018-01-12T10:52:44Z</time>
      </trkpt>
      <trkpt lat="42.97178" lon="-0.26047">
        <ele>1531.4</ele>
        <time>2018-01-12T10:52:48Z</time>
      </trkpt>
      <trkpt lat="42.97178" lon="-0.26058">
        <ele>1531.6</ele>
        <time>2018-01-12T10:52:52Z</time>
      </trkpt>
      <trkpt lat="42.97179" lon="-0.26069">
        <ele>1531</ele>
        <time>2018-01-12T10:52:56Z</time>
      </trkpt>
      <trkpt lat="42.97179" lon="-0.2608">
        <ele>1531.4</ele>
        <time>2018-01-12T10:53:00Z</time>
      </trkpt>
      <trkpt lat="42.97179" lon="-0.26091">
        <ele>1531.4</ele>
        <time>2018-01-12T10:53:04Z</time>
      </trkpt>
      <trkpt lat="42.9718" lon="-0.26103">
        <ele>1529.8</ele>
        <time>2018-01-12T10:53:08Z</time>
      </trkpt>
      <trkpt lat="42.97179" lon="-0.26114">
        <ele>1530.6</ele>
        <time>2018-01-12T10:53:12Z</time>
      </trkpt>
      <trkpt lat="42.97177" lon="-0.26125">
        <ele>1530.4</ele>
        <time>2018-01-12T10:53:17Z</time>
      </trkpt>
      <trkpt lat="42.97177" lon="-0.26127">
        <ele>1530.9</ele>
        <time>2018-01-12T10:53:18Z</time>
      </trkpt>
      <trkpt lat="42.97172" lon="-0.26145">
        <ele>1532.1</ele>
        <time>2018-01-12T10:53:26Z</time>
      </trkpt>
      <trkpt lat="42.97169" lon="-0.26154">
        <ele>1532.6</ele>
        <time>2018-01-12T10:53:30Z</time>
      </trkpt>
      <trkpt lat="42.97166" lon="-0.26165">
        <ele>1532</ele>
        <time>2018-01-12T10:53:35Z</time>
      </trkpt>
      <trkpt lat="42.97162" lon="-0.26174">
        <ele>1532.5</ele>
        <time>2018-01-12T10:53:40Z</time>
      </trkpt>
      <trkpt lat="42.97158" lon="-0.26182">
        <ele>1534.4</ele>
        <time>2018-01-12T10:53:45Z</time>
      </trkpt>
      <trkpt lat="42.97152" lon="-0.2619">
        <ele>1534.2</ele>
        <time>2018-01-12T10:53:50Z</time>
      </trkpt>
      <trkpt lat="42.97147" lon="-0.26197">
        <ele>1533.8</ele>
        <time>2018-01-12T10:53:54Z</time>
      </trkpt>
      <trkpt lat="42.97142" lon="-0.26205">
        <ele>1535</ele>
        <time>2018-01-12T10:53:58Z</time>
      </trkpt>
      <trkpt lat="42.97135" lon="-0.26213">
        <ele>1536.3</ele>
        <time>2018-01-12T10:54:03Z</time>
      </trkpt>
      <trkpt lat="42.97129" lon="-0.2622">
        <ele>1538.1</ele>
        <time>2018-01-12T10:54:09Z</time>
      </trkpt>
      <trkpt lat="42.97122" lon="-0.26227">
        <ele>1538.9</ele>
        <time>2018-01-12T10:54:15Z</time>
      </trkpt>
      <trkpt lat="42.97116" lon="-0.26234">
        <ele>1538.7</ele>
        <time>2018-01-12T10:54:21Z</time>
      </trkpt>
      <trkpt lat="42.97114" lon="-0.26235">
        <ele>1539.1</ele>
        <time>2018-01-12T10:54:22Z</time>
      </trkpt>
      <trkpt lat="42.971" lon="-0.26242">
        <ele>1541.5</ele>
        <time>2018-01-12T10:54:33Z</time>
      </trkpt>
      <trkpt lat="42.97093" lon="-0.26242">
        <ele>1541.6</ele>
        <time>2018-01-12T10:54:39Z</time>
      </trkpt>
      <trkpt lat="42.97084" lon="-0.26239">
        <ele>1543.4</ele>
        <time>2018-01-12T10:54:45Z</time>
      </trkpt>
      <trkpt lat="42.97077" lon="-0.26237">
        <ele>1543.4</ele>
        <time>2018-01-12T10:54:50Z</time>
      </trkpt>
      <trkpt lat="42.97069" lon="-0.26234">
        <ele>1543.6</ele>
        <time>2018-01-12T10:54:55Z</time>
      </trkpt>
      <trkpt lat="42.97062" lon="-0.26231">
        <ele>1543.8</ele>
        <time>2018-01-12T10:55:00Z</time>
      </trkpt>
      <trkpt lat="42.97054" lon="-0.26227">
        <ele>1545.3</ele>
        <time>2018-01-12T10:55:06Z</time>
      </trkpt>
      <trkpt lat="42.97046" lon="-0.26223">
        <ele>1545.9</ele>
        <time>2018-01-12T10:55:12Z</time>
      </trkpt>
      <trkpt lat="42.97038" lon="-0.26219">
        <ele>1546.2</ele>
        <time>2018-01-12T10:55:17Z</time>
      </trkpt>
      <trkpt lat="42.97031" lon="-0.26215">
        <ele>1546.4</ele>
        <time>2018-01-12T10:55:22Z</time>
      </trkpt>
      <trkpt lat="42.9703" lon="-0.26214">
        <ele>1546.5</ele>
        <time>2018-01-12T10:55:23Z</time>
      </trkpt>
      <trkpt lat="42.97015" lon="-0.26209">
        <ele>1547.8</ele>
        <time>2018-01-12T10:55:32Z</time>
      </trkpt>
      <trkpt lat="42.97007" lon="-0.26209">
        <ele>1548.2</ele>
        <time>2018-01-12T10:55:38Z</time>
      </trkpt>
      <trkpt lat="42.96999" lon="-0.2621">
        <ele>1549.2</ele>
        <time>2018-01-12T10:55:43Z</time>
      </trkpt>
      <trkpt lat="42.9699" lon="-0.26214">
        <ele>1549.5</ele>
        <time>2018-01-12T10:55:48Z</time>
      </trkpt>
      <trkpt lat="42.96983" lon="-0.2622">
        <ele>1550.2</ele>
        <time>2018-01-12T10:55:54Z</time>
      </trkpt>
      <trkpt lat="42.96975" lon="-0.26223">
        <ele>1551.5</ele>
        <time>2018-01-12T10:56:00Z</time>
      </trkpt>
      <trkpt lat="42.96966" lon="-0.26223">
        <ele>1553.1</ele>
        <time>2018-01-12T10:56:06Z</time>
      </trkpt>
      <trkpt lat="42.96959" lon="-0.26217">
        <ele>1553.4</ele>
        <time>2018-01-12T10:56:13Z</time>
      </trkpt>
      <trkpt lat="42.96952" lon="-0.26209">
        <ele>1554</ele>
        <time>2018-01-12T10:56:19Z</time>
      </trkpt>
      <trkpt lat="42.96946" lon="-0.262">
        <ele>1555</ele>
        <time>2018-01-12T10:56:25Z</time>
      </trkpt>
      <trkpt lat="42.96945" lon="-0.26199">
        <ele>1555</ele>
        <time>2018-01-12T10:56:26Z</time>
      </trkpt>
      <trkpt lat="42.96935" lon="-0.26186">
        <ele>1556.2</ele>
        <time>2018-01-12T10:56:35Z</time>
      </trkpt>
      <trkpt lat="42.96929" lon="-0.26179">
        <ele>1556.2</ele>
        <time>2018-01-12T10:56:40Z</time>
      </trkpt>
      <trkpt lat="42.96923" lon="-0.26171">
        <ele>1556.8</ele>
        <time>2018-01-12T10:56:45Z</time>
      </trkpt>
      <trkpt lat="42.96915" lon="-0.26165">
        <ele>1557.2</ele>
        <time>2018-01-12T10:56:51Z</time>
      </trkpt>
      <trkpt lat="42.96907" lon="-0.2616">
        <ele>1557.8</ele>
        <time>2018-01-12T10:56:57Z</time>
      </trkpt>
      <trkpt lat="42.96901" lon="-0.26155">
        <ele>1558.5</ele>
        <time>2018-01-12T10:57:02Z</time>
      </trkpt>
      <trkpt lat="42.96894" lon="-0.2615">
        <ele>1558.7</ele>
        <time>2018-01-12T10:57:07Z</time>
      </trkpt>
      <trkpt lat="42.96887" lon="-0.26144">
        <ele>1558.5</ele>
        <time>2018-01-12T10:57:12Z</time>
      </trkpt>
      <trkpt lat="42.9688" lon="-0.26141">
        <ele>1559.5</ele>
        <time>2018-01-12T10:57:17Z</time>
      </trkpt>
      <trkpt lat="42.96872" lon="-0.26136">
        <ele>1560.9</ele>
        <time>2018-01-12T10:57:23Z</time>
      </trkpt>
      <trkpt lat="42.96865" lon="-0.26132">
        <ele>1560.8</ele>
        <time>2018-01-12T10:57:29Z</time>
      </trkpt>
      <trkpt lat="42.96863" lon="-0.26131">
        <ele>1560.7</ele>
        <time>2018-01-12T10:57:30Z</time>
      </trkpt>
      <trkpt lat="42.96849" lon="-0.26123">
        <ele>1563.4</ele>
        <time>2018-01-12T10:57:41Z</time>
      </trkpt>
      <trkpt lat="42.96841" lon="-0.26119">
        <ele>1563.7</ele>
        <time>2018-01-12T10:57:47Z</time>
      </trkpt>
      <trkpt lat="42.96832" lon="-0.26114">
        <ele>1564</ele>
        <time>2018-01-12T10:57:53Z</time>
      </trkpt>
      <trkpt lat="42.96825" lon="-0.26109">
        <ele>1565.5</ele>
        <time>2018-01-12T10:57:59Z</time>
      </trkpt>
      <trkpt lat="42.96817" lon="-0.26104">
        <ele>1566.2</ele>
        <time>2018-01-12T10:58:05Z</time>
      </trkpt>
      <trkpt lat="42.9681" lon="-0.26099">
        <ele>1565.7</ele>
        <time>2018-01-12T10:58:11Z</time>
      </trkpt>
      <trkpt lat="42.96803" lon="-0.26095">
        <ele>1567.6</ele>
        <time>2018-01-12T10:58:16Z</time>
      </trkpt>
      <trkpt lat="42.96795" lon="-0.26089">
        <ele>1567.8</ele>
        <time>2018-01-12T10:58:22Z</time>
      </trkpt>
      <trkpt lat="42.96788" lon="-0.26084">
        <ele>1568.9</ele>
        <time>2018-01-12T10:58:28Z</time>
      </trkpt>
      <trkpt lat="42.9678" lon="-0.2608">
        <ele>1569.3</ele>
        <time>2018-01-12T10:58:34Z</time>
      </trkpt>
      <trkpt lat="42.96779" lon="-0.26079">
        <ele>1569.3</ele>
        <time>2018-01-12T10:58:35Z</time>
      </trkpt>
      <trkpt lat="42.96765" lon="-0.2607">
        <ele>1570.6</ele>
        <time>2018-01-12T10:58:45Z</time>
      </trkpt>
      <trkpt lat="42.96758" lon="-0.26063">
        <ele>1571</ele>
        <time>2018-01-12T10:58:51Z</time>
      </trkpt>
      <trkpt lat="42.96756" lon="-0.26053">
        <ele>1572.5</ele>
        <time>2018-01-12T11:00:21Z</time>
      </trkpt>
      <trkpt lat="42.96756" lon="-0.26051">
        <ele>1572.6</ele>
        <time>2018-01-12T11:00:22Z</time>
      </trkpt>
      <trkpt lat="42.96768" lon="-0.26038">
        <ele>1571.5</ele>
        <time>2018-01-12T11:00:31Z</time>
      </trkpt>
      <trkpt lat="42.96777" lon="-0.26038">
        <ele>1571.6</ele>
        <time>2018-01-12T11:00:36Z</time>
      </trkpt>
      <trkpt lat="42.96785" lon="-0.26042">
        <ele>1572.3</ele>
        <time>2018-01-12T11:00:41Z</time>
      </trkpt>
      <trkpt lat="42.96792" lon="-0.26044">
        <ele>1571.7</ele>
        <time>2018-01-12T11:00:45Z</time>
      </trkpt>
      <trkpt lat="42.968" lon="-0.26048">
        <ele>1572.2</ele>
        <time>2018-01-12T11:00:49Z</time>
      </trkpt>
      <trkpt lat="42.96807" lon="-0.26051">
        <ele>1572.7</ele>
        <time>2018-01-12T11:00:53Z</time>
      </trkpt>
      <trkpt lat="42.96815" lon="-0.26055">
        <ele>1573.1</ele>
        <time>2018-01-12T11:00:57Z</time>
      </trkpt>
      <trkpt lat="42.96823" lon="-0.26058">
        <ele>1572.5</ele>
        <time>2018-01-12T11:01:01Z</time>
      </trkpt>
      <trkpt lat="42.9683" lon="-0.26061">
        <ele>1572.2</ele>
        <time>2018-01-12T11:01:05Z</time>
      </trkpt>
      <trkpt lat="42.96837" lon="-0.26064">
        <ele>1571.9</ele>
        <time>2018-01-12T11:01:09Z</time>
      </trkpt>
      <trkpt lat="42.96845" lon="-0.26065">
        <ele>1572.6</ele>
        <time>2018-01-12T11:01:13Z</time>
      </trkpt>
      <trkpt lat="42.96852" lon="-0.26066">
        <ele>1572.8</ele>
        <time>2018-01-12T11:01:17Z</time>
      </trkpt>
      <trkpt lat="42.96861" lon="-0.26066">
        <ele>1573</ele>
        <time>2018-01-12T11:01:22Z</time>
      </trkpt>
      <trkpt lat="42.96862" lon="-0.26066">
        <ele>1573.1</ele>
        <time>2018-01-12T11:01:23Z</time>
      </trkpt>
      <trkpt lat="42.96876" lon="-0.26066">
        <ele>1573.5</ele>
        <time>2018-01-12T11:01:32Z</time>
      </trkpt>
      <trkpt lat="42.96885" lon="-0.26065">
        <ele>1573.5</ele>
        <time>2018-01-12T11:01:37Z</time>
      </trkpt>
      <trkpt lat="42.96892" lon="-0.26063">
        <ele>1574.5</ele>
        <time>2018-01-12T11:01:42Z</time>
      </trkpt>
      <trkpt lat="42.969" lon="-0.26061">
        <ele>1576.2</ele>
        <time>2018-01-12T11:01:48Z</time>
      </trkpt>
      <trkpt lat="42.96909" lon="-0.2606">
        <ele>1576.4</ele>
        <time>2018-01-12T11:01:55Z</time>
      </trkpt>
      <trkpt lat="42.96917" lon="-0.26058">
        <ele>1578.3</ele>
        <time>2018-01-12T11:02:01Z</time>
      </trkpt>
      <trkpt lat="42.96925" lon="-0.26055">
        <ele>1579.2</ele>
        <time>2018-01-12T11:02:07Z</time>
      </trkpt>
      <trkpt lat="42.96933" lon="-0.26051">
        <ele>1580.9</ele>
        <time>2018-01-12T11:02:13Z</time>
      </trkpt>
      <trkpt lat="42.9694" lon="-0.26045">
        <ele>1582</ele>
        <time>2018-01-12T11:02:20Z</time>
      </trkpt>
      <trkpt lat="42.96947" lon="-0.2604">
        <ele>1582.6</ele>
        <time>2018-01-12T11:02:26Z</time>
      </trkpt>
      <trkpt lat="42.96948" lon="-0.26039">
        <ele>1583</ele>
        <time>2018-01-12T11:02:27Z</time>
      </trkpt>
      <trkpt lat="42.96963" lon="-0.26035">
        <ele>1583.3</ele>
        <time>2018-01-12T11:02:38Z</time>
      </trkpt>
      <trkpt lat="42.96971" lon="-0.26037">
        <ele>1584</ele>
        <time>2018-01-12T11:02:46Z</time>
      </trkpt>
      <trkpt lat="42.96979" lon="-0.26039">
        <ele>1586.7</ele>
        <time>2018-01-12T11:02:53Z</time>
      </trkpt>
      <trkpt lat="42.96987" lon="-0.2604">
        <ele>1587.4</ele>
        <time>2018-01-12T11:02:59Z</time>
      </trkpt>
      <trkpt lat="42.96995" lon="-0.26045">
        <ele>1588.9</ele>
        <time>2018-01-12T11:03:04Z</time>
      </trkpt>
      <trkpt lat="42.97003" lon="-0.26045">
        <ele>1588.7</ele>
        <time>2018-01-12T11:03:09Z</time>
      </trkpt>
      <trkpt lat="42.97011" lon="-0.26044">
        <ele>1588.8</ele>
        <time>2018-01-12T11:03:14Z</time>
      </trkpt>
      <trkpt lat="42.97019" lon="-0.26039">
        <ele>1589.9</ele>
        <time>2018-01-12T11:03:20Z</time>
      </trkpt>
      <trkpt lat="42.97023" lon="-0.2603">
        <ele>1590.4</ele>
        <time>2018-01-12T11:03:25Z</time>
      </trkpt>
      <trkpt lat="42.97026" lon="-0.2602">
        <ele>1590.6</ele>
        <time>2018-01-12T11:03:30Z</time>
      </trkpt>
      <trkpt lat="42.97026" lon="-0.26017">
        <ele>1591.1</ele>
        <time>2018-01-12T11:03:31Z</time>
      </trkpt>
      <trkpt lat="42.97021" lon="-0.25998">
        <ele>1591.3</ele>
        <time>2018-01-12T11:03:42Z</time>
      </trkpt>
      <trkpt lat="42.97018" lon="-0.25987">
        <ele>1592.4</ele>
        <time>2018-01-12T11:03:48Z</time>
      </trkpt>
      <trkpt lat="42.97016" lon="-0.25978">
        <ele>1592.1</ele>
        <time>2018-01-12T11:03:52Z</time>
      </trkpt>
      <trkpt lat="42.97014" lon="-0.25966">
        <ele>1592.6</ele>
        <time>2018-01-12T11:03:56Z</time>
      </trkpt>
      <trkpt lat="42.97011" lon="-0.25956">
        <ele>1591.5</ele>
        <time>2018-01-12T11:04:00Z</time>
      </trkpt>
      <trkpt lat="42.97007" lon="-0.25946">
        <ele>1592.6</ele>
        <time>2018-01-12T11:04:05Z</time>
      </trkpt>
      <trkpt lat="42.97001" lon="-0.25937">
        <ele>1592.7</ele>
        <time>2018-01-12T11:04:33Z</time>
      </trkpt>
      <trkpt lat="42.97001" lon="-0.25937">
        <ele>1592.7</ele>
        <time>2018-01-12T11:04:34Z</time>
      </trkpt>
      <trkpt lat="42.96988" lon="-0.25922">
        <ele>1593.1</ele>
        <time>2018-01-12T11:04:47Z</time>
      </trkpt>
      <trkpt lat="42.96982" lon="-0.25914">
        <ele>1595.2</ele>
        <time>2018-01-12T11:04:53Z</time>
      </trkpt>
      <trkpt lat="42.96977" lon="-0.25906">
        <ele>1595.3</ele>
        <time>2018-01-12T11:04:57Z</time>
      </trkpt>
      <trkpt lat="42.96973" lon="-0.25898">
        <ele>1595.6</ele>
        <time>2018-01-12T11:05:00Z</time>
      </trkpt>
      <trkpt lat="42.96968" lon="-0.25888">
        <ele>1595.6</ele>
        <time>2018-01-12T11:05:04Z</time>
      </trkpt>
      <trkpt lat="42.96965" lon="-0.25882">
        <ele>1595.9</ele>
        <time>2018-01-12T11:05:06Z</time>
      </trkpt>
      <trkpt lat="42.9696" lon="-0.25873">
        <ele>1595.3</ele>
        <time>2018-01-12T11:05:08Z</time>
      </trkpt>
      <trkpt lat="42.96957" lon="-0.25868">
        <ele>1595.2</ele>
        <time>2018-01-12T11:05:09Z</time>
      </trkpt>
      <trkpt lat="42.96955" lon="-0.25862">
        <ele>1594.3</ele>
        <time>2018-01-12T11:05:10Z</time>
      </trkpt>
      <trkpt lat="42.96953" lon="-0.25856">
        <ele>1593.7</ele>
        <time>2018-01-12T11:05:11Z</time>
      </trkpt>
      <trkpt lat="42.9695" lon="-0.25845">
        <ele>1593</ele>
        <time>2018-01-12T11:05:13Z</time>
      </trkpt>
      <trkpt lat="42.96947" lon="-0.25834">
        <ele>1592.7</ele>
        <time>2018-01-12T11:05:16Z</time>
      </trkpt>
      <trkpt lat="42.96946" lon="-0.25824">
        <ele>1591.2</ele>
        <time>2018-01-12T11:05:20Z</time>
      </trkpt>
      <trkpt lat="42.96945" lon="-0.25814">
        <ele>1591.2</ele>
        <time>2018-01-12T11:05:23Z</time>
      </trkpt>
      <trkpt lat="42.96945" lon="-0.25806">
        <ele>1590.8</ele>
        <time>2018-01-12T11:05:25Z</time>
      </trkpt>
      <trkpt lat="42.96945" lon="-0.25798">
        <ele>1590.5</ele>
        <time>2018-01-12T11:05:27Z</time>
      </trkpt>
      <trkpt lat="42.96944" lon="-0.25789">
        <ele>1590.2</ele>
        <time>2018-01-12T11:05:29Z</time>
      </trkpt>
      <trkpt lat="42.96944" lon="-0.25781">
        <ele>1590</ele>
        <time>2018-01-12T11:05:31Z</time>
      </trkpt>
      <trkpt lat="42.96944" lon="-0.25772">
        <ele>1590.1</ele>
        <time>2018-01-12T11:05:33Z</time>
      </trkpt>
      <trkpt lat="42.96944" lon="-0.25763">
        <ele>1590.3</ele>
        <time>2018-01-12T11:05:35Z</time>
      </trkpt>
      <trkpt lat="42.96944" lon="-0.25758">
        <ele>1589.7</ele>
        <time>2018-01-12T11:05:36Z</time>
      </trkpt>
      <trkpt lat="42.96944" lon="-0.25744">
        <ele>1588.8</ele>
        <time>2018-01-12T11:05:39Z</time>
      </trkpt>
      <trkpt lat="42.96944" lon="-0.25736">
        <ele>1588.4</ele>
        <time>2018-01-12T11:05:41Z</time>
      </trkpt>
      <trkpt lat="42.96944" lon="-0.25728">
        <ele>1588.9</ele>
        <time>2018-01-12T11:05:43Z</time>
      </trkpt>
      <trkpt lat="42.96944" lon="-0.25719">
        <ele>1588.9</ele>
        <time>2018-01-12T11:05:45Z</time>
      </trkpt>
      <trkpt lat="42.96945" lon="-0.2571">
        <ele>1588.8</ele>
        <time>2018-01-12T11:05:47Z</time>
      </trkpt>
      <trkpt lat="42.96946" lon="-0.25701">
        <ele>1587.7</ele>
        <time>2018-01-12T11:05:49Z</time>
      </trkpt>
      <trkpt lat="42.96946" lon="-0.2569">
        <ele>1587.1</ele>
        <time>2018-01-12T11:05:51Z</time>
      </trkpt>
      <trkpt lat="42.96947" lon="-0.25679">
        <ele>1586.4</ele>
        <time>2018-01-12T11:05:53Z</time>
      </trkpt>
      <trkpt lat="42.96949" lon="-0.25667">
        <ele>1585.8</ele>
        <time>2018-01-12T11:05:55Z</time>
      </trkpt>
      <trkpt lat="42.96949" lon="-0.2566">
        <ele>1585.5</ele>
        <time>2018-01-12T11:05:56Z</time>
      </trkpt>
      <trkpt lat="42.96951" lon="-0.25648">
        <ele>1585</ele>
        <time>2018-01-12T11:05:58Z</time>
      </trkpt>
      <trkpt lat="42.96952" lon="-0.25636">
        <ele>1584.6</ele>
        <time>2018-01-12T11:06:00Z</time>
      </trkpt>
      <trkpt lat="42.96954" lon="-0.25624">
        <ele>1584.2</ele>
        <time>2018-01-12T11:06:02Z</time>
      </trkpt>
      <trkpt lat="42.96955" lon="-0.25618">
        <ele>1584.1</ele>
        <time>2018-01-12T11:06:03Z</time>
      </trkpt>
      <trkpt lat="42.96956" lon="-0.25612">
        <ele>1583.8</ele>
        <time>2018-01-12T11:06:04Z</time>
      </trkpt>
      <trkpt lat="42.96957" lon="-0.25606">
        <ele>1583.6</ele>
        <time>2018-01-12T11:06:05Z</time>
      </trkpt>
      <trkpt lat="42.96958" lon="-0.25599">
        <ele>1583.4</ele>
        <time>2018-01-12T11:06:06Z</time>
      </trkpt>
      <trkpt lat="42.96959" lon="-0.25593">
        <ele>1583.3</ele>
        <time>2018-01-12T11:06:07Z</time>
      </trkpt>
      <trkpt lat="42.9696" lon="-0.25587">
        <ele>1582.3</ele>
        <time>2018-01-12T11:06:08Z</time>
      </trkpt>
      <trkpt lat="42.96962" lon="-0.2558">
        <ele>1581.5</ele>
        <time>2018-01-12T11:06:09Z</time>
      </trkpt>
      <trkpt lat="42.96963" lon="-0.25574">
        <ele>1581</ele>
        <time>2018-01-12T11:06:10Z</time>
      </trkpt>
      <trkpt lat="42.96964" lon="-0.25567">
        <ele>1580.5</ele>
        <time>2018-01-12T11:06:11Z</time>
      </trkpt>
      <trkpt lat="42.96965" lon="-0.25561">
        <ele>1580.1</ele>
        <time>2018-01-12T11:06:12Z</time>
      </trkpt>
      <trkpt lat="42.96967" lon="-0.25555">
        <ele>1579.8</ele>
        <time>2018-01-12T11:06:13Z</time>
      </trkpt>
      <trkpt lat="42.96968" lon="-0.25548">
        <ele>1578.8</ele>
        <time>2018-01-12T11:06:14Z</time>
      </trkpt>
      <trkpt lat="42.9697" lon="-0.25537">
        <ele>1577.6</ele>
        <time>2018-01-12T11:06:16Z</time>
      </trkpt>
      <trkpt lat="42.96971" lon="-0.25527">
        <ele>1576.9</ele>
        <time>2018-01-12T11:06:18Z</time>
      </trkpt>
      <trkpt lat="42.96972" lon="-0.25519">
        <ele>1576.8</ele>
        <time>2018-01-12T11:06:20Z</time>
      </trkpt>
      <trkpt lat="42.96973" lon="-0.25511">
        <ele>1576.9</ele>
        <time>2018-01-12T11:06:22Z</time>
      </trkpt>
      <trkpt lat="42.96974" lon="-0.25501">
        <ele>1576.6</ele>
        <time>2018-01-12T11:06:24Z</time>
      </trkpt>
      <trkpt lat="42.96976" lon="-0.25492">
        <ele>1576.2</ele>
        <time>2018-01-12T11:06:26Z</time>
      </trkpt>
      <trkpt lat="42.96977" lon="-0.25483">
        <ele>1575.2</ele>
        <time>2018-01-12T11:06:28Z</time>
      </trkpt>
      <trkpt lat="42.96981" lon="-0.25472">
        <ele>1575.2</ele>
        <time>2018-01-12T11:06:31Z</time>
      </trkpt>
      <trkpt lat="42.96986" lon="-0.25462">
        <ele>1575.5</ele>
        <time>2018-01-12T11:06:35Z</time>
      </trkpt>
      <trkpt lat="42.96991" lon="-0.25452">
        <ele>1574.8</ele>
        <time>2018-01-12T11:06:39Z</time>
      </trkpt>
      <trkpt lat="42.96992" lon="-0.2545">
        <ele>1575.1</ele>
        <time>2018-01-12T11:06:40Z</time>
      </trkpt>
      <trkpt lat="42.97002" lon="-0.25437">
        <ele>1575.3</ele>
        <time>2018-01-12T11:06:45Z</time>
      </trkpt>
      <trkpt lat="42.97007" lon="-0.25432">
        <ele>1574.7</ele>
        <time>2018-01-12T11:06:48Z</time>
      </trkpt>
      <trkpt lat="42.97014" lon="-0.25424">
        <ele>1574.7</ele>
        <time>2018-01-12T11:06:52Z</time>
      </trkpt>
      <trkpt lat="42.9702" lon="-0.25418">
        <ele>1574.4</ele>
        <time>2018-01-12T11:06:56Z</time>
      </trkpt>
      <trkpt lat="42.97026" lon="-0.25411">
        <ele>1574.5</ele>
        <time>2018-01-12T11:07:00Z</time>
      </trkpt>
      <trkpt lat="42.97031" lon="-0.25403">
        <ele>1574.8</ele>
        <time>2018-01-12T11:07:04Z</time>
      </trkpt>
      <trkpt lat="42.97037" lon="-0.25395">
        <ele>1574.9</ele>
        <time>2018-01-12T11:07:08Z</time>
      </trkpt>
      <trkpt lat="42.97043" lon="-0.25386">
        <ele>1575.1</ele>
        <time>2018-01-12T11:07:12Z</time>
      </trkpt>
      <trkpt lat="42.97048" lon="-0.25377">
        <ele>1575.4</ele>
        <time>2018-01-12T11:07:16Z</time>
      </trkpt>
      <trkpt lat="42.97053" lon="-0.25369">
        <ele>1576.3</ele>
        <time>2018-01-12T11:07:19Z</time>
      </trkpt>
      <trkpt lat="42.97058" lon="-0.25359">
        <ele>1574.8</ele>
        <time>2018-01-12T11:07:22Z</time>
      </trkpt>
      <trkpt lat="42.97061" lon="-0.25353">
        <ele>1574.2</ele>
        <time>2018-01-12T11:07:24Z</time>
      </trkpt>
      <trkpt lat="42.97065" lon="-0.25345">
        <ele>1574.1</ele>
        <time>2018-01-12T11:07:26Z</time>
      </trkpt>
      <trkpt lat="42.97068" lon="-0.25337">
        <ele>1573</ele>
        <time>2018-01-12T11:07:28Z</time>
      </trkpt>
      <trkpt lat="42.97071" lon="-0.25328">
        <ele>1572.4</ele>
        <time>2018-01-12T11:07:30Z</time>
      </trkpt>
      <trkpt lat="42.97074" lon="-0.25318">
        <ele>1572.6</ele>
        <time>2018-01-12T11:07:32Z</time>
      </trkpt>
      <trkpt lat="42.97076" lon="-0.25309">
        <ele>1572.5</ele>
        <time>2018-01-12T11:07:34Z</time>
      </trkpt>
      <trkpt lat="42.97077" lon="-0.253">
        <ele>1572.4</ele>
        <time>2018-01-12T11:07:36Z</time>
      </trkpt>
      <trkpt lat="42.97078" lon="-0.25289">
        <ele>1572.2</ele>
        <time>2018-01-12T11:07:39Z</time>
      </trkpt>
      <trkpt lat="42.97079" lon="-0.25278">
        <ele>1572.4</ele>
        <time>2018-01-12T11:07:42Z</time>
      </trkpt>
      <trkpt lat="42.97079" lon="-0.25274">
        <ele>1572.5</ele>
        <time>2018-01-12T11:07:43Z</time>
      </trkpt>
      <trkpt lat="42.9708" lon="-0.25261">
        <ele>1572.6</ele>
        <time>2018-01-12T11:07:46Z</time>
      </trkpt>
      <trkpt lat="42.9708" lon="-0.25251">
        <ele>1571.6</ele>
        <time>2018-01-12T11:07:48Z</time>
      </trkpt>
      <trkpt lat="42.9708" lon="-0.25241">
        <ele>1571.3</ele>
        <time>2018-01-12T11:07:50Z</time>
      </trkpt>
      <trkpt lat="42.97081" lon="-0.25231">
        <ele>1571.4</ele>
        <time>2018-01-12T11:07:52Z</time>
      </trkpt>
      <trkpt lat="42.97081" lon="-0.25221">
        <ele>1570</ele>
        <time>2018-01-12T11:07:54Z</time>
      </trkpt>
      <trkpt lat="42.97081" lon="-0.25215">
        <ele>1569.6</ele>
        <time>2018-01-12T11:07:55Z</time>
      </trkpt>
      <trkpt lat="42.97081" lon="-0.25208">
        <ele>1568.6</ele>
        <time>2018-01-12T11:07:56Z</time>
      </trkpt>
      <trkpt lat="42.97081" lon="-0.25201">
        <ele>1567.8</ele>
        <time>2018-01-12T11:07:57Z</time>
      </trkpt>
      <trkpt lat="42.97081" lon="-0.25195">
        <ele>1567.3</ele>
        <time>2018-01-12T11:07:58Z</time>
      </trkpt>
      <trkpt lat="42.97082" lon="-0.25188">
        <ele>1566.5</ele>
        <time>2018-01-12T11:07:59Z</time>
      </trkpt>
      <trkpt lat="42.97082" lon="-0.25182">
        <ele>1566</ele>
        <time>2018-01-12T11:08:00Z</time>
      </trkpt>
      <trkpt lat="42.97082" lon="-0.2517">
        <ele>1565.3</ele>
        <time>2018-01-12T11:08:02Z</time>
      </trkpt>
      <trkpt lat="42.97083" lon="-0.25159">
        <ele>1565.2</ele>
        <time>2018-01-12T11:08:04Z</time>
      </trkpt>
      <trkpt lat="42.97084" lon="-0.25149">
        <ele>1565</ele>
        <time>2018-01-12T11:08:06Z</time>
      </trkpt>
      <trkpt lat="42.97085" lon="-0.25139">
        <ele>1564.7</ele>
        <time>2018-01-12T11:08:08Z</time>
      </trkpt>
      <trkpt lat="42.97085" lon="-0.2513">
        <ele>1563.7</ele>
        <time>2018-01-12T11:08:10Z</time>
      </trkpt>
      <trkpt lat="42.97086" lon="-0.25121">
        <ele>1563.4</ele>
        <time>2018-01-12T11:08:12Z</time>
      </trkpt>
      <trkpt lat="42.97085" lon="-0.25113">
        <ele>1563.4</ele>
        <time>2018-01-12T11:08:14Z</time>
      </trkpt>
      <trkpt lat="42.97086" lon="-0.25105">
        <ele>1562.7</ele>
        <time>2018-01-12T11:08:16Z</time>
      </trkpt>
      <trkpt lat="42.97086" lon="-0.25095">
        <ele>1561.8</ele>
        <time>2018-01-12T11:08:18Z</time>
      </trkpt>
      <trkpt lat="42.97086" lon="-0.25084">
        <ele>1561</ele>
        <time>2018-01-12T11:08:20Z</time>
      </trkpt>
      <trkpt lat="42.97086" lon="-0.25072">
        <ele>1560.5</ele>
        <time>2018-01-12T11:08:22Z</time>
      </trkpt>
      <trkpt lat="42.97086" lon="-0.25065">
        <ele>1560.4</ele>
        <time>2018-01-12T11:08:23Z</time>
      </trkpt>
      <trkpt lat="42.97087" lon="-0.25059">
        <ele>1560.3</ele>
        <time>2018-01-12T11:08:24Z</time>
      </trkpt>
      <trkpt lat="42.97087" lon="-0.25053">
        <ele>1560</ele>
        <time>2018-01-12T11:08:25Z</time>
      </trkpt>
      <trkpt lat="42.97087" lon="-0.25046">
        <ele>1559.7</ele>
        <time>2018-01-12T11:08:26Z</time>
      </trkpt>
      <trkpt lat="42.97087" lon="-0.25035">
        <ele>1559</ele>
        <time>2018-01-12T11:08:28Z</time>
      </trkpt>
      <trkpt lat="42.97087" lon="-0.25023">
        <ele>1558.3</ele>
        <time>2018-01-12T11:08:30Z</time>
      </trkpt>
      <trkpt lat="42.97088" lon="-0.25014">
        <ele>1558.1</ele>
        <time>2018-01-12T11:08:32Z</time>
      </trkpt>
      <trkpt lat="42.9709" lon="-0.25004">
        <ele>1557.5</ele>
        <time>2018-01-12T11:08:35Z</time>
      </trkpt>
      <trkpt lat="42.97094" lon="-0.24994">
        <ele>1557.1</ele>
        <time>2018-01-12T11:08:39Z</time>
      </trkpt>
      <trkpt lat="42.97098" lon="-0.24984">
        <ele>1557.2</ele>
        <time>2018-01-12T11:08:43Z</time>
      </trkpt>
      <trkpt lat="42.97099" lon="-0.24981">
        <ele>1557</ele>
        <time>2018-01-12T11:08:44Z</time>
      </trkpt>
      <trkpt lat="42.97105" lon="-0.24967">
        <ele>1556.5</ele>
        <time>2018-01-12T11:08:48Z</time>
      </trkpt>
      <trkpt lat="42.97108" lon="-0.24959">
        <ele>1556.2</ele>
        <time>2018-01-12T11:08:50Z</time>
      </trkpt>
      <trkpt lat="42.9711" lon="-0.2495">
        <ele>1556.1</ele>
        <time>2018-01-12T11:08:52Z</time>
      </trkpt>
      <trkpt lat="42.97113" lon="-0.24941">
        <ele>1555.6</ele>
        <time>2018-01-12T11:08:54Z</time>
      </trkpt>
      <trkpt lat="42.97115" lon="-0.24932">
        <ele>1555</ele>
        <time>2018-01-12T11:08:56Z</time>
      </trkpt>
      <trkpt lat="42.97117" lon="-0.24922">
        <ele>1555.1</ele>
        <time>2018-01-12T11:08:58Z</time>
      </trkpt>
      <trkpt lat="42.97119" lon="-0.24912">
        <ele>1554.2</ele>
        <time>2018-01-12T11:09:00Z</time>
      </trkpt>
      <trkpt lat="42.97121" lon="-0.24901">
        <ele>1553.1</ele>
        <time>2018-01-12T11:09:02Z</time>
      </trkpt>
      <trkpt lat="42.97125" lon="-0.2489">
        <ele>1552.3</ele>
        <time>2018-01-12T11:09:04Z</time>
      </trkpt>
      <trkpt lat="42.97127" lon="-0.24884">
        <ele>1552</ele>
        <time>2018-01-12T11:09:05Z</time>
      </trkpt>
      <trkpt lat="42.97129" lon="-0.24877">
        <ele>1551.4</ele>
        <time>2018-01-12T11:09:06Z</time>
      </trkpt>
      <trkpt lat="42.97132" lon="-0.24871">
        <ele>1550.9</ele>
        <time>2018-01-12T11:09:07Z</time>
      </trkpt>
      <trkpt lat="42.97136" lon="-0.24864">
        <ele>1550.6</ele>
        <time>2018-01-12T11:09:08Z</time>
      </trkpt>
      <trkpt lat="42.9714" lon="-0.24857">
        <ele>1550.3</ele>
        <time>2018-01-12T11:09:09Z</time>
      </trkpt>
      <trkpt lat="42.97144" lon="-0.24851">
        <ele>1548.9</ele>
        <time>2018-01-12T11:09:10Z</time>
      </trkpt>
      <trkpt lat="42.97148" lon="-0.24847">
        <ele>1547.9</ele>
        <time>2018-01-12T11:09:11Z</time>
      </trkpt>
      <trkpt lat="42.97152" lon="-0.24842">
        <ele>1547.2</ele>
        <time>2018-01-12T11:09:12Z</time>
      </trkpt>
      <trkpt lat="42.9716" lon="-0.24836">
        <ele>1545.6</ele>
        <time>2018-01-12T11:09:14Z</time>
      </trkpt>
      <trkpt lat="42.97167" lon="-0.24832">
        <ele>1545.1</ele>
        <time>2018-01-12T11:09:17Z</time>
      </trkpt>
      <trkpt lat="42.97174" lon="-0.24829">
        <ele>1545</ele>
        <time>2018-01-12T11:09:21Z</time>
      </trkpt>
      <trkpt lat="42.97182" lon="-0.24825">
        <ele>1545.4</ele>
        <time>2018-01-12T11:09:25Z</time>
      </trkpt>
      <trkpt lat="42.97191" lon="-0.24821">
        <ele>1545.6</ele>
        <time>2018-01-12T11:09:29Z</time>
      </trkpt>
      <trkpt lat="42.97198" lon="-0.24818">
        <ele>1546.1</ele>
        <time>2018-01-12T11:09:33Z</time>
      </trkpt>
      <trkpt lat="42.97204" lon="-0.24814">
        <ele>1546.3</ele>
        <time>2018-01-12T11:09:36Z</time>
      </trkpt>
      <trkpt lat="42.97212" lon="-0.24808">
        <ele>1545.7</ele>
        <time>2018-01-12T11:09:39Z</time>
      </trkpt>
      <trkpt lat="42.97218" lon="-0.24802">
        <ele>1545.4</ele>
        <time>2018-01-12T11:09:41Z</time>
      </trkpt>
      <trkpt lat="42.97223" lon="-0.24796">
        <ele>1545.4</ele>
        <time>2018-01-12T11:09:43Z</time>
      </trkpt>
      <trkpt lat="42.97227" lon="-0.2479">
        <ele>1545.1</ele>
        <time>2018-01-12T11:09:45Z</time>
      </trkpt>
      <trkpt lat="42.97229" lon="-0.24787">
        <ele>1545</ele>
        <time>2018-01-12T11:09:46Z</time>
      </trkpt>
      <trkpt lat="42.97236" lon="-0.24777">
        <ele>1544.3</ele>
        <time>2018-01-12T11:09:49Z</time>
      </trkpt>
      <trkpt lat="42.97241" lon="-0.24768">
        <ele>1543.5</ele>
        <time>2018-01-12T11:09:51Z</time>
      </trkpt>
      <trkpt lat="42.97246" lon="-0.24759">
        <ele>1542.6</ele>
        <time>2018-01-12T11:09:53Z</time>
      </trkpt>
      <trkpt lat="42.97251" lon="-0.24749">
        <ele>1542.3</ele>
        <time>2018-01-12T11:09:55Z</time>
      </trkpt>
      <trkpt lat="42.97254" lon="-0.24743">
        <ele>1542.2</ele>
        <time>2018-01-12T11:09:56Z</time>
      </trkpt>
      <trkpt lat="42.97257" lon="-0.24736">
        <ele>1541.4</ele>
        <time>2018-01-12T11:09:57Z</time>
      </trkpt>
      <trkpt lat="42.9726" lon="-0.24729">
        <ele>1540.8</ele>
        <time>2018-01-12T11:09:58Z</time>
      </trkpt>
      <trkpt lat="42.97264" lon="-0.24721">
        <ele>1540.3</ele>
        <time>2018-01-12T11:09:59Z</time>
      </trkpt>
      <trkpt lat="42.97268" lon="-0.24713">
        <ele>1540</ele>
        <time>2018-01-12T11:10:00Z</time>
      </trkpt>
      <trkpt lat="42.97272" lon="-0.24705">
        <ele>1538.6</ele>
        <time>2018-01-12T11:10:01Z</time>
      </trkpt>
      <trkpt lat="42.97276" lon="-0.24697">
        <ele>1537.5</ele>
        <time>2018-01-12T11:10:02Z</time>
      </trkpt>
      <trkpt lat="42.97279" lon="-0.2469">
        <ele>1536.7</ele>
        <time>2018-01-12T11:10:03Z</time>
      </trkpt>
      <trkpt lat="42.97282" lon="-0.24684">
        <ele>1535.7</ele>
        <time>2018-01-12T11:10:04Z</time>
      </trkpt>
      <trkpt lat="42.97287" lon="-0.24674">
        <ele>1534.3</ele>
        <time>2018-01-12T11:10:06Z</time>
      </trkpt>
      <trkpt lat="42.97292" lon="-0.24664">
        <ele>1534.8</ele>
        <time>2018-01-12T11:10:09Z</time>
      </trkpt>
      <trkpt lat="42.97296" lon="-0.24655">
        <ele>1534.9</ele>
        <time>2018-01-12T11:10:13Z</time>
      </trkpt>
      <trkpt lat="42.97302" lon="-0.24646">
        <ele>1535.4</ele>
        <time>2018-01-12T11:10:18Z</time>
      </trkpt>
      <trkpt lat="42.97307" lon="-0.24637">
        <ele>1536.5</ele>
        <time>2018-01-12T11:10:23Z</time>
      </trkpt>
      <trkpt lat="42.97311" lon="-0.24629">
        <ele>1536.8</ele>
        <time>2018-01-12T11:10:27Z</time>
      </trkpt>
      <trkpt lat="42.97317" lon="-0.24623">
        <ele>1537</ele>
        <time>2018-01-12T11:10:31Z</time>
      </trkpt>
      <trkpt lat="42.97325" lon="-0.24618">
        <ele>1537.6</ele>
        <time>2018-01-12T11:10:35Z</time>
      </trkpt>
      <trkpt lat="42.97332" lon="-0.24616">
        <ele>1537.4</ele>
        <time>2018-01-12T11:10:38Z</time>
      </trkpt>
      <trkpt lat="42.9734" lon="-0.24616">
        <ele>1537.2</ele>
        <time>2018-01-12T11:10:42Z</time>
      </trkpt>
      <trkpt lat="42.97348" lon="-0.24616">
        <ele>1536.8</ele>
        <time>2018-01-12T11:10:46Z</time>
      </trkpt>
      <trkpt lat="42.9735" lon="-0.24616">
        <ele>1536.7</ele>
        <time>2018-01-12T11:10:47Z</time>
      </trkpt>
      <trkpt lat="42.97363" lon="-0.24612">
        <ele>1536.6</ele>
        <time>2018-01-12T11:10:51Z</time>
      </trkpt>
      <trkpt lat="42.97367" lon="-0.24609">
        <ele>1536.1</ele>
        <time>2018-01-12T11:10:52Z</time>
      </trkpt>
      <trkpt lat="42.97371" lon="-0.24604">
        <ele>1535.8</ele>
        <time>2018-01-12T11:10:53Z</time>
      </trkpt>
      <trkpt lat="42.97374" lon="-0.24599">
        <ele>1535.5</ele>
        <time>2018-01-12T11:10:54Z</time>
      </trkpt>
      <trkpt lat="42.97378" lon="-0.24592">
        <ele>1534.3</ele>
        <time>2018-01-12T11:10:55Z</time>
      </trkpt>
      <trkpt lat="42.97382" lon="-0.24585">
        <ele>1533.4</ele>
        <time>2018-01-12T11:10:56Z</time>
      </trkpt>
      <trkpt lat="42.97386" lon="-0.24579">
        <ele>1532.7</ele>
        <time>2018-01-12T11:10:57Z</time>
      </trkpt>
      <trkpt lat="42.97391" lon="-0.24572">
        <ele>1531.3</ele>
        <time>2018-01-12T11:10:58Z</time>
      </trkpt>
      <trkpt lat="42.97396" lon="-0.24566">
        <ele>1530.3</ele>
        <time>2018-01-12T11:10:59Z</time>
      </trkpt>
      <trkpt lat="42.974" lon="-0.24561">
        <ele>1529.5</ele>
        <time>2018-01-12T11:11:00Z</time>
      </trkpt>
      <trkpt lat="42.97405" lon="-0.24556">
        <ele>1528.5</ele>
        <time>2018-01-12T11:11:01Z</time>
      </trkpt>
      <trkpt lat="42.97408" lon="-0.24552">
        <ele>1527.7</ele>
        <time>2018-01-12T11:11:02Z</time>
      </trkpt>
      <trkpt lat="42.97415" lon="-0.24545">
        <ele>1527</ele>
        <time>2018-01-12T11:11:04Z</time>
      </trkpt>
      <trkpt lat="42.97421" lon="-0.24539">
        <ele>1526.7</ele>
        <time>2018-01-12T11:11:06Z</time>
      </trkpt>
      <trkpt lat="42.97426" lon="-0.24533">
        <ele>1526.5</ele>
        <time>2018-01-12T11:11:08Z</time>
      </trkpt>
      <trkpt lat="42.97431" lon="-0.24525">
        <ele>1526.2</ele>
        <time>2018-01-12T11:11:11Z</time>
      </trkpt>
      <trkpt lat="42.97429" lon="-0.24513">
        <ele>1526.3</ele>
        <time>2018-01-12T11:11:18Z</time>
      </trkpt>
      <trkpt lat="42.97423" lon="-0.24508">
        <ele>1526.1</ele>
        <time>2018-01-12T11:11:22Z</time>
      </trkpt>
      <trkpt lat="42.97417" lon="-0.245">
        <ele>1525.7</ele>
        <time>2018-01-12T11:11:26Z</time>
      </trkpt>
      <trkpt lat="42.97414" lon="-0.24489">
        <ele>1525.6</ele>
        <time>2018-01-12T11:11:30Z</time>
      </trkpt>
      <trkpt lat="42.9741" lon="-0.24483">
        <ele>1525.7</ele>
        <time>2018-01-12T11:11:32Z</time>
      </trkpt>
      <trkpt lat="42.97404" lon="-0.2448">
        <ele>1524.1</ele>
        <time>2018-01-12T11:11:34Z</time>
      </trkpt>
      <trkpt lat="42.97398" lon="-0.24479">
        <ele>1523.1</ele>
        <time>2018-01-12T11:11:36Z</time>
      </trkpt>
      <trkpt lat="42.97391" lon="-0.24478">
        <ele>1522.5</ele>
        <time>2018-01-12T11:11:38Z</time>
      </trkpt>
      <trkpt lat="42.97385" lon="-0.24473">
        <ele>1521.5</ele>
        <time>2018-01-12T11:11:40Z</time>
      </trkpt>
      <trkpt lat="42.97381" lon="-0.24464">
        <ele>1520.5</ele>
        <time>2018-01-12T11:11:42Z</time>
      </trkpt>
      <trkpt lat="42.97379" lon="-0.24454">
        <ele>1519.2</ele>
        <time>2018-01-12T11:11:44Z</time>
      </trkpt>
      <trkpt lat="42.97378" lon="-0.24445">
        <ele>1518.4</ele>
        <time>2018-01-12T11:11:46Z</time>
      </trkpt>
      <trkpt lat="42.97379" lon="-0.24435">
        <ele>1518.3</ele>
        <time>2018-01-12T11:11:50Z</time>
      </trkpt>
      <trkpt lat="42.97379" lon="-0.24433">
        <ele>1518.4</ele>
        <time>2018-01-12T11:11:51Z</time>
      </trkpt>
      <trkpt lat="42.97373" lon="-0.24414">
        <ele>1517</ele>
        <time>2018-01-12T11:12:00Z</time>
      </trkpt>
      <trkpt lat="42.97366" lon="-0.2441">
        <ele>1517.6</ele>
        <time>2018-01-12T11:12:04Z</time>
      </trkpt>
      <trkpt lat="42.97358" lon="-0.24407">
        <ele>1518.2</ele>
        <time>2018-01-12T11:12:10Z</time>
      </trkpt>
      <trkpt lat="42.97351" lon="-0.24402">
        <ele>1517.2</ele>
        <time>2018-01-12T11:12:22Z</time>
      </trkpt>
      <trkpt lat="42.97344" lon="-0.24399">
        <ele>1518</ele>
        <time>2018-01-12T11:12:27Z</time>
      </trkpt>
      <trkpt lat="42.97335" lon="-0.24394">
        <ele>1518.4</ele>
        <time>2018-01-12T11:12:32Z</time>
      </trkpt>
      <trkpt lat="42.97329" lon="-0.24389">
        <ele>1519.1</ele>
        <time>2018-01-12T11:12:36Z</time>
      </trkpt>
      <trkpt lat="42.97321" lon="-0.24384">
        <ele>1518.2</ele>
        <time>2018-01-12T11:12:41Z</time>
      </trkpt>
      <trkpt lat="42.97314" lon="-0.24379">
        <ele>1518.1</ele>
        <time>2018-01-12T11:12:45Z</time>
      </trkpt>
      <trkpt lat="42.97307" lon="-0.24374">
        <ele>1518.7</ele>
        <time>2018-01-12T11:12:50Z</time>
      </trkpt>
      <trkpt lat="42.973" lon="-0.24367">
        <ele>1519.6</ele>
        <time>2018-01-12T11:12:55Z</time>
      </trkpt>
      <trkpt lat="42.97299" lon="-0.24365">
        <ele>1519.4</ele>
        <time>2018-01-12T11:12:56Z</time>
      </trkpt>
      <trkpt lat="42.97288" lon="-0.24352">
        <ele>1520.3</ele>
        <time>2018-01-12T11:13:06Z</time>
      </trkpt>
      <trkpt lat="42.97283" lon="-0.24344">
        <ele>1521.9</ele>
        <time>2018-01-12T11:13:12Z</time>
      </trkpt>
      <trkpt lat="42.97277" lon="-0.24335">
        <ele>1522.4</ele>
        <time>2018-01-12T11:13:18Z</time>
      </trkpt>
      <trkpt lat="42.97271" lon="-0.24328">
        <ele>1525</ele>
        <time>2018-01-12T11:13:24Z</time>
      </trkpt>
      <trkpt lat="42.97263" lon="-0.24324">
        <ele>1525.7</ele>
        <time>2018-01-12T11:13:30Z</time>
      </trkpt>
      <trkpt lat="42.97254" lon="-0.24325">
        <ele>1526.2</ele>
        <time>2018-01-12T11:13:36Z</time>
      </trkpt>
      <trkpt lat="42.97247" lon="-0.24325">
        <ele>1526.6</ele>
        <time>2018-01-12T11:13:40Z</time>
      </trkpt>
      <trkpt lat="42.97238" lon="-0.24326">
        <ele>1527.3</ele>
        <time>2018-01-12T11:13:44Z</time>
      </trkpt>
      <trkpt lat="42.97231" lon="-0.24325">
        <ele>1526.7</ele>
        <time>2018-01-12T11:13:47Z</time>
      </trkpt>
      <trkpt lat="42.97223" lon="-0.24327">
        <ele>1525.5</ele>
        <time>2018-01-12T11:13:50Z</time>
      </trkpt>
      <trkpt lat="42.97217" lon="-0.2433">
        <ele>1524.8</ele>
        <time>2018-01-12T11:13:52Z</time>
      </trkpt>
      <trkpt lat="42.97211" lon="-0.24336">
        <ele>1524.1</ele>
        <time>2018-01-12T11:13:54Z</time>
      </trkpt>
      <trkpt lat="42.97208" lon="-0.24344">
        <ele>1523.4</ele>
        <time>2018-01-12T11:13:56Z</time>
      </trkpt>
      <trkpt lat="42.97206" lon="-0.24348">
        <ele>1522.9</ele>
        <time>2018-01-12T11:13:57Z</time>
      </trkpt>
      <trkpt lat="42.97202" lon="-0.24362">
        <ele>1522.1</ele>
        <time>2018-01-12T11:14:00Z</time>
      </trkpt>
      <trkpt lat="42.97199" lon="-0.2437">
        <ele>1521.8</ele>
        <time>2018-01-12T11:14:02Z</time>
      </trkpt>
      <trkpt lat="42.97195" lon="-0.24378">
        <ele>1521.7</ele>
        <time>2018-01-12T11:14:04Z</time>
      </trkpt>
      <trkpt lat="42.97189" lon="-0.24384">
        <ele>1521.5</ele>
        <time>2018-01-12T11:14:06Z</time>
      </trkpt>
      <trkpt lat="42.97182" lon="-0.24387">
        <ele>1521.1</ele>
        <time>2018-01-12T11:14:08Z</time>
      </trkpt>
      <trkpt lat="42.97177" lon="-0.24385">
        <ele>1521</ele>
        <time>2018-01-12T11:14:09Z</time>
      </trkpt>
      <trkpt lat="42.97173" lon="-0.24382">
        <ele>1520.5</ele>
        <time>2018-01-12T11:14:10Z</time>
      </trkpt>
      <trkpt lat="42.97167" lon="-0.24374">
        <ele>1519.8</ele>
        <time>2018-01-12T11:14:12Z</time>
      </trkpt>
      <trkpt lat="42.97162" lon="-0.24365">
        <ele>1518.2</ele>
        <time>2018-01-12T11:14:14Z</time>
      </trkpt>
      <trkpt lat="42.97158" lon="-0.24357">
        <ele>1517.4</ele>
        <time>2018-01-12T11:14:16Z</time>
      </trkpt>
      <trkpt lat="42.97153" lon="-0.2435">
        <ele>1517.2</ele>
        <time>2018-01-12T11:14:18Z</time>
      </trkpt>
      <trkpt lat="42.97149" lon="-0.24342">
        <ele>1516.8</ele>
        <time>2018-01-12T11:14:20Z</time>
      </trkpt>
      <trkpt lat="42.97144" lon="-0.24336">
        <ele>1516.1</ele>
        <time>2018-01-12T11:14:22Z</time>
      </trkpt>
      <trkpt lat="42.97136" lon="-0.24332">
        <ele>1515.1</ele>
        <time>2018-01-12T11:14:25Z</time>
      </trkpt>
      <trkpt lat="42.97128" lon="-0.24335">
        <ele>1515.2</ele>
        <time>2018-01-12T11:14:28Z</time>
      </trkpt>
      <trkpt lat="42.97123" lon="-0.24343">
        <ele>1514.6</ele>
        <time>2018-01-12T11:14:31Z</time>
      </trkpt>
      <trkpt lat="42.97118" lon="-0.24353">
        <ele>1514.6</ele>
        <time>2018-01-12T11:14:34Z</time>
      </trkpt>
      <trkpt lat="42.97115" lon="-0.24363">
        <ele>1513.8</ele>
        <time>2018-01-12T11:14:37Z</time>
      </trkpt>
      <trkpt lat="42.97112" lon="-0.24373">
        <ele>1513.9</ele>
        <time>2018-01-12T11:14:40Z</time>
      </trkpt>
      <trkpt lat="42.97108" lon="-0.24382">
        <ele>1513.5</ele>
        <time>2018-01-12T11:14:43Z</time>
      </trkpt>
      <trkpt lat="42.97104" lon="-0.24391">
        <ele>1512.9</ele>
        <time>2018-01-12T11:14:47Z</time>
      </trkpt>
      <trkpt lat="42.97101" lon="-0.244">
        <ele>1512.3</ele>
        <time>2018-01-12T11:14:50Z</time>
      </trkpt>
      <trkpt lat="42.97099" lon="-0.2441">
        <ele>1512.2</ele>
        <time>2018-01-12T11:14:53Z</time>
      </trkpt>
      <trkpt lat="42.97098" lon="-0.24421">
        <ele>1513</ele>
        <time>2018-01-12T11:14:56Z</time>
      </trkpt>
      <trkpt lat="42.97097" lon="-0.24429">
        <ele>1513.2</ele>
        <time>2018-01-12T11:14:58Z</time>
      </trkpt>
      <trkpt lat="42.97097" lon="-0.24434">
        <ele>1513.2</ele>
        <time>2018-01-12T11:14:59Z</time>
      </trkpt>
      <trkpt lat="42.97096" lon="-0.24451">
        <ele>1511.9</ele>
        <time>2018-01-12T11:15:02Z</time>
      </trkpt>
      <trkpt lat="42.97096" lon="-0.24457">
        <ele>1511.5</ele>
        <time>2018-01-12T11:15:03Z</time>
      </trkpt>
      <trkpt lat="42.97095" lon="-0.24469">
        <ele>1511.4</ele>
        <time>2018-01-12T11:15:05Z</time>
      </trkpt>
      <trkpt lat="42.97092" lon="-0.2448">
        <ele>1510.7</ele>
        <time>2018-01-12T11:15:07Z</time>
      </trkpt>
      <trkpt lat="42.9709" lon="-0.24491">
        <ele>1509.9</ele>
        <time>2018-01-12T11:15:09Z</time>
      </trkpt>
      <trkpt lat="42.97088" lon="-0.24501">
        <ele>1509.1</ele>
        <time>2018-01-12T11:15:11Z</time>
      </trkpt>
      <trkpt lat="42.97086" lon="-0.24511">
        <ele>1508.2</ele>
        <time>2018-01-12T11:15:13Z</time>
      </trkpt>
      <trkpt lat="42.97083" lon="-0.24521">
        <ele>1507.1</ele>
        <time>2018-01-12T11:15:16Z</time>
      </trkpt>
      <trkpt lat="42.97077" lon="-0.24528">
        <ele>1506.9</ele>
        <time>2018-01-12T11:15:20Z</time>
      </trkpt>
      <trkpt lat="42.97072" lon="-0.24535">
        <ele>1507.2</ele>
        <time>2018-01-12T11:15:24Z</time>
      </trkpt>
      <trkpt lat="42.97067" lon="-0.24543">
        <ele>1507.6</ele>
        <time>2018-01-12T11:15:28Z</time>
      </trkpt>
      <trkpt lat="42.97061" lon="-0.24552">
        <ele>1507.4</ele>
        <time>2018-01-12T11:15:33Z</time>
      </trkpt>
      <trkpt lat="42.97058" lon="-0.24562">
        <ele>1507.6</ele>
        <time>2018-01-12T11:15:38Z</time>
      </trkpt>
      <trkpt lat="42.97057" lon="-0.24572">
        <ele>1507.7</ele>
        <time>2018-01-12T11:15:42Z</time>
      </trkpt>
      <trkpt lat="42.97056" lon="-0.24583">
        <ele>1508.4</ele>
        <time>2018-01-12T11:15:47Z</time>
      </trkpt>
      <trkpt lat="42.97056" lon="-0.24595">
        <ele>1509</ele>
        <time>2018-01-12T11:15:51Z</time>
      </trkpt>
      <trkpt lat="42.97057" lon="-0.24605">
        <ele>1509.5</ele>
        <time>2018-01-12T11:15:55Z</time>
      </trkpt>
      <trkpt lat="42.9706" lon="-0.24615">
        <ele>1509.1</ele>
        <time>2018-01-12T11:16:00Z</time>
      </trkpt>
      <trkpt lat="42.97061" lon="-0.24618">
        <ele>1508.7</ele>
        <time>2018-01-12T11:16:01Z</time>
      </trkpt>
      <trkpt lat="42.97066" lon="-0.24635">
        <ele>1508.4</ele>
        <time>2018-01-12T11:16:08Z</time>
      </trkpt>
      <trkpt lat="42.97068" lon="-0.24645">
        <ele>1509.2</ele>
        <time>2018-01-12T11:16:12Z</time>
      </trkpt>
      <trkpt lat="42.97069" lon="-0.24655">
        <ele>1509.7</ele>
        <time>2018-01-12T11:16:16Z</time>
      </trkpt>
      <trkpt lat="42.97071" lon="-0.24666">
        <ele>1508.5</ele>
        <time>2018-01-12T11:16:20Z</time>
      </trkpt>
      <trkpt lat="42.97071" lon="-0.24678">
        <ele>1508.9</ele>
        <time>2018-01-12T11:16:24Z</time>
      </trkpt>
      <trkpt lat="42.97071" lon="-0.24689">
        <ele>1509.9</ele>
        <time>2018-01-12T11:16:28Z</time>
      </trkpt>
      <trkpt lat="42.97067" lon="-0.24698">
        <ele>1509.6</ele>
        <time>2018-01-12T11:16:32Z</time>
      </trkpt>
      <trkpt lat="42.97062" lon="-0.24706">
        <ele>1509.2</ele>
        <time>2018-01-12T11:16:36Z</time>
      </trkpt>
      <trkpt lat="42.97057" lon="-0.24711">
        <ele>1509</ele>
        <time>2018-01-12T11:16:39Z</time>
      </trkpt>
      <trkpt lat="42.9705" lon="-0.24716">
        <ele>1509.6</ele>
        <time>2018-01-12T11:16:42Z</time>
      </trkpt>
      <trkpt lat="42.97042" lon="-0.24721">
        <ele>1509.5</ele>
        <time>2018-01-12T11:16:45Z</time>
      </trkpt>
      <trkpt lat="42.97036" lon="-0.24725">
        <ele>1509.5</ele>
        <time>2018-01-12T11:16:47Z</time>
      </trkpt>
      <trkpt lat="42.9703" lon="-0.24729">
        <ele>1509.2</ele>
        <time>2018-01-12T11:16:49Z</time>
      </trkpt>
      <trkpt lat="42.97023" lon="-0.24734">
        <ele>1508.8</ele>
        <time>2018-01-12T11:16:51Z</time>
      </trkpt>
      <trkpt lat="42.97016" lon="-0.2474">
        <ele>1508.3</ele>
        <time>2018-01-12T11:16:53Z</time>
      </trkpt>
      <trkpt lat="42.97012" lon="-0.24743">
        <ele>1508.1</ele>
        <time>2018-01-12T11:16:54Z</time>
      </trkpt>
      <trkpt lat="42.97009" lon="-0.24748">
        <ele>1508</ele>
        <time>2018-01-12T11:16:55Z</time>
      </trkpt>
      <trkpt lat="42.97005" lon="-0.24753">
        <ele>1507.6</ele>
        <time>2018-01-12T11:16:56Z</time>
      </trkpt>
      <trkpt lat="42.97002" lon="-0.24759">
        <ele>1507.3</ele>
        <time>2018-01-12T11:16:57Z</time>
      </trkpt>
      <trkpt lat="42.96998" lon="-0.24765">
        <ele>1507.1</ele>
        <time>2018-01-12T11:16:58Z</time>
      </trkpt>
      <trkpt lat="42.96995" lon="-0.24772">
        <ele>1506.1</ele>
        <time>2018-01-12T11:16:59Z</time>
      </trkpt>
      <trkpt lat="42.96993" lon="-0.24779">
        <ele>1505.3</ele>
        <time>2018-01-12T11:17:00Z</time>
      </trkpt>
      <trkpt lat="42.9699" lon="-0.24785">
        <ele>1504.7</ele>
        <time>2018-01-12T11:17:01Z</time>
      </trkpt>
      <trkpt lat="42.96988" lon="-0.24791">
        <ele>1503.7</ele>
        <time>2018-01-12T11:17:02Z</time>
      </trkpt>
      <trkpt lat="42.96985" lon="-0.248">
        <ele>1502.5</ele>
        <time>2018-01-12T11:17:04Z</time>
      </trkpt>
      <trkpt lat="42.9698" lon="-0.24811">
        <ele>1502.6</ele>
        <time>2018-01-12T11:17:07Z</time>
      </trkpt>
      <trkpt lat="42.96976" lon="-0.2482">
        <ele>1502.7</ele>
        <time>2018-01-12T11:17:10Z</time>
      </trkpt>
      <trkpt lat="42.96972" lon="-0.24828">
        <ele>1502.6</ele>
        <time>2018-01-12T11:17:13Z</time>
      </trkpt>
      <trkpt lat="42.96968" lon="-0.24837">
        <ele>1502.4</ele>
        <time>2018-01-12T11:17:16Z</time>
      </trkpt>
      <trkpt lat="42.96963" lon="-0.24844">
        <ele>1501.6</ele>
        <time>2018-01-12T11:17:19Z</time>
      </trkpt>
      <trkpt lat="42.96956" lon="-0.2485">
        <ele>1501.2</ele>
        <time>2018-01-12T11:17:23Z</time>
      </trkpt>
      <trkpt lat="42.96948" lon="-0.24856">
        <ele>1501</ele>
        <time>2018-01-12T11:17:27Z</time>
      </trkpt>
      <trkpt lat="42.9694" lon="-0.24863">
        <ele>1501.8</ele>
        <time>2018-01-12T11:17:31Z</time>
      </trkpt>
      <trkpt lat="42.96934" lon="-0.24868">
        <ele>1501.5</ele>
        <time>2018-01-12T11:17:34Z</time>
      </trkpt>
      <trkpt lat="42.96929" lon="-0.24874">
        <ele>1501.3</ele>
        <time>2018-01-12T11:17:36Z</time>
      </trkpt>
      <trkpt lat="42.96924" lon="-0.2488">
        <ele>1501.1</ele>
        <time>2018-01-12T11:17:38Z</time>
      </trkpt>
      <trkpt lat="42.96918" lon="-0.24885">
        <ele>1500.7</ele>
        <time>2018-01-12T11:17:40Z</time>
      </trkpt>
      <trkpt lat="42.96911" lon="-0.24886">
        <ele>1500.3</ele>
        <time>2018-01-12T11:17:42Z</time>
      </trkpt>
      <trkpt lat="42.96905" lon="-0.24884">
        <ele>1500</ele>
        <time>2018-01-12T11:17:44Z</time>
      </trkpt>
      <trkpt lat="42.969" lon="-0.24876">
        <ele>1499.8</ele>
        <time>2018-01-12T11:17:47Z</time>
      </trkpt>
      <trkpt lat="42.96894" lon="-0.2487">
        <ele>1498.9</ele>
        <time>2018-01-12T11:17:51Z</time>
      </trkpt>
      <trkpt lat="42.96887" lon="-0.24867">
        <ele>1498.5</ele>
        <time>2018-01-12T11:17:54Z</time>
      </trkpt>
      <trkpt lat="42.9688" lon="-0.24861">
        <ele>1498.2</ele>
        <time>2018-01-12T11:17:57Z</time>
      </trkpt>
      <trkpt lat="42.96875" lon="-0.24857">
        <ele>1498.3</ele>
        <time>2018-01-12T11:17:59Z</time>
      </trkpt>
      <trkpt lat="42.9687" lon="-0.24853">
        <ele>1498.5</ele>
        <time>2018-01-12T11:18:01Z</time>
      </trkpt>
      <trkpt lat="42.96863" lon="-0.2485">
        <ele>1498.5</ele>
        <time>2018-01-12T11:18:03Z</time>
      </trkpt>
      <trkpt lat="42.9686" lon="-0.24849">
        <ele>1498.4</ele>
        <time>2018-01-12T11:18:04Z</time>
      </trkpt>
      <trkpt lat="42.96849" lon="-0.24845">
        <ele>1497.2</ele>
        <time>2018-01-12T11:18:07Z</time>
      </trkpt>
      <trkpt lat="42.96842" lon="-0.24842">
        <ele>1496</ele>
        <time>2018-01-12T11:18:09Z</time>
      </trkpt>
      <trkpt lat="42.96836" lon="-0.2484">
        <ele>1494.8</ele>
        <time>2018-01-12T11:18:11Z</time>
      </trkpt>
      <trkpt lat="42.9683" lon="-0.24838">
        <ele>1493.7</ele>
        <time>2018-01-12T11:18:13Z</time>
      </trkpt>
      <trkpt lat="42.96824" lon="-0.24834">
        <ele>1493.7</ele>
        <time>2018-01-12T11:18:15Z</time>
      </trkpt>
      <trkpt lat="42.96818" lon="-0.2483">
        <ele>1494.2</ele>
        <time>2018-01-12T11:18:17Z</time>
      </trkpt>
      <trkpt lat="42.96813" lon="-0.24826">
        <ele>1494.1</ele>
        <time>2018-01-12T11:18:19Z</time>
      </trkpt>
      <trkpt lat="42.96807" lon="-0.24822">
        <ele>1493.7</ele>
        <time>2018-01-12T11:18:21Z</time>
      </trkpt>
      <trkpt lat="42.96801" lon="-0.24818">
        <ele>1493.6</ele>
        <time>2018-01-12T11:18:23Z</time>
      </trkpt>
      <trkpt lat="42.96796" lon="-0.24815">
        <ele>1493.7</ele>
        <time>2018-01-12T11:18:25Z</time>
      </trkpt>
      <trkpt lat="42.9679" lon="-0.24812">
        <ele>1493.9</ele>
        <time>2018-01-12T11:18:27Z</time>
      </trkpt>
      <trkpt lat="42.96783" lon="-0.24812">
        <ele>1493</ele>
        <time>2018-01-12T11:18:29Z</time>
      </trkpt>
      <trkpt lat="42.96777" lon="-0.24816">
        <ele>1492.6</ele>
        <time>2018-01-12T11:18:31Z</time>
      </trkpt>
      <trkpt lat="42.96771" lon="-0.24822">
        <ele>1492.3</ele>
        <time>2018-01-12T11:18:33Z</time>
      </trkpt>
      <trkpt lat="42.96766" lon="-0.24829">
        <ele>1492</ele>
        <time>2018-01-12T11:18:35Z</time>
      </trkpt>
      <trkpt lat="42.9676" lon="-0.24838">
        <ele>1491.9</ele>
        <time>2018-01-12T11:18:38Z</time>
      </trkpt>
      <trkpt lat="42.96755" lon="-0.24847">
        <ele>1491.7</ele>
        <time>2018-01-12T11:18:42Z</time>
      </trkpt>
      <trkpt lat="42.96752" lon="-0.24857">
        <ele>1490.7</ele>
        <time>2018-01-12T11:18:46Z</time>
      </trkpt>
      <trkpt lat="42.96748" lon="-0.24868">
        <ele>1490.7</ele>
        <time>2018-01-12T11:18:51Z</time>
      </trkpt>
      <trkpt lat="42.96745" lon="-0.24879">
        <ele>1491.9</ele>
        <time>2018-01-12T11:18:56Z</time>
      </trkpt>
      <trkpt lat="42.96743" lon="-0.24889">
        <ele>1491.5</ele>
        <time>2018-01-12T11:19:00Z</time>
      </trkpt>
      <trkpt lat="42.9674" lon="-0.24899">
        <ele>1490.9</ele>
        <time>2018-01-12T11:19:04Z</time>
      </trkpt>
      <trkpt lat="42.9674" lon="-0.24901">
        <ele>1490.8</ele>
        <time>2018-01-12T11:19:05Z</time>
      </trkpt>
      <trkpt lat="42.96736" lon="-0.24919">
        <ele>1490.7</ele>
        <time>2018-01-12T11:19:12Z</time>
      </trkpt>
      <trkpt lat="42.96733" lon="-0.24929">
        <ele>1491.2</ele>
        <time>2018-01-12T11:19:16Z</time>
      </trkpt>
      <trkpt lat="42.96726" lon="-0.24936">
        <ele>1490.9</ele>
        <time>2018-01-12T11:19:21Z</time>
      </trkpt>
      <trkpt lat="42.96719" lon="-0.2494">
        <ele>1490.9</ele>
        <time>2018-01-12T11:19:25Z</time>
      </trkpt>
      <trkpt lat="42.96711" lon="-0.24944">
        <ele>1490.7</ele>
        <time>2018-01-12T11:19:29Z</time>
      </trkpt>
      <trkpt lat="42.96704" lon="-0.24948">
        <ele>1490.7</ele>
        <time>2018-01-12T11:19:32Z</time>
      </trkpt>
      <trkpt lat="42.96696" lon="-0.24951">
        <ele>1490.3</ele>
        <time>2018-01-12T11:19:36Z</time>
      </trkpt>
      <trkpt lat="42.96689" lon="-0.24954">
        <ele>1491.1</ele>
        <time>2018-01-12T11:19:40Z</time>
      </trkpt>
      <trkpt lat="42.96681" lon="-0.24958">
        <ele>1490.4</ele>
        <time>2018-01-12T11:19:44Z</time>
      </trkpt>
      <trkpt lat="42.96674" lon="-0.24963">
        <ele>1490</ele>
        <time>2018-01-12T11:19:48Z</time>
      </trkpt>
      <trkpt lat="42.96668" lon="-0.24968">
        <ele>1489.8</ele>
        <time>2018-01-12T11:19:51Z</time>
      </trkpt>
      <trkpt lat="42.96662" lon="-0.24972">
        <ele>1490</ele>
        <time>2018-01-12T11:19:54Z</time>
      </trkpt>
      <trkpt lat="42.96655" lon="-0.24977">
        <ele>1490</ele>
        <time>2018-01-12T11:19:57Z</time>
      </trkpt>
      <trkpt lat="42.96649" lon="-0.24983">
        <ele>1490.5</ele>
        <time>2018-01-12T11:20:00Z</time>
      </trkpt>
      <trkpt lat="42.96642" lon="-0.24989">
        <ele>1489.9</ele>
        <time>2018-01-12T11:20:03Z</time>
      </trkpt>
      <trkpt lat="42.96636" lon="-0.24996">
        <ele>1489</ele>
        <time>2018-01-12T11:20:06Z</time>
      </trkpt>
      <trkpt lat="42.96634" lon="-0.24998">
        <ele>1489</ele>
        <time>2018-01-12T11:20:07Z</time>
      </trkpt>
      <trkpt lat="42.96624" lon="-0.2501">
        <ele>1489.2</ele>
        <time>2018-01-12T11:20:12Z</time>
      </trkpt>
      <trkpt lat="42.96619" lon="-0.25018">
        <ele>1489.1</ele>
        <time>2018-01-12T11:20:15Z</time>
      </trkpt>
      <trkpt lat="42.96616" lon="-0.25027">
        <ele>1489.3</ele>
        <time>2018-01-12T11:20:18Z</time>
      </trkpt>
      <trkpt lat="42.96613" lon="-0.25035">
        <ele>1489.3</ele>
        <time>2018-01-12T11:20:20Z</time>
      </trkpt>
      <trkpt lat="42.96612" lon="-0.25045">
        <ele>1489.3</ele>
        <time>2018-01-12T11:20:22Z</time>
      </trkpt>
      <trkpt lat="42.9661" lon="-0.25053">
        <ele>1489.2</ele>
        <time>2018-01-12T11:20:24Z</time>
      </trkpt>
      <trkpt lat="42.96607" lon="-0.25063">
        <ele>1488.7</ele>
        <time>2018-01-12T11:20:27Z</time>
      </trkpt>
      <trkpt lat="42.96603" lon="-0.25073">
        <ele>1488.8</ele>
        <time>2018-01-12T11:20:32Z</time>
      </trkpt>
      <trkpt lat="42.966" lon="-0.25085">
        <ele>1489.7</ele>
        <time>2018-01-12T11:20:38Z</time>
      </trkpt>
      <trkpt lat="42.966" lon="-0.25095">
        <ele>1490.1</ele>
        <time>2018-01-12T11:20:44Z</time>
      </trkpt>
      <trkpt lat="42.96601" lon="-0.25106">
        <ele>1490.3</ele>
        <time>2018-01-12T11:20:49Z</time>
      </trkpt>
      <trkpt lat="42.96605" lon="-0.25116">
        <ele>1490.7</ele>
        <time>2018-01-12T11:20:53Z</time>
      </trkpt>
      <trkpt lat="42.96606" lon="-0.25127">
        <ele>1490.3</ele>
        <time>2018-01-12T11:20:57Z</time>
      </trkpt>
      <trkpt lat="42.96605" lon="-0.25138">
        <ele>1491.3</ele>
        <time>2018-01-12T11:21:02Z</time>
      </trkpt>
      <trkpt lat="42.96604" lon="-0.2515">
        <ele>1491.3</ele>
        <time>2018-01-12T11:21:07Z</time>
      </trkpt>
      <trkpt lat="42.96603" lon="-0.25152">
        <ele>1491.1</ele>
        <time>2018-01-12T11:21:08Z</time>
      </trkpt>
      <trkpt lat="42.966" lon="-0.2517">
        <ele>1491.5</ele>
        <time>2018-01-12T11:21:15Z</time>
      </trkpt>
      <trkpt lat="42.96597" lon="-0.25181">
        <ele>1491.9</ele>
        <time>2018-01-12T11:21:19Z</time>
      </trkpt>
      <trkpt lat="42.96594" lon="-0.25189">
        <ele>1492.7</ele>
        <time>2018-01-12T11:21:22Z</time>
      </trkpt>
      <trkpt lat="42.96593" lon="-0.252">
        <ele>1492.3</ele>
        <time>2018-01-12T11:21:25Z</time>
      </trkpt>
      <trkpt lat="42.96594" lon="-0.25209">
        <ele>1491.7</ele>
        <time>2018-01-12T11:21:27Z</time>
      </trkpt>
      <trkpt lat="42.96594" lon="-0.2522">
        <ele>1491.3</ele>
        <time>2018-01-12T11:21:29Z</time>
      </trkpt>
      <trkpt lat="42.96593" lon="-0.25229">
        <ele>1490.8</ele>
        <time>2018-01-12T11:21:31Z</time>
      </trkpt>
      <trkpt lat="42.9659" lon="-0.2524">
        <ele>1490.4</ele>
        <time>2018-01-12T11:21:34Z</time>
      </trkpt>
      <trkpt lat="42.96584" lon="-0.25247">
        <ele>1489.9</ele>
        <time>2018-01-12T11:21:37Z</time>
      </trkpt>
      <trkpt lat="42.96577" lon="-0.25253">
        <ele>1489.1</ele>
        <time>2018-01-12T11:21:41Z</time>
      </trkpt>
      <trkpt lat="42.96569" lon="-0.25258">
        <ele>1488.6</ele>
        <time>2018-01-12T11:21:44Z</time>
      </trkpt>
      <trkpt lat="42.96563" lon="-0.2526">
        <ele>1488.3</ele>
        <time>2018-01-12T11:21:46Z</time>
      </trkpt>
      <trkpt lat="42.96554" lon="-0.25264">
        <ele>1487.7</ele>
        <time>2018-01-12T11:21:50Z</time>
      </trkpt>
      <trkpt lat="42.96547" lon="-0.25269">
        <ele>1487.9</ele>
        <time>2018-01-12T11:21:54Z</time>
      </trkpt>
      <trkpt lat="42.9654" lon="-0.25275">
        <ele>1487.8</ele>
        <time>2018-01-12T11:21:59Z</time>
      </trkpt>
      <trkpt lat="42.96533" lon="-0.2528">
        <ele>1488.4</ele>
        <time>2018-01-12T11:22:04Z</time>
      </trkpt>
      <trkpt lat="42.96526" lon="-0.25284">
        <ele>1488.3</ele>
        <time>2018-01-12T11:22:07Z</time>
      </trkpt>
      <trkpt lat="42.96519" lon="-0.25286">
        <ele>1487.8</ele>
        <time>2018-01-12T11:22:10Z</time>
      </trkpt>
      <trkpt lat="42.96516" lon="-0.25287">
        <ele>1487.7</ele>
        <time>2018-01-12T11:22:11Z</time>
      </trkpt>
      <trkpt lat="42.96505" lon="-0.25291">
        <ele>1487.7</ele>
        <time>2018-01-12T11:22:15Z</time>
      </trkpt>
      <trkpt lat="42.96497" lon="-0.25295">
        <ele>1487.6</ele>
        <time>2018-01-12T11:22:18Z</time>
      </trkpt>
      <trkpt lat="42.96489" lon="-0.25299">
        <ele>1487.1</ele>
        <time>2018-01-12T11:22:21Z</time>
      </trkpt>
      <trkpt lat="42.96481" lon="-0.25302">
        <ele>1486.7</ele>
        <time>2018-01-12T11:22:24Z</time>
      </trkpt>
      <trkpt lat="42.96474" lon="-0.25303">
        <ele>1486.8</ele>
        <time>2018-01-12T11:22:27Z</time>
      </trkpt>
      <trkpt lat="42.96465" lon="-0.25304">
        <ele>1486.1</ele>
        <time>2018-01-12T11:22:31Z</time>
      </trkpt>
      <trkpt lat="42.96458" lon="-0.25303">
        <ele>1485.7</ele>
        <time>2018-01-12T11:22:34Z</time>
      </trkpt>
      <trkpt lat="42.9645" lon="-0.25301">
        <ele>1484.7</ele>
        <time>2018-01-12T11:22:37Z</time>
      </trkpt>
      <trkpt lat="42.96442" lon="-0.25301">
        <ele>1484</ele>
        <time>2018-01-12T11:22:41Z</time>
      </trkpt>
      <trkpt lat="42.96435" lon="-0.253">
        <ele>1483.9</ele>
        <time>2018-01-12T11:22:43Z</time>
      </trkpt>
      <trkpt lat="42.96428" lon="-0.25298">
        <ele>1483</ele>
        <time>2018-01-12T11:22:45Z</time>
      </trkpt>
      <trkpt lat="42.9642" lon="-0.25296">
        <ele>1482.1</ele>
        <time>2018-01-12T11:22:48Z</time>
      </trkpt>
      <trkpt lat="42.96414" lon="-0.25292">
        <ele>1480.7</ele>
        <time>2018-01-12T11:22:52Z</time>
      </trkpt>
      <trkpt lat="42.96413" lon="-0.25283">
        <ele>1479.5</ele>
        <time>2018-01-12T11:22:54Z</time>
      </trkpt>
      <trkpt lat="42.96418" lon="-0.25275">
        <ele>1478.4</ele>
        <time>2018-01-12T11:22:56Z</time>
      </trkpt>
      <trkpt lat="42.96422" lon="-0.25273">
        <ele>1478</ele>
        <time>2018-01-12T11:22:57Z</time>
      </trkpt>
      <trkpt lat="42.96427" lon="-0.2527">
        <ele>1477.6</ele>
        <time>2018-01-12T11:22:58Z</time>
      </trkpt>
      <trkpt lat="42.96432" lon="-0.25267">
        <ele>1477.3</ele>
        <time>2018-01-12T11:22:59Z</time>
      </trkpt>
      <trkpt lat="42.9644" lon="-0.25262">
        <ele>1475.6</ele>
        <time>2018-01-12T11:23:01Z</time>
      </trkpt>
      <trkpt lat="42.96447" lon="-0.25254">
        <ele>1474.1</ele>
        <time>2018-01-12T11:23:07Z</time>
      </trkpt>
      <trkpt lat="42.96453" lon="-0.25248">
        <ele>1474</ele>
        <time>2018-01-12T11:23:13Z</time>
      </trkpt>
      <trkpt lat="42.96454" lon="-0.25247">
        <ele>1474.1</ele>
        <time>2018-01-12T11:23:14Z</time>
      </trkpt>
      <trkpt lat="42.96468" lon="-0.25239">
        <ele>1474.2</ele>
        <time>2018-01-12T11:23:23Z</time>
      </trkpt>
      <trkpt lat="42.96475" lon="-0.25234">
        <ele>1474.7</ele>
        <time>2018-01-12T11:23:28Z</time>
      </trkpt>
      <trkpt lat="42.96482" lon="-0.25228">
        <ele>1475</ele>
        <time>2018-01-12T11:23:33Z</time>
      </trkpt>
      <trkpt lat="42.96488" lon="-0.25221">
        <ele>1474.6</ele>
        <time>2018-01-12T11:23:37Z</time>
      </trkpt>
      <trkpt lat="42.96493" lon="-0.25211">
        <ele>1475</ele>
        <time>2018-01-12T11:23:42Z</time>
      </trkpt>
      <trkpt lat="42.96496" lon="-0.25201">
        <ele>1475.2</ele>
        <time>2018-01-12T11:23:46Z</time>
      </trkpt>
      <trkpt lat="42.96499" lon="-0.25191">
        <ele>1475.7</ele>
        <time>2018-01-12T11:23:50Z</time>
      </trkpt>
      <trkpt lat="42.96504" lon="-0.25183">
        <ele>1476.3</ele>
        <time>2018-01-12T11:23:54Z</time>
      </trkpt>
      <trkpt lat="42.9651" lon="-0.25175">
        <ele>1476.1</ele>
        <time>2018-01-12T11:23:59Z</time>
      </trkpt>
      <trkpt lat="42.96518" lon="-0.25171">
        <ele>1477.1</ele>
        <time>2018-01-12T11:24:04Z</time>
      </trkpt>
      <trkpt lat="42.96527" lon="-0.25168">
        <ele>1477.7</ele>
        <time>2018-01-12T11:24:13Z</time>
      </trkpt>
      <trkpt lat="42.96535" lon="-0.25166">
        <ele>1479.6</ele>
        <time>2018-01-12T11:25:48Z</time>
      </trkpt>
      <trkpt lat="42.96536" lon="-0.25166">
        <ele>1479.2</ele>
        <time>2018-01-12T11:25:49Z</time>
      </trkpt>
      <trkpt lat="42.96534" lon="-0.25151">
        <ele>1478.8</ele>
        <time>2018-01-12T11:29:18Z</time>
      </trkpt>
      <trkpt lat="42.96531" lon="-0.25137">
        <ele>1478.3</ele>
        <time>2018-01-12T11:29:22Z</time>
      </trkpt>
      <trkpt lat="42.96526" lon="-0.2513">
        <ele>1477.7</ele>
        <time>2018-01-12T11:29:24Z</time>
      </trkpt>
      <trkpt lat="42.96517" lon="-0.25129">
        <ele>1476.3</ele>
        <time>2018-01-12T11:29:27Z</time>
      </trkpt>
      <trkpt lat="42.96511" lon="-0.25131">
        <ele>1475.9</ele>
        <time>2018-01-12T11:29:29Z</time>
      </trkpt>
      <trkpt lat="42.96503" lon="-0.25136">
        <ele>1475.7</ele>
        <time>2018-01-12T11:29:32Z</time>
      </trkpt>
      <trkpt lat="42.96498" lon="-0.25141">
        <ele>1475.5</ele>
        <time>2018-01-12T11:29:34Z</time>
      </trkpt>
      <trkpt lat="42.96492" lon="-0.25143">
        <ele>1474.3</ele>
        <time>2018-01-12T11:29:36Z</time>
      </trkpt>
      <trkpt lat="42.96486" lon="-0.25144">
        <ele>1474.1</ele>
        <time>2018-01-12T11:29:38Z</time>
      </trkpt>
      <trkpt lat="42.96477" lon="-0.25144">
        <ele>1474.4</ele>
        <time>2018-01-12T11:29:41Z</time>
      </trkpt>
      <trkpt lat="42.9647" lon="-0.25143">
        <ele>1473.3</ele>
        <time>2018-01-12T11:29:45Z</time>
      </trkpt>
      <trkpt lat="42.96462" lon="-0.25143">
        <ele>1472.9</ele>
        <time>2018-01-12T11:29:48Z</time>
      </trkpt>
      <trkpt lat="42.96456" lon="-0.25145">
        <ele>1472</ele>
        <time>2018-01-12T11:29:51Z</time>
      </trkpt>
      <trkpt lat="42.96447" lon="-0.25146">
        <ele>1471.7</ele>
        <time>2018-01-12T11:29:56Z</time>
      </trkpt>
      <trkpt lat="42.96439" lon="-0.25141">
        <ele>1471.1</ele>
        <time>2018-01-12T11:30:01Z</time>
      </trkpt>
      <trkpt lat="42.96431" lon="-0.25136">
        <ele>1470.9</ele>
        <time>2018-01-12T11:30:05Z</time>
      </trkpt>
      <trkpt lat="42.96423" lon="-0.25133">
        <ele>1470.6</ele>
        <time>2018-01-12T11:30:09Z</time>
      </trkpt>
      <trkpt lat="42.96415" lon="-0.25131">
        <ele>1471</ele>
        <time>2018-01-12T11:30:13Z</time>
      </trkpt>
      <trkpt lat="42.96407" lon="-0.25127">
        <ele>1471.3</ele>
        <time>2018-01-12T11:30:16Z</time>
      </trkpt>
      <trkpt lat="42.96401" lon="-0.25124">
        <ele>1470.8</ele>
        <time>2018-01-12T11:30:19Z</time>
      </trkpt>
      <trkpt lat="42.96399" lon="-0.25122">
        <ele>1470.7</ele>
        <time>2018-01-12T11:30:20Z</time>
      </trkpt>
      <trkpt lat="42.96392" lon="-0.25109">
        <ele>1470.2</ele>
        <time>2018-01-12T11:30:24Z</time>
      </trkpt>
      <trkpt lat="42.96389" lon="-0.251">
        <ele>1469.9</ele>
        <time>2018-01-12T11:30:26Z</time>
      </trkpt>
      <trkpt lat="42.96387" lon="-0.25092">
        <ele>1469.6</ele>
        <time>2018-01-12T11:30:28Z</time>
      </trkpt>
      <trkpt lat="42.96385" lon="-0.25084">
        <ele>1469.5</ele>
        <time>2018-01-12T11:30:30Z</time>
      </trkpt>
      <trkpt lat="42.96384" lon="-0.25076">
        <ele>1469.6</ele>
        <time>2018-01-12T11:30:32Z</time>
      </trkpt>
      <trkpt lat="42.96383" lon="-0.25064">
        <ele>1469.7</ele>
        <time>2018-01-12T11:30:35Z</time>
      </trkpt>
      <trkpt lat="42.96382" lon="-0.25055">
        <ele>1469.4</ele>
        <time>2018-01-12T11:30:37Z</time>
      </trkpt>
      <trkpt lat="42.96383" lon="-0.25044">
        <ele>1468.6</ele>
        <time>2018-01-12T11:30:40Z</time>
      </trkpt>
      <trkpt lat="42.96387" lon="-0.25035">
        <ele>1467.7</ele>
        <time>2018-01-12T11:30:43Z</time>
      </trkpt>
      <trkpt lat="42.96395" lon="-0.25034">
        <ele>1467.6</ele>
        <time>2018-01-12T11:30:47Z</time>
      </trkpt>
      <trkpt lat="42.96402" lon="-0.25039">
        <ele>1467.8</ele>
        <time>2018-01-12T11:30:51Z</time>
      </trkpt>
      <trkpt lat="42.96408" lon="-0.25044">
        <ele>1466.6</ele>
        <time>2018-01-12T11:30:54Z</time>
      </trkpt>
      <trkpt lat="42.96415" lon="-0.2505">
        <ele>1466.5</ele>
        <time>2018-01-12T11:30:57Z</time>
      </trkpt>
      <trkpt lat="42.96422" lon="-0.25058">
        <ele>1465.8</ele>
        <time>2018-01-12T11:31:00Z</time>
      </trkpt>
      <trkpt lat="42.96427" lon="-0.25066">
        <ele>1465.4</ele>
        <time>2018-01-12T11:31:03Z</time>
      </trkpt>
      <trkpt lat="42.9643" lon="-0.25075">
        <ele>1465</ele>
        <time>2018-01-12T11:31:06Z</time>
      </trkpt>
      <trkpt lat="42.96432" lon="-0.25084">
        <ele>1464.5</ele>
        <time>2018-01-12T11:31:09Z</time>
      </trkpt>
      <trkpt lat="42.96439" lon="-0.25091">
        <ele>1462.9</ele>
        <time>2018-01-12T11:31:12Z</time>
      </trkpt>
      <trkpt lat="42.96447" lon="-0.25093">
        <ele>1462.1</ele>
        <time>2018-01-12T11:31:16Z</time>
      </trkpt>
      <trkpt lat="42.96455" lon="-0.25092">
        <ele>1462</ele>
        <time>2018-01-12T11:31:21Z</time>
      </trkpt>
      <trkpt lat="42.96456" lon="-0.25091">
        <ele>1461.9</ele>
        <time>2018-01-12T11:31:22Z</time>
      </trkpt>
      <trkpt lat="42.96465" lon="-0.25077">
        <ele>1462.2</ele>
        <time>2018-01-12T11:31:29Z</time>
      </trkpt>
      <trkpt lat="42.96468" lon="-0.25067">
        <ele>1462.1</ele>
        <time>2018-01-12T11:31:32Z</time>
      </trkpt>
      <trkpt lat="42.9647" lon="-0.25058">
        <ele>1461.6</ele>
        <time>2018-01-12T11:31:34Z</time>
      </trkpt>
      <trkpt lat="42.96474" lon="-0.25051">
        <ele>1461.2</ele>
        <time>2018-01-12T11:31:36Z</time>
      </trkpt>
      <trkpt lat="42.9648" lon="-0.25045">
        <ele>1460.3</ele>
        <time>2018-01-12T11:31:38Z</time>
      </trkpt>
      <trkpt lat="42.96485" lon="-0.25039">
        <ele>1459.5</ele>
        <time>2018-01-12T11:31:40Z</time>
      </trkpt>
      <trkpt lat="42.96489" lon="-0.25033">
        <ele>1458.9</ele>
        <time>2018-01-12T11:31:42Z</time>
      </trkpt>
      <trkpt lat="42.96495" lon="-0.25027">
        <ele>1458.3</ele>
        <time>2018-01-12T11:31:44Z</time>
      </trkpt>
      <trkpt lat="42.96501" lon="-0.25023">
        <ele>1457.8</ele>
        <time>2018-01-12T11:31:46Z</time>
      </trkpt>
      <trkpt lat="42.96508" lon="-0.25016">
        <ele>1457.3</ele>
        <time>2018-01-12T11:31:49Z</time>
      </trkpt>
      <trkpt lat="42.96502" lon="-0.25013">
        <ele>1456.7</ele>
        <time>2018-01-12T11:31:55Z</time>
      </trkpt>
      <trkpt lat="42.96493" lon="-0.25017">
        <ele>1456.2</ele>
        <time>2018-01-12T11:31:58Z</time>
      </trkpt>
      <trkpt lat="42.96485" lon="-0.25023">
        <ele>1455.3</ele>
        <time>2018-01-12T11:32:01Z</time>
      </trkpt>
      <trkpt lat="42.96479" lon="-0.25029">
        <ele>1454.3</ele>
        <time>2018-01-12T11:32:04Z</time>
      </trkpt>
      <trkpt lat="42.96472" lon="-0.25035">
        <ele>1453.6</ele>
        <time>2018-01-12T11:32:07Z</time>
      </trkpt>
      <trkpt lat="42.96464" lon="-0.2504">
        <ele>1452.9</ele>
        <time>2018-01-12T11:32:10Z</time>
      </trkpt>
      <trkpt lat="42.96458" lon="-0.25035">
        <ele>1452</ele>
        <time>2018-01-12T11:32:15Z</time>
      </trkpt>
      <trkpt lat="42.96459" lon="-0.25024">
        <ele>1450.7</ele>
        <time>2018-01-12T11:32:18Z</time>
      </trkpt>
      <trkpt lat="42.96462" lon="-0.25015">
        <ele>1449.4</ele>
        <time>2018-01-12T11:32:21Z</time>
      </trkpt>
      <trkpt lat="42.96467" lon="-0.25007">
        <ele>1448.8</ele>
        <time>2018-01-12T11:32:24Z</time>
      </trkpt>
      <trkpt lat="42.96468" lon="-0.25005">
        <ele>1449.2</ele>
        <time>2018-01-12T11:32:25Z</time>
      </trkpt>
      <trkpt lat="42.9648" lon="-0.24995">
        <ele>1449.6</ele>
        <time>2018-01-12T11:32:29Z</time>
      </trkpt>
      <trkpt lat="42.96486" lon="-0.24989">
        <ele>1448.5</ele>
        <time>2018-01-12T11:32:31Z</time>
      </trkpt>
      <trkpt lat="42.96489" lon="-0.24978">
        <ele>1446.2</ele>
        <time>2018-01-12T11:32:34Z</time>
      </trkpt>
      <trkpt lat="42.96491" lon="-0.24971">
        <ele>1445.3</ele>
        <time>2018-01-12T11:32:36Z</time>
      </trkpt>
      <trkpt lat="42.96492" lon="-0.2496">
        <ele>1444.7</ele>
        <time>2018-01-12T11:32:38Z</time>
      </trkpt>
      <trkpt lat="42.96496" lon="-0.24949">
        <ele>1443.8</ele>
        <time>2018-01-12T11:32:40Z</time>
      </trkpt>
      <trkpt lat="42.965" lon="-0.24939">
        <ele>1442.9</ele>
        <time>2018-01-12T11:32:42Z</time>
      </trkpt>
      <trkpt lat="42.96504" lon="-0.2493">
        <ele>1442.3</ele>
        <time>2018-01-12T11:32:44Z</time>
      </trkpt>
      <trkpt lat="42.9651" lon="-0.24922">
        <ele>1441.8</ele>
        <time>2018-01-12T11:32:46Z</time>
      </trkpt>
      <trkpt lat="42.96514" lon="-0.24918">
        <ele>1441.3</ele>
        <time>2018-01-12T11:32:47Z</time>
      </trkpt>
      <trkpt lat="42.96521" lon="-0.24911">
        <ele>1440.6</ele>
        <time>2018-01-12T11:32:49Z</time>
      </trkpt>
      <trkpt lat="42.96527" lon="-0.24905">
        <ele>1439.3</ele>
        <time>2018-01-12T11:32:52Z</time>
      </trkpt>
      <trkpt lat="42.96531" lon="-0.24898">
        <ele>1439</ele>
        <time>2018-01-12T11:32:55Z</time>
      </trkpt>
      <trkpt lat="42.96536" lon="-0.24891">
        <ele>1439.6</ele>
        <time>2018-01-12T11:32:58Z</time>
      </trkpt>
      <trkpt lat="42.9654" lon="-0.24881">
        <ele>1439.4</ele>
        <time>2018-01-12T11:33:01Z</time>
      </trkpt>
      <trkpt lat="42.96544" lon="-0.24872">
        <ele>1439.5</ele>
        <time>2018-01-12T11:33:04Z</time>
      </trkpt>
      <trkpt lat="42.96548" lon="-0.24861">
        <ele>1439.5</ele>
        <time>2018-01-12T11:33:07Z</time>
      </trkpt>
      <trkpt lat="42.96541" lon="-0.24856">
        <ele>1437.3</ele>
        <time>2018-01-12T11:33:16Z</time>
      </trkpt>
      <trkpt lat="42.96535" lon="-0.24864">
        <ele>1436.3</ele>
        <time>2018-01-12T11:33:19Z</time>
      </trkpt>
      <trkpt lat="42.96531" lon="-0.2487">
        <ele>1435.9</ele>
        <time>2018-01-12T11:33:21Z</time>
      </trkpt>
      <trkpt lat="42.96527" lon="-0.24877">
        <ele>1433.9</ele>
        <time>2018-01-12T11:33:23Z</time>
      </trkpt>
      <trkpt lat="42.9652" lon="-0.24882">
        <ele>1433</ele>
        <time>2018-01-12T11:33:26Z</time>
      </trkpt>
      <trkpt lat="42.96518" lon="-0.24885">
        <ele>1432.9</ele>
        <time>2018-01-12T11:33:27Z</time>
      </trkpt>
      <trkpt lat="42.96512" lon="-0.24896">
        <ele>1431.8</ele>
        <time>2018-01-12T11:33:30Z</time>
      </trkpt>
      <trkpt lat="42.96507" lon="-0.24905">
        <ele>1431</ele>
        <time>2018-01-12T11:33:32Z</time>
      </trkpt>
      <trkpt lat="42.96501" lon="-0.24913">
        <ele>1430.3</ele>
        <time>2018-01-12T11:33:34Z</time>
      </trkpt>
      <trkpt lat="42.96494" lon="-0.24915">
        <ele>1428.5</ele>
        <time>2018-01-12T11:33:36Z</time>
      </trkpt>
      <trkpt lat="42.96486" lon="-0.24916">
        <ele>1427.9</ele>
        <time>2018-01-12T11:33:39Z</time>
      </trkpt>
      <trkpt lat="42.96479" lon="-0.24915">
        <ele>1427.6</ele>
        <time>2018-01-12T11:33:42Z</time>
      </trkpt>
      <trkpt lat="42.96471" lon="-0.24915">
        <ele>1427.9</ele>
        <time>2018-01-12T11:33:46Z</time>
      </trkpt>
      <trkpt lat="42.96464" lon="-0.24913">
        <ele>1427.5</ele>
        <time>2018-01-12T11:33:50Z</time>
      </trkpt>
      <trkpt lat="42.96455" lon="-0.24909">
        <ele>1429.1</ele>
        <time>2018-01-12T11:33:56Z</time>
      </trkpt>
      <trkpt lat="42.96447" lon="-0.24905">
        <ele>1430</ele>
        <time>2018-01-12T11:34:01Z</time>
      </trkpt>
      <trkpt lat="42.96438" lon="-0.24903">
        <ele>1430.9</ele>
        <time>2018-01-12T11:34:05Z</time>
      </trkpt>
      <trkpt lat="42.96431" lon="-0.24904">
        <ele>1431.5</ele>
        <time>2018-01-12T11:34:09Z</time>
      </trkpt>
      <trkpt lat="42.96423" lon="-0.24904">
        <ele>1432.5</ele>
        <time>2018-01-12T11:34:13Z</time>
      </trkpt>
      <trkpt lat="42.96416" lon="-0.24903">
        <ele>1431.4</ele>
        <time>2018-01-12T11:34:18Z</time>
      </trkpt>
      <trkpt lat="42.96409" lon="-0.249">
        <ele>1433.3</ele>
        <time>2018-01-12T11:34:22Z</time>
      </trkpt>
      <trkpt lat="42.96401" lon="-0.24895">
        <ele>1432.6</ele>
        <time>2018-01-12T11:34:26Z</time>
      </trkpt>
      <trkpt lat="42.96394" lon="-0.24892">
        <ele>1432</ele>
        <time>2018-01-12T11:34:29Z</time>
      </trkpt>
      <trkpt lat="42.96392" lon="-0.24892">
        <ele>1432</ele>
        <time>2018-01-12T11:34:30Z</time>
      </trkpt>
      <trkpt lat="42.96378" lon="-0.24888">
        <ele>1431.8</ele>
        <time>2018-01-12T11:34:38Z</time>
      </trkpt>
      <trkpt lat="42.96369" lon="-0.24886">
        <ele>1432.4</ele>
        <time>2018-01-12T11:34:43Z</time>
      </trkpt>
      <trkpt lat="42.96362" lon="-0.24885">
        <ele>1432.4</ele>
        <time>2018-01-12T11:34:47Z</time>
      </trkpt>
      <trkpt lat="42.96354" lon="-0.24886">
        <ele>1431.6</ele>
        <time>2018-01-12T11:34:50Z</time>
      </trkpt>
      <trkpt lat="42.96348" lon="-0.24887">
        <ele>1431</ele>
        <time>2018-01-12T11:34:52Z</time>
      </trkpt>
      <trkpt lat="42.96342" lon="-0.24887">
        <ele>1430.8</ele>
        <time>2018-01-12T11:34:54Z</time>
      </trkpt>
      <trkpt lat="42.96334" lon="-0.24888">
        <ele>1430.6</ele>
        <time>2018-01-12T11:34:56Z</time>
      </trkpt>
      <trkpt lat="42.96328" lon="-0.2489">
        <ele>1430.4</ele>
        <time>2018-01-12T11:34:58Z</time>
      </trkpt>
      <trkpt lat="42.9632" lon="-0.24893">
        <ele>1430.1</ele>
        <time>2018-01-12T11:35:01Z</time>
      </trkpt>
      <trkpt lat="42.96312" lon="-0.24898">
        <ele>1430</ele>
        <time>2018-01-12T11:35:05Z</time>
      </trkpt>
      <trkpt lat="42.96307" lon="-0.24903">
        <ele>1429.4</ele>
        <time>2018-01-12T11:35:08Z</time>
      </trkpt>
      <trkpt lat="42.96301" lon="-0.24909">
        <ele>1428.9</ele>
        <time>2018-01-12T11:35:11Z</time>
      </trkpt>
      <trkpt lat="42.96297" lon="-0.24917">
        <ele>1429</ele>
        <time>2018-01-12T11:35:14Z</time>
      </trkpt>
      <trkpt lat="42.96293" lon="-0.24925">
        <ele>1429.8</ele>
        <time>2018-01-12T11:35:17Z</time>
      </trkpt>
      <trkpt lat="42.96288" lon="-0.24935">
        <ele>1429.9</ele>
        <time>2018-01-12T11:35:21Z</time>
      </trkpt>
      <trkpt lat="42.96284" lon="-0.24945">
        <ele>1429.8</ele>
        <time>2018-01-12T11:35:25Z</time>
      </trkpt>
      <trkpt lat="42.96282" lon="-0.24954">
        <ele>1430.4</ele>
        <time>2018-01-12T11:35:28Z</time>
      </trkpt>
      <trkpt lat="42.96279" lon="-0.24966">
        <ele>1430.2</ele>
        <time>2018-01-12T11:35:32Z</time>
      </trkpt>
      <trkpt lat="42.96279" lon="-0.24969">
        <ele>1429.9</ele>
        <time>2018-01-12T11:35:33Z</time>
      </trkpt>
      <trkpt lat="42.96279" lon="-0.24988">
        <ele>1429.1</ele>
        <time>2018-01-12T11:35:38Z</time>
      </trkpt>
      <trkpt lat="42.96279" lon="-0.25">
        <ele>1428.5</ele>
        <time>2018-01-12T11:35:41Z</time>
      </trkpt>
      <trkpt lat="42.96279" lon="-0.25008">
        <ele>1428.7</ele>
        <time>2018-01-12T11:35:43Z</time>
      </trkpt>
      <trkpt lat="42.96283" lon="-0.25016">
        <ele>1428.7</ele>
        <time>2018-01-12T11:35:45Z</time>
      </trkpt>
      <trkpt lat="42.96288" lon="-0.25022">
        <ele>1427.3</ele>
        <time>2018-01-12T11:35:47Z</time>
      </trkpt>
      <trkpt lat="42.96292" lon="-0.25028">
        <ele>1426.7</ele>
        <time>2018-01-12T11:35:49Z</time>
      </trkpt>
      <trkpt lat="42.96296" lon="-0.25035">
        <ele>1426.5</ele>
        <time>2018-01-12T11:35:51Z</time>
      </trkpt>
      <trkpt lat="42.96299" lon="-0.25042">
        <ele>1426.5</ele>
        <time>2018-01-12T11:35:53Z</time>
      </trkpt>
      <trkpt lat="42.96302" lon="-0.25052">
        <ele>1425.9</ele>
        <time>2018-01-12T11:35:55Z</time>
      </trkpt>
      <trkpt lat="42.96301" lon="-0.25062">
        <ele>1424.9</ele>
        <time>2018-01-12T11:35:57Z</time>
      </trkpt>
      <trkpt lat="42.963" lon="-0.25074">
        <ele>1424.5</ele>
        <time>2018-01-12T11:35:59Z</time>
      </trkpt>
      <trkpt lat="42.96298" lon="-0.25085">
        <ele>1423.7</ele>
        <time>2018-01-12T11:36:01Z</time>
      </trkpt>
      <trkpt lat="42.96297" lon="-0.25094">
        <ele>1422.8</ele>
        <time>2018-01-12T11:36:03Z</time>
      </trkpt>
      <trkpt lat="42.96294" lon="-0.25105">
        <ele>1421.8</ele>
        <time>2018-01-12T11:36:07Z</time>
      </trkpt>
      <trkpt lat="42.96288" lon="-0.25114">
        <ele>1422.7</ele>
        <time>2018-01-12T11:36:11Z</time>
      </trkpt>
      <trkpt lat="42.96281" lon="-0.25118">
        <ele>1423.2</ele>
        <time>2018-01-12T11:36:16Z</time>
      </trkpt>
      <trkpt lat="42.96273" lon="-0.25118">
        <ele>1424.3</ele>
        <time>2018-01-12T11:36:21Z</time>
      </trkpt>
      <trkpt lat="42.96264" lon="-0.25117">
        <ele>1425.4</ele>
        <time>2018-01-12T11:36:27Z</time>
      </trkpt>
      <trkpt lat="42.96256" lon="-0.25117">
        <ele>1426.3</ele>
        <time>2018-01-12T11:36:34Z</time>
      </trkpt>
      <trkpt lat="42.96254" lon="-0.25118">
        <ele>1426.4</ele>
        <time>2018-01-12T11:36:35Z</time>
      </trkpt>
      <trkpt lat="42.96248" lon="-0.25134">
        <ele>1429.2</ele>
        <time>2018-01-12T11:36:49Z</time>
      </trkpt>
      <trkpt lat="42.9625" lon="-0.25144">
        <ele>1429.4</ele>
        <time>2018-01-12T11:36:54Z</time>
      </trkpt>
      <trkpt lat="42.96254" lon="-0.25153">
        <ele>1429.7</ele>
        <time>2018-01-12T11:36:59Z</time>
      </trkpt>
      <trkpt lat="42.96257" lon="-0.25162">
        <ele>1430.2</ele>
        <time>2018-01-12T11:37:03Z</time>
      </trkpt>
      <trkpt lat="42.96261" lon="-0.25171">
        <ele>1430.9</ele>
        <time>2018-01-12T11:37:07Z</time>
      </trkpt>
      <trkpt lat="42.96268" lon="-0.25179">
        <ele>1431.8</ele>
        <time>2018-01-12T11:37:12Z</time>
      </trkpt>
      <trkpt lat="42.96273" lon="-0.25186">
        <ele>1431.4</ele>
        <time>2018-01-12T11:37:16Z</time>
      </trkpt>
      <trkpt lat="42.96277" lon="-0.25197">
        <ele>1430.7</ele>
        <time>2018-01-12T11:37:21Z</time>
      </trkpt>
      <trkpt lat="42.96278" lon="-0.25207">
        <ele>1430.3</ele>
        <time>2018-01-12T11:37:25Z</time>
      </trkpt>
      <trkpt lat="42.96282" lon="-0.25217">
        <ele>1430.3</ele>
        <time>2018-01-12T11:37:30Z</time>
      </trkpt>
      <trkpt lat="42.96286" lon="-0.25225">
        <ele>1429.5</ele>
        <time>2018-01-12T11:37:34Z</time>
      </trkpt>
      <trkpt lat="42.96291" lon="-0.25235">
        <ele>1429.8</ele>
        <time>2018-01-12T11:37:38Z</time>
      </trkpt>
      <trkpt lat="42.96292" lon="-0.25237">
        <ele>1430</ele>
        <time>2018-01-12T11:37:39Z</time>
      </trkpt>
      <trkpt lat="42.96289" lon="-0.25256">
        <ele>1430.4</ele>
        <time>2018-01-12T11:37:45Z</time>
      </trkpt>
      <trkpt lat="42.96283" lon="-0.25262">
        <ele>1430.3</ele>
        <time>2018-01-12T11:37:48Z</time>
      </trkpt>
      <trkpt lat="42.96276" lon="-0.25268">
        <ele>1429.7</ele>
        <time>2018-01-12T11:37:52Z</time>
      </trkpt>
      <trkpt lat="42.9627" lon="-0.25275">
        <ele>1429.9</ele>
        <time>2018-01-12T11:37:56Z</time>
      </trkpt>
      <trkpt lat="42.96264" lon="-0.25282">
        <ele>1429.2</ele>
        <time>2018-01-12T11:37:59Z</time>
      </trkpt>
      <trkpt lat="42.96259" lon="-0.25288">
        <ele>1429.8</ele>
        <time>2018-01-12T11:38:02Z</time>
      </trkpt>
      <trkpt lat="42.96254" lon="-0.25295">
        <ele>1429.5</ele>
        <time>2018-01-12T11:38:05Z</time>
      </trkpt>
      <trkpt lat="42.96249" lon="-0.25302">
        <ele>1429.3</ele>
        <time>2018-01-12T11:38:08Z</time>
      </trkpt>
      <trkpt lat="42.96243" lon="-0.25311">
        <ele>1429.4</ele>
        <time>2018-01-12T11:38:12Z</time>
      </trkpt>
      <trkpt lat="42.96237" lon="-0.2532">
        <ele>1430.5</ele>
        <time>2018-01-12T11:38:17Z</time>
      </trkpt>
      <trkpt lat="42.96231" lon="-0.25329">
        <ele>1430.1</ele>
        <time>2018-01-12T11:38:22Z</time>
      </trkpt>
      <trkpt lat="42.96225" lon="-0.25338">
        <ele>1431.2</ele>
        <time>2018-01-12T11:38:27Z</time>
      </trkpt>
      <trkpt lat="42.9622" lon="-0.25348">
        <ele>1432.8</ele>
        <time>2018-01-12T11:38:32Z</time>
      </trkpt>
      <trkpt lat="42.96217" lon="-0.25358">
        <ele>1432.8</ele>
        <time>2018-01-12T11:38:37Z</time>
      </trkpt>
      <trkpt lat="42.96214" lon="-0.25369">
        <ele>1434.5</ele>
        <time>2018-01-12T11:38:42Z</time>
      </trkpt>
      <trkpt lat="42.96213" lon="-0.25371">
        <ele>1434.7</ele>
        <time>2018-01-12T11:38:43Z</time>
      </trkpt>
      <trkpt lat="42.96209" lon="-0.25391">
        <ele>1435.4</ele>
        <time>2018-01-12T11:38:52Z</time>
      </trkpt>
      <trkpt lat="42.96208" lon="-0.25403">
        <ele>1436</ele>
        <time>2018-01-12T11:38:57Z</time>
      </trkpt>
      <trkpt lat="42.96209" lon="-0.25414">
        <ele>1435.3</ele>
        <time>2018-01-12T11:39:02Z</time>
      </trkpt>
      <trkpt lat="42.96211" lon="-0.25423">
        <ele>1436</ele>
        <time>2018-01-12T11:39:07Z</time>
      </trkpt>
      <trkpt lat="42.96213" lon="-0.25434">
        <ele>1435.6</ele>
        <time>2018-01-12T11:39:12Z</time>
      </trkpt>
      <trkpt lat="42.96211" lon="-0.25446">
        <ele>1436.6</ele>
        <time>2018-01-12T11:39:18Z</time>
      </trkpt>
      <trkpt lat="42.96206" lon="-0.25455">
        <ele>1436.2</ele>
        <time>2018-01-12T11:39:23Z</time>
      </trkpt>
      <trkpt lat="42.96199" lon="-0.2546">
        <ele>1437.5</ele>
        <time>2018-01-12T11:39:28Z</time>
      </trkpt>
      <trkpt lat="42.96192" lon="-0.25465">
        <ele>1437.7</ele>
        <time>2018-01-12T11:39:32Z</time>
      </trkpt>
      <trkpt lat="42.96185" lon="-0.25471">
        <ele>1437.8</ele>
        <time>2018-01-12T11:39:36Z</time>
      </trkpt>
      <trkpt lat="42.96179" lon="-0.25475">
        <ele>1437.3</ele>
        <time>2018-01-12T11:39:39Z</time>
      </trkpt>
      <trkpt lat="42.96172" lon="-0.2548">
        <ele>1436.9</ele>
        <time>2018-01-12T11:39:42Z</time>
      </trkpt>
      <trkpt lat="42.96165" lon="-0.25486">
        <ele>1436.6</ele>
        <time>2018-01-12T11:39:45Z</time>
      </trkpt>
      <trkpt lat="42.96163" lon="-0.25489">
        <ele>1436.4</ele>
        <time>2018-01-12T11:39:46Z</time>
      </trkpt>
      <trkpt lat="42.96159" lon="-0.255">
        <ele>1436</ele>
        <time>2018-01-12T11:39:49Z</time>
      </trkpt>
      <trkpt lat="42.96158" lon="-0.2551">
        <ele>1435.3</ele>
        <time>2018-01-12T11:39:52Z</time>
      </trkpt>
      <trkpt lat="42.96156" lon="-0.25523">
        <ele>1435.7</ele>
        <time>2018-01-12T11:39:57Z</time>
      </trkpt>
      <trkpt lat="42.96153" lon="-0.25533">
        <ele>1435.6</ele>
        <time>2018-01-12T11:40:02Z</time>
      </trkpt>
      <trkpt lat="42.96149" lon="-0.25544">
        <ele>1436.2</ele>
        <time>2018-01-12T11:40:07Z</time>
      </trkpt>
      <trkpt lat="42.96145" lon="-0.25554">
        <ele>1437.5</ele>
        <time>2018-01-12T11:40:12Z</time>
      </trkpt>
      <trkpt lat="42.9614" lon="-0.25564">
        <ele>1437</ele>
        <time>2018-01-12T11:40:18Z</time>
      </trkpt>
      <trkpt lat="42.96136" lon="-0.25574">
        <ele>1439.2</ele>
        <time>2018-01-12T11:40:24Z</time>
      </trkpt>
      <trkpt lat="42.96132" lon="-0.25584">
        <ele>1439.2</ele>
        <time>2018-01-12T11:40:32Z</time>
      </trkpt>
      <trkpt lat="42.96127" lon="-0.25594">
        <ele>1439.8</ele>
        <time>2018-01-12T11:40:37Z</time>
      </trkpt>
      <trkpt lat="42.96125" lon="-0.25605">
        <ele>1440.4</ele>
        <time>2018-01-12T11:40:42Z</time>
      </trkpt>
      <trkpt lat="42.96123" lon="-0.25615">
        <ele>1440.2</ele>
        <time>2018-01-12T11:40:47Z</time>
      </trkpt>
      <trkpt lat="42.96121" lon="-0.25626">
        <ele>1440.9</ele>
        <time>2018-01-12T11:40:52Z</time>
      </trkpt>
      <trkpt lat="42.96121" lon="-0.25628">
        <ele>1440.8</ele>
        <time>2018-01-12T11:40:53Z</time>
      </trkpt>
      <trkpt lat="42.96115" lon="-0.25648">
        <ele>1441</ele>
        <time>2018-01-12T11:41:05Z</time>
      </trkpt>
      <trkpt lat="42.96112" lon="-0.25659">
        <ele>1441.7</ele>
        <time>2018-01-12T11:41:12Z</time>
      </trkpt>
      <trkpt lat="42.96117" lon="-0.25668">
        <ele>1441.6</ele>
        <time>2018-01-12T11:41:55Z</time>
      </trkpt>
      <trkpt lat="42.96118" lon="-0.25668">
        <ele>1441.5</ele>
        <time>2018-01-12T11:41:56Z</time>
      </trkpt>
      <trkpt lat="42.96112" lon="-0.25661">
        <ele>1441</ele>
        <time>2018-01-12T11:43:29Z</time>
      </trkpt>
      <trkpt lat="42.96113" lon="-0.2565">
        <ele>1441.6</ele>
        <time>2018-01-12T11:43:41Z</time>
      </trkpt>
      <trkpt lat="42.96093" lon="-0.25664">
        <ele>1441.5</ele>
        <time>2018-01-12T11:48:37Z</time>
      </trkpt>
      <trkpt lat="42.96093" lon="-0.25664">
        <ele>1441.8</ele>
        <time>2018-01-12T11:48:38Z</time>
      </trkpt>
      <trkpt lat="42.96102" lon="-0.25667">
        <ele>1442.5</ele>
        <time>2018-01-12T11:50:55Z</time>
      </trkpt>
      <trkpt lat="42.96119" lon="-0.25665">
        <ele>1442.7</ele>
        <time>2018-01-12T11:51:30Z</time>
      </trkpt>
      <trkpt lat="42.96128" lon="-0.25667">
        <ele>1443.1</ele>
        <time>2018-01-12T11:52:14Z</time>
      </trkpt>
      <trkpt lat="42.96129" lon="-0.25667">
        <ele>1442.7</ele>
        <time>2018-01-12T11:52:15Z</time>
      </trkpt>
      <trkpt lat="42.96123" lon="-0.25657">
        <ele>1441.1</ele>
        <time>2018-01-12T11:53:31Z</time>
      </trkpt>
      <trkpt lat="42.96124" lon="-0.25638">
        <ele>1441.6</ele>
        <time>2018-01-12T11:53:39Z</time>
      </trkpt>
      <trkpt lat="42.96123" lon="-0.25628">
        <ele>1442.1</ele>
        <time>2018-01-12T11:53:43Z</time>
      </trkpt>
      <trkpt lat="42.96124" lon="-0.25618">
        <ele>1442.3</ele>
        <time>2018-01-12T11:53:46Z</time>
      </trkpt>
      <trkpt lat="42.96126" lon="-0.25607">
        <ele>1441.6</ele>
        <time>2018-01-12T11:53:49Z</time>
      </trkpt>
      <trkpt lat="42.96128" lon="-0.25599">
        <ele>1441.3</ele>
        <time>2018-01-12T11:53:51Z</time>
      </trkpt>
      <trkpt lat="42.96131" lon="-0.25591">
        <ele>1441.2</ele>
        <time>2018-01-12T11:53:53Z</time>
      </trkpt>
      <trkpt lat="42.96135" lon="-0.2558">
        <ele>1441</ele>
        <time>2018-01-12T11:53:56Z</time>
      </trkpt>
      <trkpt lat="42.96138" lon="-0.25571">
        <ele>1440.6</ele>
        <time>2018-01-12T11:53:59Z</time>
      </trkpt>
      <trkpt lat="42.96142" lon="-0.25564">
        <ele>1439.9</ele>
        <time>2018-01-12T11:54:01Z</time>
      </trkpt>
      <trkpt lat="42.96145" lon="-0.25556">
        <ele>1439.6</ele>
        <time>2018-01-12T11:54:03Z</time>
      </trkpt>
      <trkpt lat="42.96148" lon="-0.25546">
        <ele>1438.9</ele>
        <time>2018-01-12T11:54:05Z</time>
      </trkpt>
      <trkpt lat="42.96151" lon="-0.25535">
        <ele>1438.2</ele>
        <time>2018-01-12T11:54:07Z</time>
      </trkpt>
      <trkpt lat="42.96151" lon="-0.25524">
        <ele>1437.5</ele>
        <time>2018-01-12T11:54:09Z</time>
      </trkpt>
      <trkpt lat="42.96152" lon="-0.25514">
        <ele>1437</ele>
        <time>2018-01-12T11:54:11Z</time>
      </trkpt>
      <trkpt lat="42.96155" lon="-0.25504">
        <ele>1436.4</ele>
        <time>2018-01-12T11:54:14Z</time>
      </trkpt>
      <trkpt lat="42.9616" lon="-0.25496">
        <ele>1436.8</ele>
        <time>2018-01-12T11:54:18Z</time>
      </trkpt>
      <trkpt lat="42.96166" lon="-0.25489">
        <ele>1437.4</ele>
        <time>2018-01-12T11:54:23Z</time>
      </trkpt>
      <trkpt lat="42.96173" lon="-0.25484">
        <ele>1438.6</ele>
        <time>2018-01-12T11:54:27Z</time>
      </trkpt>
      <trkpt lat="42.9618" lon="-0.25477">
        <ele>1439.1</ele>
        <time>2018-01-12T11:54:32Z</time>
      </trkpt>
      <trkpt lat="42.96181" lon="-0.25476">
        <ele>1438.8</ele>
        <time>2018-01-12T11:54:33Z</time>
      </trkpt>
      <trkpt lat="42.96195" lon="-0.25469">
        <ele>1439.4</ele>
        <time>2018-01-12T11:54:41Z</time>
      </trkpt>
      <trkpt lat="42.962" lon="-0.2546">
        <ele>1438.6</ele>
        <time>2018-01-12T11:54:45Z</time>
      </trkpt>
      <trkpt lat="42.96203" lon="-0.2545">
        <ele>1437.9</ele>
        <time>2018-01-12T11:54:48Z</time>
      </trkpt>
      <trkpt lat="42.96204" lon="-0.2544">
        <ele>1437.8</ele>
        <time>2018-01-12T11:54:51Z</time>
      </trkpt>
      <trkpt lat="42.96202" lon="-0.25429">
        <ele>1437.6</ele>
        <time>2018-01-12T11:54:55Z</time>
      </trkpt>
      <trkpt lat="42.96202" lon="-0.25419">
        <ele>1438.1</ele>
        <time>2018-01-12T11:54:59Z</time>
      </trkpt>
      <trkpt lat="42.96203" lon="-0.25406">
        <ele>1437.5</ele>
        <time>2018-01-12T11:55:03Z</time>
      </trkpt>
      <trkpt lat="42.96204" lon="-0.25397">
        <ele>1436.5</ele>
        <time>2018-01-12T11:55:06Z</time>
      </trkpt>
      <trkpt lat="42.96206" lon="-0.25386">
        <ele>1437.8</ele>
        <time>2018-01-12T11:55:09Z</time>
      </trkpt>
      <trkpt lat="42.96208" lon="-0.25375">
        <ele>1437.8</ele>
        <time>2018-01-12T11:55:12Z</time>
      </trkpt>
      <trkpt lat="42.96211" lon="-0.25368">
        <ele>1437.2</ele>
        <time>2018-01-12T11:55:14Z</time>
      </trkpt>
      <trkpt lat="42.96215" lon="-0.25359">
        <ele>1436.5</ele>
        <time>2018-01-12T11:55:16Z</time>
      </trkpt>
      <trkpt lat="42.9622" lon="-0.25351">
        <ele>1436.1</ele>
        <time>2018-01-12T11:55:18Z</time>
      </trkpt>
      <trkpt lat="42.96224" lon="-0.25347">
        <ele>1435.9</ele>
        <time>2018-01-12T11:55:19Z</time>
      </trkpt>
      <trkpt lat="42.96228" lon="-0.25343">
        <ele>1435</ele>
        <time>2018-01-12T11:55:20Z</time>
      </trkpt>
      <trkpt lat="42.96232" lon="-0.25339">
        <ele>1434.4</ele>
        <time>2018-01-12T11:55:21Z</time>
      </trkpt>
      <trkpt lat="42.96237" lon="-0.25335">
        <ele>1433.9</ele>
        <time>2018-01-12T11:55:22Z</time>
      </trkpt>
      <trkpt lat="42.96241" lon="-0.25331">
        <ele>1433.4</ele>
        <time>2018-01-12T11:55:23Z</time>
      </trkpt>
      <trkpt lat="42.96247" lon="-0.25324">
        <ele>1432.7</ele>
        <time>2018-01-12T11:55:25Z</time>
      </trkpt>
      <trkpt lat="42.96252" lon="-0.25316">
        <ele>1431.7</ele>
        <time>2018-01-12T11:55:28Z</time>
      </trkpt>
      <trkpt lat="42.96256" lon="-0.25308">
        <ele>1431</ele>
        <time>2018-01-12T11:55:32Z</time>
      </trkpt>
      <trkpt lat="42.96262" lon="-0.25303">
        <ele>1431.9</ele>
        <time>2018-01-12T11:55:35Z</time>
      </trkpt>
      <trkpt lat="42.96264" lon="-0.25301">
        <ele>1431.9</ele>
        <time>2018-01-12T11:55:36Z</time>
      </trkpt>
      <trkpt lat="42.9627" lon="-0.25285">
        <ele>1431.2</ele>
        <time>2018-01-12T11:55:44Z</time>
      </trkpt>
      <trkpt lat="42.96271" lon="-0.25274">
        <ele>1431</ele>
        <time>2018-01-12T11:55:48Z</time>
      </trkpt>
      <trkpt lat="42.96275" lon="-0.25265">
        <ele>1431.7</ele>
        <time>2018-01-12T11:55:53Z</time>
      </trkpt>
      <trkpt lat="42.96273" lon="-0.25253">
        <ele>1432.7</ele>
        <time>2018-01-12T11:55:58Z</time>
      </trkpt>
      <trkpt lat="42.96273" lon="-0.25242">
        <ele>1432.4</ele>
        <time>2018-01-12T11:56:03Z</time>
      </trkpt>
      <trkpt lat="42.9627" lon="-0.2523">
        <ele>1433.1</ele>
        <time>2018-01-12T11:56:08Z</time>
      </trkpt>
      <trkpt lat="42.96268" lon="-0.2522">
        <ele>1432</ele>
        <time>2018-01-12T11:56:12Z</time>
      </trkpt>
      <trkpt lat="42.96266" lon="-0.25211">
        <ele>1431.3</ele>
        <time>2018-01-12T11:56:15Z</time>
      </trkpt>
      <trkpt lat="42.9627" lon="-0.25201">
        <ele>1432</ele>
        <time>2018-01-12T11:56:37Z</time>
      </trkpt>
      <trkpt lat="42.96269" lon="-0.25199">
        <ele>1432.2</ele>
        <time>2018-01-12T11:56:38Z</time>
      </trkpt>
      <trkpt lat="42.9626" lon="-0.25182">
        <ele>1432.3</ele>
        <time>2018-01-12T11:56:52Z</time>
      </trkpt>
      <trkpt lat="42.96257" lon="-0.25172">
        <ele>1432.3</ele>
        <time>2018-01-12T11:56:57Z</time>
      </trkpt>
      <trkpt lat="42.96253" lon="-0.25162">
        <ele>1431.5</ele>
        <time>2018-01-12T11:57:03Z</time>
      </trkpt>
      <trkpt lat="42.9625" lon="-0.25153">
        <ele>1431.7</ele>
        <time>2018-01-12T11:57:09Z</time>
      </trkpt>
      <trkpt lat="42.96246" lon="-0.25144">
        <ele>1431.8</ele>
        <time>2018-01-12T11:57:13Z</time>
      </trkpt>
      <trkpt lat="42.96244" lon="-0.25133">
        <ele>1432</ele>
        <time>2018-01-12T11:57:17Z</time>
      </trkpt>
      <trkpt lat="42.9625" lon="-0.25124">
        <ele>1430.3</ele>
        <time>2018-01-12T11:57:21Z</time>
      </trkpt>
      <trkpt lat="42.96258" lon="-0.25123">
        <ele>1429.3</ele>
        <time>2018-01-12T11:57:24Z</time>
      </trkpt>
      <trkpt lat="42.96266" lon="-0.25123">
        <ele>1428</ele>
        <time>2018-01-12T11:57:26Z</time>
      </trkpt>
      <trkpt lat="42.96273" lon="-0.25123">
        <ele>1427.3</ele>
        <time>2018-01-12T11:57:28Z</time>
      </trkpt>
      <trkpt lat="42.9628" lon="-0.2512">
        <ele>1427</ele>
        <time>2018-01-12T11:57:30Z</time>
      </trkpt>
      <trkpt lat="42.96285" lon="-0.25114">
        <ele>1426.1</ele>
        <time>2018-01-12T11:57:32Z</time>
      </trkpt>
      <trkpt lat="42.96289" lon="-0.25104">
        <ele>1424.2</ele>
        <time>2018-01-12T11:57:36Z</time>
      </trkpt>
      <trkpt lat="42.96293" lon="-0.25094">
        <ele>1423.7</ele>
        <time>2018-01-12T11:57:42Z</time>
      </trkpt>
      <trkpt lat="42.96293" lon="-0.25091">
        <ele>1423.7</ele>
        <time>2018-01-12T11:57:43Z</time>
      </trkpt>
      <trkpt lat="42.96295" lon="-0.25072">
        <ele>1425.2</ele>
        <time>2018-01-12T11:57:52Z</time>
      </trkpt>
      <trkpt lat="42.96293" lon="-0.2506">
        <ele>1426.4</ele>
        <time>2018-01-12T11:57:59Z</time>
      </trkpt>
      <trkpt lat="42.96289" lon="-0.25051">
        <ele>1427.5</ele>
        <time>2018-01-12T11:58:06Z</time>
      </trkpt>
      <trkpt lat="42.96284" lon="-0.25044">
        <ele>1428.3</ele>
        <time>2018-01-12T11:58:11Z</time>
      </trkpt>
      <trkpt lat="42.9628" lon="-0.25033">
        <ele>1428.6</ele>
        <time>2018-01-12T11:58:17Z</time>
      </trkpt>
      <trkpt lat="42.96279" lon="-0.25023">
        <ele>1428.6</ele>
        <time>2018-01-12T11:58:21Z</time>
      </trkpt>
      <trkpt lat="42.96277" lon="-0.25011">
        <ele>1429.4</ele>
        <time>2018-01-12T11:58:26Z</time>
      </trkpt>
      <trkpt lat="42.96278" lon="-0.25001">
        <ele>1430.2</ele>
        <time>2018-01-12T11:58:30Z</time>
      </trkpt>
      <trkpt lat="42.96277" lon="-0.24989">
        <ele>1430.2</ele>
        <time>2018-01-12T11:58:35Z</time>
      </trkpt>
      <trkpt lat="42.96277" lon="-0.24979">
        <ele>1430.6</ele>
        <time>2018-01-12T11:58:39Z</time>
      </trkpt>
      <trkpt lat="42.9628" lon="-0.24969">
        <ele>1430.8</ele>
        <time>2018-01-12T11:58:44Z</time>
      </trkpt>
      <trkpt lat="42.96281" lon="-0.24967">
        <ele>1430.8</ele>
        <time>2018-01-12T11:58:45Z</time>
      </trkpt>
      <trkpt lat="42.96283" lon="-0.24949">
        <ele>1430.7</ele>
        <time>2018-01-12T11:58:53Z</time>
      </trkpt>
      <trkpt lat="42.96285" lon="-0.24938">
        <ele>1431</ele>
        <time>2018-01-12T11:58:58Z</time>
      </trkpt>
      <trkpt lat="42.96288" lon="-0.24927">
        <ele>1431.1</ele>
        <time>2018-01-12T11:59:03Z</time>
      </trkpt>
      <trkpt lat="42.96292" lon="-0.24917">
        <ele>1431.5</ele>
        <time>2018-01-12T11:59:08Z</time>
      </trkpt>
      <trkpt lat="42.96296" lon="-0.2491">
        <ele>1431.7</ele>
        <time>2018-01-12T11:59:12Z</time>
      </trkpt>
      <trkpt lat="42.96301" lon="-0.249">
        <ele>1431.4</ele>
        <time>2018-01-12T11:59:16Z</time>
      </trkpt>
      <trkpt lat="42.96307" lon="-0.24894">
        <ele>1431.6</ele>
        <time>2018-01-12T11:59:20Z</time>
      </trkpt>
      <trkpt lat="42.96313" lon="-0.24889">
        <ele>1431.8</ele>
        <time>2018-01-12T11:59:23Z</time>
      </trkpt>
      <trkpt lat="42.96321" lon="-0.24884">
        <ele>1432.4</ele>
        <time>2018-01-12T11:59:27Z</time>
      </trkpt>
      <trkpt lat="42.96328" lon="-0.24879">
        <ele>1432.5</ele>
        <time>2018-01-12T11:59:31Z</time>
      </trkpt>
      <trkpt lat="42.96335" lon="-0.24875">
        <ele>1432.5</ele>
        <time>2018-01-12T11:59:36Z</time>
      </trkpt>
      <trkpt lat="42.96344" lon="-0.24875">
        <ele>1432.7</ele>
        <time>2018-01-12T11:59:41Z</time>
      </trkpt>
      <trkpt lat="42.96352" lon="-0.24876">
        <ele>1432.6</ele>
        <time>2018-01-12T11:59:45Z</time>
      </trkpt>
      <trkpt lat="42.96353" lon="-0.24877">
        <ele>1432.6</ele>
        <time>2018-01-12T11:59:46Z</time>
      </trkpt>
      <trkpt lat="42.96368" lon="-0.24881">
        <ele>1433.3</ele>
        <time>2018-01-12T11:59:55Z</time>
      </trkpt>
      <trkpt lat="42.96376" lon="-0.24883">
        <ele>1433</ele>
        <time>2018-01-12T12:00:01Z</time>
      </trkpt>
      <trkpt lat="42.96383" lon="-0.24885">
        <ele>1432.7</ele>
        <time>2018-01-12T12:00:05Z</time>
      </trkpt>
      <trkpt lat="42.96391" lon="-0.24889">
        <ele>1433.6</ele>
        <time>2018-01-12T12:00:09Z</time>
      </trkpt>
      <trkpt lat="42.96398" lon="-0.24892">
        <ele>1434.2</ele>
        <time>2018-01-12T12:00:12Z</time>
      </trkpt>
      <trkpt lat="42.96405" lon="-0.24896">
        <ele>1433.8</ele>
        <time>2018-01-12T12:00:15Z</time>
      </trkpt>
      <trkpt lat="42.96411" lon="-0.24898">
        <ele>1433.5</ele>
        <time>2018-01-12T12:00:17Z</time>
      </trkpt>
      <trkpt lat="42.96419" lon="-0.249">
        <ele>1433</ele>
        <time>2018-01-12T12:00:20Z</time>
      </trkpt>
      <trkpt lat="42.96425" lon="-0.24901">
        <ele>1432.7</ele>
        <time>2018-01-12T12:00:22Z</time>
      </trkpt>
      <trkpt lat="42.96433" lon="-0.249">
        <ele>1432.4</ele>
        <time>2018-01-12T12:00:24Z</time>
      </trkpt>
      <trkpt lat="42.96439" lon="-0.24902">
        <ele>1432.2</ele>
        <time>2018-01-12T12:00:26Z</time>
      </trkpt>
      <trkpt lat="42.96446" lon="-0.24904">
        <ele>1431.7</ele>
        <time>2018-01-12T12:00:28Z</time>
      </trkpt>
      <trkpt lat="42.96453" lon="-0.24905">
        <ele>1431.4</ele>
        <time>2018-01-12T12:00:30Z</time>
      </trkpt>
      <trkpt lat="42.9646" lon="-0.24905">
        <ele>1431.2</ele>
        <time>2018-01-12T12:00:32Z</time>
      </trkpt>
      <trkpt lat="42.96469" lon="-0.24906">
        <ele>1430.3</ele>
        <time>2018-01-12T12:00:35Z</time>
      </trkpt>
      <trkpt lat="42.96476" lon="-0.24907">
        <ele>1431.1</ele>
        <time>2018-01-12T12:00:38Z</time>
      </trkpt>
      <trkpt lat="42.96483" lon="-0.24906">
        <ele>1429.7</ele>
        <time>2018-01-12T12:00:42Z</time>
      </trkpt>
      <trkpt lat="42.96491" lon="-0.24901">
        <ele>1429.9</ele>
        <time>2018-01-12T12:00:48Z</time>
      </trkpt>
      <trkpt lat="42.96492" lon="-0.24899">
        <ele>1430.3</ele>
        <time>2018-01-12T12:00:49Z</time>
      </trkpt>
      <trkpt lat="42.96501" lon="-0.24883">
        <ele>1431.3</ele>
        <time>2018-01-12T12:00:59Z</time>
      </trkpt>
      <trkpt lat="42.96506" lon="-0.24876">
        <ele>1432.4</ele>
        <time>2018-01-12T12:01:04Z</time>
      </trkpt>
      <trkpt lat="42.96514" lon="-0.24872">
        <ele>1433.5</ele>
        <time>2018-01-12T12:01:09Z</time>
      </trkpt>
      <trkpt lat="42.96521" lon="-0.24868">
        <ele>1434.2</ele>
        <time>2018-01-12T12:01:14Z</time>
      </trkpt>
      <trkpt lat="42.96528" lon="-0.2486">
        <ele>1434.5</ele>
        <time>2018-01-12T12:01:19Z</time>
      </trkpt>
      <trkpt lat="42.96533" lon="-0.24851">
        <ele>1435.6</ele>
        <time>2018-01-12T12:01:24Z</time>
      </trkpt>
      <trkpt lat="42.96538" lon="-0.24842">
        <ele>1436.9</ele>
        <time>2018-01-12T12:01:29Z</time>
      </trkpt>
      <trkpt lat="42.96546" lon="-0.24838">
        <ele>1437.4</ele>
        <time>2018-01-12T12:01:34Z</time>
      </trkpt>
      <trkpt lat="42.96554" lon="-0.2484">
        <ele>1438.3</ele>
        <time>2018-01-12T12:01:39Z</time>
      </trkpt>
      <trkpt lat="42.96561" lon="-0.24847">
        <ele>1439.7</ele>
        <time>2018-01-12T12:01:46Z</time>
      </trkpt>
      <trkpt lat="42.96559" lon="-0.24859">
        <ele>1441</ele>
        <time>2018-01-12T12:01:53Z</time>
      </trkpt>
      <trkpt lat="42.96559" lon="-0.24861">
        <ele>1440.9</ele>
        <time>2018-01-12T12:01:54Z</time>
      </trkpt>
      <trkpt lat="42.96551" lon="-0.24877">
        <ele>1441.2</ele>
        <time>2018-01-12T12:02:03Z</time>
      </trkpt>
      <trkpt lat="42.96544" lon="-0.24883">
        <ele>1441.1</ele>
        <time>2018-01-12T12:02:07Z</time>
      </trkpt>
      <trkpt lat="42.96538" lon="-0.24889">
        <ele>1442.1</ele>
        <time>2018-01-12T12:02:11Z</time>
      </trkpt>
      <trkpt lat="42.96531" lon="-0.24894">
        <ele>1441.1</ele>
        <time>2018-01-12T12:02:16Z</time>
      </trkpt>
      <trkpt lat="42.96524" lon="-0.24901">
        <ele>1442.4</ele>
        <time>2018-01-12T12:02:21Z</time>
      </trkpt>
      <trkpt lat="42.9652" lon="-0.24909">
        <ele>1442</ele>
        <time>2018-01-12T12:02:26Z</time>
      </trkpt>
      <trkpt lat="42.96515" lon="-0.24918">
        <ele>1443.7</ele>
        <time>2018-01-12T12:02:30Z</time>
      </trkpt>
      <trkpt lat="42.96512" lon="-0.24926">
        <ele>1443.3</ele>
        <time>2018-01-12T12:02:34Z</time>
      </trkpt>
      <trkpt lat="42.96508" lon="-0.24938">
        <ele>1443.5</ele>
        <time>2018-01-12T12:02:39Z</time>
      </trkpt>
      <trkpt lat="42.96504" lon="-0.24946">
        <ele>1445.3</ele>
        <time>2018-01-12T12:02:44Z</time>
      </trkpt>
      <trkpt lat="42.96499" lon="-0.24955">
        <ele>1445.3</ele>
        <time>2018-01-12T12:02:49Z</time>
      </trkpt>
      <trkpt lat="42.96494" lon="-0.24963">
        <ele>1447.2</ele>
        <time>2018-01-12T12:02:54Z</time>
      </trkpt>
      <trkpt lat="42.96493" lon="-0.24965">
        <ele>1447.1</ele>
        <time>2018-01-12T12:02:55Z</time>
      </trkpt>
      <trkpt lat="42.9648" lon="-0.24976">
        <ele>1448.8</ele>
        <time>2018-01-12T12:03:05Z</time>
      </trkpt>
      <trkpt lat="42.96473" lon="-0.24981">
        <ele>1450.5</ele>
        <time>2018-01-12T12:03:11Z</time>
      </trkpt>
      <trkpt lat="42.96468" lon="-0.24988">
        <ele>1450.8</ele>
        <time>2018-01-12T12:03:16Z</time>
      </trkpt>
      <trkpt lat="42.96462" lon="-0.24997">
        <ele>1451.4</ele>
        <time>2018-01-12T12:03:22Z</time>
      </trkpt>
      <trkpt lat="42.96456" lon="-0.25006">
        <ele>1452.1</ele>
        <time>2018-01-12T12:03:28Z</time>
      </trkpt>
      <trkpt lat="42.96457" lon="-0.25017">
        <ele>1453.2</ele>
        <time>2018-01-12T12:03:34Z</time>
      </trkpt>
      <trkpt lat="42.96465" lon="-0.25021">
        <ele>1453.9</ele>
        <time>2018-01-12T12:03:44Z</time>
      </trkpt>
      <trkpt lat="42.96472" lon="-0.25018">
        <ele>1454.6</ele>
        <time>2018-01-12T12:03:50Z</time>
      </trkpt>
      <trkpt lat="42.9648" lon="-0.25015">
        <ele>1454.4</ele>
        <time>2018-01-12T12:03:55Z</time>
      </trkpt>
      <trkpt lat="42.96482" lon="-0.25014">
        <ele>1454.6</ele>
        <time>2018-01-12T12:03:56Z</time>
      </trkpt>
      <trkpt lat="42.96496" lon="-0.25009">
        <ele>1455.2</ele>
        <time>2018-01-12T12:04:06Z</time>
      </trkpt>
      <trkpt lat="42.96504" lon="-0.25007">
        <ele>1456.3</ele>
        <time>2018-01-12T12:04:11Z</time>
      </trkpt>
      <trkpt lat="42.96512" lon="-0.25007">
        <ele>1458</ele>
        <time>2018-01-12T12:04:16Z</time>
      </trkpt>
      <trkpt lat="42.96512" lon="-0.25019">
        <ele>1458.7</ele>
        <time>2018-01-12T12:04:26Z</time>
      </trkpt>
      <trkpt lat="42.96505" lon="-0.25026">
        <ele>1459.4</ele>
        <time>2018-01-12T12:04:33Z</time>
      </trkpt>
      <trkpt lat="42.96499" lon="-0.25033">
        <ele>1460.4</ele>
        <time>2018-01-12T12:04:38Z</time>
      </trkpt>
      <trkpt lat="42.96492" lon="-0.25038">
        <ele>1459.6</ele>
        <time>2018-01-12T12:04:43Z</time>
      </trkpt>
      <trkpt lat="42.96485" lon="-0.25044">
        <ele>1459.9</ele>
        <time>2018-01-12T12:04:49Z</time>
      </trkpt>
      <trkpt lat="42.9648" lon="-0.25053">
        <ele>1461</ele>
        <time>2018-01-12T12:04:54Z</time>
      </trkpt>
      <trkpt lat="42.96478" lon="-0.25064">
        <ele>1462.6</ele>
        <time>2018-01-12T12:05:00Z</time>
      </trkpt>
      <trkpt lat="42.96478" lon="-0.25066">
        <ele>1463.2</ele>
        <time>2018-01-12T12:05:01Z</time>
      </trkpt>
      <trkpt lat="42.96472" lon="-0.25085">
        <ele>1463</ele>
        <time>2018-01-12T12:05:10Z</time>
      </trkpt>
      <trkpt lat="42.96466" lon="-0.25092">
        <ele>1464.3</ele>
        <time>2018-01-12T12:05:15Z</time>
      </trkpt>
      <trkpt lat="42.9646" lon="-0.25098">
        <ele>1464.1</ele>
        <time>2018-01-12T12:05:20Z</time>
      </trkpt>
      <trkpt lat="42.96452" lon="-0.25102">
        <ele>1463.6</ele>
        <time>2018-01-12T12:05:25Z</time>
      </trkpt>
      <trkpt lat="42.96444" lon="-0.25104">
        <ele>1463.8</ele>
        <time>2018-01-12T12:05:31Z</time>
      </trkpt>
      <trkpt lat="42.96437" lon="-0.25098">
        <ele>1465.8</ele>
        <time>2018-01-12T12:05:37Z</time>
      </trkpt>
      <trkpt lat="42.96434" lon="-0.25089">
        <ele>1466.6</ele>
        <time>2018-01-12T12:05:42Z</time>
      </trkpt>
      <trkpt lat="42.9643" lon="-0.25079">
        <ele>1467.1</ele>
        <time>2018-01-12T12:05:47Z</time>
      </trkpt>
      <trkpt lat="42.96425" lon="-0.2507">
        <ele>1467.6</ele>
        <time>2018-01-12T12:05:52Z</time>
      </trkpt>
      <trkpt lat="42.96419" lon="-0.25062">
        <ele>1467.7</ele>
        <time>2018-01-12T12:05:57Z</time>
      </trkpt>
      <trkpt lat="42.96412" lon="-0.25054">
        <ele>1467.7</ele>
        <time>2018-01-12T12:06:02Z</time>
      </trkpt>
      <trkpt lat="42.96411" lon="-0.25052">
        <ele>1467.8</ele>
        <time>2018-01-12T12:06:03Z</time>
      </trkpt>
      <trkpt lat="42.96401" lon="-0.2504">
        <ele>1468.5</ele>
        <time>2018-01-12T12:06:10Z</time>
      </trkpt>
      <trkpt lat="42.96395" lon="-0.25032">
        <ele>1468.8</ele>
        <time>2018-01-12T12:06:15Z</time>
      </trkpt>
      <trkpt lat="42.96387" lon="-0.25033">
        <ele>1469.3</ele>
        <time>2018-01-12T12:06:22Z</time>
      </trkpt>
      <trkpt lat="42.96381" lon="-0.25041">
        <ele>1469.9</ele>
        <time>2018-01-12T12:06:28Z</time>
      </trkpt>
      <trkpt lat="42.96377" lon="-0.25052">
        <ele>1470.7</ele>
        <time>2018-01-12T12:06:34Z</time>
      </trkpt>
      <trkpt lat="42.96375" lon="-0.25063">
        <ele>1470.7</ele>
        <time>2018-01-12T12:06:40Z</time>
      </trkpt>
      <trkpt lat="42.96374" lon="-0.25074">
        <ele>1470.7</ele>
        <time>2018-01-12T12:06:46Z</time>
      </trkpt>
      <trkpt lat="42.96378" lon="-0.25085">
        <ele>1472</ele>
        <time>2018-01-12T12:06:53Z</time>
      </trkpt>
      <trkpt lat="42.96385" lon="-0.25091">
        <ele>1472</ele>
        <time>2018-01-12T12:06:59Z</time>
      </trkpt>
      <trkpt lat="42.96393" lon="-0.25095">
        <ele>1472</ele>
        <time>2018-01-12T12:07:05Z</time>
      </trkpt>
      <trkpt lat="42.96393" lon="-0.25096">
        <ele>1472.2</ele>
        <time>2018-01-12T12:07:06Z</time>
      </trkpt>
      <trkpt lat="42.96408" lon="-0.25107">
        <ele>1473.8</ele>
        <time>2018-01-12T12:07:18Z</time>
      </trkpt>
      <trkpt lat="42.96416" lon="-0.25113">
        <ele>1473.6</ele>
        <time>2018-01-12T12:07:23Z</time>
      </trkpt>
      <trkpt lat="42.96423" lon="-0.25119">
        <ele>1473.4</ele>
        <time>2018-01-12T12:07:27Z</time>
      </trkpt>
      <trkpt lat="42.9643" lon="-0.25124">
        <ele>1472.7</ele>
        <time>2018-01-12T12:07:31Z</time>
      </trkpt>
      <trkpt lat="42.96437" lon="-0.25128">
        <ele>1473.4</ele>
        <time>2018-01-12T12:07:35Z</time>
      </trkpt>
      <trkpt lat="42.96444" lon="-0.25132">
        <ele>1474.2</ele>
        <time>2018-01-12T12:07:41Z</time>
      </trkpt>
      <trkpt lat="42.96451" lon="-0.25135">
        <ele>1474.8</ele>
        <time>2018-01-12T12:07:45Z</time>
      </trkpt>
      <trkpt lat="42.96457" lon="-0.25139">
        <ele>1475.2</ele>
        <time>2018-01-12T12:07:48Z</time>
      </trkpt>
      <trkpt lat="42.96466" lon="-0.25141">
        <ele>1474.8</ele>
        <time>2018-01-12T12:07:52Z</time>
      </trkpt>
      <trkpt lat="42.96474" lon="-0.25141">
        <ele>1474.2</ele>
        <time>2018-01-12T12:07:56Z</time>
      </trkpt>
      <trkpt lat="42.96482" lon="-0.25139">
        <ele>1475.6</ele>
        <time>2018-01-12T12:08:00Z</time>
      </trkpt>
      <trkpt lat="42.96489" lon="-0.25135">
        <ele>1476.2</ele>
        <time>2018-01-12T12:08:05Z</time>
      </trkpt>
      <trkpt lat="42.96496" lon="-0.25128">
        <ele>1477.1</ele>
        <time>2018-01-12T12:08:10Z</time>
      </trkpt>
      <trkpt lat="42.96498" lon="-0.25127">
        <ele>1477.1</ele>
        <time>2018-01-12T12:08:11Z</time>
      </trkpt>
      <trkpt lat="42.9651" lon="-0.25122">
        <ele>1477.7</ele>
        <time>2018-01-12T12:08:18Z</time>
      </trkpt>
      <trkpt lat="42.96517" lon="-0.25124">
        <ele>1477.9</ele>
        <time>2018-01-12T12:08:22Z</time>
      </trkpt>
      <trkpt lat="42.96524" lon="-0.25131">
        <ele>1479.9</ele>
        <time>2018-01-12T12:08:27Z</time>
      </trkpt>
      <trkpt lat="42.96527" lon="-0.25142">
        <ele>1479.8</ele>
        <time>2018-01-12T12:08:33Z</time>
      </trkpt>
      <trkpt lat="42.96525" lon="-0.25152">
        <ele>1479.9</ele>
        <time>2018-01-12T12:08:38Z</time>
      </trkpt>
      <trkpt lat="42.96521" lon="-0.2516">
        <ele>1481.4</ele>
        <time>2018-01-12T12:08:43Z</time>
      </trkpt>
      <trkpt lat="42.96514" lon="-0.25167">
        <ele>1482.2</ele>
        <time>2018-01-12T12:08:47Z</time>
      </trkpt>
      <trkpt lat="42.96508" lon="-0.25171">
        <ele>1482</ele>
        <time>2018-01-12T12:08:49Z</time>
      </trkpt>
      <trkpt lat="42.96503" lon="-0.25181">
        <ele>1481.3</ele>
        <time>2018-01-12T12:08:52Z</time>
      </trkpt>
      <trkpt lat="42.96499" lon="-0.25191">
        <ele>1480.3</ele>
        <time>2018-01-12T12:08:56Z</time>
      </trkpt>
      <trkpt lat="42.96497" lon="-0.25201">
        <ele>1481.4</ele>
        <time>2018-01-12T12:09:00Z</time>
      </trkpt>
      <trkpt lat="42.96494" lon="-0.2521">
        <ele>1480.9</ele>
        <time>2018-01-12T12:09:04Z</time>
      </trkpt>
      <trkpt lat="42.96489" lon="-0.25216">
        <ele>1480.6</ele>
        <time>2018-01-12T12:09:07Z</time>
      </trkpt>
      <trkpt lat="42.96482" lon="-0.25221">
        <ele>1480.4</ele>
        <time>2018-01-12T12:09:10Z</time>
      </trkpt>
      <trkpt lat="42.96474" lon="-0.25225">
        <ele>1480</ele>
        <time>2018-01-12T12:09:14Z</time>
      </trkpt>
      <trkpt lat="42.96473" lon="-0.25226">
        <ele>1480</ele>
        <time>2018-01-12T12:09:15Z</time>
      </trkpt>
      <trkpt lat="42.9646" lon="-0.25231">
        <ele>1479.8</ele>
        <time>2018-01-12T12:09:21Z</time>
      </trkpt>
      <trkpt lat="42.96453" lon="-0.25233">
        <ele>1479</ele>
        <time>2018-01-12T12:09:24Z</time>
      </trkpt>
      <trkpt lat="42.96446" lon="-0.25235">
        <ele>1478.9</ele>
        <time>2018-01-12T12:09:27Z</time>
      </trkpt>
      <trkpt lat="42.96438" lon="-0.25237">
        <ele>1478.8</ele>
        <time>2018-01-12T12:09:30Z</time>
      </trkpt>
      <trkpt lat="42.96429" lon="-0.25239">
        <ele>1478</ele>
        <time>2018-01-12T12:09:33Z</time>
      </trkpt>
      <trkpt lat="42.9642" lon="-0.25243">
        <ele>1477.6</ele>
        <time>2018-01-12T12:09:38Z</time>
      </trkpt>
      <trkpt lat="42.96412" lon="-0.25243">
        <ele>1477.9</ele>
        <time>2018-01-12T12:09:44Z</time>
      </trkpt>
      <trkpt lat="42.96403" lon="-0.25246">
        <ele>1478.7</ele>
        <time>2018-01-12T12:09:51Z</time>
      </trkpt>
      <trkpt lat="42.96396" lon="-0.25252">
        <ele>1479.9</ele>
        <time>2018-01-12T12:09:57Z</time>
      </trkpt>
      <trkpt lat="42.96393" lon="-0.25262">
        <ele>1481.6</ele>
        <time>2018-01-12T12:10:04Z</time>
      </trkpt>
      <trkpt lat="42.96397" lon="-0.25273">
        <ele>1483</ele>
        <time>2018-01-12T12:10:14Z</time>
      </trkpt>
      <trkpt lat="42.96403" lon="-0.2528">
        <ele>1484.3</ele>
        <time>2018-01-12T12:10:21Z</time>
      </trkpt>
      <trkpt lat="42.96404" lon="-0.25281">
        <ele>1484.7</ele>
        <time>2018-01-12T12:10:22Z</time>
      </trkpt>
      <trkpt lat="42.96416" lon="-0.2529">
        <ele>1486.3</ele>
        <time>2018-01-12T12:10:32Z</time>
      </trkpt>
      <trkpt lat="42.96424" lon="-0.25294">
        <ele>1487.1</ele>
        <time>2018-01-12T12:10:38Z</time>
      </trkpt>
      <trkpt lat="42.96431" lon="-0.253">
        <ele>1487.6</ele>
        <time>2018-01-12T12:10:45Z</time>
      </trkpt>
      <trkpt lat="42.96439" lon="-0.25304">
        <ele>1488</ele>
        <time>2018-01-12T12:10:51Z</time>
      </trkpt>
      <trkpt lat="42.96446" lon="-0.25308">
        <ele>1489</ele>
        <time>2018-01-12T12:10:57Z</time>
      </trkpt>
      <trkpt lat="42.96455" lon="-0.25307">
        <ele>1489.6</ele>
        <time>2018-01-12T12:11:03Z</time>
      </trkpt>
      <trkpt lat="42.96462" lon="-0.25307">
        <ele>1489.9</ele>
        <time>2018-01-12T12:11:07Z</time>
      </trkpt>
      <trkpt lat="42.96471" lon="-0.25305">
        <ele>1489.6</ele>
        <time>2018-01-12T12:11:13Z</time>
      </trkpt>
      <trkpt lat="42.96478" lon="-0.25302">
        <ele>1490.3</ele>
        <time>2018-01-12T12:11:18Z</time>
      </trkpt>
      <trkpt lat="42.96485" lon="-0.25299">
        <ele>1489.9</ele>
        <time>2018-01-12T12:11:21Z</time>
      </trkpt>
      <trkpt lat="42.96493" lon="-0.25297">
        <ele>1490.5</ele>
        <time>2018-01-12T12:11:25Z</time>
      </trkpt>
      <trkpt lat="42.96494" lon="-0.25296">
        <ele>1490.8</ele>
        <time>2018-01-12T12:11:26Z</time>
      </trkpt>
      <trkpt lat="42.96509" lon="-0.25291">
        <ele>1491.6</ele>
        <time>2018-01-12T12:11:34Z</time>
      </trkpt>
      <trkpt lat="42.96516" lon="-0.25288">
        <ele>1492.1</ele>
        <time>2018-01-12T12:11:38Z</time>
      </trkpt>
      <trkpt lat="42.96524" lon="-0.25284">
        <ele>1493</ele>
        <time>2018-01-12T12:11:42Z</time>
      </trkpt>
      <trkpt lat="42.96532" lon="-0.25279">
        <ele>1492.8</ele>
        <time>2018-01-12T12:11:46Z</time>
      </trkpt>
      <trkpt lat="42.96537" lon="-0.25274">
        <ele>1493</ele>
        <time>2018-01-12T12:11:48Z</time>
      </trkpt>
      <trkpt lat="42.96544" lon="-0.25269">
        <ele>1492.8</ele>
        <time>2018-01-12T12:11:50Z</time>
      </trkpt>
      <trkpt lat="42.9655" lon="-0.25265">
        <ele>1492.3</ele>
        <time>2018-01-12T12:11:53Z</time>
      </trkpt>
      <trkpt lat="42.96558" lon="-0.25261">
        <ele>1491.4</ele>
        <time>2018-01-12T12:11:56Z</time>
      </trkpt>
      <trkpt lat="42.96565" lon="-0.25257">
        <ele>1491.1</ele>
        <time>2018-01-12T12:12:00Z</time>
      </trkpt>
      <trkpt lat="42.96573" lon="-0.25252">
        <ele>1492.3</ele>
        <time>2018-01-12T12:12:05Z</time>
      </trkpt>
      <trkpt lat="42.9658" lon="-0.25246">
        <ele>1493.2</ele>
        <time>2018-01-12T12:12:10Z</time>
      </trkpt>
      <trkpt lat="42.96585" lon="-0.25235">
        <ele>1493.5</ele>
        <time>2018-01-12T12:12:15Z</time>
      </trkpt>
      <trkpt lat="42.96588" lon="-0.25226">
        <ele>1493.3</ele>
        <time>2018-01-12T12:12:19Z</time>
      </trkpt>
      <trkpt lat="42.96588" lon="-0.25215">
        <ele>1494.2</ele>
        <time>2018-01-12T12:12:23Z</time>
      </trkpt>
      <trkpt lat="42.96587" lon="-0.25203">
        <ele>1494.6</ele>
        <time>2018-01-12T12:12:28Z</time>
      </trkpt>
      <trkpt lat="42.96587" lon="-0.25201">
        <ele>1494.5</ele>
        <time>2018-01-12T12:12:29Z</time>
      </trkpt>
      <trkpt lat="42.96591" lon="-0.25182">
        <ele>1496</ele>
        <time>2018-01-12T12:12:37Z</time>
      </trkpt>
      <trkpt lat="42.96593" lon="-0.25171">
        <ele>1496.2</ele>
        <time>2018-01-12T12:12:41Z</time>
      </trkpt>
      <trkpt lat="42.96594" lon="-0.2516">
        <ele>1496.5</ele>
        <time>2018-01-12T12:12:46Z</time>
      </trkpt>
      <trkpt lat="42.96596" lon="-0.25148">
        <ele>1496.3</ele>
        <time>2018-01-12T12:12:50Z</time>
      </trkpt>
      <trkpt lat="42.96597" lon="-0.25137">
        <ele>1495.9</ele>
        <time>2018-01-12T12:12:54Z</time>
      </trkpt>
      <trkpt lat="42.96598" lon="-0.25127">
        <ele>1495.9</ele>
        <time>2018-01-12T12:12:57Z</time>
      </trkpt>
      <trkpt lat="42.96597" lon="-0.25116">
        <ele>1495.4</ele>
        <time>2018-01-12T12:13:01Z</time>
      </trkpt>
      <trkpt lat="42.96596" lon="-0.25106">
        <ele>1495.5</ele>
        <time>2018-01-12T12:13:05Z</time>
      </trkpt>
      <trkpt lat="42.96595" lon="-0.25098">
        <ele>1495.9</ele>
        <time>2018-01-12T12:13:08Z</time>
      </trkpt>
      <trkpt lat="42.96595" lon="-0.25086">
        <ele>1496.2</ele>
        <time>2018-01-12T12:13:11Z</time>
      </trkpt>
      <trkpt lat="42.96596" lon="-0.25077">
        <ele>1495.7</ele>
        <time>2018-01-12T12:13:13Z</time>
      </trkpt>
      <trkpt lat="42.96599" lon="-0.25067">
        <ele>1495</ele>
        <time>2018-01-12T12:13:15Z</time>
      </trkpt>
      <trkpt lat="42.96601" lon="-0.25056">
        <ele>1494.5</ele>
        <time>2018-01-12T12:13:17Z</time>
      </trkpt>
      <trkpt lat="42.96603" lon="-0.25047">
        <ele>1494</ele>
        <time>2018-01-12T12:13:19Z</time>
      </trkpt>
      <trkpt lat="42.96604" lon="-0.25035">
        <ele>1493.2</ele>
        <time>2018-01-12T12:13:23Z</time>
      </trkpt>
      <trkpt lat="42.96607" lon="-0.25024">
        <ele>1493</ele>
        <time>2018-01-12T12:13:28Z</time>
      </trkpt>
      <trkpt lat="42.96612" lon="-0.25014">
        <ele>1493.4</ele>
        <time>2018-01-12T12:13:33Z</time>
      </trkpt>
      <trkpt lat="42.96613" lon="-0.25012">
        <ele>1493.4</ele>
        <time>2018-01-12T12:13:34Z</time>
      </trkpt>
      <trkpt lat="42.96623" lon="-0.24998">
        <ele>1493.1</ele>
        <time>2018-01-12T12:13:42Z</time>
      </trkpt>
      <trkpt lat="42.96629" lon="-0.24992">
        <ele>1493.9</ele>
        <time>2018-01-12T12:13:46Z</time>
      </trkpt>
      <trkpt lat="42.96636" lon="-0.24986">
        <ele>1494.3</ele>
        <time>2018-01-12T12:13:50Z</time>
      </trkpt>
      <trkpt lat="42.96642" lon="-0.2498">
        <ele>1494.8</ele>
        <time>2018-01-12T12:13:54Z</time>
      </trkpt>
      <trkpt lat="42.96649" lon="-0.24974">
        <ele>1494.7</ele>
        <time>2018-01-12T12:13:59Z</time>
      </trkpt>
      <trkpt lat="42.96656" lon="-0.2497">
        <ele>1495.2</ele>
        <time>2018-01-12T12:14:03Z</time>
      </trkpt>
      <trkpt lat="42.96662" lon="-0.24965">
        <ele>1495.2</ele>
        <time>2018-01-12T12:14:07Z</time>
      </trkpt>
      <trkpt lat="42.9667" lon="-0.2496">
        <ele>1495.2</ele>
        <time>2018-01-12T12:14:11Z</time>
      </trkpt>
      <trkpt lat="42.96677" lon="-0.24956">
        <ele>1495.3</ele>
        <time>2018-01-12T12:14:15Z</time>
      </trkpt>
      <trkpt lat="42.96685" lon="-0.24953">
        <ele>1495.2</ele>
        <time>2018-01-12T12:14:19Z</time>
      </trkpt>
      <trkpt lat="42.96693" lon="-0.2495">
        <ele>1495.6</ele>
        <time>2018-01-12T12:14:22Z</time>
      </trkpt>
      <trkpt lat="42.967" lon="-0.24946">
        <ele>1495.9</ele>
        <time>2018-01-12T12:14:26Z</time>
      </trkpt>
      <trkpt lat="42.96707" lon="-0.24942">
        <ele>1496.1</ele>
        <time>2018-01-12T12:14:30Z</time>
      </trkpt>
      <trkpt lat="42.96714" lon="-0.24938">
        <ele>1495.8</ele>
        <time>2018-01-12T12:14:34Z</time>
      </trkpt>
      <trkpt lat="42.96716" lon="-0.24937">
        <ele>1495.6</ele>
        <time>2018-01-12T12:14:35Z</time>
      </trkpt>
      <trkpt lat="42.96727" lon="-0.24927">
        <ele>1495.8</ele>
        <time>2018-01-12T12:14:42Z</time>
      </trkpt>
      <trkpt lat="42.9673" lon="-0.24918">
        <ele>1496</ele>
        <time>2018-01-12T12:14:46Z</time>
      </trkpt>
      <trkpt lat="42.96732" lon="-0.24908">
        <ele>1496.1</ele>
        <time>2018-01-12T12:14:50Z</time>
      </trkpt>
      <trkpt lat="42.96736" lon="-0.24898">
        <ele>1496.2</ele>
        <time>2018-01-12T12:14:54Z</time>
      </trkpt>
      <trkpt lat="42.96739" lon="-0.24889">
        <ele>1497</ele>
        <time>2018-01-12T12:14:57Z</time>
      </trkpt>
      <trkpt lat="42.9674" lon="-0.24879">
        <ele>1497.1</ele>
        <time>2018-01-12T12:15:01Z</time>
      </trkpt>
      <trkpt lat="42.96742" lon="-0.24869">
        <ele>1496.5</ele>
        <time>2018-01-12T12:15:05Z</time>
      </trkpt>
      <trkpt lat="42.96744" lon="-0.24859">
        <ele>1495.8</ele>
        <time>2018-01-12T12:15:09Z</time>
      </trkpt>
      <trkpt lat="42.96746" lon="-0.24848">
        <ele>1495.8</ele>
        <time>2018-01-12T12:15:13Z</time>
      </trkpt>
      <trkpt lat="42.96749" lon="-0.24839">
        <ele>1495.3</ele>
        <time>2018-01-12T12:15:17Z</time>
      </trkpt>
      <trkpt lat="42.96753" lon="-0.2483">
        <ele>1495.2</ele>
        <time>2018-01-12T12:15:21Z</time>
      </trkpt>
      <trkpt lat="42.96758" lon="-0.24822">
        <ele>1495.2</ele>
        <time>2018-01-12T12:15:25Z</time>
      </trkpt>
      <trkpt lat="42.96764" lon="-0.24814">
        <ele>1495.9</ele>
        <time>2018-01-12T12:15:29Z</time>
      </trkpt>
      <trkpt lat="42.96771" lon="-0.24807">
        <ele>1496.5</ele>
        <time>2018-01-12T12:15:34Z</time>
      </trkpt>
      <trkpt lat="42.96779" lon="-0.24805">
        <ele>1496</ele>
        <time>2018-01-12T12:15:39Z</time>
      </trkpt>
      <trkpt lat="42.96781" lon="-0.24805">
        <ele>1496.3</ele>
        <time>2018-01-12T12:15:40Z</time>
      </trkpt>
      <trkpt lat="42.96795" lon="-0.24811">
        <ele>1496.8</ele>
        <time>2018-01-12T12:15:50Z</time>
      </trkpt>
      <trkpt lat="42.96801" lon="-0.24816">
        <ele>1496.7</ele>
        <time>2018-01-12T12:15:54Z</time>
      </trkpt>
      <trkpt lat="42.96807" lon="-0.2482">
        <ele>1495.9</ele>
        <time>2018-01-12T12:15:58Z</time>
      </trkpt>
      <trkpt lat="42.96814" lon="-0.24825">
        <ele>1496.9</ele>
        <time>2018-01-12T12:16:02Z</time>
      </trkpt>
      <trkpt lat="42.9682" lon="-0.24831">
        <ele>1497.6</ele>
        <time>2018-01-12T12:16:07Z</time>
      </trkpt>
      <trkpt lat="42.96828" lon="-0.24834">
        <ele>1498.5</ele>
        <time>2018-01-12T12:16:12Z</time>
      </trkpt>
      <trkpt lat="42.96835" lon="-0.24838">
        <ele>1498.2</ele>
        <time>2018-01-12T12:16:17Z</time>
      </trkpt>
      <trkpt lat="42.96844" lon="-0.24841">
        <ele>1499.8</ele>
        <time>2018-01-12T12:16:23Z</time>
      </trkpt>
      <trkpt lat="42.96852" lon="-0.24844">
        <ele>1499.3</ele>
        <time>2018-01-12T12:16:29Z</time>
      </trkpt>
      <trkpt lat="42.96859" lon="-0.24848">
        <ele>1499.5</ele>
        <time>2018-01-12T12:16:34Z</time>
      </trkpt>
      <trkpt lat="42.96867" lon="-0.24854">
        <ele>1500.5</ele>
        <time>2018-01-12T12:16:39Z</time>
      </trkpt>
      <trkpt lat="42.96873" lon="-0.24859">
        <ele>1501.2</ele>
        <time>2018-01-12T12:16:43Z</time>
      </trkpt>
      <trkpt lat="42.96875" lon="-0.2486">
        <ele>1501.5</ele>
        <time>2018-01-12T12:16:44Z</time>
      </trkpt>
      <trkpt lat="42.96889" lon="-0.24868">
        <ele>1502.2</ele>
        <time>2018-01-12T12:16:54Z</time>
      </trkpt>
      <trkpt lat="42.96896" lon="-0.24874">
        <ele>1501.8</ele>
        <time>2018-01-12T12:16:59Z</time>
      </trkpt>
      <trkpt lat="42.96904" lon="-0.24878">
        <ele>1502.2</ele>
        <time>2018-01-12T12:17:03Z</time>
      </trkpt>
      <trkpt lat="42.96913" lon="-0.24877">
        <ele>1504.1</ele>
        <time>2018-01-12T12:17:10Z</time>
      </trkpt>
      <trkpt lat="42.9692" lon="-0.24872">
        <ele>1504.6</ele>
        <time>2018-01-12T12:17:16Z</time>
      </trkpt>
      <trkpt lat="42.96928" lon="-0.24865">
        <ele>1505.4</ele>
        <time>2018-01-12T12:17:23Z</time>
      </trkpt>
      <trkpt lat="42.96935" lon="-0.24861">
        <ele>1505.3</ele>
        <time>2018-01-12T12:17:28Z</time>
      </trkpt>
      <trkpt lat="42.96941" lon="-0.24856">
        <ele>1506.1</ele>
        <time>2018-01-12T12:17:32Z</time>
      </trkpt>
      <trkpt lat="42.96949" lon="-0.24851">
        <ele>1506.8</ele>
        <time>2018-01-12T12:17:36Z</time>
      </trkpt>
      <trkpt lat="42.96957" lon="-0.24846">
        <ele>1506.3</ele>
        <time>2018-01-12T12:17:40Z</time>
      </trkpt>
      <trkpt lat="42.96963" lon="-0.2484">
        <ele>1506</ele>
        <time>2018-01-12T12:17:44Z</time>
      </trkpt>
      <trkpt lat="42.96964" lon="-0.24838">
        <ele>1506.3</ele>
        <time>2018-01-12T12:17:45Z</time>
      </trkpt>
      <trkpt lat="42.96973" lon="-0.24822">
        <ele>1506.6</ele>
        <time>2018-01-12T12:17:53Z</time>
      </trkpt>
      <trkpt lat="42.96977" lon="-0.24813">
        <ele>1506.4</ele>
        <time>2018-01-12T12:17:57Z</time>
      </trkpt>
      <trkpt lat="42.9698" lon="-0.24804">
        <ele>1507</ele>
        <time>2018-01-12T12:18:01Z</time>
      </trkpt>
      <trkpt lat="42.96982" lon="-0.24794">
        <ele>1506.4</ele>
        <time>2018-01-12T12:18:05Z</time>
      </trkpt>
      <trkpt lat="42.96985" lon="-0.24783">
        <ele>1505.9</ele>
        <time>2018-01-12T12:18:09Z</time>
      </trkpt>
      <trkpt lat="42.96987" lon="-0.24772">
        <ele>1507.3</ele>
        <time>2018-01-12T12:18:14Z</time>
      </trkpt>
      <trkpt lat="42.9699" lon="-0.24761">
        <ele>1508.5</ele>
        <time>2018-01-12T12:18:19Z</time>
      </trkpt>
      <trkpt lat="42.96995" lon="-0.24753">
        <ele>1508.8</ele>
        <time>2018-01-12T12:18:24Z</time>
      </trkpt>
      <trkpt lat="42.97001" lon="-0.24745">
        <ele>1510</ele>
        <time>2018-01-12T12:18:30Z</time>
      </trkpt>
      <trkpt lat="42.97008" lon="-0.2474">
        <ele>1510.5</ele>
        <time>2018-01-12T12:18:35Z</time>
      </trkpt>
      <trkpt lat="42.97015" lon="-0.24735">
        <ele>1511.4</ele>
        <time>2018-01-12T12:18:40Z</time>
      </trkpt>
      <trkpt lat="42.97023" lon="-0.24731">
        <ele>1512.6</ele>
        <time>2018-01-12T12:18:45Z</time>
      </trkpt>
      <trkpt lat="42.9703" lon="-0.24726">
        <ele>1512.6</ele>
        <time>2018-01-12T12:18:51Z</time>
      </trkpt>
      <trkpt lat="42.97032" lon="-0.24725">
        <ele>1512.6</ele>
        <time>2018-01-12T12:18:52Z</time>
      </trkpt>
      <trkpt lat="42.97044" lon="-0.24717">
        <ele>1513.7</ele>
        <time>2018-01-12T12:19:00Z</time>
      </trkpt>
      <trkpt lat="42.97051" lon="-0.24713">
        <ele>1513.2</ele>
        <time>2018-01-12T12:19:04Z</time>
      </trkpt>
      <trkpt lat="42.97057" lon="-0.24707">
        <ele>1513.3</ele>
        <time>2018-01-12T12:19:08Z</time>
      </trkpt>
      <trkpt lat="42.97064" lon="-0.24701">
        <ele>1514.1</ele>
        <time>2018-01-12T12:19:12Z</time>
      </trkpt>
      <trkpt lat="42.97068" lon="-0.24691">
        <ele>1513.9</ele>
        <time>2018-01-12T12:19:16Z</time>
      </trkpt>
      <trkpt lat="42.97068" lon="-0.2468">
        <ele>1514.2</ele>
        <time>2018-01-12T12:19:20Z</time>
      </trkpt>
      <trkpt lat="42.97067" lon="-0.24668">
        <ele>1514.5</ele>
        <time>2018-01-12T12:19:24Z</time>
      </trkpt>
      <trkpt lat="42.97066" lon="-0.24656">
        <ele>1514.6</ele>
        <time>2018-01-12T12:19:28Z</time>
      </trkpt>
      <trkpt lat="42.97064" lon="-0.24644">
        <ele>1513.6</ele>
        <time>2018-01-12T12:19:32Z</time>
      </trkpt>
      <trkpt lat="42.97062" lon="-0.24635">
        <ele>1513.9</ele>
        <time>2018-01-12T12:19:35Z</time>
      </trkpt>
      <trkpt lat="42.97059" lon="-0.24624">
        <ele>1514.3</ele>
        <time>2018-01-12T12:19:39Z</time>
      </trkpt>
      <trkpt lat="42.97056" lon="-0.24614">
        <ele>1513.7</ele>
        <time>2018-01-12T12:19:43Z</time>
      </trkpt>
      <trkpt lat="42.97054" lon="-0.24603">
        <ele>1513.4</ele>
        <time>2018-01-12T12:19:47Z</time>
      </trkpt>
      <trkpt lat="42.97052" lon="-0.24592">
        <ele>1513.4</ele>
        <time>2018-01-12T12:19:51Z</time>
      </trkpt>
      <trkpt lat="42.97052" lon="-0.24581">
        <ele>1513.9</ele>
        <time>2018-01-12T12:19:55Z</time>
      </trkpt>
      <trkpt lat="42.97052" lon="-0.24578">
        <ele>1514.3</ele>
        <time>2018-01-12T12:19:56Z</time>
      </trkpt>
      <trkpt lat="42.97055" lon="-0.24559">
        <ele>1513.4</ele>
        <time>2018-01-12T12:20:02Z</time>
      </trkpt>
      <trkpt lat="42.97058" lon="-0.24551">
        <ele>1513.2</ele>
        <time>2018-01-12T12:20:04Z</time>
      </trkpt>
      <trkpt lat="42.97063" lon="-0.24542">
        <ele>1513.2</ele>
        <time>2018-01-12T12:20:06Z</time>
      </trkpt>
      <trkpt lat="42.97068" lon="-0.24535">
        <ele>1512.7</ele>
        <time>2018-01-12T12:20:08Z</time>
      </trkpt>
      <trkpt lat="42.97072" lon="-0.24528">
        <ele>1512.1</ele>
        <time>2018-01-12T12:20:10Z</time>
      </trkpt>
      <trkpt lat="42.97077" lon="-0.24518">
        <ele>1511.2</ele>
        <time>2018-01-12T12:20:13Z</time>
      </trkpt>
      <trkpt lat="42.97079" lon="-0.24509">
        <ele>1511.3</ele>
        <time>2018-01-12T12:20:16Z</time>
      </trkpt>
      <trkpt lat="42.97081" lon="-0.24499">
        <ele>1512.2</ele>
        <time>2018-01-12T12:20:20Z</time>
      </trkpt>
      <trkpt lat="42.97083" lon="-0.24487">
        <ele>1512.4</ele>
        <time>2018-01-12T12:20:25Z</time>
      </trkpt>
      <trkpt lat="42.97085" lon="-0.24475">
        <ele>1513.5</ele>
        <time>2018-01-12T12:20:31Z</time>
      </trkpt>
      <trkpt lat="42.97087" lon="-0.24465">
        <ele>1513.9</ele>
        <time>2018-01-12T12:20:36Z</time>
      </trkpt>
      <trkpt lat="42.97089" lon="-0.24454">
        <ele>1513.8</ele>
        <time>2018-01-12T12:20:42Z</time>
      </trkpt>
      <trkpt lat="42.97091" lon="-0.24442">
        <ele>1514.9</ele>
        <time>2018-01-12T12:20:48Z</time>
      </trkpt>
      <trkpt lat="42.97092" lon="-0.24431">
        <ele>1515.1</ele>
        <time>2018-01-12T12:20:53Z</time>
      </trkpt>
      <trkpt lat="42.97093" lon="-0.2442">
        <ele>1516.8</ele>
        <time>2018-01-12T12:20:58Z</time>
      </trkpt>
      <trkpt lat="42.97094" lon="-0.24418">
        <ele>1517.2</ele>
        <time>2018-01-12T12:20:59Z</time>
      </trkpt>
      <trkpt lat="42.97097" lon="-0.24399">
        <ele>1518.1</ele>
        <time>2018-01-12T12:21:07Z</time>
      </trkpt>
      <trkpt lat="42.971" lon="-0.2439">
        <ele>1517.5</ele>
        <time>2018-01-12T12:21:11Z</time>
      </trkpt>
      <trkpt lat="42.97103" lon="-0.2438">
        <ele>1518.6</ele>
        <time>2018-01-12T12:21:15Z</time>
      </trkpt>
      <trkpt lat="42.97106" lon="-0.24371">
        <ele>1518</ele>
        <time>2018-01-12T12:21:19Z</time>
      </trkpt>
      <trkpt lat="42.97108" lon="-0.24361">
        <ele>1517.8</ele>
        <time>2018-01-12T12:21:23Z</time>
      </trkpt>
      <trkpt lat="42.97111" lon="-0.24351">
        <ele>1517.8</ele>
        <time>2018-01-12T12:21:27Z</time>
      </trkpt>
      <trkpt lat="42.97116" lon="-0.24343">
        <ele>1518.5</ele>
        <time>2018-01-12T12:21:31Z</time>
      </trkpt>
      <trkpt lat="42.97121" lon="-0.24334">
        <ele>1519</ele>
        <time>2018-01-12T12:21:36Z</time>
      </trkpt>
      <trkpt lat="42.97128" lon="-0.24327">
        <ele>1519.5</ele>
        <time>2018-01-12T12:21:41Z</time>
      </trkpt>
      <trkpt lat="42.97136" lon="-0.24327">
        <ele>1519.8</ele>
        <time>2018-01-12T12:21:46Z</time>
      </trkpt>
      <trkpt lat="42.97143" lon="-0.24332">
        <ele>1520.4</ele>
        <time>2018-01-12T12:21:51Z</time>
      </trkpt>
      <trkpt lat="42.97149" lon="-0.24339">
        <ele>1519.9</ele>
        <time>2018-01-12T12:21:56Z</time>
      </trkpt>
      <trkpt lat="42.97154" lon="-0.24348">
        <ele>1519.5</ele>
        <time>2018-01-12T12:22:01Z</time>
      </trkpt>
      <trkpt lat="42.97155" lon="-0.2435">
        <ele>1519.4</ele>
        <time>2018-01-12T12:22:02Z</time>
      </trkpt>
      <trkpt lat="42.97163" lon="-0.24365">
        <ele>1521.2</ele>
        <time>2018-01-12T12:22:10Z</time>
      </trkpt>
      <trkpt lat="42.97167" lon="-0.24375">
        <ele>1522.1</ele>
        <time>2018-01-12T12:22:15Z</time>
      </trkpt>
      <trkpt lat="42.97173" lon="-0.24383">
        <ele>1523</ele>
        <time>2018-01-12T12:22:21Z</time>
      </trkpt>
      <trkpt lat="42.97181" lon="-0.24382">
        <ele>1524.3</ele>
        <time>2018-01-12T12:22:29Z</time>
      </trkpt>
      <trkpt lat="42.97188" lon="-0.24375">
        <ele>1524.9</ele>
        <time>2018-01-12T12:22:35Z</time>
      </trkpt>
      <trkpt lat="42.97192" lon="-0.24365">
        <ele>1526.6</ele>
        <time>2018-01-12T12:22:41Z</time>
      </trkpt>
      <trkpt lat="42.97196" lon="-0.24354">
        <ele>1526.5</ele>
        <time>2018-01-12T12:22:46Z</time>
      </trkpt>
      <trkpt lat="42.97198" lon="-0.24344">
        <ele>1527.7</ele>
        <time>2018-01-12T12:22:51Z</time>
      </trkpt>
      <trkpt lat="42.97202" lon="-0.24335">
        <ele>1528.5</ele>
        <time>2018-01-12T12:22:56Z</time>
      </trkpt>
      <trkpt lat="42.97207" lon="-0.24327">
        <ele>1528.4</ele>
        <time>2018-01-12T12:23:01Z</time>
      </trkpt>
      <trkpt lat="42.97214" lon="-0.24322">
        <ele>1529.6</ele>
        <time>2018-01-12T12:23:06Z</time>
      </trkpt>
      <trkpt lat="42.97215" lon="-0.24322">
        <ele>1529.8</ele>
        <time>2018-01-12T12:23:07Z</time>
      </trkpt>
      <trkpt lat="42.9723" lon="-0.24321">
        <ele>1530.1</ele>
        <time>2018-01-12T12:23:16Z</time>
      </trkpt>
      <trkpt lat="42.97238" lon="-0.2432">
        <ele>1530.1</ele>
        <time>2018-01-12T12:23:21Z</time>
      </trkpt>
      <trkpt lat="42.97246" lon="-0.2432">
        <ele>1531</ele>
        <time>2018-01-12T12:23:26Z</time>
      </trkpt>
      <trkpt lat="42.97254" lon="-0.2432">
        <ele>1531.7</ele>
        <time>2018-01-12T12:23:30Z</time>
      </trkpt>
      <trkpt lat="42.97261" lon="-0.24322">
        <ele>1531.5</ele>
        <time>2018-01-12T12:23:33Z</time>
      </trkpt>
      <trkpt lat="42.97267" lon="-0.24329">
        <ele>1530.7</ele>
        <time>2018-01-12T12:23:36Z</time>
      </trkpt>
      <trkpt lat="42.97273" lon="-0.24335">
        <ele>1530</ele>
        <time>2018-01-12T12:23:38Z</time>
      </trkpt>
      <trkpt lat="42.97279" lon="-0.24343">
        <ele>1529.4</ele>
        <time>2018-01-12T12:23:40Z</time>
      </trkpt>
      <trkpt lat="42.97285" lon="-0.24351">
        <ele>1528.8</ele>
        <time>2018-01-12T12:23:42Z</time>
      </trkpt>
      <trkpt lat="42.97291" lon="-0.24359">
        <ele>1528.3</ele>
        <time>2018-01-12T12:23:44Z</time>
      </trkpt>
      <trkpt lat="42.97298" lon="-0.24367">
        <ele>1527.6</ele>
        <time>2018-01-12T12:23:46Z</time>
      </trkpt>
      <trkpt lat="42.97302" lon="-0.2437">
        <ele>1527.4</ele>
        <time>2018-01-12T12:23:47Z</time>
      </trkpt>
      <trkpt lat="42.9731" lon="-0.24376">
        <ele>1526.3</ele>
        <time>2018-01-12T12:23:49Z</time>
      </trkpt>
      <trkpt lat="42.97316" lon="-0.24379">
        <ele>1525.2</ele>
        <time>2018-01-12T12:23:51Z</time>
      </trkpt>
      <trkpt lat="42.97322" lon="-0.24384">
        <ele>1523.8</ele>
        <time>2018-01-12T12:23:54Z</time>
      </trkpt>
      <trkpt lat="42.9733" lon="-0.24387">
        <ele>1523.2</ele>
        <time>2018-01-12T12:23:57Z</time>
      </trkpt>
      <trkpt lat="42.97337" lon="-0.2439">
        <ele>1522.9</ele>
        <time>2018-01-12T12:24:00Z</time>
      </trkpt>
      <trkpt lat="42.97345" lon="-0.24394">
        <ele>1522.3</ele>
        <time>2018-01-12T12:24:04Z</time>
      </trkpt>
      <trkpt lat="42.97353" lon="-0.24399">
        <ele>1522.6</ele>
        <time>2018-01-12T12:24:08Z</time>
      </trkpt>
      <trkpt lat="42.97355" lon="-0.244">
        <ele>1522.5</ele>
        <time>2018-01-12T12:24:09Z</time>
      </trkpt>
      <trkpt lat="42.97368" lon="-0.24406">
        <ele>1522.3</ele>
        <time>2018-01-12T12:24:15Z</time>
      </trkpt>
      <trkpt lat="42.97374" lon="-0.24412">
        <ele>1522.2</ele>
        <time>2018-01-12T12:24:18Z</time>
      </trkpt>
      <trkpt lat="42.97379" lon="-0.24418">
        <ele>1522.7</ele>
        <time>2018-01-12T12:24:21Z</time>
      </trkpt>
      <trkpt lat="42.97382" lon="-0.2443">
        <ele>1523.2</ele>
        <time>2018-01-12T12:24:25Z</time>
      </trkpt>
      <trkpt lat="42.97385" lon="-0.24439">
        <ele>1522.5</ele>
        <time>2018-01-12T12:24:28Z</time>
      </trkpt>
      <trkpt lat="42.97388" lon="-0.2445">
        <ele>1522.3</ele>
        <time>2018-01-12T12:24:31Z</time>
      </trkpt>
      <trkpt lat="42.97394" lon="-0.24458">
        <ele>1521.3</ele>
        <time>2018-01-12T12:24:35Z</time>
      </trkpt>
      <trkpt lat="42.97402" lon="-0.24459">
        <ele>1522.2</ele>
        <time>2018-01-12T12:24:39Z</time>
      </trkpt>
      <trkpt lat="42.97408" lon="-0.24457">
        <ele>1522.6</ele>
        <time>2018-01-12T12:24:42Z</time>
      </trkpt>
      <trkpt lat="42.97416" lon="-0.24453">
        <ele>1522.6</ele>
        <time>2018-01-12T12:24:46Z</time>
      </trkpt>
      <trkpt lat="42.97423" lon="-0.24447">
        <ele>1522.5</ele>
        <time>2018-01-12T12:24:50Z</time>
      </trkpt>
      <trkpt lat="42.97431" lon="-0.24441">
        <ele>1521.8</ele>
        <time>2018-01-12T12:24:54Z</time>
      </trkpt>
      <trkpt lat="42.97439" lon="-0.24437">
        <ele>1523</ele>
        <time>2018-01-12T12:24:58Z</time>
      </trkpt>
      <trkpt lat="42.97447" lon="-0.24434">
        <ele>1523.3</ele>
        <time>2018-01-12T12:25:02Z</time>
      </trkpt>
      <trkpt lat="42.97455" lon="-0.24433">
        <ele>1523.1</ele>
        <time>2018-01-12T12:25:06Z</time>
      </trkpt>
      <trkpt lat="42.97463" lon="-0.24432">
        <ele>1522.6</ele>
        <time>2018-01-12T12:25:09Z</time>
      </trkpt>
      <trkpt lat="42.97465" lon="-0.24431">
        <ele>1522.5</ele>
        <time>2018-01-12T12:25:10Z</time>
      </trkpt>
      <trkpt lat="42.9748" lon="-0.24428">
        <ele>1521.8</ele>
        <time>2018-01-12T12:25:18Z</time>
      </trkpt>
      <trkpt lat="42.97487" lon="-0.24425">
        <ele>1521.9</ele>
        <time>2018-01-12T12:25:22Z</time>
      </trkpt>
      <trkpt lat="42.97494" lon="-0.24419">
        <ele>1522.2</ele>
        <time>2018-01-12T12:25:27Z</time>
      </trkpt>
      <trkpt lat="42.975" lon="-0.24413">
        <ele>1522.1</ele>
        <time>2018-01-12T12:25:31Z</time>
      </trkpt>
      <trkpt lat="42.97507" lon="-0.24405">
        <ele>1522.4</ele>
        <time>2018-01-12T12:25:36Z</time>
      </trkpt>
      <trkpt lat="42.97512" lon="-0.24397">
        <ele>1523</ele>
        <time>2018-01-12T12:25:40Z</time>
      </trkpt>
      <trkpt lat="42.97518" lon="-0.2439">
        <ele>1522.9</ele>
        <time>2018-01-12T12:25:44Z</time>
      </trkpt>
      <trkpt lat="42.97524" lon="-0.24385">
        <ele>1521.9</ele>
        <time>2018-01-12T12:25:48Z</time>
      </trkpt>
      <trkpt lat="42.97532" lon="-0.24382">
        <ele>1521.9</ele>
        <time>2018-01-12T12:25:51Z</time>
      </trkpt>
      <trkpt lat="42.97538" lon="-0.2438">
        <ele>1520.7</ele>
        <time>2018-01-12T12:25:54Z</time>
      </trkpt>
      <trkpt lat="42.97545" lon="-0.24377">
        <ele>1520.7</ele>
        <time>2018-01-12T12:25:57Z</time>
      </trkpt>
      <trkpt lat="42.97552" lon="-0.24372">
        <ele>1521.1</ele>
        <time>2018-01-12T12:26:01Z</time>
      </trkpt>
      <trkpt lat="42.97559" lon="-0.24368">
        <ele>1520.6</ele>
        <time>2018-01-12T12:26:05Z</time>
      </trkpt>
      <trkpt lat="42.97566" lon="-0.24361">
        <ele>1521</ele>
        <time>2018-01-12T12:26:09Z</time>
      </trkpt>
      <trkpt lat="42.97572" lon="-0.24355">
        <ele>1521.6</ele>
        <time>2018-01-12T12:26:13Z</time>
      </trkpt>
      <trkpt lat="42.97574" lon="-0.24353">
        <ele>1521.7</ele>
        <time>2018-01-12T12:26:14Z</time>
      </trkpt>
      <trkpt lat="42.97587" lon="-0.24343">
        <ele>1521</ele>
        <time>2018-01-12T12:26:22Z</time>
      </trkpt>
      <trkpt lat="42.97595" lon="-0.24339">
        <ele>1520.9</ele>
        <time>2018-01-12T12:26:26Z</time>
      </trkpt>
      <trkpt lat="42.97601" lon="-0.24335">
        <ele>1521.3</ele>
        <time>2018-01-12T12:26:29Z</time>
      </trkpt>
      <trkpt lat="42.97609" lon="-0.2433">
        <ele>1520.8</ele>
        <time>2018-01-12T12:26:32Z</time>
      </trkpt>
      <trkpt lat="42.97615" lon="-0.24326">
        <ele>1520.7</ele>
        <time>2018-01-12T12:26:34Z</time>
      </trkpt>
      <trkpt lat="42.97622" lon="-0.2432">
        <ele>1520.8</ele>
        <time>2018-01-12T12:26:37Z</time>
      </trkpt>
      <trkpt lat="42.97629" lon="-0.24314">
        <ele>1520.8</ele>
        <time>2018-01-12T12:26:42Z</time>
      </trkpt>
      <trkpt lat="42.97636" lon="-0.2431">
        <ele>1521.3</ele>
        <time>2018-01-12T12:26:46Z</time>
      </trkpt>
      <trkpt lat="42.97643" lon="-0.24304">
        <ele>1521.6</ele>
        <time>2018-01-12T12:26:50Z</time>
      </trkpt>
      <trkpt lat="42.97651" lon="-0.24298">
        <ele>1521.3</ele>
        <time>2018-01-12T12:26:54Z</time>
      </trkpt>
      <trkpt lat="42.97658" lon="-0.24294">
        <ele>1521.4</ele>
        <time>2018-01-12T12:26:58Z</time>
      </trkpt>
      <trkpt lat="42.97666" lon="-0.2429">
        <ele>1521.5</ele>
        <time>2018-01-12T12:27:02Z</time>
      </trkpt>
      <trkpt lat="42.97672" lon="-0.24284">
        <ele>1522</ele>
        <time>2018-01-12T12:27:06Z</time>
      </trkpt>
      <trkpt lat="42.97678" lon="-0.24275">
        <ele>1523</ele>
        <time>2018-01-12T12:27:11Z</time>
      </trkpt>
      <trkpt lat="42.97683" lon="-0.24268">
        <ele>1523.3</ele>
        <time>2018-01-12T12:27:15Z</time>
      </trkpt>
      <trkpt lat="42.97684" lon="-0.24266">
        <ele>1523.2</ele>
        <time>2018-01-12T12:27:16Z</time>
      </trkpt>
      <trkpt lat="42.97696" lon="-0.24262">
        <ele>1523</ele>
        <time>2018-01-12T12:27:22Z</time>
      </trkpt>
      <trkpt lat="42.97705" lon="-0.24262">
        <ele>1522.7</ele>
        <time>2018-01-12T12:27:25Z</time>
      </trkpt>
      <trkpt lat="42.97713" lon="-0.24261">
        <ele>1522</ele>
        <time>2018-01-12T12:27:28Z</time>
      </trkpt>
      <trkpt lat="42.97721" lon="-0.24258">
        <ele>1521.9</ele>
        <time>2018-01-12T12:27:32Z</time>
      </trkpt>
      <trkpt lat="42.97729" lon="-0.24255">
        <ele>1521.9</ele>
        <time>2018-01-12T12:27:36Z</time>
      </trkpt>
      <trkpt lat="42.97736" lon="-0.24254">
        <ele>1522.1</ele>
        <time>2018-01-12T12:27:40Z</time>
      </trkpt>
      <trkpt lat="42.97745" lon="-0.24251">
        <ele>1522.5</ele>
        <time>2018-01-12T12:27:45Z</time>
      </trkpt>
      <trkpt lat="42.97753" lon="-0.24251">
        <ele>1522.6</ele>
        <time>2018-01-12T12:27:49Z</time>
      </trkpt>
      <trkpt lat="42.97761" lon="-0.24253">
        <ele>1522.2</ele>
        <time>2018-01-12T12:27:53Z</time>
      </trkpt>
      <trkpt lat="42.97768" lon="-0.24258">
        <ele>1522</ele>
        <time>2018-01-12T12:27:57Z</time>
      </trkpt>
      <trkpt lat="42.97776" lon="-0.24261">
        <ele>1522.9</ele>
        <time>2018-01-12T12:28:03Z</time>
      </trkpt>
      <trkpt lat="42.97784" lon="-0.24259">
        <ele>1523.3</ele>
        <time>2018-01-12T12:28:08Z</time>
      </trkpt>
      <trkpt lat="42.9779" lon="-0.24253">
        <ele>1523.7</ele>
        <time>2018-01-12T12:28:13Z</time>
      </trkpt>
      <trkpt lat="42.97797" lon="-0.24246">
        <ele>1523.2</ele>
        <time>2018-01-12T12:28:18Z</time>
      </trkpt>
      <trkpt lat="42.97798" lon="-0.24244">
        <ele>1523.6</ele>
        <time>2018-01-12T12:28:19Z</time>
      </trkpt>
      <trkpt lat="42.97807" lon="-0.24228">
        <ele>1524.1</ele>
        <time>2018-01-12T12:28:26Z</time>
      </trkpt>
      <trkpt lat="42.97811" lon="-0.24219">
        <ele>1524.4</ele>
        <time>2018-01-12T12:28:30Z</time>
      </trkpt>
      <trkpt lat="42.97813" lon="-0.24208">
        <ele>1525</ele>
        <time>2018-01-12T12:28:35Z</time>
      </trkpt>
      <trkpt lat="42.97817" lon="-0.24198">
        <ele>1525.4</ele>
        <time>2018-01-12T12:28:39Z</time>
      </trkpt>
      <trkpt lat="42.9782" lon="-0.24189">
        <ele>1526</ele>
        <time>2018-01-12T12:28:43Z</time>
      </trkpt>
      <trkpt lat="42.97824" lon="-0.24181">
        <ele>1524.5</ele>
        <time>2018-01-12T12:28:47Z</time>
      </trkpt>
      <trkpt lat="42.97832" lon="-0.24174">
        <ele>1525.1</ele>
        <time>2018-01-12T12:28:52Z</time>
      </trkpt>
      <trkpt lat="42.9784" lon="-0.24172">
        <ele>1526.1</ele>
        <time>2018-01-12T12:28:57Z</time>
      </trkpt>
      <trkpt lat="42.97848" lon="-0.24169">
        <ele>1525.8</ele>
        <time>2018-01-12T12:29:02Z</time>
      </trkpt>
      <trkpt lat="42.97857" lon="-0.24165">
        <ele>1527.1</ele>
        <time>2018-01-12T12:29:07Z</time>
      </trkpt>
      <trkpt lat="42.97864" lon="-0.24161">
        <ele>1527.5</ele>
        <time>2018-01-12T12:29:12Z</time>
      </trkpt>
      <trkpt lat="42.97873" lon="-0.2416">
        <ele>1527.9</ele>
        <time>2018-01-12T12:29:17Z</time>
      </trkpt>
      <trkpt lat="42.97881" lon="-0.24159">
        <ele>1528.5</ele>
        <time>2018-01-12T12:29:22Z</time>
      </trkpt>
      <trkpt lat="42.97883" lon="-0.24159">
        <ele>1528.4</ele>
        <time>2018-01-12T12:29:23Z</time>
      </trkpt>
      <trkpt lat="42.97897" lon="-0.2416">
        <ele>1529.1</ele>
        <time>2018-01-12T12:29:31Z</time>
      </trkpt>
      <trkpt lat="42.97904" lon="-0.24161">
        <ele>1528.7</ele>
        <time>2018-01-12T12:29:35Z</time>
      </trkpt>
      <trkpt lat="42.97912" lon="-0.24161">
        <ele>1528.8</ele>
        <time>2018-01-12T12:29:39Z</time>
      </trkpt>
      <trkpt lat="42.97919" lon="-0.24158">
        <ele>1529.4</ele>
        <time>2018-01-12T12:29:43Z</time>
      </trkpt>
      <trkpt lat="42.97926" lon="-0.24154">
        <ele>1529.5</ele>
        <time>2018-01-12T12:29:47Z</time>
      </trkpt>
      <trkpt lat="42.97933" lon="-0.24148">
        <ele>1529.9</ele>
        <time>2018-01-12T12:29:52Z</time>
      </trkpt>
      <trkpt lat="42.97941" lon="-0.24142">
        <ele>1530.5</ele>
        <time>2018-01-12T12:29:57Z</time>
      </trkpt>
      <trkpt lat="42.97949" lon="-0.24139">
        <ele>1529.5</ele>
        <time>2018-01-12T12:30:02Z</time>
      </trkpt>
      <trkpt lat="42.97957" lon="-0.2414">
        <ele>1529.6</ele>
        <time>2018-01-12T12:30:06Z</time>
      </trkpt>
      <trkpt lat="42.97966" lon="-0.24143">
        <ele>1530.5</ele>
        <time>2018-01-12T12:30:10Z</time>
      </trkpt>
      <trkpt lat="42.97975" lon="-0.24143">
        <ele>1530.8</ele>
        <time>2018-01-12T12:30:15Z</time>
      </trkpt>
      <trkpt lat="42.97982" lon="-0.24144">
        <ele>1531</ele>
        <time>2018-01-12T12:30:20Z</time>
      </trkpt>
      <trkpt lat="42.97991" lon="-0.24143">
        <ele>1531.2</ele>
        <time>2018-01-12T12:30:25Z</time>
      </trkpt>
      <trkpt lat="42.97993" lon="-0.24143">
        <ele>1531.1</ele>
        <time>2018-01-12T12:30:26Z</time>
      </trkpt>
      <trkpt lat="42.98007" lon="-0.24141">
        <ele>1532.1</ele>
        <time>2018-01-12T12:30:34Z</time>
      </trkpt>
      <trkpt lat="42.98015" lon="-0.2414">
        <ele>1532.7</ele>
        <time>2018-01-12T12:30:38Z</time>
      </trkpt>
      <trkpt lat="42.98023" lon="-0.24135">
        <ele>1532.2</ele>
        <time>2018-01-12T12:30:42Z</time>
      </trkpt>
      <trkpt lat="42.98029" lon="-0.24128">
        <ele>1532.6</ele>
        <time>2018-01-12T12:30:46Z</time>
      </trkpt>
      <trkpt lat="42.98035" lon="-0.24121">
        <ele>1532.9</ele>
        <time>2018-01-12T12:30:50Z</time>
      </trkpt>
      <trkpt lat="42.98041" lon="-0.24114">
        <ele>1532.9</ele>
        <time>2018-01-12T12:30:54Z</time>
      </trkpt>
      <trkpt lat="42.98047" lon="-0.24107">
        <ele>1534.1</ele>
        <time>2018-01-12T12:30:58Z</time>
      </trkpt>
      <trkpt lat="42.98055" lon="-0.24102">
        <ele>1533.9</ele>
        <time>2018-01-12T12:31:02Z</time>
      </trkpt>
      <trkpt lat="42.98063" lon="-0.241">
        <ele>1533.6</ele>
        <time>2018-01-12T12:31:05Z</time>
      </trkpt>
      <trkpt lat="42.98071" lon="-0.24097">
        <ele>1533.4</ele>
        <time>2018-01-12T12:31:09Z</time>
      </trkpt>
      <trkpt lat="42.98077" lon="-0.24097">
        <ele>1533.1</ele>
        <time>2018-01-12T12:31:12Z</time>
      </trkpt>
      <trkpt lat="42.98086" lon="-0.24096">
        <ele>1532.8</ele>
        <time>2018-01-12T12:31:16Z</time>
      </trkpt>
      <trkpt lat="42.98094" lon="-0.24091">
        <ele>1533.3</ele>
        <time>2018-01-12T12:31:21Z</time>
      </trkpt>
      <trkpt lat="42.98098" lon="-0.24082">
        <ele>1533.3</ele>
        <time>2018-01-12T12:31:26Z</time>
      </trkpt>
      <trkpt lat="42.98099" lon="-0.2408">
        <ele>1533.2</ele>
        <time>2018-01-12T12:31:27Z</time>
      </trkpt>
      <trkpt lat="42.98106" lon="-0.24061">
        <ele>1535.1</ele>
        <time>2018-01-12T12:31:36Z</time>
      </trkpt>
      <trkpt lat="42.9811" lon="-0.24053">
        <ele>1534.5</ele>
        <time>2018-01-12T12:31:40Z</time>
      </trkpt>
      <trkpt lat="42.98115" lon="-0.24045">
        <ele>1535.5</ele>
        <time>2018-01-12T12:31:44Z</time>
      </trkpt>
      <trkpt lat="42.9812" lon="-0.24038">
        <ele>1535.9</ele>
        <time>2018-01-12T12:31:47Z</time>
      </trkpt>
      <trkpt lat="42.98125" lon="-0.2403">
        <ele>1535.5</ele>
        <time>2018-01-12T12:31:50Z</time>
      </trkpt>
      <trkpt lat="42.98129" lon="-0.24021">
        <ele>1534.7</ele>
        <time>2018-01-12T12:31:54Z</time>
      </trkpt>
      <trkpt lat="42.98135" lon="-0.24014">
        <ele>1534.8</ele>
        <time>2018-01-12T12:31:58Z</time>
      </trkpt>
      <trkpt lat="42.98141" lon="-0.24006">
        <ele>1535.5</ele>
        <time>2018-01-12T12:32:03Z</time>
      </trkpt>
      <trkpt lat="42.98147" lon="-0.24">
        <ele>1535.9</ele>
        <time>2018-01-12T12:32:07Z</time>
      </trkpt>
      <trkpt lat="42.98155" lon="-0.23996">
        <ele>1535.9</ele>
        <time>2018-01-12T12:32:11Z</time>
      </trkpt>
      <trkpt lat="42.98163" lon="-0.24">
        <ele>1536.2</ele>
        <time>2018-01-12T12:32:16Z</time>
      </trkpt>
      <trkpt lat="42.98168" lon="-0.24009">
        <ele>1536</ele>
        <time>2018-01-12T12:32:21Z</time>
      </trkpt>
      <trkpt lat="42.98172" lon="-0.24019">
        <ele>1536.6</ele>
        <time>2018-01-12T12:32:25Z</time>
      </trkpt>
      <trkpt lat="42.98177" lon="-0.24027">
        <ele>1536.8</ele>
        <time>2018-01-12T12:32:28Z</time>
      </trkpt>
      <trkpt lat="42.98179" lon="-0.24029">
        <ele>1536.8</ele>
        <time>2018-01-12T12:32:29Z</time>
      </trkpt>
      <trkpt lat="42.98193" lon="-0.2403">
        <ele>1537.5</ele>
        <time>2018-01-12T12:32:37Z</time>
      </trkpt>
      <trkpt lat="42.98201" lon="-0.24024">
        <ele>1537.1</ele>
        <time>2018-01-12T12:32:42Z</time>
      </trkpt>
      <trkpt lat="42.98206" lon="-0.24014">
        <ele>1537.8</ele>
        <time>2018-01-12T12:32:47Z</time>
      </trkpt>
      <trkpt lat="42.98212" lon="-0.24006">
        <ele>1537.8</ele>
        <time>2018-01-12T12:32:51Z</time>
      </trkpt>
      <trkpt lat="42.98219" lon="-0.24">
        <ele>1537.4</ele>
        <time>2018-01-12T12:32:56Z</time>
      </trkpt>
      <trkpt lat="42.98227" lon="-0.23997">
        <ele>1537.3</ele>
        <time>2018-01-12T12:33:01Z</time>
      </trkpt>
      <trkpt lat="42.98235" lon="-0.23997">
        <ele>1537.5</ele>
        <time>2018-01-12T12:33:06Z</time>
      </trkpt>
      <trkpt lat="42.98244" lon="-0.23997">
        <ele>1537.3</ele>
        <time>2018-01-12T12:33:11Z</time>
      </trkpt>
      <trkpt lat="42.98251" lon="-0.23998">
        <ele>1537.8</ele>
        <time>2018-01-12T12:33:15Z</time>
      </trkpt>
      <trkpt lat="42.98259" lon="-0.24003">
        <ele>1538.8</ele>
        <time>2018-01-12T12:33:20Z</time>
      </trkpt>
      <trkpt lat="42.98263" lon="-0.24014">
        <ele>1539.4</ele>
        <time>2018-01-12T12:33:26Z</time>
      </trkpt>
      <trkpt lat="42.98265" lon="-0.24024">
        <ele>1539</ele>
        <time>2018-01-12T12:33:31Z</time>
      </trkpt>
      <trkpt lat="42.98265" lon="-0.24026">
        <ele>1539.4</ele>
        <time>2018-01-12T12:33:32Z</time>
      </trkpt>
      <trkpt lat="42.98268" lon="-0.24046">
        <ele>1539.8</ele>
        <time>2018-01-12T12:33:42Z</time>
      </trkpt>
      <trkpt lat="42.9827" lon="-0.24057">
        <ele>1541.8</ele>
        <time>2018-01-12T12:33:48Z</time>
      </trkpt>
      <trkpt lat="42.98272" lon="-0.24068">
        <ele>1542.1</ele>
        <time>2018-01-12T12:33:54Z</time>
      </trkpt>
      <trkpt lat="42.98273" lon="-0.2408">
        <ele>1543.6</ele>
        <time>2018-01-12T12:34:00Z</time>
      </trkpt>
      <trkpt lat="42.98274" lon="-0.24091">
        <ele>1545</ele>
        <time>2018-01-12T12:34:06Z</time>
      </trkpt>
      <trkpt lat="42.98274" lon="-0.24102">
        <ele>1544.9</ele>
        <time>2018-01-12T12:34:17Z</time>
      </trkpt>
      <trkpt lat="42.9828" lon="-0.24112">
        <ele>1545.1</ele>
        <time>2018-01-12T12:35:04Z</time>
      </trkpt>
      <trkpt lat="42.9828" lon="-0.24112">
        <ele>1545.1</ele>
        <time>2018-01-12T12:35:05Z</time>
      </trkpt>
      <trkpt lat="42.9828" lon="-0.24126">
        <ele>1544.9</ele>
        <time>2018-01-12T12:37:57Z</time>
      </trkpt>
      <trkpt lat="42.98275" lon="-0.24139">
        <ele>1544.8</ele>
        <time>2018-01-12T12:38:00Z</time>
      </trkpt>
      <trkpt lat="42.98271" lon="-0.24148">
        <ele>1544.7</ele>
        <time>2018-01-12T12:38:02Z</time>
      </trkpt>
      <trkpt lat="42.98267" lon="-0.24156">
        <ele>1543.5</ele>
        <time>2018-01-12T12:38:04Z</time>
      </trkpt>
      <trkpt lat="42.98262" lon="-0.24166">
        <ele>1542.8</ele>
        <time>2018-01-12T12:38:06Z</time>
      </trkpt>
      <trkpt lat="42.98258" lon="-0.24176">
        <ele>1541.7</ele>
        <time>2018-01-12T12:38:08Z</time>
      </trkpt>
      <trkpt lat="42.98255" lon="-0.24181">
        <ele>1541.4</ele>
        <time>2018-01-12T12:38:09Z</time>
      </trkpt>
      <trkpt lat="42.98251" lon="-0.24191">
        <ele>1539.5</ele>
        <time>2018-01-12T12:38:11Z</time>
      </trkpt>
      <trkpt lat="42.98247" lon="-0.24201">
        <ele>1538.6</ele>
        <time>2018-01-12T12:38:13Z</time>
      </trkpt>
      <trkpt lat="42.98243" lon="-0.2421">
        <ele>1538.3</ele>
        <time>2018-01-12T12:38:15Z</time>
      </trkpt>
      <trkpt lat="42.9824" lon="-0.24219">
        <ele>1537</ele>
        <time>2018-01-12T12:38:17Z</time>
      </trkpt>
      <trkpt lat="42.98238" lon="-0.24229">
        <ele>1536.4</ele>
        <time>2018-01-12T12:38:19Z</time>
      </trkpt>
      <trkpt lat="42.98236" lon="-0.24238">
        <ele>1536.1</ele>
        <time>2018-01-12T12:38:21Z</time>
      </trkpt>
      <trkpt lat="42.98234" lon="-0.24248">
        <ele>1535.8</ele>
        <time>2018-01-12T12:38:23Z</time>
      </trkpt>
      <trkpt lat="42.98232" lon="-0.24258">
        <ele>1535.5</ele>
        <time>2018-01-12T12:38:25Z</time>
      </trkpt>
      <trkpt lat="42.98229" lon="-0.24268">
        <ele>1534.7</ele>
        <time>2018-01-12T12:38:27Z</time>
      </trkpt>
      <trkpt lat="42.98226" lon="-0.24277">
        <ele>1534.1</ele>
        <time>2018-01-12T12:38:29Z</time>
      </trkpt>
      <trkpt lat="42.98222" lon="-0.24285">
        <ele>1533.7</ele>
        <time>2018-01-12T12:38:31Z</time>
      </trkpt>
      <trkpt lat="42.98217" lon="-0.24292">
        <ele>1533.6</ele>
        <time>2018-01-12T12:38:33Z</time>
      </trkpt>
      <trkpt lat="42.98212" lon="-0.243">
        <ele>1533.2</ele>
        <time>2018-01-12T12:38:35Z</time>
      </trkpt>
      <trkpt lat="42.98207" lon="-0.24307">
        <ele>1532.6</ele>
        <time>2018-01-12T12:38:37Z</time>
      </trkpt>
      <trkpt lat="42.98201" lon="-0.24313">
        <ele>1532.6</ele>
        <time>2018-01-12T12:38:39Z</time>
      </trkpt>
      <trkpt lat="42.98195" lon="-0.24318">
        <ele>1532.9</ele>
        <time>2018-01-12T12:38:41Z</time>
      </trkpt>
      <trkpt lat="42.98189" lon="-0.24325">
        <ele>1532</ele>
        <time>2018-01-12T12:38:43Z</time>
      </trkpt>
      <trkpt lat="42.98183" lon="-0.2433">
        <ele>1531.2</ele>
        <time>2018-01-12T12:38:45Z</time>
      </trkpt>
      <trkpt lat="42.98176" lon="-0.24336">
        <ele>1530.5</ele>
        <time>2018-01-12T12:38:47Z</time>
      </trkpt>
      <trkpt lat="42.98171" lon="-0.24344">
        <ele>1529.6</ele>
        <time>2018-01-12T12:38:49Z</time>
      </trkpt>
      <trkpt lat="42.98165" lon="-0.24352">
        <ele>1529.2</ele>
        <time>2018-01-12T12:38:51Z</time>
      </trkpt>
      <trkpt lat="42.9816" lon="-0.2436">
        <ele>1529.1</ele>
        <time>2018-01-12T12:38:53Z</time>
      </trkpt>
      <trkpt lat="42.98155" lon="-0.24369">
        <ele>1528.7</ele>
        <time>2018-01-12T12:38:55Z</time>
      </trkpt>
      <trkpt lat="42.98152" lon="-0.24379">
        <ele>1528.2</ele>
        <time>2018-01-12T12:38:57Z</time>
      </trkpt>
      <trkpt lat="42.9815" lon="-0.24384">
        <ele>1527.8</ele>
        <time>2018-01-12T12:38:58Z</time>
      </trkpt>
      <trkpt lat="42.98148" lon="-0.24397">
        <ele>1526.7</ele>
        <time>2018-01-12T12:39:01Z</time>
      </trkpt>
      <trkpt lat="42.98147" lon="-0.24405">
        <ele>1525.9</ele>
        <time>2018-01-12T12:39:03Z</time>
      </trkpt>
      <trkpt lat="42.98145" lon="-0.24414">
        <ele>1525.1</ele>
        <time>2018-01-12T12:39:05Z</time>
      </trkpt>
      <trkpt lat="42.9814" lon="-0.24422">
        <ele>1524.5</ele>
        <time>2018-01-12T12:39:07Z</time>
      </trkpt>
      <trkpt lat="42.98134" lon="-0.24429">
        <ele>1524</ele>
        <time>2018-01-12T12:39:09Z</time>
      </trkpt>
      <trkpt lat="42.98127" lon="-0.24435">
        <ele>1523.2</ele>
        <time>2018-01-12T12:39:11Z</time>
      </trkpt>
      <trkpt lat="42.98119" lon="-0.2444">
        <ele>1522.3</ele>
        <time>2018-01-12T12:39:13Z</time>
      </trkpt>
      <trkpt lat="42.98111" lon="-0.24445">
        <ele>1522.4</ele>
        <time>2018-01-12T12:39:15Z</time>
      </trkpt>
      <trkpt lat="42.98107" lon="-0.24447">
        <ele>1522.5</ele>
        <time>2018-01-12T12:39:16Z</time>
      </trkpt>
      <trkpt lat="42.98099" lon="-0.24452">
        <ele>1521.4</ele>
        <time>2018-01-12T12:39:18Z</time>
      </trkpt>
      <trkpt lat="42.98091" lon="-0.24458">
        <ele>1520.7</ele>
        <time>2018-01-12T12:39:20Z</time>
      </trkpt>
      <trkpt lat="42.98085" lon="-0.24463">
        <ele>1520.2</ele>
        <time>2018-01-12T12:39:22Z</time>
      </trkpt>
      <trkpt lat="42.98078" lon="-0.24468">
        <ele>1519.4</ele>
        <time>2018-01-12T12:39:24Z</time>
      </trkpt>
      <trkpt lat="42.98072" lon="-0.24473">
        <ele>1518.5</ele>
        <time>2018-01-12T12:39:26Z</time>
      </trkpt>
      <trkpt lat="42.98067" lon="-0.24479">
        <ele>1517.8</ele>
        <time>2018-01-12T12:39:28Z</time>
      </trkpt>
      <trkpt lat="42.98063" lon="-0.24486">
        <ele>1517.1</ele>
        <time>2018-01-12T12:39:30Z</time>
      </trkpt>
      <trkpt lat="42.98062" lon="-0.24497">
        <ele>1516.1</ele>
        <time>2018-01-12T12:39:33Z</time>
      </trkpt>
      <trkpt lat="42.98064" lon="-0.24509">
        <ele>1515.5</ele>
        <time>2018-01-12T12:39:36Z</time>
      </trkpt>
      <trkpt lat="42.98066" lon="-0.24517">
        <ele>1515.3</ele>
        <time>2018-01-12T12:39:38Z</time>
      </trkpt>
      <trkpt lat="42.98068" lon="-0.24526">
        <ele>1514.7</ele>
        <time>2018-01-12T12:39:40Z</time>
      </trkpt>
      <trkpt lat="42.98068" lon="-0.24535">
        <ele>1514.5</ele>
        <time>2018-01-12T12:39:42Z</time>
      </trkpt>
      <trkpt lat="42.98067" lon="-0.24545">
        <ele>1514.3</ele>
        <time>2018-01-12T12:39:44Z</time>
      </trkpt>
      <trkpt lat="42.98063" lon="-0.24555">
        <ele>1514.1</ele>
        <time>2018-01-12T12:39:46Z</time>
      </trkpt>
      <trkpt lat="42.98059" lon="-0.24564">
        <ele>1513.8</ele>
        <time>2018-01-12T12:39:48Z</time>
      </trkpt>
      <trkpt lat="42.98055" lon="-0.24575">
        <ele>1513</ele>
        <time>2018-01-12T12:39:50Z</time>
      </trkpt>
      <trkpt lat="42.98052" lon="-0.24584">
        <ele>1512.3</ele>
        <time>2018-01-12T12:39:52Z</time>
      </trkpt>
      <trkpt lat="42.98049" lon="-0.24592">
        <ele>1511.8</ele>
        <time>2018-01-12T12:39:54Z</time>
      </trkpt>
      <trkpt lat="42.98047" lon="-0.24601">
        <ele>1510.7</ele>
        <time>2018-01-12T12:39:56Z</time>
      </trkpt>
      <trkpt lat="42.98046" lon="-0.2461">
        <ele>1510.2</ele>
        <time>2018-01-12T12:39:58Z</time>
      </trkpt>
      <trkpt lat="42.98047" lon="-0.24614">
        <ele>1510.1</ele>
        <time>2018-01-12T12:39:59Z</time>
      </trkpt>
      <trkpt lat="42.98047" lon="-0.2463">
        <ele>1509.2</ele>
        <time>2018-01-12T12:40:02Z</time>
      </trkpt>
      <trkpt lat="42.98047" lon="-0.24636">
        <ele>1508.6</ele>
        <time>2018-01-12T12:40:03Z</time>
      </trkpt>
      <trkpt lat="42.98048" lon="-0.24643">
        <ele>1508.2</ele>
        <time>2018-01-12T12:40:04Z</time>
      </trkpt>
      <trkpt lat="42.98049" lon="-0.24649">
        <ele>1507.7</ele>
        <time>2018-01-12T12:40:05Z</time>
      </trkpt>
      <trkpt lat="42.9805" lon="-0.24656">
        <ele>1507.2</ele>
        <time>2018-01-12T12:40:06Z</time>
      </trkpt>
      <trkpt lat="42.98051" lon="-0.24662">
        <ele>1506.9</ele>
        <time>2018-01-12T12:40:07Z</time>
      </trkpt>
      <trkpt lat="42.98052" lon="-0.24669">
        <ele>1506.6</ele>
        <time>2018-01-12T12:40:08Z</time>
      </trkpt>
      <trkpt lat="42.98052" lon="-0.24676">
        <ele>1506.3</ele>
        <time>2018-01-12T12:40:09Z</time>
      </trkpt>
      <trkpt lat="42.98052" lon="-0.24688">
        <ele>1505.9</ele>
        <time>2018-01-12T12:40:11Z</time>
      </trkpt>
      <trkpt lat="42.98054" lon="-0.24698">
        <ele>1505.5</ele>
        <time>2018-01-12T12:40:13Z</time>
      </trkpt>
      <trkpt lat="42.98061" lon="-0.24695">
        <ele>1504.2</ele>
        <time>2018-01-12T12:40:17Z</time>
      </trkpt>
      <trkpt lat="42.98063" lon="-0.24687">
        <ele>1503.4</ele>
        <time>2018-01-12T12:40:19Z</time>
      </trkpt>
      <trkpt lat="42.98064" lon="-0.24678">
        <ele>1502.7</ele>
        <time>2018-01-12T12:40:21Z</time>
      </trkpt>
      <trkpt lat="42.98064" lon="-0.24668">
        <ele>1502.2</ele>
        <time>2018-01-12T12:40:23Z</time>
      </trkpt>
      <trkpt lat="42.98065" lon="-0.24656">
        <ele>1501.2</ele>
        <time>2018-01-12T12:40:25Z</time>
      </trkpt>
      <trkpt lat="42.98066" lon="-0.2465">
        <ele>1500.9</ele>
        <time>2018-01-12T12:40:26Z</time>
      </trkpt>
      <trkpt lat="42.98067" lon="-0.24643">
        <ele>1500.2</ele>
        <time>2018-01-12T12:40:27Z</time>
      </trkpt>
      <trkpt lat="42.98069" lon="-0.24636">
        <ele>1499.8</ele>
        <time>2018-01-12T12:40:28Z</time>
      </trkpt>
      <trkpt lat="42.9807" lon="-0.24629">
        <ele>1499.5</ele>
        <time>2018-01-12T12:40:29Z</time>
      </trkpt>
      <trkpt lat="42.98072" lon="-0.24623">
        <ele>1498.7</ele>
        <time>2018-01-12T12:40:30Z</time>
      </trkpt>
      <trkpt lat="42.98074" lon="-0.24617">
        <ele>1498.2</ele>
        <time>2018-01-12T12:40:31Z</time>
      </trkpt>
      <trkpt lat="42.98078" lon="-0.24607">
        <ele>1497.4</ele>
        <time>2018-01-12T12:40:33Z</time>
      </trkpt>
      <trkpt lat="42.98084" lon="-0.24598">
        <ele>1496.3</ele>
        <time>2018-01-12T12:40:35Z</time>
      </trkpt>
      <trkpt lat="42.98089" lon="-0.24591">
        <ele>1495.5</ele>
        <time>2018-01-12T12:40:37Z</time>
      </trkpt>
      <trkpt lat="42.98094" lon="-0.24584">
        <ele>1494.8</ele>
        <time>2018-01-12T12:40:39Z</time>
      </trkpt>
      <trkpt lat="42.98099" lon="-0.24577">
        <ele>1493.9</ele>
        <time>2018-01-12T12:40:41Z</time>
      </trkpt>
      <trkpt lat="42.98103" lon="-0.2457">
        <ele>1493.6</ele>
        <time>2018-01-12T12:40:43Z</time>
      </trkpt>
      <trkpt lat="42.98107" lon="-0.24563">
        <ele>1493.6</ele>
        <time>2018-01-12T12:40:45Z</time>
      </trkpt>
      <trkpt lat="42.98111" lon="-0.24555">
        <ele>1493.1</ele>
        <time>2018-01-12T12:40:47Z</time>
      </trkpt>
      <trkpt lat="42.98116" lon="-0.24547">
        <ele>1492.6</ele>
        <time>2018-01-12T12:40:49Z</time>
      </trkpt>
      <trkpt lat="42.98121" lon="-0.24538">
        <ele>1492</ele>
        <time>2018-01-12T12:40:51Z</time>
      </trkpt>
      <trkpt lat="42.98127" lon="-0.24529">
        <ele>1491.3</ele>
        <time>2018-01-12T12:40:53Z</time>
      </trkpt>
      <trkpt lat="42.98133" lon="-0.24521">
        <ele>1490.5</ele>
        <time>2018-01-12T12:40:55Z</time>
      </trkpt>
      <trkpt lat="42.98139" lon="-0.24515">
        <ele>1489.3</ele>
        <time>2018-01-12T12:40:57Z</time>
      </trkpt>
      <trkpt lat="42.98146" lon="-0.2451">
        <ele>1488.5</ele>
        <time>2018-01-12T12:40:59Z</time>
      </trkpt>
      <trkpt lat="42.98149" lon="-0.24509">
        <ele>1488.1</ele>
        <time>2018-01-12T12:41:00Z</time>
      </trkpt>
      <trkpt lat="42.98159" lon="-0.24504">
        <ele>1487.3</ele>
        <time>2018-01-12T12:41:03Z</time>
      </trkpt>
      <trkpt lat="42.98166" lon="-0.24502">
        <ele>1487</ele>
        <time>2018-01-12T12:41:05Z</time>
      </trkpt>
      <trkpt lat="42.98174" lon="-0.24496">
        <ele>1486.8</ele>
        <time>2018-01-12T12:41:08Z</time>
      </trkpt>
      <trkpt lat="42.9818" lon="-0.24492">
        <ele>1486.3</ele>
        <time>2018-01-12T12:41:10Z</time>
      </trkpt>
      <trkpt lat="42.98186" lon="-0.24489">
        <ele>1485.7</ele>
        <time>2018-01-12T12:41:12Z</time>
      </trkpt>
      <trkpt lat="42.98192" lon="-0.24486">
        <ele>1485.1</ele>
        <time>2018-01-12T12:41:14Z</time>
      </trkpt>
      <trkpt lat="42.982" lon="-0.24482">
        <ele>1484.4</ele>
        <time>2018-01-12T12:41:17Z</time>
      </trkpt>
      <trkpt lat="42.98207" lon="-0.24479">
        <ele>1484.7</ele>
        <time>2018-01-12T12:41:19Z</time>
      </trkpt>
      <trkpt lat="42.98213" lon="-0.24475">
        <ele>1484.3</ele>
        <time>2018-01-12T12:41:21Z</time>
      </trkpt>
      <trkpt lat="42.9822" lon="-0.24474">
        <ele>1483.7</ele>
        <time>2018-01-12T12:41:23Z</time>
      </trkpt>
      <trkpt lat="42.98227" lon="-0.24473">
        <ele>1482.9</ele>
        <time>2018-01-12T12:41:25Z</time>
      </trkpt>
      <trkpt lat="42.98236" lon="-0.24474">
        <ele>1482.4</ele>
        <time>2018-01-12T12:41:28Z</time>
      </trkpt>
      <trkpt lat="42.98244" lon="-0.24471">
        <ele>1482.6</ele>
        <time>2018-01-12T12:41:31Z</time>
      </trkpt>
      <trkpt lat="42.9825" lon="-0.24467">
        <ele>1482.5</ele>
        <time>2018-01-12T12:41:33Z</time>
      </trkpt>
      <trkpt lat="42.98255" lon="-0.24461">
        <ele>1481.7</ele>
        <time>2018-01-12T12:41:35Z</time>
      </trkpt>
      <trkpt lat="42.98261" lon="-0.24455">
        <ele>1480.9</ele>
        <time>2018-01-12T12:41:37Z</time>
      </trkpt>
      <trkpt lat="42.98267" lon="-0.24447">
        <ele>1479.9</ele>
        <time>2018-01-12T12:41:40Z</time>
      </trkpt>
      <trkpt lat="42.98273" lon="-0.24439">
        <ele>1480.1</ele>
        <time>2018-01-12T12:41:43Z</time>
      </trkpt>
      <trkpt lat="42.98277" lon="-0.24432">
        <ele>1479.5</ele>
        <time>2018-01-12T12:41:45Z</time>
      </trkpt>
      <trkpt lat="42.98283" lon="-0.24423">
        <ele>1479.5</ele>
        <time>2018-01-12T12:41:47Z</time>
      </trkpt>
      <trkpt lat="42.98288" lon="-0.24416">
        <ele>1479.8</ele>
        <time>2018-01-12T12:41:49Z</time>
      </trkpt>
      <trkpt lat="42.98296" lon="-0.24416">
        <ele>1479.5</ele>
        <time>2018-01-12T12:41:52Z</time>
      </trkpt>
      <trkpt lat="42.98302" lon="-0.24421">
        <ele>1478.5</ele>
        <time>2018-01-12T12:41:55Z</time>
      </trkpt>
      <trkpt lat="42.98307" lon="-0.24428">
        <ele>1477.7</ele>
        <time>2018-01-12T12:41:59Z</time>
      </trkpt>
      <trkpt lat="42.98313" lon="-0.24435">
        <ele>1478.1</ele>
        <time>2018-01-12T12:42:03Z</time>
      </trkpt>
      <trkpt lat="42.98314" lon="-0.24437">
        <ele>1478.2</ele>
        <time>2018-01-12T12:42:04Z</time>
      </trkpt>
      <trkpt lat="42.98325" lon="-0.24448">
        <ele>1479.2</ele>
        <time>2018-01-12T12:42:11Z</time>
      </trkpt>
      <trkpt lat="42.98333" lon="-0.2445">
        <ele>1479.1</ele>
        <time>2018-01-12T12:42:15Z</time>
      </trkpt>
      <trkpt lat="42.98341" lon="-0.2445">
        <ele>1478.9</ele>
        <time>2018-01-12T12:42:18Z</time>
      </trkpt>
      <trkpt lat="42.98348" lon="-0.24449">
        <ele>1479.2</ele>
        <time>2018-01-12T12:42:21Z</time>
      </trkpt>
      <trkpt lat="42.98356" lon="-0.24449">
        <ele>1478.7</ele>
        <time>2018-01-12T12:42:24Z</time>
      </trkpt>
      <trkpt lat="42.98365" lon="-0.24452">
        <ele>1477.7</ele>
        <time>2018-01-12T12:42:27Z</time>
      </trkpt>
      <trkpt lat="42.98373" lon="-0.24456">
        <ele>1477.2</ele>
        <time>2018-01-12T12:42:31Z</time>
      </trkpt>
      <trkpt lat="42.98379" lon="-0.24457">
        <ele>1476.7</ele>
        <time>2018-01-12T12:42:34Z</time>
      </trkpt>
      <trkpt lat="42.98387" lon="-0.24458">
        <ele>1476.1</ele>
        <time>2018-01-12T12:42:37Z</time>
      </trkpt>
      <trkpt lat="42.98394" lon="-0.2446">
        <ele>1475</ele>
        <time>2018-01-12T12:42:40Z</time>
      </trkpt>
      <trkpt lat="42.98401" lon="-0.24465">
        <ele>1476.1</ele>
        <time>2018-01-12T12:42:44Z</time>
      </trkpt>
      <trkpt lat="42.98408" lon="-0.24469">
        <ele>1476.7</ele>
        <time>2018-01-12T12:42:47Z</time>
      </trkpt>
      <trkpt lat="42.98416" lon="-0.24472">
        <ele>1476.3</ele>
        <time>2018-01-12T12:42:50Z</time>
      </trkpt>
      <trkpt lat="42.98422" lon="-0.24474">
        <ele>1475.8</ele>
        <time>2018-01-12T12:42:52Z</time>
      </trkpt>
      <trkpt lat="42.9843" lon="-0.24478">
        <ele>1475.9</ele>
        <time>2018-01-12T12:42:55Z</time>
      </trkpt>
      <trkpt lat="42.98436" lon="-0.24484">
        <ele>1474.9</ele>
        <time>2018-01-12T12:42:59Z</time>
      </trkpt>
      <trkpt lat="42.98443" lon="-0.24491">
        <ele>1474.8</ele>
        <time>2018-01-12T12:43:03Z</time>
      </trkpt>
      <trkpt lat="42.98449" lon="-0.24497">
        <ele>1474.6</ele>
        <time>2018-01-12T12:43:06Z</time>
      </trkpt>
      <trkpt lat="42.98452" lon="-0.24499">
        <ele>1474.4</ele>
        <time>2018-01-12T12:43:07Z</time>
      </trkpt>
      <trkpt lat="42.98463" lon="-0.2451">
        <ele>1473.7</ele>
        <time>2018-01-12T12:43:12Z</time>
      </trkpt>
      <trkpt lat="42.98469" lon="-0.24517">
        <ele>1473.4</ele>
        <time>2018-01-12T12:43:15Z</time>
      </trkpt>
      <trkpt lat="42.98476" lon="-0.24523">
        <ele>1473</ele>
        <time>2018-01-12T12:43:18Z</time>
      </trkpt>
      <trkpt lat="42.98482" lon="-0.24531">
        <ele>1472.4</ele>
        <time>2018-01-12T12:43:21Z</time>
      </trkpt>
      <trkpt lat="42.98488" lon="-0.24537">
        <ele>1472</ele>
        <time>2018-01-12T12:43:23Z</time>
      </trkpt>
      <trkpt lat="42.98494" lon="-0.24545">
        <ele>1471.6</ele>
        <time>2018-01-12T12:43:25Z</time>
      </trkpt>
      <trkpt lat="42.98499" lon="-0.24553">
        <ele>1471.3</ele>
        <time>2018-01-12T12:43:27Z</time>
      </trkpt>
      <trkpt lat="42.98505" lon="-0.24561">
        <ele>1470.2</ele>
        <time>2018-01-12T12:43:29Z</time>
      </trkpt>
      <trkpt lat="42.98511" lon="-0.2457">
        <ele>1468.9</ele>
        <time>2018-01-12T12:43:31Z</time>
      </trkpt>
      <trkpt lat="42.98515" lon="-0.24575">
        <ele>1468.3</ele>
        <time>2018-01-12T12:43:32Z</time>
      </trkpt>
      <trkpt lat="42.98518" lon="-0.24579">
        <ele>1468</ele>
        <time>2018-01-12T12:43:33Z</time>
      </trkpt>
      <trkpt lat="42.98521" lon="-0.24583">
        <ele>1467.7</ele>
        <time>2018-01-12T12:43:34Z</time>
      </trkpt>
      <trkpt lat="42.98525" lon="-0.24588">
        <ele>1467.2</ele>
        <time>2018-01-12T12:43:35Z</time>
      </trkpt>
      <trkpt lat="42.98531" lon="-0.24595">
        <ele>1466.5</ele>
        <time>2018-01-12T12:43:37Z</time>
      </trkpt>
      <trkpt lat="42.98538" lon="-0.246">
        <ele>1466</ele>
        <time>2018-01-12T12:43:39Z</time>
      </trkpt>
      <trkpt lat="42.98544" lon="-0.24604">
        <ele>1465.7</ele>
        <time>2018-01-12T12:43:41Z</time>
      </trkpt>
      <trkpt lat="42.9855" lon="-0.24607">
        <ele>1464.5</ele>
        <time>2018-01-12T12:43:43Z</time>
      </trkpt>
      <trkpt lat="42.98558" lon="-0.24608">
        <ele>1463.3</ele>
        <time>2018-01-12T12:43:46Z</time>
      </trkpt>
      <trkpt lat="42.98566" lon="-0.24607">
        <ele>1462.1</ele>
        <time>2018-01-12T12:43:49Z</time>
      </trkpt>
      <trkpt lat="42.98572" lon="-0.24606">
        <ele>1461.6</ele>
        <time>2018-01-12T12:43:51Z</time>
      </trkpt>
      <trkpt lat="42.98579" lon="-0.24605">
        <ele>1461.3</ele>
        <time>2018-01-12T12:43:53Z</time>
      </trkpt>
      <trkpt lat="42.98585" lon="-0.24603">
        <ele>1461.2</ele>
        <time>2018-01-12T12:43:55Z</time>
      </trkpt>
      <trkpt lat="42.98592" lon="-0.24601">
        <ele>1461.1</ele>
        <time>2018-01-12T12:43:57Z</time>
      </trkpt>
      <trkpt lat="42.98599" lon="-0.246">
        <ele>1460.7</ele>
        <time>2018-01-12T12:43:59Z</time>
      </trkpt>
      <trkpt lat="42.98606" lon="-0.24598">
        <ele>1460.2</ele>
        <time>2018-01-12T12:44:01Z</time>
      </trkpt>
      <trkpt lat="42.98613" lon="-0.24595">
        <ele>1459.7</ele>
        <time>2018-01-12T12:44:03Z</time>
      </trkpt>
      <trkpt lat="42.98619" lon="-0.24591">
        <ele>1458.8</ele>
        <time>2018-01-12T12:44:05Z</time>
      </trkpt>
      <trkpt lat="42.98624" lon="-0.24585">
        <ele>1458.3</ele>
        <time>2018-01-12T12:44:07Z</time>
      </trkpt>
      <trkpt lat="42.98626" lon="-0.24582">
        <ele>1458.1</ele>
        <time>2018-01-12T12:44:08Z</time>
      </trkpt>
      <trkpt lat="42.98631" lon="-0.2457">
        <ele>1456.5</ele>
        <time>2018-01-12T12:44:11Z</time>
      </trkpt>
      <trkpt lat="42.98632" lon="-0.24562">
        <ele>1455.7</ele>
        <time>2018-01-12T12:44:13Z</time>
      </trkpt>
      <trkpt lat="42.98634" lon="-0.24553">
        <ele>1455.6</ele>
        <time>2018-01-12T12:44:15Z</time>
      </trkpt>
      <trkpt lat="42.98635" lon="-0.24545">
        <ele>1455.4</ele>
        <time>2018-01-12T12:44:17Z</time>
      </trkpt>
      <trkpt lat="42.98635" lon="-0.24536">
        <ele>1455.1</ele>
        <time>2018-01-12T12:44:19Z</time>
      </trkpt>
      <trkpt lat="42.98634" lon="-0.24528">
        <ele>1454.6</ele>
        <time>2018-01-12T12:44:21Z</time>
      </trkpt>
      <trkpt lat="42.98631" lon="-0.24517">
        <ele>1454.2</ele>
        <time>2018-01-12T12:44:24Z</time>
      </trkpt>
      <trkpt lat="42.9863" lon="-0.24508">
        <ele>1454.2</ele>
        <time>2018-01-12T12:44:26Z</time>
      </trkpt>
      <trkpt lat="42.98629" lon="-0.24499">
        <ele>1454.2</ele>
        <time>2018-01-12T12:44:28Z</time>
      </trkpt>
      <trkpt lat="42.98628" lon="-0.2449">
        <ele>1454</ele>
        <time>2018-01-12T12:44:30Z</time>
      </trkpt>
      <trkpt lat="42.98627" lon="-0.24481">
        <ele>1453.7</ele>
        <time>2018-01-12T12:44:32Z</time>
      </trkpt>
      <trkpt lat="42.98627" lon="-0.24472">
        <ele>1453.3</ele>
        <time>2018-01-12T12:44:34Z</time>
      </trkpt>
      <trkpt lat="42.98625" lon="-0.24464">
        <ele>1452.9</ele>
        <time>2018-01-12T12:44:36Z</time>
      </trkpt>
      <trkpt lat="42.98625" lon="-0.24454">
        <ele>1452.5</ele>
        <time>2018-01-12T12:44:38Z</time>
      </trkpt>
      <trkpt lat="42.98624" lon="-0.24442">
        <ele>1451.2</ele>
        <time>2018-01-12T12:44:41Z</time>
      </trkpt>
      <trkpt lat="42.98624" lon="-0.24432">
        <ele>1451.8</ele>
        <time>2018-01-12T12:44:44Z</time>
      </trkpt>
      <trkpt lat="42.98625" lon="-0.2442">
        <ele>1452.2</ele>
        <time>2018-01-12T12:44:48Z</time>
      </trkpt>
      <trkpt lat="42.98624" lon="-0.24411">
        <ele>1452</ele>
        <time>2018-01-12T12:44:52Z</time>
      </trkpt>
      <trkpt lat="42.98623" lon="-0.244">
        <ele>1451.7</ele>
        <time>2018-01-12T12:44:56Z</time>
      </trkpt>
      <trkpt lat="42.98623" lon="-0.2439">
        <ele>1451.9</ele>
        <time>2018-01-12T12:45:00Z</time>
      </trkpt>
      <trkpt lat="42.98623" lon="-0.24378">
        <ele>1451.6</ele>
        <time>2018-01-12T12:45:05Z</time>
      </trkpt>
      <trkpt lat="42.98624" lon="-0.24367">
        <ele>1452</ele>
        <time>2018-01-12T12:45:10Z</time>
      </trkpt>
      <trkpt lat="42.98623" lon="-0.24365">
        <ele>1452.1</ele>
        <time>2018-01-12T12:45:11Z</time>
      </trkpt>
      <trkpt lat="42.98624" lon="-0.24344">
        <ele>1452.1</ele>
        <time>2018-01-12T12:45:20Z</time>
      </trkpt>
      <trkpt lat="42.98622" lon="-0.24333">
        <ele>1452.8</ele>
        <time>2018-01-12T12:45:26Z</time>
      </trkpt>
      <trkpt lat="42.98624" lon="-0.24323">
        <ele>1452.9</ele>
        <time>2018-01-12T12:45:31Z</time>
      </trkpt>
      <trkpt lat="42.98627" lon="-0.24312">
        <ele>1454.6</ele>
        <time>2018-01-12T12:45:37Z</time>
      </trkpt>
      <trkpt lat="42.98629" lon="-0.24301">
        <ele>1455.3</ele>
        <time>2018-01-12T12:45:43Z</time>
      </trkpt>
      <trkpt lat="42.9863" lon="-0.2429">
        <ele>1455.2</ele>
        <time>2018-01-12T12:45:49Z</time>
      </trkpt>
      <trkpt lat="42.98631" lon="-0.24278">
        <ele>1456</ele>
        <time>2018-01-12T12:45:56Z</time>
      </trkpt>
      <trkpt lat="42.98632" lon="-0.24268">
        <ele>1456.8</ele>
        <time>2018-01-12T12:46:02Z</time>
      </trkpt>
      <trkpt lat="42.98634" lon="-0.24257">
        <ele>1458.5</ele>
        <time>2018-01-12T12:46:08Z</time>
      </trkpt>
      <trkpt lat="42.98633" lon="-0.24246">
        <ele>1459.2</ele>
        <time>2018-01-12T12:46:14Z</time>
      </trkpt>
      <trkpt lat="42.98633" lon="-0.24244">
        <ele>1459.4</ele>
        <time>2018-01-12T12:46:15Z</time>
      </trkpt>
      <trkpt lat="42.98632" lon="-0.24223">
        <ele>1460.3</ele>
        <time>2018-01-12T12:46:26Z</time>
      </trkpt>
      <trkpt lat="42.9863" lon="-0.24212">
        <ele>1460.8</ele>
        <time>2018-01-12T12:46:31Z</time>
      </trkpt>
      <trkpt lat="42.9863" lon="-0.242">
        <ele>1461.9</ele>
        <time>2018-01-12T12:46:37Z</time>
      </trkpt>
      <trkpt lat="42.98633" lon="-0.24189">
        <ele>1462.7</ele>
        <time>2018-01-12T12:46:43Z</time>
      </trkpt>
      <trkpt lat="42.98634" lon="-0.24178">
        <ele>1463.1</ele>
        <time>2018-01-12T12:46:49Z</time>
      </trkpt>
      <trkpt lat="42.98637" lon="-0.24167">
        <ele>1463.6</ele>
        <time>2018-01-12T12:46:56Z</time>
      </trkpt>
      <trkpt lat="42.98638" lon="-0.24155">
        <ele>1464</ele>
        <time>2018-01-12T12:47:03Z</time>
      </trkpt>
      <trkpt lat="42.98637" lon="-0.24143">
        <ele>1465.5</ele>
        <time>2018-01-12T12:47:10Z</time>
      </trkpt>
      <trkpt lat="42.98637" lon="-0.24131">
        <ele>1466</ele>
        <time>2018-01-12T12:47:16Z</time>
      </trkpt>
      <trkpt lat="42.98637" lon="-0.24129">
        <ele>1466.3</ele>
        <time>2018-01-12T12:47:17Z</time>
      </trkpt>
      <trkpt lat="42.98637" lon="-0.24108">
        <ele>1468.3</ele>
        <time>2018-01-12T12:47:27Z</time>
      </trkpt>
      <trkpt lat="42.9864" lon="-0.24098">
        <ele>1469</ele>
        <time>2018-01-12T12:47:32Z</time>
      </trkpt>
      <trkpt lat="42.98642" lon="-0.24089">
        <ele>1469.5</ele>
        <time>2018-01-12T12:47:37Z</time>
      </trkpt>
      <trkpt lat="42.98646" lon="-0.24079">
        <ele>1470.1</ele>
        <time>2018-01-12T12:47:42Z</time>
      </trkpt>
      <trkpt lat="42.98649" lon="-0.2407">
        <ele>1470.2</ele>
        <time>2018-01-12T12:47:47Z</time>
      </trkpt>
      <trkpt lat="42.98652" lon="-0.24059">
        <ele>1471.9</ele>
        <time>2018-01-12T12:47:53Z</time>
      </trkpt>
      <trkpt lat="42.98655" lon="-0.24047">
        <ele>1471.9</ele>
        <time>2018-01-12T12:47:59Z</time>
      </trkpt>
      <trkpt lat="42.98656" lon="-0.24036">
        <ele>1473.1</ele>
        <time>2018-01-12T12:48:05Z</time>
      </trkpt>
      <trkpt lat="42.98656" lon="-0.24025">
        <ele>1473.8</ele>
        <time>2018-01-12T12:48:10Z</time>
      </trkpt>
      <trkpt lat="42.98658" lon="-0.24015">
        <ele>1473.4</ele>
        <time>2018-01-12T12:48:15Z</time>
      </trkpt>
      <trkpt lat="42.98659" lon="-0.24003">
        <ele>1474.3</ele>
        <time>2018-01-12T12:48:20Z</time>
      </trkpt>
      <trkpt lat="42.98659" lon="-0.24001">
        <ele>1474.3</ele>
        <time>2018-01-12T12:48:21Z</time>
      </trkpt>
      <trkpt lat="42.98661" lon="-0.23982">
        <ele>1475.1</ele>
        <time>2018-01-12T12:48:30Z</time>
      </trkpt>
      <trkpt lat="42.98661" lon="-0.23971">
        <ele>1476.1</ele>
        <time>2018-01-12T12:48:35Z</time>
      </trkpt>
      <trkpt lat="42.98662" lon="-0.23961">
        <ele>1476.4</ele>
        <time>2018-01-12T12:48:40Z</time>
      </trkpt>
      <trkpt lat="42.98662" lon="-0.23949">
        <ele>1476.8</ele>
        <time>2018-01-12T12:48:45Z</time>
      </trkpt>
      <trkpt lat="42.98662" lon="-0.23938">
        <ele>1477.8</ele>
        <time>2018-01-12T12:48:50Z</time>
      </trkpt>
      <trkpt lat="42.98662" lon="-0.23926">
        <ele>1478</ele>
        <time>2018-01-12T12:48:55Z</time>
      </trkpt>
      <trkpt lat="42.98659" lon="-0.23915">
        <ele>1478.5</ele>
        <time>2018-01-12T12:49:00Z</time>
      </trkpt>
      <trkpt lat="42.98655" lon="-0.23905">
        <ele>1478.7</ele>
        <time>2018-01-12T12:49:05Z</time>
      </trkpt>
      <trkpt lat="42.98649" lon="-0.23896">
        <ele>1478.1</ele>
        <time>2018-01-12T12:49:10Z</time>
      </trkpt>
      <trkpt lat="42.98643" lon="-0.2389">
        <ele>1479</ele>
        <time>2018-01-12T12:49:15Z</time>
      </trkpt>
      <trkpt lat="42.98635" lon="-0.23885">
        <ele>1478.8</ele>
        <time>2018-01-12T12:49:21Z</time>
      </trkpt>
      <trkpt lat="42.98633" lon="-0.23884">
        <ele>1478.7</ele>
        <time>2018-01-12T12:49:22Z</time>
      </trkpt>
      <trkpt lat="42.9862" lon="-0.23874">
        <ele>1479.4</ele>
        <time>2018-01-12T12:49:33Z</time>
      </trkpt>
      <trkpt lat="42.98612" lon="-0.23868">
        <ele>1481.5</ele>
        <time>2018-01-12T12:49:40Z</time>
      </trkpt>
      <trkpt lat="42.98606" lon="-0.23861">
        <ele>1481.6</ele>
        <time>2018-01-12T12:49:46Z</time>
      </trkpt>
      <trkpt lat="42.986" lon="-0.23854">
        <ele>1481.7</ele>
        <time>2018-01-12T12:49:51Z</time>
      </trkpt>
      <trkpt lat="42.98596" lon="-0.23844">
        <ele>1482</ele>
        <time>2018-01-12T12:49:56Z</time>
      </trkpt>
      <trkpt lat="42.98591" lon="-0.23835">
        <ele>1482.1</ele>
        <time>2018-01-12T12:50:01Z</time>
      </trkpt>
      <trkpt lat="42.98586" lon="-0.23826">
        <ele>1482.3</ele>
        <time>2018-01-12T12:50:06Z</time>
      </trkpt>
      <trkpt lat="42.98583" lon="-0.23814">
        <ele>1483.3</ele>
        <time>2018-01-12T12:50:12Z</time>
      </trkpt>
      <trkpt lat="42.98581" lon="-0.23803">
        <ele>1484</ele>
        <time>2018-01-12T12:50:17Z</time>
      </trkpt>
      <trkpt lat="42.98581" lon="-0.23793">
        <ele>1483.8</ele>
        <time>2018-01-12T12:50:22Z</time>
      </trkpt>
      <trkpt lat="42.98581" lon="-0.23791">
        <ele>1483.9</ele>
        <time>2018-01-12T12:50:23Z</time>
      </trkpt>
      <trkpt lat="42.98576" lon="-0.23772">
        <ele>1484.9</ele>
        <time>2018-01-12T12:50:32Z</time>
      </trkpt>
      <trkpt lat="42.98573" lon="-0.23762">
        <ele>1484.9</ele>
        <time>2018-01-12T12:50:38Z</time>
      </trkpt>
      <trkpt lat="42.9857" lon="-0.23752">
        <ele>1485.9</ele>
        <time>2018-01-12T12:50:44Z</time>
      </trkpt>
      <trkpt lat="42.98568" lon="-0.2374">
        <ele>1486.1</ele>
        <time>2018-01-12T12:50:50Z</time>
      </trkpt>
      <trkpt lat="42.98567" lon="-0.2373">
        <ele>1486.4</ele>
        <time>2018-01-12T12:50:55Z</time>
      </trkpt>
      <trkpt lat="42.98565" lon="-0.2372">
        <ele>1486.8</ele>
        <time>2018-01-12T12:51:00Z</time>
      </trkpt>
      <trkpt lat="42.98562" lon="-0.2371">
        <ele>1487.4</ele>
        <time>2018-01-12T12:51:05Z</time>
      </trkpt>
      <trkpt lat="42.98559" lon="-0.23699">
        <ele>1488.1</ele>
        <time>2018-01-12T12:51:11Z</time>
      </trkpt>
      <trkpt lat="42.98557" lon="-0.23688">
        <ele>1489.4</ele>
        <time>2018-01-12T12:51:17Z</time>
      </trkpt>
      <trkpt lat="42.98556" lon="-0.23677">
        <ele>1490.8</ele>
        <time>2018-01-12T12:51:23Z</time>
      </trkpt>
      <trkpt lat="42.98556" lon="-0.23675">
        <ele>1491.1</ele>
        <time>2018-01-12T12:51:24Z</time>
      </trkpt>
      <trkpt lat="42.98557" lon="-0.23655">
        <ele>1493.3</ele>
        <time>2018-01-12T12:51:35Z</time>
      </trkpt>
      <trkpt lat="42.98556" lon="-0.23643">
        <ele>1493.6</ele>
        <time>2018-01-12T12:51:41Z</time>
      </trkpt>
      <trkpt lat="42.98553" lon="-0.23631">
        <ele>1494.5</ele>
        <time>2018-01-12T12:51:48Z</time>
      </trkpt>
      <trkpt lat="42.98551" lon="-0.23621">
        <ele>1494.5</ele>
        <time>2018-01-12T12:51:54Z</time>
      </trkpt>
      <trkpt lat="42.9855" lon="-0.2361">
        <ele>1495.2</ele>
        <time>2018-01-12T12:52:00Z</time>
      </trkpt>
      <trkpt lat="42.9855" lon="-0.23598">
        <ele>1496.7</ele>
        <time>2018-01-12T12:52:07Z</time>
      </trkpt>
      <trkpt lat="42.98552" lon="-0.23587">
        <ele>1496.6</ele>
        <time>2018-01-12T12:52:13Z</time>
      </trkpt>
      <trkpt lat="42.98553" lon="-0.23575">
        <ele>1498</ele>
        <time>2018-01-12T12:52:20Z</time>
      </trkpt>
      <trkpt lat="42.98554" lon="-0.23564">
        <ele>1497.8</ele>
        <time>2018-01-12T12:52:26Z</time>
      </trkpt>
      <trkpt lat="42.98553" lon="-0.23563">
        <ele>1497.7</ele>
        <time>2018-01-12T12:52:27Z</time>
      </trkpt>
      <trkpt lat="42.98551" lon="-0.23541">
        <ele>1499.9</ele>
        <time>2018-01-12T12:52:40Z</time>
      </trkpt>
      <trkpt lat="42.9855" lon="-0.2353">
        <ele>1500.5</ele>
        <time>2018-01-12T12:52:46Z</time>
      </trkpt>
      <trkpt lat="42.98552" lon="-0.23518">
        <ele>1500.7</ele>
        <time>2018-01-12T12:52:51Z</time>
      </trkpt>
      <trkpt lat="42.98557" lon="-0.23509">
        <ele>1500.9</ele>
        <time>2018-01-12T12:52:57Z</time>
      </trkpt>
      <trkpt lat="42.98563" lon="-0.23501">
        <ele>1500.1</ele>
        <time>2018-01-12T12:53:03Z</time>
      </trkpt>
      <trkpt lat="42.98567" lon="-0.23492">
        <ele>1501.7</ele>
        <time>2018-01-12T12:53:09Z</time>
      </trkpt>
      <trkpt lat="42.98571" lon="-0.23481">
        <ele>1502.2</ele>
        <time>2018-01-12T12:53:15Z</time>
      </trkpt>
      <trkpt lat="42.98574" lon="-0.23471">
        <ele>1503.1</ele>
        <time>2018-01-12T12:53:20Z</time>
      </trkpt>
      <trkpt lat="42.98577" lon="-0.2346">
        <ele>1504.6</ele>
        <time>2018-01-12T12:53:26Z</time>
      </trkpt>
      <trkpt lat="42.98579" lon="-0.23449">
        <ele>1505.3</ele>
        <time>2018-01-12T12:53:32Z</time>
      </trkpt>
      <trkpt lat="42.98579" lon="-0.23448">
        <ele>1505.1</ele>
        <time>2018-01-12T12:53:33Z</time>
      </trkpt>
      <trkpt lat="42.98582" lon="-0.23429">
        <ele>1505.8</ele>
        <time>2018-01-12T12:53:42Z</time>
      </trkpt>
      <trkpt lat="42.98582" lon="-0.23417">
        <ele>1506.9</ele>
        <time>2018-01-12T12:53:48Z</time>
      </trkpt>
      <trkpt lat="42.98582" lon="-0.23406">
        <ele>1507.7</ele>
        <time>2018-01-12T12:53:53Z</time>
      </trkpt>
      <trkpt lat="42.98584" lon="-0.23396">
        <ele>1508.4</ele>
        <time>2018-01-12T12:53:58Z</time>
      </trkpt>
      <trkpt lat="42.98585" lon="-0.23385">
        <ele>1509.2</ele>
        <time>2018-01-12T12:54:03Z</time>
      </trkpt>
      <trkpt lat="42.98585" lon="-0.23375">
        <ele>1510.1</ele>
        <time>2018-01-12T12:54:08Z</time>
      </trkpt>
      <trkpt lat="42.98587" lon="-0.23363">
        <ele>1511.2</ele>
        <time>2018-01-12T12:54:14Z</time>
      </trkpt>
      <trkpt lat="42.98587" lon="-0.23352">
        <ele>1511.5</ele>
        <time>2018-01-12T12:54:20Z</time>
      </trkpt>
      <trkpt lat="42.98584" lon="-0.23342">
        <ele>1512.8</ele>
        <time>2018-01-12T12:54:26Z</time>
      </trkpt>
      <trkpt lat="42.98579" lon="-0.23332">
        <ele>1512.5</ele>
        <time>2018-01-12T12:54:33Z</time>
      </trkpt>
      <trkpt lat="42.98578" lon="-0.2333">
        <ele>1512.5</ele>
        <time>2018-01-12T12:54:34Z</time>
      </trkpt>
      <trkpt lat="42.9857" lon="-0.23311">
        <ele>1514.4</ele>
        <time>2018-01-12T12:54:45Z</time>
      </trkpt>
      <trkpt lat="42.9857" lon="-0.233">
        <ele>1514</ele>
        <time>2018-01-12T12:54:50Z</time>
      </trkpt>
      <trkpt lat="42.98571" lon="-0.23291">
        <ele>1514.6</ele>
        <time>2018-01-12T12:54:54Z</time>
      </trkpt>
      <trkpt lat="42.98572" lon="-0.2328">
        <ele>1513.7</ele>
        <time>2018-01-12T12:54:57Z</time>
      </trkpt>
      <trkpt lat="42.98573" lon="-0.23269">
        <ele>1514.1</ele>
        <time>2018-01-12T12:55:00Z</time>
      </trkpt>
      <trkpt lat="42.98575" lon="-0.23257">
        <ele>1513.7</ele>
        <time>2018-01-12T12:55:03Z</time>
      </trkpt>
      <trkpt lat="42.98576" lon="-0.23245">
        <ele>1512.7</ele>
        <time>2018-01-12T12:55:06Z</time>
      </trkpt>
      <trkpt lat="42.98577" lon="-0.23235">
        <ele>1512.4</ele>
        <time>2018-01-12T12:55:09Z</time>
      </trkpt>
      <trkpt lat="42.98578" lon="-0.23226">
        <ele>1511.9</ele>
        <time>2018-01-12T12:55:12Z</time>
      </trkpt>
      <trkpt lat="42.98579" lon="-0.23216">
        <ele>1511.4</ele>
        <time>2018-01-12T12:55:15Z</time>
      </trkpt>
      <trkpt lat="42.9858" lon="-0.23205">
        <ele>1512.7</ele>
        <time>2018-01-12T12:55:20Z</time>
      </trkpt>
      <trkpt lat="42.98581" lon="-0.23195">
        <ele>1512.6</ele>
        <time>2018-01-12T12:55:25Z</time>
      </trkpt>
      <trkpt lat="42.98582" lon="-0.23184">
        <ele>1512.5</ele>
        <time>2018-01-12T12:55:30Z</time>
      </trkpt>
      <trkpt lat="42.98583" lon="-0.23173">
        <ele>1512.7</ele>
        <time>2018-01-12T12:55:36Z</time>
      </trkpt>
      <trkpt lat="42.98582" lon="-0.23171">
        <ele>1513</ele>
        <time>2018-01-12T12:55:37Z</time>
      </trkpt>
      <trkpt lat="42.98583" lon="-0.2315">
        <ele>1515</ele>
        <time>2018-01-12T12:55:48Z</time>
      </trkpt>
      <trkpt lat="42.98583" lon="-0.2314">
        <ele>1515.2</ele>
        <time>2018-01-12T12:55:53Z</time>
      </trkpt>
      <trkpt lat="42.98582" lon="-0.23128">
        <ele>1516.2</ele>
        <time>2018-01-12T12:55:59Z</time>
      </trkpt>
      <trkpt lat="42.98579" lon="-0.23118">
        <ele>1517.3</ele>
        <time>2018-01-12T12:56:05Z</time>
      </trkpt>
      <trkpt lat="42.98577" lon="-0.23106">
        <ele>1518.5</ele>
        <time>2018-01-12T12:56:11Z</time>
      </trkpt>
      <trkpt lat="42.98575" lon="-0.23096">
        <ele>1519.6</ele>
        <time>2018-01-12T12:56:16Z</time>
      </trkpt>
      <trkpt lat="42.98573" lon="-0.23086">
        <ele>1519.4</ele>
        <time>2018-01-12T12:56:21Z</time>
      </trkpt>
      <trkpt lat="42.98572" lon="-0.23075">
        <ele>1520.8</ele>
        <time>2018-01-12T12:56:26Z</time>
      </trkpt>
      <trkpt lat="42.9857" lon="-0.23065">
        <ele>1522.6</ele>
        <time>2018-01-12T12:56:31Z</time>
      </trkpt>
      <trkpt lat="42.98567" lon="-0.23054">
        <ele>1522.6</ele>
        <time>2018-01-12T12:56:37Z</time>
      </trkpt>
      <trkpt lat="42.98566" lon="-0.23052">
        <ele>1522.8</ele>
        <time>2018-01-12T12:56:38Z</time>
      </trkpt>
      <trkpt lat="42.98559" lon="-0.23035">
        <ele>1523.9</ele>
        <time>2018-01-12T12:56:47Z</time>
      </trkpt>
      <trkpt lat="42.98554" lon="-0.23026">
        <ele>1524.7</ele>
        <time>2018-01-12T12:56:52Z</time>
      </trkpt>
      <trkpt lat="42.98551" lon="-0.23016">
        <ele>1525.2</ele>
        <time>2018-01-12T12:56:58Z</time>
      </trkpt>
      <trkpt lat="42.98545" lon="-0.23008">
        <ele>1525.9</ele>
        <time>2018-01-12T12:57:04Z</time>
      </trkpt>
      <trkpt lat="42.98539" lon="-0.23">
        <ele>1526.7</ele>
        <time>2018-01-12T12:57:10Z</time>
      </trkpt>
      <trkpt lat="42.98534" lon="-0.2299">
        <ele>1526.6</ele>
        <time>2018-01-12T12:57:16Z</time>
      </trkpt>
      <trkpt lat="42.98531" lon="-0.2298">
        <ele>1527.5</ele>
        <time>2018-01-12T12:57:22Z</time>
      </trkpt>
      <trkpt lat="42.98528" lon="-0.22969">
        <ele>1527.8</ele>
        <time>2018-01-12T12:57:28Z</time>
      </trkpt>
      <trkpt lat="42.98526" lon="-0.22959">
        <ele>1529.5</ele>
        <time>2018-01-12T12:57:33Z</time>
      </trkpt>
      <trkpt lat="42.98524" lon="-0.22949">
        <ele>1531</ele>
        <time>2018-01-12T12:57:38Z</time>
      </trkpt>
      <trkpt lat="42.98524" lon="-0.22947">
        <ele>1531.1</ele>
        <time>2018-01-12T12:57:39Z</time>
      </trkpt>
      <trkpt lat="42.98522" lon="-0.22925">
        <ele>1531.7</ele>
        <time>2018-01-12T12:57:50Z</time>
      </trkpt>
      <trkpt lat="42.98524" lon="-0.22914">
        <ele>1532.6</ele>
        <time>2018-01-12T12:57:55Z</time>
      </trkpt>
      <trkpt lat="42.98525" lon="-0.22904">
        <ele>1532.9</ele>
        <time>2018-01-12T12:58:00Z</time>
      </trkpt>
      <trkpt lat="42.98527" lon="-0.22892">
        <ele>1534.4</ele>
        <time>2018-01-12T12:58:06Z</time>
      </trkpt>
      <trkpt lat="42.98531" lon="-0.22883">
        <ele>1534.7</ele>
        <time>2018-01-12T12:58:12Z</time>
      </trkpt>
      <trkpt lat="42.98539" lon="-0.22877">
        <ele>1535.1</ele>
        <time>2018-01-12T12:58:18Z</time>
      </trkpt>
      <trkpt lat="42.98546" lon="-0.22871">
        <ele>1535.3</ele>
        <time>2018-01-12T12:58:23Z</time>
      </trkpt>
      <trkpt lat="42.98553" lon="-0.22863">
        <ele>1535.3</ele>
        <time>2018-01-12T12:58:29Z</time>
      </trkpt>
      <trkpt lat="42.9856" lon="-0.22857">
        <ele>1535.7</ele>
        <time>2018-01-12T12:58:34Z</time>
      </trkpt>
      <trkpt lat="42.98567" lon="-0.2285">
        <ele>1536</ele>
        <time>2018-01-12T12:58:39Z</time>
      </trkpt>
      <trkpt lat="42.98568" lon="-0.22849">
        <ele>1535.9</ele>
        <time>2018-01-12T12:58:40Z</time>
      </trkpt>
      <trkpt lat="42.98582" lon="-0.2284">
        <ele>1535.3</ele>
        <time>2018-01-12T12:58:50Z</time>
      </trkpt>
      <trkpt lat="42.9859" lon="-0.22837">
        <ele>1534.7</ele>
        <time>2018-01-12T12:58:55Z</time>
      </trkpt>
      <trkpt lat="42.98598" lon="-0.22833">
        <ele>1535.2</ele>
        <time>2018-01-12T12:59:00Z</time>
      </trkpt>
      <trkpt lat="42.98605" lon="-0.22831">
        <ele>1535.5</ele>
        <time>2018-01-12T12:59:05Z</time>
      </trkpt>
      <trkpt lat="42.98613" lon="-0.22829">
        <ele>1535.6</ele>
        <time>2018-01-12T12:59:10Z</time>
      </trkpt>
      <trkpt lat="42.98621" lon="-0.22827">
        <ele>1537.1</ele>
        <time>2018-01-12T12:59:15Z</time>
      </trkpt>
      <trkpt lat="42.98629" lon="-0.22827">
        <ele>1536.3</ele>
        <time>2018-01-12T12:59:19Z</time>
      </trkpt>
      <trkpt lat="42.98637" lon="-0.22827">
        <ele>1537.5</ele>
        <time>2018-01-12T12:59:24Z</time>
      </trkpt>
      <trkpt lat="42.98646" lon="-0.22826">
        <ele>1537.8</ele>
        <time>2018-01-12T12:59:30Z</time>
      </trkpt>
      <trkpt lat="42.98654" lon="-0.22826">
        <ele>1537.9</ele>
        <time>2018-01-12T12:59:35Z</time>
      </trkpt>
      <trkpt lat="42.98662" lon="-0.22826">
        <ele>1537.9</ele>
        <time>2018-01-12T12:59:40Z</time>
      </trkpt>
      <trkpt lat="42.98664" lon="-0.22826">
        <ele>1538</ele>
        <time>2018-01-12T12:59:41Z</time>
      </trkpt>
      <trkpt lat="42.98679" lon="-0.22824">
        <ele>1537.5</ele>
        <time>2018-01-12T12:59:49Z</time>
      </trkpt>
      <trkpt lat="42.98686" lon="-0.22819">
        <ele>1538.2</ele>
        <time>2018-01-12T12:59:54Z</time>
      </trkpt>
      <trkpt lat="42.98694" lon="-0.22813">
        <ele>1537.8</ele>
        <time>2018-01-12T12:59:59Z</time>
      </trkpt>
      <trkpt lat="42.987" lon="-0.22803">
        <ele>1538.7</ele>
        <time>2018-01-12T13:00:04Z</time>
      </trkpt>
      <trkpt lat="42.98703" lon="-0.22793">
        <ele>1539.2</ele>
        <time>2018-01-12T13:00:09Z</time>
      </trkpt>
      <trkpt lat="42.98706" lon="-0.22783">
        <ele>1538.7</ele>
        <time>2018-01-12T13:00:13Z</time>
      </trkpt>
      <trkpt lat="42.98711" lon="-0.22775">
        <ele>1539.3</ele>
        <time>2018-01-12T13:00:18Z</time>
      </trkpt>
      <trkpt lat="42.98719" lon="-0.22769">
        <ele>1539</ele>
        <time>2018-01-12T13:00:22Z</time>
      </trkpt>
      <trkpt lat="42.98727" lon="-0.22764">
        <ele>1538.4</ele>
        <time>2018-01-12T13:00:26Z</time>
      </trkpt>
      <trkpt lat="42.98734" lon="-0.2276">
        <ele>1537.6</ele>
        <time>2018-01-12T13:00:30Z</time>
      </trkpt>
      <trkpt lat="42.98742" lon="-0.22758">
        <ele>1537.5</ele>
        <time>2018-01-12T13:00:34Z</time>
      </trkpt>
      <trkpt lat="42.9875" lon="-0.22757">
        <ele>1537.3</ele>
        <time>2018-01-12T13:00:39Z</time>
      </trkpt>
      <trkpt lat="42.98757" lon="-0.22755">
        <ele>1538</ele>
        <time>2018-01-12T13:00:44Z</time>
      </trkpt>
      <trkpt lat="42.98759" lon="-0.22754">
        <ele>1538.1</ele>
        <time>2018-01-12T13:00:45Z</time>
      </trkpt>
      <trkpt lat="42.98773" lon="-0.22748">
        <ele>1537.4</ele>
        <time>2018-01-12T13:00:53Z</time>
      </trkpt>
      <trkpt lat="42.9878" lon="-0.22744">
        <ele>1537.7</ele>
        <time>2018-01-12T13:00:57Z</time>
      </trkpt>
      <trkpt lat="42.98786" lon="-0.2274">
        <ele>1537.6</ele>
        <time>2018-01-12T13:01:01Z</time>
      </trkpt>
      <trkpt lat="42.98793" lon="-0.22736">
        <ele>1537.7</ele>
        <time>2018-01-12T13:01:04Z</time>
      </trkpt>
      <trkpt lat="42.98799" lon="-0.22731">
        <ele>1536.8</ele>
        <time>2018-01-12T13:01:07Z</time>
      </trkpt>
      <trkpt lat="42.98807" lon="-0.22727">
        <ele>1536.8</ele>
        <time>2018-01-12T13:01:10Z</time>
      </trkpt>
      <trkpt lat="42.98814" lon="-0.22723">
        <ele>1536.4</ele>
        <time>2018-01-12T13:01:14Z</time>
      </trkpt>
      <trkpt lat="42.98822" lon="-0.22718">
        <ele>1536.7</ele>
        <time>2018-01-12T13:01:19Z</time>
      </trkpt>
      <trkpt lat="42.9883" lon="-0.22714">
        <ele>1536.6</ele>
        <time>2018-01-12T13:01:23Z</time>
      </trkpt>
      <trkpt lat="42.98837" lon="-0.22709">
        <ele>1536.9</ele>
        <time>2018-01-12T13:01:27Z</time>
      </trkpt>
      <trkpt lat="42.98845" lon="-0.22705">
        <ele>1536.7</ele>
        <time>2018-01-12T13:01:32Z</time>
      </trkpt>
      <trkpt lat="42.98853" lon="-0.22703">
        <ele>1536.2</ele>
        <time>2018-01-12T13:01:36Z</time>
      </trkpt>
      <trkpt lat="42.98861" lon="-0.22701">
        <ele>1536.2</ele>
        <time>2018-01-12T13:01:39Z</time>
      </trkpt>
      <trkpt lat="42.98868" lon="-0.22699">
        <ele>1536</ele>
        <time>2018-01-12T13:01:42Z</time>
      </trkpt>
      <trkpt lat="42.98876" lon="-0.22696">
        <ele>1535.6</ele>
        <time>2018-01-12T13:01:45Z</time>
      </trkpt>
      <trkpt lat="42.98878" lon="-0.22696">
        <ele>1535.5</ele>
        <time>2018-01-12T13:01:46Z</time>
      </trkpt>
      <trkpt lat="42.98891" lon="-0.22692">
        <ele>1534</ele>
        <time>2018-01-12T13:01:51Z</time>
      </trkpt>
      <trkpt lat="42.98898" lon="-0.2269">
        <ele>1534.3</ele>
        <time>2018-01-12T13:01:54Z</time>
      </trkpt>
      <trkpt lat="42.98905" lon="-0.22688">
        <ele>1534.3</ele>
        <time>2018-01-12T13:01:57Z</time>
      </trkpt>
      <trkpt lat="42.98912" lon="-0.22684">
        <ele>1534</ele>
        <time>2018-01-12T13:02:00Z</time>
      </trkpt>
      <trkpt lat="42.9892" lon="-0.2268">
        <ele>1534</ele>
        <time>2018-01-12T13:02:04Z</time>
      </trkpt>
      <trkpt lat="42.98927" lon="-0.22677">
        <ele>1534.1</ele>
        <time>2018-01-12T13:02:08Z</time>
      </trkpt>
      <trkpt lat="42.98935" lon="-0.22675">
        <ele>1533.7</ele>
        <time>2018-01-12T13:02:12Z</time>
      </trkpt>
      <trkpt lat="42.98943" lon="-0.22675">
        <ele>1533.7</ele>
        <time>2018-01-12T13:02:16Z</time>
      </trkpt>
      <trkpt lat="42.98952" lon="-0.22677">
        <ele>1533.5</ele>
        <time>2018-01-12T13:02:20Z</time>
      </trkpt>
      <trkpt lat="42.98959" lon="-0.22679">
        <ele>1533.4</ele>
        <time>2018-01-12T13:02:23Z</time>
      </trkpt>
      <trkpt lat="42.98967" lon="-0.22682">
        <ele>1532.9</ele>
        <time>2018-01-12T13:02:26Z</time>
      </trkpt>
      <trkpt lat="42.98973" lon="-0.22684">
        <ele>1532.3</ele>
        <time>2018-01-12T13:02:28Z</time>
      </trkpt>
      <trkpt lat="42.98981" lon="-0.22688">
        <ele>1532.2</ele>
        <time>2018-01-12T13:02:31Z</time>
      </trkpt>
      <trkpt lat="42.98988" lon="-0.22691">
        <ele>1531.2</ele>
        <time>2018-01-12T13:02:34Z</time>
      </trkpt>
      <trkpt lat="42.98995" lon="-0.22696">
        <ele>1531.3</ele>
        <time>2018-01-12T13:02:37Z</time>
      </trkpt>
      <trkpt lat="42.99002" lon="-0.22702">
        <ele>1530.8</ele>
        <time>2018-01-12T13:02:40Z</time>
      </trkpt>
      <trkpt lat="42.99008" lon="-0.22706">
        <ele>1529.9</ele>
        <time>2018-01-12T13:02:43Z</time>
      </trkpt>
      <trkpt lat="42.99015" lon="-0.2271">
        <ele>1529.3</ele>
        <time>2018-01-12T13:02:46Z</time>
      </trkpt>
      <trkpt lat="42.99018" lon="-0.22711">
        <ele>1529.1</ele>
        <time>2018-01-12T13:02:47Z</time>
      </trkpt>
      <trkpt lat="42.99031" lon="-0.22718">
        <ele>1528.5</ele>
        <time>2018-01-12T13:02:53Z</time>
      </trkpt>
      <trkpt lat="42.99038" lon="-0.22719">
        <ele>1528.2</ele>
        <time>2018-01-12T13:02:56Z</time>
      </trkpt>
      <trkpt lat="42.99047" lon="-0.22717">
        <ele>1527.6</ele>
        <time>2018-01-12T13:03:00Z</time>
      </trkpt>
      <trkpt lat="42.99055" lon="-0.22715">
        <ele>1527.6</ele>
        <time>2018-01-12T13:03:04Z</time>
      </trkpt>
      <trkpt lat="42.99063" lon="-0.22714">
        <ele>1527.8</ele>
        <time>2018-01-12T13:03:08Z</time>
      </trkpt>
      <trkpt lat="42.99069" lon="-0.2271">
        <ele>1526.7</ele>
        <time>2018-01-12T13:03:12Z</time>
      </trkpt>
      <trkpt lat="42.99077" lon="-0.22705">
        <ele>1527.5</ele>
        <time>2018-01-12T13:03:16Z</time>
      </trkpt>
      <trkpt lat="42.99085" lon="-0.227">
        <ele>1527.7</ele>
        <time>2018-01-12T13:03:20Z</time>
      </trkpt>
      <trkpt lat="42.99091" lon="-0.22694">
        <ele>1527.4</ele>
        <time>2018-01-12T13:03:24Z</time>
      </trkpt>
      <trkpt lat="42.99098" lon="-0.22687">
        <ele>1527.3</ele>
        <time>2018-01-12T13:03:29Z</time>
      </trkpt>
      <trkpt lat="42.99105" lon="-0.2268">
        <ele>1528.3</ele>
        <time>2018-01-12T13:03:34Z</time>
      </trkpt>
      <trkpt lat="42.99111" lon="-0.22675">
        <ele>1527.9</ele>
        <time>2018-01-12T13:03:38Z</time>
      </trkpt>
      <trkpt lat="42.99117" lon="-0.22668">
        <ele>1528.1</ele>
        <time>2018-01-12T13:03:43Z</time>
      </trkpt>
      <trkpt lat="42.99124" lon="-0.2266">
        <ele>1528.7</ele>
        <time>2018-01-12T13:03:48Z</time>
      </trkpt>
      <trkpt lat="42.99125" lon="-0.22658">
        <ele>1529.1</ele>
        <time>2018-01-12T13:03:49Z</time>
      </trkpt>
      <trkpt lat="42.99134" lon="-0.22643">
        <ele>1528.7</ele>
        <time>2018-01-12T13:03:58Z</time>
      </trkpt>
      <trkpt lat="42.99138" lon="-0.22632">
        <ele>1530</ele>
        <time>2018-01-12T13:04:04Z</time>
      </trkpt>
      <trkpt lat="42.99141" lon="-0.22621">
        <ele>1530.9</ele>
        <time>2018-01-12T13:04:10Z</time>
      </trkpt>
      <trkpt lat="42.99145" lon="-0.22611">
        <ele>1531.4</ele>
        <time>2018-01-12T13:04:16Z</time>
      </trkpt>
      <trkpt lat="42.99147" lon="-0.226">
        <ele>1532</ele>
        <time>2018-01-12T13:04:21Z</time>
      </trkpt>
      <trkpt lat="42.99147" lon="-0.22589">
        <ele>1532.2</ele>
        <time>2018-01-12T13:04:27Z</time>
      </trkpt>
      <trkpt lat="42.99146" lon="-0.22579">
        <ele>1532.3</ele>
        <time>2018-01-12T13:05:28Z</time>
      </trkpt>
      <trkpt lat="42.99145" lon="-0.22577">
        <ele>1532.3</ele>
        <time>2018-01-12T13:05:29Z</time>
      </trkpt>
      <trkpt lat="42.99135" lon="-0.22559">
        <ele>1531.2</ele>
        <time>2018-01-12T13:05:39Z</time>
      </trkpt>
      <trkpt lat="42.9913" lon="-0.22552">
        <ele>1531.9</ele>
        <time>2018-01-12T13:05:43Z</time>
      </trkpt>
      <trkpt lat="42.99125" lon="-0.22544">
        <ele>1531.8</ele>
        <time>2018-01-12T13:05:48Z</time>
      </trkpt>
      <trkpt lat="42.99119" lon="-0.22536">
        <ele>1531.8</ele>
        <time>2018-01-12T13:05:53Z</time>
      </trkpt>
      <trkpt lat="42.99114" lon="-0.22528">
        <ele>1531.4</ele>
        <time>2018-01-12T13:05:57Z</time>
      </trkpt>
      <trkpt lat="42.9911" lon="-0.22519">
        <ele>1531.8</ele>
        <time>2018-01-12T13:06:01Z</time>
      </trkpt>
      <trkpt lat="42.99106" lon="-0.22511">
        <ele>1531.8</ele>
        <time>2018-01-12T13:06:05Z</time>
      </trkpt>
      <trkpt lat="42.99103" lon="-0.225">
        <ele>1531.5</ele>
        <time>2018-01-12T13:06:09Z</time>
      </trkpt>
      <trkpt lat="42.99101" lon="-0.2249">
        <ele>1531.3</ele>
        <time>2018-01-12T13:06:13Z</time>
      </trkpt>
      <trkpt lat="42.99099" lon="-0.2248">
        <ele>1531.5</ele>
        <time>2018-01-12T13:06:17Z</time>
      </trkpt>
      <trkpt lat="42.99096" lon="-0.2247">
        <ele>1531.7</ele>
        <time>2018-01-12T13:06:22Z</time>
      </trkpt>
      <trkpt lat="42.99092" lon="-0.2246">
        <ele>1532.1</ele>
        <time>2018-01-12T13:06:28Z</time>
      </trkpt>
      <trkpt lat="42.99088" lon="-0.22451">
        <ele>1532.9</ele>
        <time>2018-01-12T13:06:34Z</time>
      </trkpt>
      <trkpt lat="42.99087" lon="-0.22449">
        <ele>1533.2</ele>
        <time>2018-01-12T13:06:35Z</time>
      </trkpt>
      <trkpt lat="42.9908" lon="-0.22432">
        <ele>1535.5</ele>
        <time>2018-01-12T13:06:45Z</time>
      </trkpt>
      <trkpt lat="42.99077" lon="-0.22423">
        <ele>1536.4</ele>
        <time>2018-01-12T13:06:50Z</time>
      </trkpt>
      <trkpt lat="42.99074" lon="-0.22412">
        <ele>1536.3</ele>
        <time>2018-01-12T13:06:55Z</time>
      </trkpt>
      <trkpt lat="42.99071" lon="-0.22402">
        <ele>1536.1</ele>
        <time>2018-01-12T13:07:00Z</time>
      </trkpt>
      <trkpt lat="42.99068" lon="-0.22391">
        <ele>1536.4</ele>
        <time>2018-01-12T13:07:05Z</time>
      </trkpt>
      <trkpt lat="42.99065" lon="-0.22382">
        <ele>1537.1</ele>
        <time>2018-01-12T13:07:09Z</time>
      </trkpt>
      <trkpt lat="42.99062" lon="-0.22371">
        <ele>1536.3</ele>
        <time>2018-01-12T13:07:14Z</time>
      </trkpt>
      <trkpt lat="42.99059" lon="-0.22362">
        <ele>1536</ele>
        <time>2018-01-12T13:07:18Z</time>
      </trkpt>
      <trkpt lat="42.99055" lon="-0.22352">
        <ele>1536</ele>
        <time>2018-01-12T13:07:23Z</time>
      </trkpt>
      <trkpt lat="42.99051" lon="-0.22343">
        <ele>1536.5</ele>
        <time>2018-01-12T13:07:27Z</time>
      </trkpt>
      <trkpt lat="42.99047" lon="-0.22332">
        <ele>1537.5</ele>
        <time>2018-01-12T13:07:31Z</time>
      </trkpt>
      <trkpt lat="42.99041" lon="-0.22324">
        <ele>1536.4</ele>
        <time>2018-01-12T13:07:35Z</time>
      </trkpt>
      <trkpt lat="42.99035" lon="-0.22318">
        <ele>1535.8</ele>
        <time>2018-01-12T13:07:38Z</time>
      </trkpt>
      <trkpt lat="42.99033" lon="-0.22315">
        <ele>1535.6</ele>
        <time>2018-01-12T13:07:39Z</time>
      </trkpt>
      <trkpt lat="42.99021" lon="-0.22307">
        <ele>1535.9</ele>
        <time>2018-01-12T13:07:45Z</time>
      </trkpt>
      <trkpt lat="42.99014" lon="-0.223">
        <ele>1535.7</ele>
        <time>2018-01-12T13:07:50Z</time>
      </trkpt>
      <trkpt lat="42.99007" lon="-0.22295">
        <ele>1535.6</ele>
        <time>2018-01-12T13:07:54Z</time>
      </trkpt>
      <trkpt lat="42.99001" lon="-0.22288">
        <ele>1535.2</ele>
        <time>2018-01-12T13:07:59Z</time>
      </trkpt>
      <trkpt lat="42.98995" lon="-0.22282">
        <ele>1535.4</ele>
        <time>2018-01-12T13:08:03Z</time>
      </trkpt>
      <trkpt lat="42.98988" lon="-0.22274">
        <ele>1535.4</ele>
        <time>2018-01-12T13:08:08Z</time>
      </trkpt>
      <trkpt lat="42.98983" lon="-0.22265">
        <ele>1535.7</ele>
        <time>2018-01-12T13:08:12Z</time>
      </trkpt>
      <trkpt lat="42.98978" lon="-0.22255">
        <ele>1535.8</ele>
        <time>2018-01-12T13:08:16Z</time>
      </trkpt>
      <trkpt lat="42.98972" lon="-0.22247">
        <ele>1535.4</ele>
        <time>2018-01-12T13:08:20Z</time>
      </trkpt>
      <trkpt lat="42.98964" lon="-0.22241">
        <ele>1535.2</ele>
        <time>2018-01-12T13:08:24Z</time>
      </trkpt>
      <trkpt lat="42.98958" lon="-0.22234">
        <ele>1535.2</ele>
        <time>2018-01-12T13:08:28Z</time>
      </trkpt>
      <trkpt lat="42.98951" lon="-0.22226">
        <ele>1535</ele>
        <time>2018-01-12T13:08:32Z</time>
      </trkpt>
      <trkpt lat="42.98945" lon="-0.2222">
        <ele>1535.6</ele>
        <time>2018-01-12T13:08:36Z</time>
      </trkpt>
      <trkpt lat="42.98938" lon="-0.22215">
        <ele>1535.2</ele>
        <time>2018-01-12T13:08:40Z</time>
      </trkpt>
      <trkpt lat="42.9893" lon="-0.22212">
        <ele>1534.5</ele>
        <time>2018-01-12T13:08:44Z</time>
      </trkpt>
      <trkpt lat="42.98927" lon="-0.22212">
        <ele>1534.2</ele>
        <time>2018-01-12T13:08:45Z</time>
      </trkpt>
      <trkpt lat="42.98913" lon="-0.22208">
        <ele>1533.9</ele>
        <time>2018-01-12T13:08:54Z</time>
      </trkpt>
      <trkpt lat="42.98905" lon="-0.22205">
        <ele>1534.4</ele>
        <time>2018-01-12T13:08:59Z</time>
      </trkpt>
      <trkpt lat="42.98898" lon="-0.22202">
        <ele>1534.8</ele>
        <time>2018-01-12T13:09:02Z</time>
      </trkpt>
      <trkpt lat="42.98892" lon="-0.22194">
        <ele>1535.1</ele>
        <time>2018-01-12T13:09:05Z</time>
      </trkpt>
      <trkpt lat="42.98888" lon="-0.22185">
        <ele>1534.5</ele>
        <time>2018-01-12T13:09:09Z</time>
      </trkpt>
      <trkpt lat="42.98884" lon="-0.22174">
        <ele>1534.5</ele>
        <time>2018-01-12T13:09:13Z</time>
      </trkpt>
      <trkpt lat="42.98881" lon="-0.22166">
        <ele>1533.8</ele>
        <time>2018-01-12T13:09:16Z</time>
      </trkpt>
      <trkpt lat="42.98877" lon="-0.22155">
        <ele>1533.5</ele>
        <time>2018-01-12T13:09:20Z</time>
      </trkpt>
      <trkpt lat="42.98874" lon="-0.22144">
        <ele>1533.5</ele>
        <time>2018-01-12T13:09:24Z</time>
      </trkpt>
      <trkpt lat="42.9887" lon="-0.22133">
        <ele>1533.9</ele>
        <time>2018-01-12T13:09:28Z</time>
      </trkpt>
      <trkpt lat="42.98868" lon="-0.22123">
        <ele>1534.1</ele>
        <time>2018-01-12T13:09:31Z</time>
      </trkpt>
      <trkpt lat="42.98866" lon="-0.22112">
        <ele>1533.9</ele>
        <time>2018-01-12T13:09:35Z</time>
      </trkpt>
      <trkpt lat="42.98865" lon="-0.221">
        <ele>1534.7</ele>
        <time>2018-01-12T13:09:39Z</time>
      </trkpt>
      <trkpt lat="42.98866" lon="-0.22089">
        <ele>1534.3</ele>
        <time>2018-01-12T13:09:43Z</time>
      </trkpt>
      <trkpt lat="42.98865" lon="-0.22079">
        <ele>1533.4</ele>
        <time>2018-01-12T13:09:47Z</time>
      </trkpt>
      <trkpt lat="42.98865" lon="-0.22076">
        <ele>1533.2</ele>
        <time>2018-01-12T13:09:48Z</time>
      </trkpt>
      <trkpt lat="42.98864" lon="-0.22057">
        <ele>1534.6</ele>
        <time>2018-01-12T13:09:55Z</time>
      </trkpt>
      <trkpt lat="42.98865" lon="-0.22046">
        <ele>1533.9</ele>
        <time>2018-01-12T13:09:59Z</time>
      </trkpt>
      <trkpt lat="42.98866" lon="-0.22034">
        <ele>1534.3</ele>
        <time>2018-01-12T13:10:04Z</time>
      </trkpt>
      <trkpt lat="42.98868" lon="-0.22023">
        <ele>1535.3</ele>
        <time>2018-01-12T13:10:09Z</time>
      </trkpt>
      <trkpt lat="42.9887" lon="-0.22015">
        <ele>1535.2</ele>
        <time>2018-01-12T13:10:12Z</time>
      </trkpt>
      <trkpt lat="42.98872" lon="-0.22003">
        <ele>1535</ele>
        <time>2018-01-12T13:10:15Z</time>
      </trkpt>
      <trkpt lat="42.98874" lon="-0.21994">
        <ele>1534.8</ele>
        <time>2018-01-12T13:10:17Z</time>
      </trkpt>
      <trkpt lat="42.98876" lon="-0.21983">
        <ele>1534.1</ele>
        <time>2018-01-12T13:10:19Z</time>
      </trkpt>
      <trkpt lat="42.98878" lon="-0.21972">
        <ele>1533.6</ele>
        <time>2018-01-12T13:10:21Z</time>
      </trkpt>
      <trkpt lat="42.9888" lon="-0.21961">
        <ele>1533.2</ele>
        <time>2018-01-12T13:10:23Z</time>
      </trkpt>
      <trkpt lat="42.98881" lon="-0.21949">
        <ele>1532.5</ele>
        <time>2018-01-12T13:10:25Z</time>
      </trkpt>
      <trkpt lat="42.98883" lon="-0.21938">
        <ele>1532.1</ele>
        <time>2018-01-12T13:10:27Z</time>
      </trkpt>
      <trkpt lat="42.98885" lon="-0.21928">
        <ele>1532</ele>
        <time>2018-01-12T13:10:29Z</time>
      </trkpt>
      <trkpt lat="42.98887" lon="-0.21919">
        <ele>1531.6</ele>
        <time>2018-01-12T13:10:31Z</time>
      </trkpt>
      <trkpt lat="42.98889" lon="-0.21908">
        <ele>1531.2</ele>
        <time>2018-01-12T13:10:33Z</time>
      </trkpt>
      <trkpt lat="42.98892" lon="-0.21897">
        <ele>1530.3</ele>
        <time>2018-01-12T13:10:35Z</time>
      </trkpt>
      <trkpt lat="42.98894" lon="-0.21885">
        <ele>1529.1</ele>
        <time>2018-01-12T13:10:37Z</time>
      </trkpt>
      <trkpt lat="42.98895" lon="-0.2188">
        <ele>1528.5</ele>
        <time>2018-01-12T13:10:38Z</time>
      </trkpt>
      <trkpt lat="42.98896" lon="-0.21873">
        <ele>1528</ele>
        <time>2018-01-12T13:10:39Z</time>
      </trkpt>
      <trkpt lat="42.98898" lon="-0.21861">
        <ele>1527.2</ele>
        <time>2018-01-12T13:10:41Z</time>
      </trkpt>
      <trkpt lat="42.98898" lon="-0.21851">
        <ele>1526.5</ele>
        <time>2018-01-12T13:10:43Z</time>
      </trkpt>
      <trkpt lat="42.98897" lon="-0.21842">
        <ele>1525.8</ele>
        <time>2018-01-12T13:10:45Z</time>
      </trkpt>
      <trkpt lat="42.98895" lon="-0.2183">
        <ele>1525.9</ele>
        <time>2018-01-12T13:10:48Z</time>
      </trkpt>
      <trkpt lat="42.98895" lon="-0.21826">
        <ele>1526</ele>
        <time>2018-01-12T13:10:49Z</time>
      </trkpt>
      <trkpt lat="42.98894" lon="-0.21814">
        <ele>1525</ele>
        <time>2018-01-12T13:10:52Z</time>
      </trkpt>
      <trkpt lat="42.98893" lon="-0.21804">
        <ele>1525</ele>
        <time>2018-01-12T13:10:54Z</time>
      </trkpt>
      <trkpt lat="42.98892" lon="-0.21793">
        <ele>1524.5</ele>
        <time>2018-01-12T13:10:56Z</time>
      </trkpt>
      <trkpt lat="42.98892" lon="-0.21781">
        <ele>1523.8</ele>
        <time>2018-01-12T13:10:58Z</time>
      </trkpt>
      <trkpt lat="42.98892" lon="-0.21769">
        <ele>1523.4</ele>
        <time>2018-01-12T13:11:00Z</time>
      </trkpt>
      <trkpt lat="42.98892" lon="-0.21763">
        <ele>1523.3</ele>
        <time>2018-01-12T13:11:01Z</time>
      </trkpt>
      <trkpt lat="42.98892" lon="-0.21757">
        <ele>1523.2</ele>
        <time>2018-01-12T13:11:02Z</time>
      </trkpt>
      <trkpt lat="42.98892" lon="-0.2175">
        <ele>1522.9</ele>
        <time>2018-01-12T13:11:03Z</time>
      </trkpt>
      <trkpt lat="42.98892" lon="-0.21744">
        <ele>1522.7</ele>
        <time>2018-01-12T13:11:04Z</time>
      </trkpt>
      <trkpt lat="42.98891" lon="-0.21738">
        <ele>1522.6</ele>
        <time>2018-01-12T13:11:05Z</time>
      </trkpt>
      <trkpt lat="42.9889" lon="-0.21731">
        <ele>1521.9</ele>
        <time>2018-01-12T13:11:06Z</time>
      </trkpt>
      <trkpt lat="42.98888" lon="-0.21719">
        <ele>1521.1</ele>
        <time>2018-01-12T13:11:08Z</time>
      </trkpt>
      <trkpt lat="42.98886" lon="-0.2171">
        <ele>1520.2</ele>
        <time>2018-01-12T13:11:10Z</time>
      </trkpt>
      <trkpt lat="42.98883" lon="-0.21701">
        <ele>1519.6</ele>
        <time>2018-01-12T13:11:12Z</time>
      </trkpt>
      <trkpt lat="42.9888" lon="-0.21693">
        <ele>1519.3</ele>
        <time>2018-01-12T13:11:14Z</time>
      </trkpt>
      <trkpt lat="42.98876" lon="-0.21682">
        <ele>1518.1</ele>
        <time>2018-01-12T13:11:17Z</time>
      </trkpt>
      <trkpt lat="42.98872" lon="-0.21674">
        <ele>1517.5</ele>
        <time>2018-01-12T13:11:20Z</time>
      </trkpt>
      <trkpt lat="42.98867" lon="-0.21665">
        <ele>1517.8</ele>
        <time>2018-01-12T13:11:24Z</time>
      </trkpt>
      <trkpt lat="42.9886" lon="-0.21662">
        <ele>1517.5</ele>
        <time>2018-01-12T13:11:27Z</time>
      </trkpt>
      <trkpt lat="42.98852" lon="-0.2166">
        <ele>1517.7</ele>
        <time>2018-01-12T13:11:30Z</time>
      </trkpt>
      <trkpt lat="42.98843" lon="-0.21662">
        <ele>1517</ele>
        <time>2018-01-12T13:11:33Z</time>
      </trkpt>
      <trkpt lat="42.98838" lon="-0.21664">
        <ele>1516.7</ele>
        <time>2018-01-12T13:11:35Z</time>
      </trkpt>
      <trkpt lat="42.9883" lon="-0.21666">
        <ele>1516.3</ele>
        <time>2018-01-12T13:11:37Z</time>
      </trkpt>
      <trkpt lat="42.98823" lon="-0.21669">
        <ele>1516.3</ele>
        <time>2018-01-12T13:11:39Z</time>
      </trkpt>
      <trkpt lat="42.98817" lon="-0.21672">
        <ele>1515.9</ele>
        <time>2018-01-12T13:11:41Z</time>
      </trkpt>
      <trkpt lat="42.9881" lon="-0.21676">
        <ele>1515.5</ele>
        <time>2018-01-12T13:11:43Z</time>
      </trkpt>
      <trkpt lat="42.98804" lon="-0.21677">
        <ele>1514.6</ele>
        <time>2018-01-12T13:11:45Z</time>
      </trkpt>
      <trkpt lat="42.988" lon="-0.2168">
        <ele>1514.3</ele>
        <time>2018-01-12T13:11:46Z</time>
      </trkpt>
      <trkpt lat="42.98795" lon="-0.21682">
        <ele>1514</ele>
        <time>2018-01-12T13:11:47Z</time>
      </trkpt>
      <trkpt lat="42.9879" lon="-0.21684">
        <ele>1513.7</ele>
        <time>2018-01-12T13:11:48Z</time>
      </trkpt>
      <trkpt lat="42.98782" lon="-0.21688">
        <ele>1512.9</ele>
        <time>2018-01-12T13:11:50Z</time>
      </trkpt>
      <trkpt lat="42.98777" lon="-0.21689">
        <ele>1512.4</ele>
        <time>2018-01-12T13:11:51Z</time>
      </trkpt>
      <trkpt lat="42.98766" lon="-0.2169">
        <ele>1511.7</ele>
        <time>2018-01-12T13:11:54Z</time>
      </trkpt>
      <trkpt lat="42.98759" lon="-0.21692">
        <ele>1511.5</ele>
        <time>2018-01-12T13:11:56Z</time>
      </trkpt>
      <trkpt lat="42.98751" lon="-0.21694">
        <ele>1510.5</ele>
        <time>2018-01-12T13:11:58Z</time>
      </trkpt>
      <trkpt lat="42.98744" lon="-0.21694">
        <ele>1509.8</ele>
        <time>2018-01-12T13:12:00Z</time>
      </trkpt>
      <trkpt lat="42.98738" lon="-0.21694">
        <ele>1509.2</ele>
        <time>2018-01-12T13:12:02Z</time>
      </trkpt>
      <trkpt lat="42.98729" lon="-0.21694">
        <ele>1508</ele>
        <time>2018-01-12T13:12:05Z</time>
      </trkpt>
      <trkpt lat="42.98723" lon="-0.21692">
        <ele>1507.4</ele>
        <time>2018-01-12T13:12:07Z</time>
      </trkpt>
      <trkpt lat="42.98716" lon="-0.2169">
        <ele>1507</ele>
        <time>2018-01-12T13:12:09Z</time>
      </trkpt>
      <trkpt lat="42.98708" lon="-0.21686">
        <ele>1506.8</ele>
        <time>2018-01-12T13:12:11Z</time>
      </trkpt>
      <trkpt lat="42.987" lon="-0.21682">
        <ele>1506.6</ele>
        <time>2018-01-12T13:12:13Z</time>
      </trkpt>
      <trkpt lat="42.98695" lon="-0.2168">
        <ele>1506.4</ele>
        <time>2018-01-12T13:12:14Z</time>
      </trkpt>
      <trkpt lat="42.98691" lon="-0.21678">
        <ele>1506.3</ele>
        <time>2018-01-12T13:12:15Z</time>
      </trkpt>
      <trkpt lat="42.98686" lon="-0.21676">
        <ele>1505.7</ele>
        <time>2018-01-12T13:12:16Z</time>
      </trkpt>
      <trkpt lat="42.98682" lon="-0.21676">
        <ele>1505.3</ele>
        <time>2018-01-12T13:12:17Z</time>
      </trkpt>
      <trkpt lat="42.98676" lon="-0.21676">
        <ele>1505</ele>
        <time>2018-01-12T13:12:18Z</time>
      </trkpt>
      <trkpt lat="42.98671" lon="-0.21677">
        <ele>1504.3</ele>
        <time>2018-01-12T13:12:19Z</time>
      </trkpt>
      <trkpt lat="42.98667" lon="-0.21677">
        <ele>1503.7</ele>
        <time>2018-01-12T13:12:20Z</time>
      </trkpt>
      <trkpt lat="42.98658" lon="-0.21677">
        <ele>1502.9</ele>
        <time>2018-01-12T13:12:22Z</time>
      </trkpt>
      <trkpt lat="42.98652" lon="-0.21677">
        <ele>1502.3</ele>
        <time>2018-01-12T13:12:24Z</time>
      </trkpt>
      <trkpt lat="42.98644" lon="-0.21679">
        <ele>1502</ele>
        <time>2018-01-12T13:12:27Z</time>
      </trkpt>
      <trkpt lat="42.98637" lon="-0.21678">
        <ele>1502.1</ele>
        <time>2018-01-12T13:12:30Z</time>
      </trkpt>
      <trkpt lat="42.9863" lon="-0.21675">
        <ele>1501.5</ele>
        <time>2018-01-12T13:12:33Z</time>
      </trkpt>
      <trkpt lat="42.98628" lon="-0.21664">
        <ele>1500.3</ele>
        <time>2018-01-12T13:12:37Z</time>
      </trkpt>
      <trkpt lat="42.98633" lon="-0.21658">
        <ele>1499.5</ele>
        <time>2018-01-12T13:12:39Z</time>
      </trkpt>
      <trkpt lat="42.98638" lon="-0.21653">
        <ele>1499</ele>
        <time>2018-01-12T13:12:41Z</time>
      </trkpt>
      <trkpt lat="42.98644" lon="-0.21645">
        <ele>1497.9</ele>
        <time>2018-01-12T13:12:45Z</time>
      </trkpt>
      <trkpt lat="42.9865" lon="-0.21639">
        <ele>1497.2</ele>
        <time>2018-01-12T13:12:49Z</time>
      </trkpt>
      <trkpt lat="42.98657" lon="-0.21633">
        <ele>1496.5</ele>
        <time>2018-01-12T13:12:53Z</time>
      </trkpt>
      <trkpt lat="42.98659" lon="-0.21632">
        <ele>1496.3</ele>
        <time>2018-01-12T13:12:54Z</time>
      </trkpt>
      <trkpt lat="42.98673" lon="-0.21625">
        <ele>1497</ele>
        <time>2018-01-12T13:13:04Z</time>
      </trkpt>
      <trkpt lat="42.98681" lon="-0.21625">
        <ele>1498.5</ele>
        <time>2018-01-12T13:13:12Z</time>
      </trkpt>
      <trkpt lat="42.9869" lon="-0.21625">
        <ele>1499.1</ele>
        <time>2018-01-12T13:13:17Z</time>
      </trkpt>
      <trkpt lat="42.98697" lon="-0.21629">
        <ele>1499.1</ele>
        <time>2018-01-12T13:13:20Z</time>
      </trkpt>
      <trkpt lat="42.98704" lon="-0.2163">
        <ele>1499.3</ele>
        <time>2018-01-12T13:13:23Z</time>
      </trkpt>
      <trkpt lat="42.98711" lon="-0.21632">
        <ele>1499.2</ele>
        <time>2018-01-12T13:13:26Z</time>
      </trkpt>
      <trkpt lat="42.9872" lon="-0.21634">
        <ele>1498.4</ele>
        <time>2018-01-12T13:13:29Z</time>
      </trkpt>
      <trkpt lat="42.98728" lon="-0.21636">
        <ele>1497.9</ele>
        <time>2018-01-12T13:13:32Z</time>
      </trkpt>
      <trkpt lat="42.98737" lon="-0.21637">
        <ele>1496.6</ele>
        <time>2018-01-12T13:13:35Z</time>
      </trkpt>
      <trkpt lat="42.98743" lon="-0.21637">
        <ele>1496.5</ele>
        <time>2018-01-12T13:13:37Z</time>
      </trkpt>
      <trkpt lat="42.9875" lon="-0.21637">
        <ele>1496.3</ele>
        <time>2018-01-12T13:13:39Z</time>
      </trkpt>
      <trkpt lat="42.98757" lon="-0.21638">
        <ele>1496.2</ele>
        <time>2018-01-12T13:13:41Z</time>
      </trkpt>
      <trkpt lat="42.98765" lon="-0.21637">
        <ele>1495.8</ele>
        <time>2018-01-12T13:13:44Z</time>
      </trkpt>
      <trkpt lat="42.98771" lon="-0.21633">
        <ele>1495.6</ele>
        <time>2018-01-12T13:13:47Z</time>
      </trkpt>
      <trkpt lat="42.98778" lon="-0.21629">
        <ele>1495.7</ele>
        <time>2018-01-12T13:13:50Z</time>
      </trkpt>
      <trkpt lat="42.98783" lon="-0.21626">
        <ele>1495.4</ele>
        <time>2018-01-12T13:13:52Z</time>
      </trkpt>
      <trkpt lat="42.9879" lon="-0.21623">
        <ele>1494.8</ele>
        <time>2018-01-12T13:13:54Z</time>
      </trkpt>
      <trkpt lat="42.98792" lon="-0.21622">
        <ele>1494.7</ele>
        <time>2018-01-12T13:13:55Z</time>
      </trkpt>
      <trkpt lat="42.98801" lon="-0.21616">
        <ele>1494.1</ele>
        <time>2018-01-12T13:13:58Z</time>
      </trkpt>
      <trkpt lat="42.98807" lon="-0.21611">
        <ele>1493.6</ele>
        <time>2018-01-12T13:14:00Z</time>
      </trkpt>
      <trkpt lat="42.98813" lon="-0.21605">
        <ele>1492.7</ele>
        <time>2018-01-12T13:14:02Z</time>
      </trkpt>
      <trkpt lat="42.9882" lon="-0.21601">
        <ele>1492.2</ele>
        <time>2018-01-12T13:14:04Z</time>
      </trkpt>
      <trkpt lat="42.98827" lon="-0.21596">
        <ele>1491.5</ele>
        <time>2018-01-12T13:14:06Z</time>
      </trkpt>
      <trkpt lat="42.98834" lon="-0.21591">
        <ele>1491.1</ele>
        <time>2018-01-12T13:14:08Z</time>
      </trkpt>
      <trkpt lat="42.9884" lon="-0.21586">
        <ele>1490.8</ele>
        <time>2018-01-12T13:14:10Z</time>
      </trkpt>
      <trkpt lat="42.98846" lon="-0.21581">
        <ele>1490.2</ele>
        <time>2018-01-12T13:14:12Z</time>
      </trkpt>
      <trkpt lat="42.98852" lon="-0.21574">
        <ele>1489.5</ele>
        <time>2018-01-12T13:14:14Z</time>
      </trkpt>
      <trkpt lat="42.98859" lon="-0.21569">
        <ele>1488.7</ele>
        <time>2018-01-12T13:14:16Z</time>
      </trkpt>
      <trkpt lat="42.98866" lon="-0.21562">
        <ele>1488.1</ele>
        <time>2018-01-12T13:14:18Z</time>
      </trkpt>
      <trkpt lat="42.98873" lon="-0.21554">
        <ele>1487.8</ele>
        <time>2018-01-12T13:14:20Z</time>
      </trkpt>
      <trkpt lat="42.98879" lon="-0.21546">
        <ele>1486.6</ele>
        <time>2018-01-12T13:14:22Z</time>
      </trkpt>
      <trkpt lat="42.98883" lon="-0.21537">
        <ele>1485.6</ele>
        <time>2018-01-12T13:14:24Z</time>
      </trkpt>
      <trkpt lat="42.98887" lon="-0.21529">
        <ele>1484.8</ele>
        <time>2018-01-12T13:14:26Z</time>
      </trkpt>
      <trkpt lat="42.98891" lon="-0.21524">
        <ele>1483.8</ele>
        <time>2018-01-12T13:14:28Z</time>
      </trkpt>
      <trkpt lat="42.98894" lon="-0.21516">
        <ele>1483.3</ele>
        <time>2018-01-12T13:14:30Z</time>
      </trkpt>
      <trkpt lat="42.98897" lon="-0.21507">
        <ele>1483.1</ele>
        <time>2018-01-12T13:14:32Z</time>
      </trkpt>
      <trkpt lat="42.989" lon="-0.21499">
        <ele>1483</ele>
        <time>2018-01-12T13:14:34Z</time>
      </trkpt>
      <trkpt lat="42.98904" lon="-0.21491">
        <ele>1482.6</ele>
        <time>2018-01-12T13:14:36Z</time>
      </trkpt>
      <trkpt lat="42.98909" lon="-0.21481">
        <ele>1482.2</ele>
        <time>2018-01-12T13:14:39Z</time>
      </trkpt>
      <trkpt lat="42.98913" lon="-0.21475">
        <ele>1482.1</ele>
        <time>2018-01-12T13:14:41Z</time>
      </trkpt>
      <trkpt lat="42.98918" lon="-0.21465">
        <ele>1481.5</ele>
        <time>2018-01-12T13:14:44Z</time>
      </trkpt>
      <trkpt lat="42.98921" lon="-0.21457">
        <ele>1481.3</ele>
        <time>2018-01-12T13:14:46Z</time>
      </trkpt>
      <trkpt lat="42.98923" lon="-0.21448">
        <ele>1481.3</ele>
        <time>2018-01-12T13:14:48Z</time>
      </trkpt>
      <trkpt lat="42.98925" lon="-0.2144">
        <ele>1480.6</ele>
        <time>2018-01-12T13:14:50Z</time>
      </trkpt>
      <trkpt lat="42.98928" lon="-0.21431">
        <ele>1480.1</ele>
        <time>2018-01-12T13:14:52Z</time>
      </trkpt>
      <trkpt lat="42.98931" lon="-0.21423">
        <ele>1479.6</ele>
        <time>2018-01-12T13:14:54Z</time>
      </trkpt>
      <trkpt lat="42.98933" lon="-0.21414">
        <ele>1479.4</ele>
        <time>2018-01-12T13:14:56Z</time>
      </trkpt>
      <trkpt lat="42.98935" lon="-0.2141">
        <ele>1479.4</ele>
        <time>2018-01-12T13:14:57Z</time>
      </trkpt>
      <trkpt lat="42.98942" lon="-0.21401">
        <ele>1478.7</ele>
        <time>2018-01-12T13:15:00Z</time>
      </trkpt>
      <trkpt lat="42.98948" lon="-0.21395">
        <ele>1478.1</ele>
        <time>2018-01-12T13:15:02Z</time>
      </trkpt>
      <trkpt lat="42.98953" lon="-0.21389">
        <ele>1477.6</ele>
        <time>2018-01-12T13:15:04Z</time>
      </trkpt>
      <trkpt lat="42.98959" lon="-0.21384">
        <ele>1477.3</ele>
        <time>2018-01-12T13:15:06Z</time>
      </trkpt>
      <trkpt lat="42.98965" lon="-0.2138">
        <ele>1477</ele>
        <time>2018-01-12T13:15:08Z</time>
      </trkpt>
      <trkpt lat="42.98971" lon="-0.21376">
        <ele>1476.6</ele>
        <time>2018-01-12T13:15:10Z</time>
      </trkpt>
      <trkpt lat="42.98977" lon="-0.21371">
        <ele>1476.1</ele>
        <time>2018-01-12T13:15:12Z</time>
      </trkpt>
      <trkpt lat="42.98983" lon="-0.21365">
        <ele>1475.5</ele>
        <time>2018-01-12T13:15:14Z</time>
      </trkpt>
      <trkpt lat="42.9899" lon="-0.21358">
        <ele>1474.7</ele>
        <time>2018-01-12T13:15:16Z</time>
      </trkpt>
      <trkpt lat="42.98993" lon="-0.21352">
        <ele>1474.4</ele>
        <time>2018-01-12T13:15:17Z</time>
      </trkpt>
      <trkpt lat="42.98998" lon="-0.21342">
        <ele>1472.5</ele>
        <time>2018-01-12T13:15:19Z</time>
      </trkpt>
      <trkpt lat="42.99002" lon="-0.21332">
        <ele>1471.2</ele>
        <time>2018-01-12T13:15:21Z</time>
      </trkpt>
      <trkpt lat="42.99004" lon="-0.21325">
        <ele>1470.6</ele>
        <time>2018-01-12T13:15:22Z</time>
      </trkpt>
      <trkpt lat="42.99005" lon="-0.21319">
        <ele>1470.2</ele>
        <time>2018-01-12T13:15:23Z</time>
      </trkpt>
      <trkpt lat="42.99008" lon="-0.21307">
        <ele>1468.4</ele>
        <time>2018-01-12T13:15:25Z</time>
      </trkpt>
      <trkpt lat="42.99011" lon="-0.21296">
        <ele>1467.1</ele>
        <time>2018-01-12T13:15:28Z</time>
      </trkpt>
      <trkpt lat="42.99013" lon="-0.21285">
        <ele>1466.7</ele>
        <time>2018-01-12T13:15:33Z</time>
      </trkpt>
      <trkpt lat="42.99017" lon="-0.21276">
        <ele>1467.6</ele>
        <time>2018-01-12T13:15:37Z</time>
      </trkpt>
      <trkpt lat="42.99021" lon="-0.21266">
        <ele>1467.6</ele>
        <time>2018-01-12T13:15:41Z</time>
      </trkpt>
      <trkpt lat="42.99025" lon="-0.21257">
        <ele>1467.4</ele>
        <time>2018-01-12T13:15:45Z</time>
      </trkpt>
      <trkpt lat="42.9903" lon="-0.21248">
        <ele>1467.9</ele>
        <time>2018-01-12T13:15:49Z</time>
      </trkpt>
      <trkpt lat="42.99035" lon="-0.2124">
        <ele>1467.6</ele>
        <time>2018-01-12T13:15:53Z</time>
      </trkpt>
      <trkpt lat="42.99041" lon="-0.21232">
        <ele>1467.3</ele>
        <time>2018-01-12T13:15:57Z</time>
      </trkpt>
      <trkpt lat="42.99043" lon="-0.2123">
        <ele>1467.3</ele>
        <time>2018-01-12T13:15:58Z</time>
      </trkpt>
      <trkpt lat="42.99053" lon="-0.21219">
        <ele>1466.5</ele>
        <time>2018-01-12T13:16:02Z</time>
      </trkpt>
      <trkpt lat="42.99059" lon="-0.21212">
        <ele>1466.2</ele>
        <time>2018-01-12T13:16:04Z</time>
      </trkpt>
      <trkpt lat="42.99065" lon="-0.21204">
        <ele>1465.2</ele>
        <time>2018-01-12T13:16:06Z</time>
      </trkpt>
      <trkpt lat="42.99071" lon="-0.21194">
        <ele>1464.2</ele>
        <time>2018-01-12T13:16:08Z</time>
      </trkpt>
      <trkpt lat="42.99076" lon="-0.21185">
        <ele>1463.2</ele>
        <time>2018-01-12T13:16:10Z</time>
      </trkpt>
      <trkpt lat="42.99082" lon="-0.21179">
        <ele>1462.2</ele>
        <time>2018-01-12T13:16:12Z</time>
      </trkpt>
      <trkpt lat="42.99086" lon="-0.2117">
        <ele>1461.4</ele>
        <time>2018-01-12T13:16:14Z</time>
      </trkpt>
      <trkpt lat="42.99091" lon="-0.21162">
        <ele>1460.3</ele>
        <time>2018-01-12T13:16:16Z</time>
      </trkpt>
      <trkpt lat="42.99096" lon="-0.21153">
        <ele>1459.6</ele>
        <time>2018-01-12T13:16:18Z</time>
      </trkpt>
      <trkpt lat="42.99101" lon="-0.21145">
        <ele>1458.5</ele>
        <time>2018-01-12T13:16:20Z</time>
      </trkpt>
      <trkpt lat="42.99101" lon="-0.21133">
        <ele>1456.8</ele>
        <time>2018-01-12T13:16:27Z</time>
      </trkpt>
      <trkpt lat="42.99106" lon="-0.21123">
        <ele>1457</ele>
        <time>2018-01-12T13:17:06Z</time>
      </trkpt>
      <trkpt lat="42.99106" lon="-0.21123">
        <ele>1456.9</ele>
        <time>2018-01-12T13:17:07Z</time>
      </trkpt>
      <trkpt lat="42.99114" lon="-0.21136">
        <ele>1456.2</ele>
        <time>2018-01-12T13:17:21Z</time>
      </trkpt>
      <trkpt lat="42.99115" lon="-0.21147">
        <ele>1455</ele>
        <time>2018-01-12T13:17:23Z</time>
      </trkpt>
      <trkpt lat="42.99114" lon="-0.21157">
        <ele>1454.4</ele>
        <time>2018-01-12T13:17:25Z</time>
      </trkpt>
      <trkpt lat="42.99112" lon="-0.21167">
        <ele>1454.1</ele>
        <time>2018-01-12T13:17:27Z</time>
      </trkpt>
      <trkpt lat="42.99111" lon="-0.21176">
        <ele>1453.5</ele>
        <time>2018-01-12T13:17:29Z</time>
      </trkpt>
      <trkpt lat="42.99108" lon="-0.21186">
        <ele>1452.5</ele>
        <time>2018-01-12T13:17:32Z</time>
      </trkpt>
      <trkpt lat="42.99103" lon="-0.21197">
        <ele>1451.9</ele>
        <time>2018-01-12T13:17:36Z</time>
      </trkpt>
      <trkpt lat="42.99098" lon="-0.21207">
        <ele>1451.5</ele>
        <time>2018-01-12T13:17:41Z</time>
      </trkpt>
      <trkpt lat="42.99094" lon="-0.21217">
        <ele>1451.4</ele>
        <time>2018-01-12T13:17:46Z</time>
      </trkpt>
      <trkpt lat="42.99089" lon="-0.21227">
        <ele>1452.2</ele>
        <time>2018-01-12T13:17:51Z</time>
      </trkpt>
      <trkpt lat="42.99085" lon="-0.21235">
        <ele>1452.4</ele>
        <time>2018-01-12T13:17:55Z</time>
      </trkpt>
      <trkpt lat="42.99081" lon="-0.21244">
        <ele>1452.1</ele>
        <time>2018-01-12T13:17:59Z</time>
      </trkpt>
      <trkpt lat="42.99077" lon="-0.21254">
        <ele>1452.4</ele>
        <time>2018-01-12T13:18:04Z</time>
      </trkpt>
      <trkpt lat="42.99073" lon="-0.21263">
        <ele>1452.9</ele>
        <time>2018-01-12T13:18:08Z</time>
      </trkpt>
      <trkpt lat="42.99072" lon="-0.21265">
        <ele>1452.9</ele>
        <time>2018-01-12T13:18:09Z</time>
      </trkpt>
      <trkpt lat="42.99065" lon="-0.21282">
        <ele>1453.6</ele>
        <time>2018-01-12T13:18:17Z</time>
      </trkpt>
      <trkpt lat="42.99061" lon="-0.21292">
        <ele>1453.1</ele>
        <time>2018-01-12T13:18:22Z</time>
      </trkpt>
      <trkpt lat="42.99058" lon="-0.21302">
        <ele>1455.3</ele>
        <time>2018-01-12T13:18:28Z</time>
      </trkpt>
      <trkpt lat="42.99055" lon="-0.21313">
        <ele>1455.9</ele>
        <time>2018-01-12T13:18:34Z</time>
      </trkpt>
      <trkpt lat="42.99054" lon="-0.21324">
        <ele>1457</ele>
        <time>2018-01-12T13:18:39Z</time>
      </trkpt>
      <trkpt lat="42.99051" lon="-0.21335">
        <ele>1457.1</ele>
        <time>2018-01-12T13:18:45Z</time>
      </trkpt>
      <trkpt lat="42.99049" lon="-0.21345">
        <ele>1457.8</ele>
        <time>2018-01-12T13:18:50Z</time>
      </trkpt>
      <trkpt lat="42.99046" lon="-0.21356">
        <ele>1457.9</ele>
        <time>2018-01-12T13:18:55Z</time>
      </trkpt>
      <trkpt lat="42.99042" lon="-0.21365">
        <ele>1458.4</ele>
        <time>2018-01-12T13:18:59Z</time>
      </trkpt>
      <trkpt lat="42.99039" lon="-0.21376">
        <ele>1458.3</ele>
        <time>2018-01-12T13:19:04Z</time>
      </trkpt>
      <trkpt lat="42.99038" lon="-0.21387">
        <ele>1458.9</ele>
        <time>2018-01-12T13:19:09Z</time>
      </trkpt>
      <trkpt lat="42.99038" lon="-0.2139">
        <ele>1458.8</ele>
        <time>2018-01-12T13:19:10Z</time>
      </trkpt>
      <trkpt lat="42.99037" lon="-0.21409">
        <ele>1459.1</ele>
        <time>2018-01-12T13:19:17Z</time>
      </trkpt>
      <trkpt lat="42.99036" lon="-0.21418">
        <ele>1458.7</ele>
        <time>2018-01-12T13:19:20Z</time>
      </trkpt>
      <trkpt lat="42.99035" lon="-0.21429">
        <ele>1458.6</ele>
        <time>2018-01-12T13:19:23Z</time>
      </trkpt>
      <trkpt lat="42.99035" lon="-0.21437">
        <ele>1458.2</ele>
        <time>2018-01-12T13:19:25Z</time>
      </trkpt>
      <trkpt lat="42.99035" lon="-0.21446">
        <ele>1457.7</ele>
        <time>2018-01-12T13:19:27Z</time>
      </trkpt>
      <trkpt lat="42.99035" lon="-0.21454">
        <ele>1457.3</ele>
        <time>2018-01-12T13:19:29Z</time>
      </trkpt>
      <trkpt lat="42.99035" lon="-0.21463">
        <ele>1457.2</ele>
        <time>2018-01-12T13:19:31Z</time>
      </trkpt>
      <trkpt lat="42.99035" lon="-0.21473">
        <ele>1456.6</ele>
        <time>2018-01-12T13:19:33Z</time>
      </trkpt>
      <trkpt lat="42.99034" lon="-0.21482">
        <ele>1455.8</ele>
        <time>2018-01-12T13:19:35Z</time>
      </trkpt>
      <trkpt lat="42.99035" lon="-0.21492">
        <ele>1455</ele>
        <time>2018-01-12T13:19:37Z</time>
      </trkpt>
      <trkpt lat="42.99034" lon="-0.21502">
        <ele>1454.5</ele>
        <time>2018-01-12T13:19:39Z</time>
      </trkpt>
      <trkpt lat="42.99033" lon="-0.21512">
        <ele>1453.8</ele>
        <time>2018-01-12T13:19:41Z</time>
      </trkpt>
      <trkpt lat="42.99032" lon="-0.21522">
        <ele>1453.3</ele>
        <time>2018-01-12T13:19:43Z</time>
      </trkpt>
      <trkpt lat="42.99031" lon="-0.21531">
        <ele>1452.8</ele>
        <time>2018-01-12T13:19:45Z</time>
      </trkpt>
      <trkpt lat="42.99029" lon="-0.2154">
        <ele>1452.8</ele>
        <time>2018-01-12T13:19:47Z</time>
      </trkpt>
      <trkpt lat="42.99028" lon="-0.21549">
        <ele>1452.8</ele>
        <time>2018-01-12T13:19:49Z</time>
      </trkpt>
      <trkpt lat="42.99027" lon="-0.2156">
        <ele>1452.8</ele>
        <time>2018-01-12T13:19:51Z</time>
      </trkpt>
      <trkpt lat="42.99026" lon="-0.2157">
        <ele>1452.3</ele>
        <time>2018-01-12T13:19:53Z</time>
      </trkpt>
      <trkpt lat="42.99025" lon="-0.2158">
        <ele>1452</ele>
        <time>2018-01-12T13:19:55Z</time>
      </trkpt>
      <trkpt lat="42.99024" lon="-0.2159">
        <ele>1451.6</ele>
        <time>2018-01-12T13:19:57Z</time>
      </trkpt>
      <trkpt lat="42.99023" lon="-0.21599">
        <ele>1451.4</ele>
        <time>2018-01-12T13:19:59Z</time>
      </trkpt>
      <trkpt lat="42.9902" lon="-0.2161">
        <ele>1451</ele>
        <time>2018-01-12T13:20:02Z</time>
      </trkpt>
      <trkpt lat="42.99018" lon="-0.21621">
        <ele>1450.6</ele>
        <time>2018-01-12T13:20:05Z</time>
      </trkpt>
      <trkpt lat="42.99018" lon="-0.21631">
        <ele>1450.3</ele>
        <time>2018-01-12T13:20:08Z</time>
      </trkpt>
      <trkpt lat="42.99017" lon="-0.21642">
        <ele>1449.9</ele>
        <time>2018-01-12T13:20:11Z</time>
      </trkpt>
      <trkpt lat="42.99017" lon="-0.21645">
        <ele>1450</ele>
        <time>2018-01-12T13:20:12Z</time>
      </trkpt>
      <trkpt lat="42.99015" lon="-0.21664">
        <ele>1449.7</ele>
        <time>2018-01-12T13:20:18Z</time>
      </trkpt>
      <trkpt lat="42.99015" lon="-0.21674">
        <ele>1449.2</ele>
        <time>2018-01-12T13:20:21Z</time>
      </trkpt>
      <trkpt lat="42.99014" lon="-0.21685">
        <ele>1448.4</ele>
        <time>2018-01-12T13:20:25Z</time>
      </trkpt>
      <trkpt lat="42.99014" lon="-0.21695">
        <ele>1448.1</ele>
        <time>2018-01-12T13:20:28Z</time>
      </trkpt>
      <trkpt lat="42.99012" lon="-0.21704">
        <ele>1447.8</ele>
        <time>2018-01-12T13:20:31Z</time>
      </trkpt>
      <trkpt lat="42.99011" lon="-0.21715">
        <ele>1447.6</ele>
        <time>2018-01-12T13:20:35Z</time>
      </trkpt>
      <trkpt lat="42.99012" lon="-0.21725">
        <ele>1448.2</ele>
        <time>2018-01-12T13:20:39Z</time>
      </trkpt>
      <trkpt lat="42.99013" lon="-0.21735">
        <ele>1448.6</ele>
        <time>2018-01-12T13:20:43Z</time>
      </trkpt>
      <trkpt lat="42.99014" lon="-0.21746">
        <ele>1448.6</ele>
        <time>2018-01-12T13:20:47Z</time>
      </trkpt>
      <trkpt lat="42.99014" lon="-0.21758">
        <ele>1448.2</ele>
        <time>2018-01-12T13:20:51Z</time>
      </trkpt>
      <trkpt lat="42.99015" lon="-0.2177">
        <ele>1448.3</ele>
        <time>2018-01-12T13:20:56Z</time>
      </trkpt>
      <trkpt lat="42.99017" lon="-0.21782">
        <ele>1448.1</ele>
        <time>2018-01-12T13:21:01Z</time>
      </trkpt>
      <trkpt lat="42.99017" lon="-0.21793">
        <ele>1448.2</ele>
        <time>2018-01-12T13:21:05Z</time>
      </trkpt>
      <trkpt lat="42.99018" lon="-0.21804">
        <ele>1448.5</ele>
        <time>2018-01-12T13:21:10Z</time>
      </trkpt>
      <trkpt lat="42.9902" lon="-0.21815">
        <ele>1447.6</ele>
        <time>2018-01-12T13:21:14Z</time>
      </trkpt>
      <trkpt lat="42.9902" lon="-0.21818">
        <ele>1447.4</ele>
        <time>2018-01-12T13:21:15Z</time>
      </trkpt>
      <trkpt lat="42.99021" lon="-0.21837">
        <ele>1446.8</ele>
        <time>2018-01-12T13:21:22Z</time>
      </trkpt>
      <trkpt lat="42.99022" lon="-0.21847">
        <ele>1446.7</ele>
        <time>2018-01-12T13:21:26Z</time>
      </trkpt>
      <trkpt lat="42.99024" lon="-0.21858">
        <ele>1447.1</ele>
        <time>2018-01-12T13:21:30Z</time>
      </trkpt>
      <trkpt lat="42.99026" lon="-0.21868">
        <ele>1446.2</ele>
        <time>2018-01-12T13:21:33Z</time>
      </trkpt>
      <trkpt lat="42.99026" lon="-0.21877">
        <ele>1446</ele>
        <time>2018-01-12T13:21:36Z</time>
      </trkpt>
      <trkpt lat="42.99028" lon="-0.21889">
        <ele>1446.1</ele>
        <time>2018-01-12T13:21:40Z</time>
      </trkpt>
      <trkpt lat="42.99029" lon="-0.21899">
        <ele>1446.1</ele>
        <time>2018-01-12T13:21:44Z</time>
      </trkpt>
      <trkpt lat="42.9903" lon="-0.21911">
        <ele>1446.3</ele>
        <time>2018-01-12T13:21:49Z</time>
      </trkpt>
      <trkpt lat="42.99031" lon="-0.21923">
        <ele>1446.8</ele>
        <time>2018-01-12T13:21:54Z</time>
      </trkpt>
      <trkpt lat="42.99033" lon="-0.21934">
        <ele>1446.8</ele>
        <time>2018-01-12T13:21:59Z</time>
      </trkpt>
      <trkpt lat="42.99035" lon="-0.21944">
        <ele>1446.9</ele>
        <time>2018-01-12T13:22:04Z</time>
      </trkpt>
      <trkpt lat="42.9904" lon="-0.21953">
        <ele>1447.9</ele>
        <time>2018-01-12T13:22:10Z</time>
      </trkpt>
      <trkpt lat="42.99046" lon="-0.2196">
        <ele>1448.7</ele>
        <time>2018-01-12T13:22:16Z</time>
      </trkpt>
      <trkpt lat="42.99047" lon="-0.21961">
        <ele>1448.8</ele>
        <time>2018-01-12T13:22:17Z</time>
      </trkpt>
      <trkpt lat="42.99058" lon="-0.21975">
        <ele>1449.1</ele>
        <time>2018-01-12T13:22:28Z</time>
      </trkpt>
      <trkpt lat="42.99064" lon="-0.21983">
        <ele>1449.4</ele>
        <time>2018-01-12T13:22:34Z</time>
      </trkpt>
      <trkpt lat="42.9907" lon="-0.2199">
        <ele>1450.6</ele>
        <time>2018-01-12T13:22:40Z</time>
      </trkpt>
      <trkpt lat="42.99077" lon="-0.21998">
        <ele>1451</ele>
        <time>2018-01-12T13:22:47Z</time>
      </trkpt>
      <trkpt lat="42.99083" lon="-0.22005">
        <ele>1451.1</ele>
        <time>2018-01-12T13:22:53Z</time>
      </trkpt>
      <trkpt lat="42.99089" lon="-0.22011">
        <ele>1452.6</ele>
        <time>2018-01-12T13:22:58Z</time>
      </trkpt>
      <trkpt lat="42.99096" lon="-0.22017">
        <ele>1453.2</ele>
        <time>2018-01-12T13:23:03Z</time>
      </trkpt>
      <trkpt lat="42.99102" lon="-0.22022">
        <ele>1453</ele>
        <time>2018-01-12T13:23:08Z</time>
      </trkpt>
      <trkpt lat="42.9911" lon="-0.22026">
        <ele>1453.5</ele>
        <time>2018-01-12T13:23:13Z</time>
      </trkpt>
      <trkpt lat="42.99117" lon="-0.2203">
        <ele>1454.6</ele>
        <time>2018-01-12T13:23:18Z</time>
      </trkpt>
      <trkpt lat="42.99118" lon="-0.22031">
        <ele>1454.7</ele>
        <time>2018-01-12T13:23:19Z</time>
      </trkpt>
      <trkpt lat="42.99133" lon="-0.22037">
        <ele>1455</ele>
        <time>2018-01-12T13:23:28Z</time>
      </trkpt>
      <trkpt lat="42.99139" lon="-0.2204">
        <ele>1454.7</ele>
        <time>2018-01-12T13:23:31Z</time>
      </trkpt>
      <trkpt lat="42.99145" lon="-0.22043">
        <ele>1454.7</ele>
        <time>2018-01-12T13:23:33Z</time>
      </trkpt>
      <trkpt lat="42.99151" lon="-0.22048">
        <ele>1454.9</ele>
        <time>2018-01-12T13:23:35Z</time>
      </trkpt>
      <trkpt lat="42.99156" lon="-0.22053">
        <ele>1454.1</ele>
        <time>2018-01-12T13:23:37Z</time>
      </trkpt>
      <trkpt lat="42.99162" lon="-0.22058">
        <ele>1453.4</ele>
        <time>2018-01-12T13:23:39Z</time>
      </trkpt>
      <trkpt lat="42.99168" lon="-0.22065">
        <ele>1452.7</ele>
        <time>2018-01-12T13:23:42Z</time>
      </trkpt>
      <trkpt lat="42.99173" lon="-0.22072">
        <ele>1452.3</ele>
        <time>2018-01-12T13:23:47Z</time>
      </trkpt>
      <trkpt lat="42.99181" lon="-0.22078">
        <ele>1452.6</ele>
        <time>2018-01-12T13:23:52Z</time>
      </trkpt>
      <trkpt lat="42.99187" lon="-0.22084">
        <ele>1452.6</ele>
        <time>2018-01-12T13:23:56Z</time>
      </trkpt>
      <trkpt lat="42.99194" lon="-0.22091">
        <ele>1452.3</ele>
        <time>2018-01-12T13:24:00Z</time>
      </trkpt>
      <trkpt lat="42.99198" lon="-0.22098">
        <ele>1452.7</ele>
        <time>2018-01-12T13:24:03Z</time>
      </trkpt>
      <trkpt lat="42.99203" lon="-0.22106">
        <ele>1452.3</ele>
        <time>2018-01-12T13:24:06Z</time>
      </trkpt>
      <trkpt lat="42.99208" lon="-0.22115">
        <ele>1451.3</ele>
        <time>2018-01-12T13:24:09Z</time>
      </trkpt>
      <trkpt lat="42.99211" lon="-0.22125">
        <ele>1450.7</ele>
        <time>2018-01-12T13:24:12Z</time>
      </trkpt>
      <trkpt lat="42.99213" lon="-0.22135">
        <ele>1451</ele>
        <time>2018-01-12T13:24:15Z</time>
      </trkpt>
      <trkpt lat="42.99216" lon="-0.22144">
        <ele>1450.2</ele>
        <time>2018-01-12T13:24:18Z</time>
      </trkpt>
      <trkpt lat="42.99221" lon="-0.22136">
        <ele>1448.6</ele>
        <time>2018-01-12T13:24:29Z</time>
      </trkpt>
      <trkpt lat="42.99221" lon="-0.22133">
        <ele>1448.5</ele>
        <time>2018-01-12T13:24:30Z</time>
      </trkpt>
      <trkpt lat="42.99218" lon="-0.22116">
        <ele>1447.4</ele>
        <time>2018-01-12T13:24:35Z</time>
      </trkpt>
      <trkpt lat="42.99216" lon="-0.22106">
        <ele>1447</ele>
        <time>2018-01-12T13:24:38Z</time>
      </trkpt>
      <trkpt lat="42.99213" lon="-0.22097">
        <ele>1446.8</ele>
        <time>2018-01-12T13:24:41Z</time>
      </trkpt>
      <trkpt lat="42.99211" lon="-0.22086">
        <ele>1446</ele>
        <time>2018-01-12T13:24:44Z</time>
      </trkpt>
      <trkpt lat="42.99212" lon="-0.22076">
        <ele>1445.6</ele>
        <time>2018-01-12T13:24:46Z</time>
      </trkpt>
      <trkpt lat="42.99213" lon="-0.22066">
        <ele>1445.3</ele>
        <time>2018-01-12T13:24:48Z</time>
      </trkpt>
      <trkpt lat="42.99215" lon="-0.22055">
        <ele>1444.5</ele>
        <time>2018-01-12T13:24:50Z</time>
      </trkpt>
      <trkpt lat="42.99217" lon="-0.22049">
        <ele>1444.2</ele>
        <time>2018-01-12T13:24:51Z</time>
      </trkpt>
      <trkpt lat="42.9922" lon="-0.22044">
        <ele>1444</ele>
        <time>2018-01-12T13:24:52Z</time>
      </trkpt>
      <trkpt lat="42.99226" lon="-0.22035">
        <ele>1442.3</ele>
        <time>2018-01-12T13:24:54Z</time>
      </trkpt>
      <trkpt lat="42.99231" lon="-0.22026">
        <ele>1441</ele>
        <time>2018-01-12T13:24:56Z</time>
      </trkpt>
      <trkpt lat="42.99236" lon="-0.22017">
        <ele>1439.8</ele>
        <time>2018-01-12T13:24:58Z</time>
      </trkpt>
      <trkpt lat="42.9924" lon="-0.22009">
        <ele>1438.9</ele>
        <time>2018-01-12T13:25:00Z</time>
      </trkpt>
      <trkpt lat="42.99245" lon="-0.22">
        <ele>1438.3</ele>
        <time>2018-01-12T13:25:02Z</time>
      </trkpt>
      <trkpt lat="42.99249" lon="-0.21992">
        <ele>1438</ele>
        <time>2018-01-12T13:25:04Z</time>
      </trkpt>
      <trkpt lat="42.99253" lon="-0.21986">
        <ele>1437.4</ele>
        <time>2018-01-12T13:25:06Z</time>
      </trkpt>
      <trkpt lat="42.99258" lon="-0.21977">
        <ele>1436.9</ele>
        <time>2018-01-12T13:25:09Z</time>
      </trkpt>
      <trkpt lat="42.99261" lon="-0.21969">
        <ele>1436.8</ele>
        <time>2018-01-12T13:25:11Z</time>
      </trkpt>
      <trkpt lat="42.99264" lon="-0.2196">
        <ele>1436.2</ele>
        <time>2018-01-12T13:25:13Z</time>
      </trkpt>
      <trkpt lat="42.99268" lon="-0.21952">
        <ele>1435.5</ele>
        <time>2018-01-12T13:25:15Z</time>
      </trkpt>
      <trkpt lat="42.99272" lon="-0.21942">
        <ele>1434.8</ele>
        <time>2018-01-12T13:25:17Z</time>
      </trkpt>
      <trkpt lat="42.99273" lon="-0.21933">
        <ele>1433.9</ele>
        <time>2018-01-12T13:25:19Z</time>
      </trkpt>
      <trkpt lat="42.99272" lon="-0.21922">
        <ele>1433.3</ele>
        <time>2018-01-12T13:25:22Z</time>
      </trkpt>
      <trkpt lat="42.99279" lon="-0.21917">
        <ele>1432.6</ele>
        <time>2018-01-12T13:25:27Z</time>
      </trkpt>
      <trkpt lat="42.99286" lon="-0.21921">
        <ele>1431.5</ele>
        <time>2018-01-12T13:25:31Z</time>
      </trkpt>
      <trkpt lat="42.99287" lon="-0.21923">
        <ele>1431</ele>
        <time>2018-01-12T13:25:32Z</time>
      </trkpt>
      <trkpt lat="42.99292" lon="-0.21938">
        <ele>1429.4</ele>
        <time>2018-01-12T13:25:38Z</time>
      </trkpt>
      <trkpt lat="42.99291" lon="-0.21947">
        <ele>1428.7</ele>
        <time>2018-01-12T13:25:40Z</time>
      </trkpt>
      <trkpt lat="42.99292" lon="-0.21955">
        <ele>1427.9</ele>
        <time>2018-01-12T13:25:42Z</time>
      </trkpt>
      <trkpt lat="42.99292" lon="-0.21967">
        <ele>1427.2</ele>
        <time>2018-01-12T13:25:45Z</time>
      </trkpt>
      <trkpt lat="42.99293" lon="-0.21979">
        <ele>1427.1</ele>
        <time>2018-01-12T13:25:49Z</time>
      </trkpt>
      <trkpt lat="42.99293" lon="-0.2199">
        <ele>1427.3</ele>
        <time>2018-01-12T13:25:52Z</time>
      </trkpt>
      <trkpt lat="42.99292" lon="-0.22001">
        <ele>1426.4</ele>
        <time>2018-01-12T13:25:55Z</time>
      </trkpt>
      <trkpt lat="42.99289" lon="-0.22011">
        <ele>1426.9</ele>
        <time>2018-01-12T13:25:58Z</time>
      </trkpt>
      <trkpt lat="42.99297" lon="-0.22016">
        <ele>1425.3</ele>
        <time>2018-01-12T13:26:05Z</time>
      </trkpt>
      <trkpt lat="42.99302" lon="-0.22007">
        <ele>1424.6</ele>
        <time>2018-01-12T13:26:08Z</time>
      </trkpt>
      <trkpt lat="42.99306" lon="-0.21998">
        <ele>1424</ele>
        <time>2018-01-12T13:26:10Z</time>
      </trkpt>
      <trkpt lat="42.9931" lon="-0.21988">
        <ele>1423.3</ele>
        <time>2018-01-12T13:26:12Z</time>
      </trkpt>
      <trkpt lat="42.99314" lon="-0.21978">
        <ele>1422.7</ele>
        <time>2018-01-12T13:26:14Z</time>
      </trkpt>
      <trkpt lat="42.99316" lon="-0.21972">
        <ele>1421.6</ele>
        <time>2018-01-12T13:26:15Z</time>
      </trkpt>
      <trkpt lat="42.99318" lon="-0.21966">
        <ele>1420.7</ele>
        <time>2018-01-12T13:26:16Z</time>
      </trkpt>
      <trkpt lat="42.9932" lon="-0.2196">
        <ele>1420.1</ele>
        <time>2018-01-12T13:26:17Z</time>
      </trkpt>
      <trkpt lat="42.99321" lon="-0.21954">
        <ele>1419.6</ele>
        <time>2018-01-12T13:26:18Z</time>
      </trkpt>
      <trkpt lat="42.99323" lon="-0.21948">
        <ele>1419.3</ele>
        <time>2018-01-12T13:26:19Z</time>
      </trkpt>
      <trkpt lat="42.99324" lon="-0.21941">
        <ele>1419.1</ele>
        <time>2018-01-12T13:26:20Z</time>
      </trkpt>
      <trkpt lat="42.99325" lon="-0.21935">
        <ele>1418.9</ele>
        <time>2018-01-12T13:26:21Z</time>
      </trkpt>
      <trkpt lat="42.99326" lon="-0.21928">
        <ele>1418.3</ele>
        <time>2018-01-12T13:26:22Z</time>
      </trkpt>
      <trkpt lat="42.99327" lon="-0.21922">
        <ele>1417.9</ele>
        <time>2018-01-12T13:26:23Z</time>
      </trkpt>
      <trkpt lat="42.99328" lon="-0.21916">
        <ele>1417.6</ele>
        <time>2018-01-12T13:26:24Z</time>
      </trkpt>
      <trkpt lat="42.9933" lon="-0.21904">
        <ele>1416.8</ele>
        <time>2018-01-12T13:26:26Z</time>
      </trkpt>
      <trkpt lat="42.99331" lon="-0.21898">
        <ele>1416.6</ele>
        <time>2018-01-12T13:26:27Z</time>
      </trkpt>
      <trkpt lat="42.99332" lon="-0.21891">
        <ele>1415.8</ele>
        <time>2018-01-12T13:26:28Z</time>
      </trkpt>
      <trkpt lat="42.99334" lon="-0.21885">
        <ele>1415.2</ele>
        <time>2018-01-12T13:26:29Z</time>
      </trkpt>
      <trkpt lat="42.99336" lon="-0.21879">
        <ele>1414.8</ele>
        <time>2018-01-12T13:26:30Z</time>
      </trkpt>
      <trkpt lat="42.99337" lon="-0.21872">
        <ele>1414.2</ele>
        <time>2018-01-12T13:26:31Z</time>
      </trkpt>
      <trkpt lat="42.99339" lon="-0.21866">
        <ele>1413.7</ele>
        <time>2018-01-12T13:26:32Z</time>
      </trkpt>
      <trkpt lat="42.99341" lon="-0.21859">
        <ele>1413.3</ele>
        <time>2018-01-12T13:26:33Z</time>
      </trkpt>
      <trkpt lat="42.99344" lon="-0.21853">
        <ele>1413.1</ele>
        <time>2018-01-12T13:26:34Z</time>
      </trkpt>
      <trkpt lat="42.99345" lon="-0.21846">
        <ele>1412.3</ele>
        <time>2018-01-12T13:26:35Z</time>
      </trkpt>
      <trkpt lat="42.99347" lon="-0.2184">
        <ele>1411.8</ele>
        <time>2018-01-12T13:26:36Z</time>
      </trkpt>
      <trkpt lat="42.99349" lon="-0.21834">
        <ele>1411.3</ele>
        <time>2018-01-12T13:26:37Z</time>
      </trkpt>
      <trkpt lat="42.9935" lon="-0.21828">
        <ele>1410.6</ele>
        <time>2018-01-12T13:26:38Z</time>
      </trkpt>
      <trkpt lat="42.99351" lon="-0.21816">
        <ele>1409.6</ele>
        <time>2018-01-12T13:26:40Z</time>
      </trkpt>
      <trkpt lat="42.99346" lon="-0.21809">
        <ele>1408.6</ele>
        <time>2018-01-12T13:26:42Z</time>
      </trkpt>
      <trkpt lat="42.99341" lon="-0.21806">
        <ele>1408</ele>
        <time>2018-01-12T13:26:44Z</time>
      </trkpt>
      <trkpt lat="42.99335" lon="-0.21802">
        <ele>1407.5</ele>
        <time>2018-01-12T13:26:46Z</time>
      </trkpt>
      <trkpt lat="42.99329" lon="-0.21798">
        <ele>1407</ele>
        <time>2018-01-12T13:26:48Z</time>
      </trkpt>
      <trkpt lat="42.99322" lon="-0.21793">
        <ele>1406.7</ele>
        <time>2018-01-12T13:26:50Z</time>
      </trkpt>
      <trkpt lat="42.99315" lon="-0.21787">
        <ele>1405.5</ele>
        <time>2018-01-12T13:26:52Z</time>
      </trkpt>
      <trkpt lat="42.99311" lon="-0.21784">
        <ele>1405.1</ele>
        <time>2018-01-12T13:26:53Z</time>
      </trkpt>
      <trkpt lat="42.99307" lon="-0.21782">
        <ele>1404.4</ele>
        <time>2018-01-12T13:26:54Z</time>
      </trkpt>
      <trkpt lat="42.99298" lon="-0.2178">
        <ele>1403.4</ele>
        <time>2018-01-12T13:26:56Z</time>
      </trkpt>
      <trkpt lat="42.99289" lon="-0.21778">
        <ele>1403</ele>
        <time>2018-01-12T13:26:58Z</time>
      </trkpt>
      <trkpt lat="42.99281" lon="-0.21779">
        <ele>1402.2</ele>
        <time>2018-01-12T13:27:00Z</time>
      </trkpt>
      <trkpt lat="42.99272" lon="-0.21779">
        <ele>1401.2</ele>
        <time>2018-01-12T13:27:02Z</time>
      </trkpt>
      <trkpt lat="42.99263" lon="-0.2178">
        <ele>1400.4</ele>
        <time>2018-01-12T13:27:04Z</time>
      </trkpt>
      <trkpt lat="42.99255" lon="-0.2178">
        <ele>1399.9</ele>
        <time>2018-01-12T13:27:06Z</time>
      </trkpt>
      <trkpt lat="42.99247" lon="-0.2178">
        <ele>1399.1</ele>
        <time>2018-01-12T13:27:08Z</time>
      </trkpt>
      <trkpt lat="42.9924" lon="-0.21779">
        <ele>1398.7</ele>
        <time>2018-01-12T13:27:10Z</time>
      </trkpt>
      <trkpt lat="42.99234" lon="-0.21777">
        <ele>1398.4</ele>
        <time>2018-01-12T13:27:12Z</time>
      </trkpt>
      <trkpt lat="42.99228" lon="-0.21773">
        <ele>1398.9</ele>
        <time>2018-01-12T13:27:14Z</time>
      </trkpt>
      <trkpt lat="42.99222" lon="-0.21768">
        <ele>1398.9</ele>
        <time>2018-01-12T13:27:16Z</time>
      </trkpt>
      <trkpt lat="42.99217" lon="-0.2176">
        <ele>1399.3</ele>
        <time>2018-01-12T13:27:21Z</time>
      </trkpt>
      <trkpt lat="42.99211" lon="-0.2175">
        <ele>1399</ele>
        <time>2018-01-12T13:27:25Z</time>
      </trkpt>
      <trkpt lat="42.99205" lon="-0.21743">
        <ele>1399.2</ele>
        <time>2018-01-12T13:27:28Z</time>
      </trkpt>
      <trkpt lat="42.99199" lon="-0.21739">
        <ele>1398</ele>
        <time>2018-01-12T13:27:30Z</time>
      </trkpt>
      <trkpt lat="42.99195" lon="-0.21738">
        <ele>1397.7</ele>
        <time>2018-01-12T13:27:31Z</time>
      </trkpt>
      <trkpt lat="42.9919" lon="-0.21737">
        <ele>1396.7</ele>
        <time>2018-01-12T13:27:32Z</time>
      </trkpt>
      <trkpt lat="42.99184" lon="-0.21736">
        <ele>1396</ele>
        <time>2018-01-12T13:27:33Z</time>
      </trkpt>
      <trkpt lat="42.99179" lon="-0.21736">
        <ele>1395.4</ele>
        <time>2018-01-12T13:27:34Z</time>
      </trkpt>
      <trkpt lat="42.99174" lon="-0.21737">
        <ele>1394.5</ele>
        <time>2018-01-12T13:27:35Z</time>
      </trkpt>
      <trkpt lat="42.99169" lon="-0.21739">
        <ele>1393.9</ele>
        <time>2018-01-12T13:27:36Z</time>
      </trkpt>
      <trkpt lat="42.99165" lon="-0.21741">
        <ele>1393.4</ele>
        <time>2018-01-12T13:27:37Z</time>
      </trkpt>
      <trkpt lat="42.9916" lon="-0.21744">
        <ele>1392.8</ele>
        <time>2018-01-12T13:27:38Z</time>
      </trkpt>
      <trkpt lat="42.99156" lon="-0.21746">
        <ele>1392.4</ele>
        <time>2018-01-12T13:27:39Z</time>
      </trkpt>
      <trkpt lat="42.9915" lon="-0.21747">
        <ele>1392.1</ele>
        <time>2018-01-12T13:27:40Z</time>
      </trkpt>
      <trkpt lat="42.99143" lon="-0.21752">
        <ele>1391.5</ele>
        <time>2018-01-12T13:27:42Z</time>
      </trkpt>
      <trkpt lat="42.99138" lon="-0.21756">
        <ele>1391</ele>
        <time>2018-01-12T13:27:44Z</time>
      </trkpt>
      <trkpt lat="42.99131" lon="-0.21761">
        <ele>1390.6</ele>
        <time>2018-01-12T13:27:47Z</time>
      </trkpt>
      <trkpt lat="42.99124" lon="-0.21765">
        <ele>1390</ele>
        <time>2018-01-12T13:27:51Z</time>
      </trkpt>
      <trkpt lat="42.99116" lon="-0.21771">
        <ele>1391</ele>
        <time>2018-01-12T13:27:56Z</time>
      </trkpt>
      <trkpt lat="42.99109" lon="-0.21765">
        <ele>1390</ele>
        <time>2018-01-12T13:28:03Z</time>
      </trkpt>
      <trkpt lat="42.9911" lon="-0.21753">
        <ele>1390</ele>
        <time>2018-01-12T13:28:08Z</time>
      </trkpt>
      <trkpt lat="42.99112" lon="-0.21744">
        <ele>1390.2</ele>
        <time>2018-01-12T13:28:12Z</time>
      </trkpt>
      <trkpt lat="42.99112" lon="-0.21733">
        <ele>1389.5</ele>
        <time>2018-01-12T13:28:16Z</time>
      </trkpt>
      <trkpt lat="42.99113" lon="-0.21723">
        <ele>1389.8</ele>
        <time>2018-01-12T13:28:20Z</time>
      </trkpt>
      <trkpt lat="42.99115" lon="-0.21713">
        <ele>1389.1</ele>
        <time>2018-01-12T13:28:24Z</time>
      </trkpt>
      <trkpt lat="42.99115" lon="-0.21702">
        <ele>1390.2</ele>
        <time>2018-01-12T13:28:28Z</time>
      </trkpt>
      <trkpt lat="42.99117" lon="-0.21691">
        <ele>1390</ele>
        <time>2018-01-12T13:28:32Z</time>
      </trkpt>
      <trkpt lat="42.99117" lon="-0.21679">
        <ele>1389.9</ele>
        <time>2018-01-12T13:28:39Z</time>
      </trkpt>
      <trkpt lat="42.99117" lon="-0.21677">
        <ele>1389.7</ele>
        <time>2018-01-12T13:28:40Z</time>
      </trkpt>
      <trkpt lat="42.99118" lon="-0.21657">
        <ele>1389.7</ele>
        <time>2018-01-12T13:28:49Z</time>
      </trkpt>
      <trkpt lat="42.99118" lon="-0.21646">
        <ele>1389.9</ele>
        <time>2018-01-12T13:28:54Z</time>
      </trkpt>
      <trkpt lat="42.99116" lon="-0.21634">
        <ele>1391.1</ele>
        <time>2018-01-12T13:29:00Z</time>
      </trkpt>
      <trkpt lat="42.99116" lon="-0.21622">
        <ele>1391.3</ele>
        <time>2018-01-12T13:29:06Z</time>
      </trkpt>
      <trkpt lat="42.99116" lon="-0.2161">
        <ele>1393.1</ele>
        <time>2018-01-12T13:29:13Z</time>
      </trkpt>
      <trkpt lat="42.99107" lon="-0.2161">
        <ele>1395.2</ele>
        <time>2018-01-12T13:29:30Z</time>
      </trkpt>
      <trkpt lat="42.99104" lon="-0.21622">
        <ele>1395.5</ele>
        <time>2018-01-12T13:29:38Z</time>
      </trkpt>
      <trkpt lat="42.99098" lon="-0.2163">
        <ele>1396.6</ele>
        <time>2018-01-12T13:30:09Z</time>
      </trkpt>
      <trkpt lat="42.99098" lon="-0.21631">
        <ele>1396.4</ele>
        <time>2018-01-12T13:30:10Z</time>
      </trkpt>
      <trkpt lat="42.99098" lon="-0.21654">
        <ele>1397.5</ele>
        <time>2018-01-12T13:30:40Z</time>
      </trkpt>
      <trkpt lat="42.99096" lon="-0.21665">
        <ele>1398.3</ele>
        <time>2018-01-12T13:30:46Z</time>
      </trkpt>
      <trkpt lat="42.99094" lon="-0.21676">
        <ele>1398.7</ele>
        <time>2018-01-12T13:30:52Z</time>
      </trkpt>
      <trkpt lat="42.99093" lon="-0.21687">
        <ele>1399.8</ele>
        <time>2018-01-12T13:30:58Z</time>
      </trkpt>
      <trkpt lat="42.9909" lon="-0.21676">
        <ele>1402.3</ele>
        <time>2018-01-12T13:31:18Z</time>
      </trkpt>
      <trkpt lat="42.9909" lon="-0.21674">
        <ele>1402.6</ele>
        <time>2018-01-12T13:31:19Z</time>
      </trkpt>
      <trkpt lat="42.9909" lon="-0.21652">
        <ele>1403.7</ele>
        <time>2018-01-12T13:31:31Z</time>
      </trkpt>
      <trkpt lat="42.99089" lon="-0.21641">
        <ele>1404.7</ele>
        <time>2018-01-12T13:31:38Z</time>
      </trkpt>
      <trkpt lat="42.99088" lon="-0.21628">
        <ele>1405.7</ele>
        <time>2018-01-12T13:31:45Z</time>
      </trkpt>
      <trkpt lat="42.99087" lon="-0.21618">
        <ele>1406.3</ele>
        <time>2018-01-12T13:31:51Z</time>
      </trkpt>
      <trkpt lat="42.99088" lon="-0.21606">
        <ele>1407</ele>
        <time>2018-01-12T13:31:57Z</time>
      </trkpt>
      <trkpt lat="42.99088" lon="-0.21595">
        <ele>1407.4</ele>
        <time>2018-01-12T13:32:03Z</time>
      </trkpt>
      <trkpt lat="42.99087" lon="-0.21584">
        <ele>1408</ele>
        <time>2018-01-12T13:32:09Z</time>
      </trkpt>
      <trkpt lat="42.99087" lon="-0.21572">
        <ele>1408.4</ele>
        <time>2018-01-12T13:32:15Z</time>
      </trkpt>
      <trkpt lat="42.99088" lon="-0.21561">
        <ele>1409.3</ele>
        <time>2018-01-12T13:32:21Z</time>
      </trkpt>
      <trkpt lat="42.99087" lon="-0.21559">
        <ele>1409.3</ele>
        <time>2018-01-12T13:32:22Z</time>
      </trkpt>
      <trkpt lat="42.99089" lon="-0.2154">
        <ele>1410.2</ele>
        <time>2018-01-12T13:32:32Z</time>
      </trkpt>
      <trkpt lat="42.9909" lon="-0.21528">
        <ele>1410.3</ele>
        <time>2018-01-12T13:32:38Z</time>
      </trkpt>
      <trkpt lat="42.99091" lon="-0.21517">
        <ele>1411.1</ele>
        <time>2018-01-12T13:32:44Z</time>
      </trkpt>
      <trkpt lat="42.99092" lon="-0.21505">
        <ele>1411.4</ele>
        <time>2018-01-12T13:32:50Z</time>
      </trkpt>
      <trkpt lat="42.99092" lon="-0.21494">
        <ele>1413.4</ele>
        <time>2018-01-12T13:32:56Z</time>
      </trkpt>
      <trkpt lat="42.99094" lon="-0.21482">
        <ele>1413.7</ele>
        <time>2018-01-12T13:33:02Z</time>
      </trkpt>
      <trkpt lat="42.99096" lon="-0.21472">
        <ele>1414.7</ele>
        <time>2018-01-12T13:33:07Z</time>
      </trkpt>
      <trkpt lat="42.99099" lon="-0.21462">
        <ele>1414.6</ele>
        <time>2018-01-12T13:33:12Z</time>
      </trkpt>
      <trkpt lat="42.99103" lon="-0.21452">
        <ele>1414.4</ele>
        <time>2018-01-12T13:33:16Z</time>
      </trkpt>
      <trkpt lat="42.99106" lon="-0.21442">
        <ele>1415.4</ele>
        <time>2018-01-12T13:33:21Z</time>
      </trkpt>
      <trkpt lat="42.99109" lon="-0.21431">
        <ele>1415.6</ele>
        <time>2018-01-12T13:33:27Z</time>
      </trkpt>
      <trkpt lat="42.99109" lon="-0.21429">
        <ele>1415.6</ele>
        <time>2018-01-12T13:33:28Z</time>
      </trkpt>
      <trkpt lat="42.99114" lon="-0.21409">
        <ele>1417.9</ele>
        <time>2018-01-12T13:33:38Z</time>
      </trkpt>
      <trkpt lat="42.99116" lon="-0.21398">
        <ele>1418.2</ele>
        <time>2018-01-12T13:33:44Z</time>
      </trkpt>
      <trkpt lat="42.99117" lon="-0.21387">
        <ele>1419.1</ele>
        <time>2018-01-12T13:33:50Z</time>
      </trkpt>
      <trkpt lat="42.99119" lon="-0.21375">
        <ele>1419.7</ele>
        <time>2018-01-12T13:33:56Z</time>
      </trkpt>
      <trkpt lat="42.9912" lon="-0.21365">
        <ele>1420.9</ele>
        <time>2018-01-12T13:34:01Z</time>
      </trkpt>
      <trkpt lat="42.99122" lon="-0.21353">
        <ele>1421.8</ele>
        <time>2018-01-12T13:34:07Z</time>
      </trkpt>
      <trkpt lat="42.99125" lon="-0.21342">
        <ele>1422</ele>
        <time>2018-01-12T13:34:13Z</time>
      </trkpt>
      <trkpt lat="42.99127" lon="-0.21332">
        <ele>1422.9</ele>
        <time>2018-01-12T13:34:19Z</time>
      </trkpt>
      <trkpt lat="42.9913" lon="-0.21321">
        <ele>1423.3</ele>
        <time>2018-01-12T13:34:25Z</time>
      </trkpt>
      <trkpt lat="42.99133" lon="-0.21309">
        <ele>1424.3</ele>
        <time>2018-01-12T13:34:31Z</time>
      </trkpt>
      <trkpt lat="42.99133" lon="-0.21307">
        <ele>1424.2</ele>
        <time>2018-01-12T13:34:32Z</time>
      </trkpt>
      <trkpt lat="42.99138" lon="-0.21289">
        <ele>1424.6</ele>
        <time>2018-01-12T13:34:40Z</time>
      </trkpt>
      <trkpt lat="42.99143" lon="-0.21281">
        <ele>1425.2</ele>
        <time>2018-01-12T13:34:44Z</time>
      </trkpt>
      <trkpt lat="42.99148" lon="-0.21274">
        <ele>1424.6</ele>
        <time>2018-01-12T13:34:47Z</time>
      </trkpt>
      <trkpt lat="42.99153" lon="-0.21267">
        <ele>1425</ele>
        <time>2018-01-12T13:34:50Z</time>
      </trkpt>
      <trkpt lat="42.99158" lon="-0.21259">
        <ele>1425</ele>
        <time>2018-01-12T13:34:53Z</time>
      </trkpt>
      <trkpt lat="42.99162" lon="-0.21252">
        <ele>1424.7</ele>
        <time>2018-01-12T13:34:55Z</time>
      </trkpt>
      <trkpt lat="42.99167" lon="-0.21245">
        <ele>1424</ele>
        <time>2018-01-12T13:34:57Z</time>
      </trkpt>
      <trkpt lat="42.99171" lon="-0.21238">
        <ele>1423.7</ele>
        <time>2018-01-12T13:34:59Z</time>
      </trkpt>
      <trkpt lat="42.99175" lon="-0.21231">
        <ele>1423.7</ele>
        <time>2018-01-12T13:35:01Z</time>
      </trkpt>
      <trkpt lat="42.99179" lon="-0.21225">
        <ele>1423.7</ele>
        <time>2018-01-12T13:35:03Z</time>
      </trkpt>
      <trkpt lat="42.99183" lon="-0.21218">
        <ele>1423.1</ele>
        <time>2018-01-12T13:35:05Z</time>
      </trkpt>
      <trkpt lat="42.99187" lon="-0.21211">
        <ele>1422.4</ele>
        <time>2018-01-12T13:35:07Z</time>
      </trkpt>
      <trkpt lat="42.99193" lon="-0.21206">
        <ele>1421.8</ele>
        <time>2018-01-12T13:35:09Z</time>
      </trkpt>
      <trkpt lat="42.99199" lon="-0.212">
        <ele>1421.4</ele>
        <time>2018-01-12T13:35:11Z</time>
      </trkpt>
      <trkpt lat="42.99207" lon="-0.21196">
        <ele>1420.6</ele>
        <time>2018-01-12T13:35:13Z</time>
      </trkpt>
      <trkpt lat="42.99212" lon="-0.2119">
        <ele>1420.2</ele>
        <time>2018-01-12T13:35:15Z</time>
      </trkpt>
      <trkpt lat="42.99217" lon="-0.21181">
        <ele>1420</ele>
        <time>2018-01-12T13:35:18Z</time>
      </trkpt>
      <trkpt lat="42.9922" lon="-0.21173">
        <ele>1420.2</ele>
        <time>2018-01-12T13:35:20Z</time>
      </trkpt>
      <trkpt lat="42.99224" lon="-0.21165">
        <ele>1419.8</ele>
        <time>2018-01-12T13:35:22Z</time>
      </trkpt>
      <trkpt lat="42.99229" lon="-0.21158">
        <ele>1419.3</ele>
        <time>2018-01-12T13:35:24Z</time>
      </trkpt>
      <trkpt lat="42.99236" lon="-0.21149">
        <ele>1418.8</ele>
        <time>2018-01-12T13:35:27Z</time>
      </trkpt>
      <trkpt lat="42.99242" lon="-0.21141">
        <ele>1417.4</ele>
        <time>2018-01-12T13:35:31Z</time>
      </trkpt>
      <trkpt lat="42.99248" lon="-0.21138">
        <ele>1416.6</ele>
        <time>2018-01-12T13:35:34Z</time>
      </trkpt>
      <trkpt lat="42.99251" lon="-0.21137">
        <ele>1416.4</ele>
        <time>2018-01-12T13:35:35Z</time>
      </trkpt>
      <trkpt lat="42.99264" lon="-0.21134">
        <ele>1414.9</ele>
        <time>2018-01-12T13:35:40Z</time>
      </trkpt>
      <trkpt lat="42.99272" lon="-0.21133">
        <ele>1414.4</ele>
        <time>2018-01-12T13:35:45Z</time>
      </trkpt>
      <trkpt lat="42.99281" lon="-0.21132">
        <ele>1415.5</ele>
        <time>2018-01-12T13:35:50Z</time>
      </trkpt>
      <trkpt lat="42.9929" lon="-0.21131">
        <ele>1415.4</ele>
        <time>2018-01-12T13:35:55Z</time>
      </trkpt>
      <trkpt lat="42.99298" lon="-0.2113">
        <ele>1416.1</ele>
        <time>2018-01-12T13:36:00Z</time>
      </trkpt>
      <trkpt lat="42.99306" lon="-0.2113">
        <ele>1417.1</ele>
        <time>2018-01-12T13:36:04Z</time>
      </trkpt>
      <trkpt lat="42.99314" lon="-0.2113">
        <ele>1418.1</ele>
        <time>2018-01-12T13:36:09Z</time>
      </trkpt>
      <trkpt lat="42.99322" lon="-0.21131">
        <ele>1418.4</ele>
        <time>2018-01-12T13:36:14Z</time>
      </trkpt>
      <trkpt lat="42.99329" lon="-0.21132">
        <ele>1418.1</ele>
        <time>2018-01-12T13:36:18Z</time>
      </trkpt>
      <trkpt lat="42.99337" lon="-0.21133">
        <ele>1417.9</ele>
        <time>2018-01-12T13:36:22Z</time>
      </trkpt>
      <trkpt lat="42.99345" lon="-0.21132">
        <ele>1418</ele>
        <time>2018-01-12T13:36:26Z</time>
      </trkpt>
      <trkpt lat="42.99354" lon="-0.21132">
        <ele>1418.8</ele>
        <time>2018-01-12T13:36:31Z</time>
      </trkpt>
      <trkpt lat="42.99363" lon="-0.21132">
        <ele>1420.4</ele>
        <time>2018-01-12T13:36:37Z</time>
      </trkpt>
      <trkpt lat="42.99365" lon="-0.21132">
        <ele>1420.2</ele>
        <time>2018-01-12T13:36:38Z</time>
      </trkpt>
      <trkpt lat="42.9938" lon="-0.21132">
        <ele>1420.7</ele>
        <time>2018-01-12T13:36:48Z</time>
      </trkpt>
      <trkpt lat="42.99387" lon="-0.21132">
        <ele>1421.2</ele>
        <time>2018-01-12T13:36:53Z</time>
      </trkpt>
      <trkpt lat="42.99396" lon="-0.21133">
        <ele>1422.5</ele>
        <time>2018-01-12T13:36:59Z</time>
      </trkpt>
      <trkpt lat="42.99404" lon="-0.21134">
        <ele>1423.5</ele>
        <time>2018-01-12T13:37:05Z</time>
      </trkpt>
      <trkpt lat="42.99412" lon="-0.21134">
        <ele>1424.3</ele>
        <time>2018-01-12T13:37:10Z</time>
      </trkpt>
      <trkpt lat="42.99419" lon="-0.21135">
        <ele>1425.1</ele>
        <time>2018-01-12T13:37:15Z</time>
      </trkpt>
      <trkpt lat="42.99427" lon="-0.21135">
        <ele>1425.8</ele>
        <time>2018-01-12T13:37:20Z</time>
      </trkpt>
      <trkpt lat="42.99435" lon="-0.21135">
        <ele>1425.9</ele>
        <time>2018-01-12T13:37:25Z</time>
      </trkpt>
      <trkpt lat="42.99442" lon="-0.21135">
        <ele>1426.4</ele>
        <time>2018-01-12T13:37:29Z</time>
      </trkpt>
      <trkpt lat="42.99451" lon="-0.21135">
        <ele>1426.9</ele>
        <time>2018-01-12T13:37:34Z</time>
      </trkpt>
      <trkpt lat="42.9946" lon="-0.21134">
        <ele>1426.4</ele>
        <time>2018-01-12T13:37:38Z</time>
      </trkpt>
      <trkpt lat="42.99463" lon="-0.21134">
        <ele>1426.3</ele>
        <time>2018-01-12T13:37:39Z</time>
      </trkpt>
      <trkpt lat="42.99472" lon="-0.21138">
        <ele>1426</ele>
        <time>2018-01-12T13:37:42Z</time>
      </trkpt>
      <trkpt lat="42.99478" lon="-0.21142">
        <ele>1425.8</ele>
        <time>2018-01-12T13:37:44Z</time>
      </trkpt>
      <trkpt lat="42.99486" lon="-0.21145">
        <ele>1424.7</ele>
        <time>2018-01-12T13:37:46Z</time>
      </trkpt>
      <trkpt lat="42.99491" lon="-0.21147">
        <ele>1424.4</ele>
        <time>2018-01-12T13:37:47Z</time>
      </trkpt>
      <trkpt lat="42.99495" lon="-0.21149">
        <ele>1423.7</ele>
        <time>2018-01-12T13:37:48Z</time>
      </trkpt>
      <trkpt lat="42.995" lon="-0.2115">
        <ele>1423.2</ele>
        <time>2018-01-12T13:37:49Z</time>
      </trkpt>
      <trkpt lat="42.99505" lon="-0.21152">
        <ele>1422.8</ele>
        <time>2018-01-12T13:37:50Z</time>
      </trkpt>
      <trkpt lat="42.9951" lon="-0.21154">
        <ele>1421.9</ele>
        <time>2018-01-12T13:37:51Z</time>
      </trkpt>
      <trkpt lat="42.99515" lon="-0.21156">
        <ele>1421.2</ele>
        <time>2018-01-12T13:37:52Z</time>
      </trkpt>
      <trkpt lat="42.9952" lon="-0.21157">
        <ele>1420.7</ele>
        <time>2018-01-12T13:37:53Z</time>
      </trkpt>
      <trkpt lat="42.99524" lon="-0.21159">
        <ele>1420.4</ele>
        <time>2018-01-12T13:37:54Z</time>
      </trkpt>
      <trkpt lat="42.99533" lon="-0.21162">
        <ele>1419.3</ele>
        <time>2018-01-12T13:37:56Z</time>
      </trkpt>
      <trkpt lat="42.99541" lon="-0.21165">
        <ele>1418.2</ele>
        <time>2018-01-12T13:37:58Z</time>
      </trkpt>
      <trkpt lat="42.99549" lon="-0.21168">
        <ele>1417.3</ele>
        <time>2018-01-12T13:38:00Z</time>
      </trkpt>
      <trkpt lat="42.99556" lon="-0.2117">
        <ele>1416.6</ele>
        <time>2018-01-12T13:38:02Z</time>
      </trkpt>
      <trkpt lat="42.99563" lon="-0.21172">
        <ele>1416.1</ele>
        <time>2018-01-12T13:38:04Z</time>
      </trkpt>
      <trkpt lat="42.9957" lon="-0.21173">
        <ele>1415.8</ele>
        <time>2018-01-12T13:38:06Z</time>
      </trkpt>
      <trkpt lat="42.99578" lon="-0.21174">
        <ele>1415.7</ele>
        <time>2018-01-12T13:38:08Z</time>
      </trkpt>
      <trkpt lat="42.99587" lon="-0.21176">
        <ele>1415.3</ele>
        <time>2018-01-12T13:38:11Z</time>
      </trkpt>
      <trkpt lat="42.99593" lon="-0.21177">
        <ele>1415.1</ele>
        <time>2018-01-12T13:38:13Z</time>
      </trkpt>
      <trkpt lat="42.996" lon="-0.21178">
        <ele>1414.3</ele>
        <time>2018-01-12T13:38:15Z</time>
      </trkpt>
      <trkpt lat="42.99609" lon="-0.21178">
        <ele>1413.6</ele>
        <time>2018-01-12T13:38:17Z</time>
      </trkpt>
      <trkpt lat="42.99617" lon="-0.21179">
        <ele>1412.9</ele>
        <time>2018-01-12T13:38:19Z</time>
      </trkpt>
      <trkpt lat="42.99625" lon="-0.2118">
        <ele>1412.6</ele>
        <time>2018-01-12T13:38:21Z</time>
      </trkpt>
      <trkpt lat="42.99632" lon="-0.2118">
        <ele>1412.1</ele>
        <time>2018-01-12T13:38:23Z</time>
      </trkpt>
      <trkpt lat="42.99638" lon="-0.21179">
        <ele>1411.4</ele>
        <time>2018-01-12T13:38:25Z</time>
      </trkpt>
      <trkpt lat="42.99645" lon="-0.21178">
        <ele>1411</ele>
        <time>2018-01-12T13:38:27Z</time>
      </trkpt>
      <trkpt lat="42.9965" lon="-0.21176">
        <ele>1410.7</ele>
        <time>2018-01-12T13:38:29Z</time>
      </trkpt>
      <trkpt lat="42.99659" lon="-0.21173">
        <ele>1410.1</ele>
        <time>2018-01-12T13:38:32Z</time>
      </trkpt>
      <trkpt lat="42.99665" lon="-0.21168">
        <ele>1409.9</ele>
        <time>2018-01-12T13:38:35Z</time>
      </trkpt>
      <trkpt lat="42.9967" lon="-0.2116">
        <ele>1408.7</ele>
        <time>2018-01-12T13:38:38Z</time>
      </trkpt>
      <trkpt lat="42.99675" lon="-0.21152">
        <ele>1407.9</ele>
        <time>2018-01-12T13:38:41Z</time>
      </trkpt>
      <trkpt lat="42.99676" lon="-0.21149">
        <ele>1407.8</ele>
        <time>2018-01-12T13:38:42Z</time>
      </trkpt>
      <trkpt lat="42.99686" lon="-0.21137">
        <ele>1407.3</ele>
        <time>2018-01-12T13:38:50Z</time>
      </trkpt>
      <trkpt lat="42.99692" lon="-0.21129">
        <ele>1407.7</ele>
        <time>2018-01-12T13:38:55Z</time>
      </trkpt>
      <trkpt lat="42.99698" lon="-0.2112">
        <ele>1407.8</ele>
        <time>2018-01-12T13:39:00Z</time>
      </trkpt>
      <trkpt lat="42.99704" lon="-0.21113">
        <ele>1408.3</ele>
        <time>2018-01-12T13:39:05Z</time>
      </trkpt>
      <trkpt lat="42.99709" lon="-0.21108">
        <ele>1408.1</ele>
        <time>2018-01-12T13:39:08Z</time>
      </trkpt>
      <trkpt lat="42.99716" lon="-0.21103">
        <ele>1407.6</ele>
        <time>2018-01-12T13:39:11Z</time>
      </trkpt>
      <trkpt lat="42.99724" lon="-0.21097">
        <ele>1406.9</ele>
        <time>2018-01-12T13:39:14Z</time>
      </trkpt>
      <trkpt lat="42.9973" lon="-0.21094">
        <ele>1406.7</ele>
        <time>2018-01-12T13:39:16Z</time>
      </trkpt>
      <trkpt lat="42.99736" lon="-0.2109">
        <ele>1406.4</ele>
        <time>2018-01-12T13:39:18Z</time>
      </trkpt>
      <trkpt lat="42.99743" lon="-0.21087">
        <ele>1406.1</ele>
        <time>2018-01-12T13:39:20Z</time>
      </trkpt>
      <trkpt lat="42.99749" lon="-0.21084">
        <ele>1406</ele>
        <time>2018-01-12T13:39:22Z</time>
      </trkpt>
      <trkpt lat="42.99758" lon="-0.21081">
        <ele>1405.3</ele>
        <time>2018-01-12T13:39:25Z</time>
      </trkpt>
      <trkpt lat="42.99764" lon="-0.21078">
        <ele>1404.9</ele>
        <time>2018-01-12T13:39:27Z</time>
      </trkpt>
      <trkpt lat="42.99771" lon="-0.21075">
        <ele>1404.6</ele>
        <time>2018-01-12T13:39:29Z</time>
      </trkpt>
      <trkpt lat="42.99777" lon="-0.21072">
        <ele>1403.8</ele>
        <time>2018-01-12T13:39:31Z</time>
      </trkpt>
      <trkpt lat="42.99784" lon="-0.21069">
        <ele>1403.1</ele>
        <time>2018-01-12T13:39:33Z</time>
      </trkpt>
      <trkpt lat="42.99793" lon="-0.21065">
        <ele>1402.4</ele>
        <time>2018-01-12T13:39:35Z</time>
      </trkpt>
      <trkpt lat="42.99801" lon="-0.21062">
        <ele>1401.8</ele>
        <time>2018-01-12T13:39:37Z</time>
      </trkpt>
      <trkpt lat="42.99808" lon="-0.21058">
        <ele>1401.3</ele>
        <time>2018-01-12T13:39:39Z</time>
      </trkpt>
      <trkpt lat="42.99814" lon="-0.21054">
        <ele>1400.6</ele>
        <time>2018-01-12T13:39:41Z</time>
      </trkpt>
      <trkpt lat="42.99821" lon="-0.21048">
        <ele>1400</ele>
        <time>2018-01-12T13:39:45Z</time>
      </trkpt>
      <trkpt lat="42.99823" lon="-0.21047">
        <ele>1400.4</ele>
        <time>2018-01-12T13:39:46Z</time>
      </trkpt>
      <trkpt lat="42.99834" lon="-0.21038">
        <ele>1401.1</ele>
        <time>2018-01-12T13:39:54Z</time>
      </trkpt>
      <trkpt lat="42.99842" lon="-0.21032">
        <ele>1401</ele>
        <time>2018-01-12T13:39:58Z</time>
      </trkpt>
      <trkpt lat="42.99849" lon="-0.21026">
        <ele>1401.5</ele>
        <time>2018-01-12T13:40:01Z</time>
      </trkpt>
      <trkpt lat="42.99856" lon="-0.21019">
        <ele>1402.1</ele>
        <time>2018-01-12T13:40:06Z</time>
      </trkpt>
      <trkpt lat="42.99862" lon="-0.21012">
        <ele>1401.5</ele>
        <time>2018-01-12T13:40:10Z</time>
      </trkpt>
      <trkpt lat="42.99867" lon="-0.21004">
        <ele>1401.7</ele>
        <time>2018-01-12T13:40:14Z</time>
      </trkpt>
      <trkpt lat="42.99873" lon="-0.20997">
        <ele>1402.2</ele>
        <time>2018-01-12T13:40:18Z</time>
      </trkpt>
      <trkpt lat="42.9988" lon="-0.20989">
        <ele>1402</ele>
        <time>2018-01-12T13:40:22Z</time>
      </trkpt>
      <trkpt lat="42.99886" lon="-0.20981">
        <ele>1401.4</ele>
        <time>2018-01-12T13:40:26Z</time>
      </trkpt>
      <trkpt lat="42.9989" lon="-0.20972">
        <ele>1401.8</ele>
        <time>2018-01-12T13:40:30Z</time>
      </trkpt>
      <trkpt lat="42.99891" lon="-0.20963">
        <ele>1401.9</ele>
        <time>2018-01-12T13:40:33Z</time>
      </trkpt>
      <trkpt lat="42.99889" lon="-0.20953">
        <ele>1401.8</ele>
        <time>2018-01-12T13:40:36Z</time>
      </trkpt>
      <trkpt lat="42.99887" lon="-0.20944">
        <ele>1401.2</ele>
        <time>2018-01-12T13:40:38Z</time>
      </trkpt>
      <trkpt lat="42.99885" lon="-0.20938">
        <ele>1401</ele>
        <time>2018-01-12T13:40:39Z</time>
      </trkpt>
      <trkpt lat="42.99883" lon="-0.20932">
        <ele>1400</ele>
        <time>2018-01-12T13:40:40Z</time>
      </trkpt>
      <trkpt lat="42.99882" lon="-0.20925">
        <ele>1399.2</ele>
        <time>2018-01-12T13:40:41Z</time>
      </trkpt>
      <trkpt lat="42.9988" lon="-0.20918">
        <ele>1398.6</ele>
        <time>2018-01-12T13:40:42Z</time>
      </trkpt>
      <trkpt lat="42.99878" lon="-0.20911">
        <ele>1398.2</ele>
        <time>2018-01-12T13:40:43Z</time>
      </trkpt>
      <trkpt lat="42.99877" lon="-0.20903">
        <ele>1397.6</ele>
        <time>2018-01-12T13:40:44Z</time>
      </trkpt>
      <trkpt lat="42.99876" lon="-0.20895">
        <ele>1397.1</ele>
        <time>2018-01-12T13:40:45Z</time>
      </trkpt>
      <trkpt lat="42.99875" lon="-0.20887">
        <ele>1396.8</ele>
        <time>2018-01-12T13:40:46Z</time>
      </trkpt>
      <trkpt lat="42.99874" lon="-0.20879">
        <ele>1395.9</ele>
        <time>2018-01-12T13:40:47Z</time>
      </trkpt>
      <trkpt lat="42.99873" lon="-0.20871">
        <ele>1395.2</ele>
        <time>2018-01-12T13:40:48Z</time>
      </trkpt>
      <trkpt lat="42.99872" lon="-0.20864">
        <ele>1394.7</ele>
        <time>2018-01-12T13:40:49Z</time>
      </trkpt>
      <trkpt lat="42.99871" lon="-0.20856">
        <ele>1394.2</ele>
        <time>2018-01-12T13:40:50Z</time>
      </trkpt>
      <trkpt lat="42.99871" lon="-0.2085">
        <ele>1393.9</ele>
        <time>2018-01-12T13:40:51Z</time>
      </trkpt>
      <trkpt lat="42.9987" lon="-0.20843">
        <ele>1393.6</ele>
        <time>2018-01-12T13:40:52Z</time>
      </trkpt>
      <trkpt lat="42.99869" lon="-0.20832">
        <ele>1392.9</ele>
        <time>2018-01-12T13:40:54Z</time>
      </trkpt>
      <trkpt lat="42.99868" lon="-0.20823">
        <ele>1392.1</ele>
        <time>2018-01-12T13:40:56Z</time>
      </trkpt>
      <trkpt lat="42.99866" lon="-0.20811">
        <ele>1390.9</ele>
        <time>2018-01-12T13:41:00Z</time>
      </trkpt>
      <trkpt lat="42.99865" lon="-0.20802">
        <ele>1390.6</ele>
        <time>2018-01-12T13:41:03Z</time>
      </trkpt>
      <trkpt lat="42.99863" lon="-0.20792">
        <ele>1390.5</ele>
        <time>2018-01-12T13:41:06Z</time>
      </trkpt>
      <trkpt lat="42.99863" lon="-0.20782">
        <ele>1390.4</ele>
        <time>2018-01-12T13:41:09Z</time>
      </trkpt>
      <trkpt lat="42.99863" lon="-0.20771">
        <ele>1390</ele>
        <time>2018-01-12T13:41:12Z</time>
      </trkpt>
      <trkpt lat="42.99864" lon="-0.20761">
        <ele>1389.1</ele>
        <time>2018-01-12T13:41:15Z</time>
      </trkpt>
      <trkpt lat="42.99865" lon="-0.2075">
        <ele>1389.1</ele>
        <time>2018-01-12T13:41:19Z</time>
      </trkpt>
      <trkpt lat="42.99866" lon="-0.20739">
        <ele>1389.1</ele>
        <time>2018-01-12T13:41:23Z</time>
      </trkpt>
      <trkpt lat="42.99865" lon="-0.20729">
        <ele>1390.2</ele>
        <time>2018-01-12T13:41:27Z</time>
      </trkpt>
      <trkpt lat="42.99863" lon="-0.20719">
        <ele>1390.1</ele>
        <time>2018-01-12T13:41:31Z</time>
      </trkpt>
      <trkpt lat="42.99863" lon="-0.20708">
        <ele>1390.5</ele>
        <time>2018-01-12T13:41:36Z</time>
      </trkpt>
      <trkpt lat="42.99863" lon="-0.20696">
        <ele>1391.2</ele>
        <time>2018-01-12T13:41:41Z</time>
      </trkpt>
      <trkpt lat="42.99864" lon="-0.20684">
        <ele>1391.2</ele>
        <time>2018-01-12T13:41:46Z</time>
      </trkpt>
      <trkpt lat="42.99866" lon="-0.20673">
        <ele>1391.6</ele>
        <time>2018-01-12T13:41:51Z</time>
      </trkpt>
      <trkpt lat="42.99866" lon="-0.20671">
        <ele>1391.5</ele>
        <time>2018-01-12T13:41:52Z</time>
      </trkpt>
      <trkpt lat="42.99871" lon="-0.20651">
        <ele>1392.9</ele>
        <time>2018-01-12T13:42:01Z</time>
      </trkpt>
      <trkpt lat="42.99872" lon="-0.20641">
        <ele>1393.8</ele>
        <time>2018-01-12T13:42:05Z</time>
      </trkpt>
      <trkpt lat="42.99875" lon="-0.2063">
        <ele>1394.8</ele>
        <time>2018-01-12T13:42:10Z</time>
      </trkpt>
      <trkpt lat="42.99877" lon="-0.20619">
        <ele>1395.3</ele>
        <time>2018-01-12T13:42:15Z</time>
      </trkpt>
      <trkpt lat="42.9988" lon="-0.20608">
        <ele>1395.9</ele>
        <time>2018-01-12T13:42:20Z</time>
      </trkpt>
      <trkpt lat="42.99882" lon="-0.20599">
        <ele>1396</ele>
        <time>2018-01-12T13:42:24Z</time>
      </trkpt>
      <trkpt lat="42.99885" lon="-0.20587">
        <ele>1396.7</ele>
        <time>2018-01-12T13:42:29Z</time>
      </trkpt>
      <trkpt lat="42.99887" lon="-0.20577">
        <ele>1396.8</ele>
        <time>2018-01-12T13:42:34Z</time>
      </trkpt>
      <trkpt lat="42.99888" lon="-0.20566">
        <ele>1396.6</ele>
        <time>2018-01-12T13:42:38Z</time>
      </trkpt>
      <trkpt lat="42.99888" lon="-0.20557">
        <ele>1396.4</ele>
        <time>2018-01-12T13:42:41Z</time>
      </trkpt>
      <trkpt lat="42.99889" lon="-0.20546">
        <ele>1396.5</ele>
        <time>2018-01-12T13:42:44Z</time>
      </trkpt>
      <trkpt lat="42.9989" lon="-0.20538">
        <ele>1396.2</ele>
        <time>2018-01-12T13:42:46Z</time>
      </trkpt>
      <trkpt lat="42.99891" lon="-0.20529">
        <ele>1395.9</ele>
        <time>2018-01-12T13:42:48Z</time>
      </trkpt>
      <trkpt lat="42.99892" lon="-0.20517">
        <ele>1395.1</ele>
        <time>2018-01-12T13:42:51Z</time>
      </trkpt>
      <trkpt lat="42.99885" lon="-0.20512">
        <ele>1394.4</ele>
        <time>2018-01-12T13:42:57Z</time>
      </trkpt>
      <trkpt lat="42.99883" lon="-0.20511">
        <ele>1394.3</ele>
        <time>2018-01-12T13:42:58Z</time>
      </trkpt>
      <trkpt lat="42.99868" lon="-0.20521">
        <ele>1393.8</ele>
        <time>2018-01-12T13:43:07Z</time>
      </trkpt>
      <trkpt lat="42.9986" lon="-0.20518">
        <ele>1392.9</ele>
        <time>2018-01-12T13:43:14Z</time>
      </trkpt>
      <trkpt lat="42.99852" lon="-0.20521">
        <ele>1392.9</ele>
        <time>2018-01-12T13:43:18Z</time>
      </trkpt>
      <trkpt lat="42.99845" lon="-0.2052">
        <ele>1392.1</ele>
        <time>2018-01-12T13:43:22Z</time>
      </trkpt>
      <trkpt lat="42.99837" lon="-0.2052">
        <ele>1391.7</ele>
        <time>2018-01-12T13:43:26Z</time>
      </trkpt>
      <trkpt lat="42.9983" lon="-0.20517">
        <ele>1392</ele>
        <time>2018-01-12T13:43:31Z</time>
      </trkpt>
      <trkpt lat="42.99823" lon="-0.20517">
        <ele>1392.1</ele>
        <time>2018-01-12T13:43:34Z</time>
      </trkpt>
      <trkpt lat="42.99814" lon="-0.20516">
        <ele>1392.1</ele>
        <time>2018-01-12T13:43:37Z</time>
      </trkpt>
      <trkpt lat="42.99808" lon="-0.20513">
        <ele>1391.1</ele>
        <time>2018-01-12T13:43:40Z</time>
      </trkpt>
      <trkpt lat="42.998" lon="-0.2051">
        <ele>1390.3</ele>
        <time>2018-01-12T13:43:43Z</time>
      </trkpt>
      <trkpt lat="42.99792" lon="-0.20508">
        <ele>1390.4</ele>
        <time>2018-01-12T13:43:47Z</time>
      </trkpt>
      <trkpt lat="42.99783" lon="-0.20508">
        <ele>1390.7</ele>
        <time>2018-01-12T13:43:50Z</time>
      </trkpt>
      <trkpt lat="42.99776" lon="-0.20505">
        <ele>1390.8</ele>
        <time>2018-01-12T13:43:54Z</time>
      </trkpt>
      <trkpt lat="42.99768" lon="-0.20503">
        <ele>1390.2</ele>
        <time>2018-01-12T13:43:57Z</time>
      </trkpt>
      <trkpt lat="42.99761" lon="-0.20501">
        <ele>1390.7</ele>
        <time>2018-01-12T13:44:00Z</time>
      </trkpt>
      <trkpt lat="42.99758" lon="-0.205">
        <ele>1390.7</ele>
        <time>2018-01-12T13:44:01Z</time>
      </trkpt>
      <trkpt lat="42.99747" lon="-0.20496">
        <ele>1389.9</ele>
        <time>2018-01-12T13:44:06Z</time>
      </trkpt>
      <trkpt lat="42.99739" lon="-0.20493">
        <ele>1389.7</ele>
        <time>2018-01-12T13:44:09Z</time>
      </trkpt>
      <trkpt lat="42.99732" lon="-0.20489">
        <ele>1389.6</ele>
        <time>2018-01-12T13:44:12Z</time>
      </trkpt>
      <trkpt lat="42.99726" lon="-0.20484">
        <ele>1389.8</ele>
        <time>2018-01-12T13:44:15Z</time>
      </trkpt>
      <trkpt lat="42.99721" lon="-0.20478">
        <ele>1390.2</ele>
        <time>2018-01-12T13:44:18Z</time>
      </trkpt>
      <trkpt lat="42.99714" lon="-0.20473">
        <ele>1390.1</ele>
        <time>2018-01-12T13:44:21Z</time>
      </trkpt>
      <trkpt lat="42.99707" lon="-0.20467">
        <ele>1389.9</ele>
        <time>2018-01-12T13:44:25Z</time>
      </trkpt>
      <trkpt lat="42.997" lon="-0.20462">
        <ele>1391</ele>
        <time>2018-01-12T13:44:30Z</time>
      </trkpt>
      <trkpt lat="42.99693" lon="-0.20459">
        <ele>1391.8</ele>
        <time>2018-01-12T13:44:34Z</time>
      </trkpt>
      <trkpt lat="42.99687" lon="-0.20454">
        <ele>1392.3</ele>
        <time>2018-01-12T13:44:38Z</time>
      </trkpt>
      <trkpt lat="42.99679" lon="-0.20448">
        <ele>1392</ele>
        <time>2018-01-12T13:44:42Z</time>
      </trkpt>
      <trkpt lat="42.99672" lon="-0.20441">
        <ele>1391.8</ele>
        <time>2018-01-12T13:44:45Z</time>
      </trkpt>
      <trkpt lat="42.99665" lon="-0.20437">
        <ele>1391.6</ele>
        <time>2018-01-12T13:44:48Z</time>
      </trkpt>
      <trkpt lat="42.99657" lon="-0.20438">
        <ele>1391.2</ele>
        <time>2018-01-12T13:44:52Z</time>
      </trkpt>
      <trkpt lat="42.9965" lon="-0.20443">
        <ele>1391.9</ele>
        <time>2018-01-12T13:44:57Z</time>
      </trkpt>
      <trkpt lat="42.99643" lon="-0.20448">
        <ele>1392.6</ele>
        <time>2018-01-12T13:45:03Z</time>
      </trkpt>
      <trkpt lat="42.99641" lon="-0.20449">
        <ele>1392.7</ele>
        <time>2018-01-12T13:45:04Z</time>
      </trkpt>
      <trkpt lat="42.99628" lon="-0.20458">
        <ele>1392.7</ele>
        <time>2018-01-12T13:45:12Z</time>
      </trkpt>
      <trkpt lat="42.9962" lon="-0.20462">
        <ele>1393.1</ele>
        <time>2018-01-12T13:45:16Z</time>
      </trkpt>
      <trkpt lat="42.99614" lon="-0.20468">
        <ele>1393.3</ele>
        <time>2018-01-12T13:45:20Z</time>
      </trkpt>
      <trkpt lat="42.99607" lon="-0.20475">
        <ele>1392.8</ele>
        <time>2018-01-12T13:45:25Z</time>
      </trkpt>
      <trkpt lat="42.99601" lon="-0.20482">
        <ele>1393.1</ele>
        <time>2018-01-12T13:45:29Z</time>
      </trkpt>
      <trkpt lat="42.99594" lon="-0.2049">
        <ele>1393.5</ele>
        <time>2018-01-12T13:45:34Z</time>
      </trkpt>
      <trkpt lat="42.99587" lon="-0.20497">
        <ele>1393.3</ele>
        <time>2018-01-12T13:45:39Z</time>
      </trkpt>
      <trkpt lat="42.9958" lon="-0.20503">
        <ele>1394.6</ele>
        <time>2018-01-12T13:45:44Z</time>
      </trkpt>
      <trkpt lat="42.99573" lon="-0.2051">
        <ele>1396.2</ele>
        <time>2018-01-12T13:45:49Z</time>
      </trkpt>
      <trkpt lat="42.99567" lon="-0.2052">
        <ele>1395.9</ele>
        <time>2018-01-12T13:45:55Z</time>
      </trkpt>
      <trkpt lat="42.99562" lon="-0.20529">
        <ele>1397.1</ele>
        <time>2018-01-12T13:46:01Z</time>
      </trkpt>
      <trkpt lat="42.99559" lon="-0.2054">
        <ele>1397.4</ele>
        <time>2018-01-12T13:46:06Z</time>
      </trkpt>
      <trkpt lat="42.99558" lon="-0.20543">
        <ele>1397.4</ele>
        <time>2018-01-12T13:46:07Z</time>
      </trkpt>
      <trkpt lat="42.99549" lon="-0.2056">
        <ele>1397.8</ele>
        <time>2018-01-12T13:46:15Z</time>
      </trkpt>
      <trkpt lat="42.99544" lon="-0.20568">
        <ele>1397.4</ele>
        <time>2018-01-12T13:46:19Z</time>
      </trkpt>
      <trkpt lat="42.99541" lon="-0.20575">
        <ele>1397.3</ele>
        <time>2018-01-12T13:46:21Z</time>
      </trkpt>
      <trkpt lat="42.99536" lon="-0.20582">
        <ele>1396.5</ele>
        <time>2018-01-12T13:46:23Z</time>
      </trkpt>
      <trkpt lat="42.9953" lon="-0.20588">
        <ele>1396.1</ele>
        <time>2018-01-12T13:46:26Z</time>
      </trkpt>
      <trkpt lat="42.99524" lon="-0.20589">
        <ele>1395.9</ele>
        <time>2018-01-12T13:46:28Z</time>
      </trkpt>
      <trkpt lat="42.99516" lon="-0.20594">
        <ele>1395.6</ele>
        <time>2018-01-12T13:46:31Z</time>
      </trkpt>
      <trkpt lat="42.99509" lon="-0.206">
        <ele>1395.3</ele>
        <time>2018-01-12T13:46:34Z</time>
      </trkpt>
      <trkpt lat="42.99502" lon="-0.20601">
        <ele>1394.5</ele>
        <time>2018-01-12T13:46:38Z</time>
      </trkpt>
      <trkpt lat="42.99494" lon="-0.20602">
        <ele>1393.4</ele>
        <time>2018-01-12T13:46:41Z</time>
      </trkpt>
      <trkpt lat="42.99487" lon="-0.20602">
        <ele>1392.7</ele>
        <time>2018-01-12T13:46:43Z</time>
      </trkpt>
      <trkpt lat="42.99479" lon="-0.206">
        <ele>1392.1</ele>
        <time>2018-01-12T13:46:45Z</time>
      </trkpt>
      <trkpt lat="42.99472" lon="-0.20599">
        <ele>1391.8</ele>
        <time>2018-01-12T13:46:47Z</time>
      </trkpt>
      <trkpt lat="42.99465" lon="-0.20596">
        <ele>1391.6</ele>
        <time>2018-01-12T13:46:49Z</time>
      </trkpt>
      <trkpt lat="42.99457" lon="-0.20593">
        <ele>1391</ele>
        <time>2018-01-12T13:46:52Z</time>
      </trkpt>
      <trkpt lat="42.99451" lon="-0.2059">
        <ele>1390.8</ele>
        <time>2018-01-12T13:46:54Z</time>
      </trkpt>
      <trkpt lat="42.99443" lon="-0.20585">
        <ele>1390.6</ele>
        <time>2018-01-12T13:46:57Z</time>
      </trkpt>
      <trkpt lat="42.99437" lon="-0.20581">
        <ele>1390.5</ele>
        <time>2018-01-12T13:47:00Z</time>
      </trkpt>
      <trkpt lat="42.9943" lon="-0.20573">
        <ele>1390.5</ele>
        <time>2018-01-12T13:47:04Z</time>
      </trkpt>
      <trkpt lat="42.99424" lon="-0.20566">
        <ele>1390.8</ele>
        <time>2018-01-12T13:47:08Z</time>
      </trkpt>
      <trkpt lat="42.99422" lon="-0.20564">
        <ele>1390.8</ele>
        <time>2018-01-12T13:47:09Z</time>
      </trkpt>
      <trkpt lat="42.99415" lon="-0.20549">
        <ele>1390</ele>
        <time>2018-01-12T13:47:14Z</time>
      </trkpt>
      <trkpt lat="42.9941" lon="-0.20539">
        <ele>1390.1</ele>
        <time>2018-01-12T13:47:18Z</time>
      </trkpt>
      <trkpt lat="42.99407" lon="-0.20529">
        <ele>1390.3</ele>
        <time>2018-01-12T13:47:21Z</time>
      </trkpt>
      <trkpt lat="42.99403" lon="-0.20521">
        <ele>1390.5</ele>
        <time>2018-01-12T13:47:24Z</time>
      </trkpt>
      <trkpt lat="42.99398" lon="-0.20514">
        <ele>1390.4</ele>
        <time>2018-01-12T13:47:27Z</time>
      </trkpt>
      <trkpt lat="42.99394" lon="-0.20507">
        <ele>1390.3</ele>
        <time>2018-01-12T13:47:30Z</time>
      </trkpt>
      <trkpt lat="42.99388" lon="-0.20498">
        <ele>1390.5</ele>
        <time>2018-01-12T13:47:34Z</time>
      </trkpt>
      <trkpt lat="42.99382" lon="-0.20492">
        <ele>1391</ele>
        <time>2018-01-12T13:47:38Z</time>
      </trkpt>
      <trkpt lat="42.99375" lon="-0.20486">
        <ele>1389.7</ele>
        <time>2018-01-12T13:47:43Z</time>
      </trkpt>
      <trkpt lat="42.99369" lon="-0.2048">
        <ele>1389.9</ele>
        <time>2018-01-12T13:47:48Z</time>
      </trkpt>
      <trkpt lat="42.99362" lon="-0.20473">
        <ele>1390.5</ele>
        <time>2018-01-12T13:47:53Z</time>
      </trkpt>
      <trkpt lat="42.99355" lon="-0.20473">
        <ele>1391</ele>
        <time>2018-01-12T13:47:58Z</time>
      </trkpt>
      <trkpt lat="42.99347" lon="-0.20472">
        <ele>1390.9</ele>
        <time>2018-01-12T13:48:02Z</time>
      </trkpt>
      <trkpt lat="42.99339" lon="-0.20471">
        <ele>1390.8</ele>
        <time>2018-01-12T13:48:06Z</time>
      </trkpt>
      <trkpt lat="42.99332" lon="-0.20472">
        <ele>1391.5</ele>
        <time>2018-01-12T13:48:10Z</time>
      </trkpt>
      <trkpt lat="42.99329" lon="-0.20472">
        <ele>1391.3</ele>
        <time>2018-01-12T13:48:11Z</time>
      </trkpt>
      <trkpt lat="42.99315" lon="-0.20468">
        <ele>1390.9</ele>
        <time>2018-01-12T13:48:16Z</time>
      </trkpt>
      <trkpt lat="42.99307" lon="-0.20466">
        <ele>1390.3</ele>
        <time>2018-01-12T13:48:19Z</time>
      </trkpt>
      <trkpt lat="42.99302" lon="-0.20463">
        <ele>1389.5</ele>
        <time>2018-01-12T13:48:20Z</time>
      </trkpt>
      <trkpt lat="42.99298" lon="-0.2046">
        <ele>1388.8</ele>
        <time>2018-01-12T13:48:21Z</time>
      </trkpt>
      <trkpt lat="42.99294" lon="-0.20456">
        <ele>1388.4</ele>
        <time>2018-01-12T13:48:22Z</time>
      </trkpt>
      <trkpt lat="42.9929" lon="-0.20453">
        <ele>1388.2</ele>
        <time>2018-01-12T13:48:23Z</time>
      </trkpt>
      <trkpt lat="42.99286" lon="-0.20449">
        <ele>1388.1</ele>
        <time>2018-01-12T13:48:24Z</time>
      </trkpt>
      <trkpt lat="42.99282" lon="-0.20445">
        <ele>1388.1</ele>
        <time>2018-01-12T13:48:25Z</time>
      </trkpt>
      <trkpt lat="42.99276" lon="-0.20439">
        <ele>1387.2</ele>
        <time>2018-01-12T13:48:27Z</time>
      </trkpt>
      <trkpt lat="42.99271" lon="-0.20431">
        <ele>1386.2</ele>
        <time>2018-01-12T13:48:29Z</time>
      </trkpt>
      <trkpt lat="42.99266" lon="-0.20424">
        <ele>1386</ele>
        <time>2018-01-12T13:48:31Z</time>
      </trkpt>
      <trkpt lat="42.99263" lon="-0.20419">
        <ele>1386</ele>
        <time>2018-01-12T13:48:32Z</time>
      </trkpt>
      <trkpt lat="42.99257" lon="-0.20409">
        <ele>1384.8</ele>
        <time>2018-01-12T13:48:34Z</time>
      </trkpt>
      <trkpt lat="42.99254" lon="-0.20405">
        <ele>1384.5</ele>
        <time>2018-01-12T13:48:35Z</time>
      </trkpt>
      <trkpt lat="42.9925" lon="-0.20402">
        <ele>1383.6</ele>
        <time>2018-01-12T13:48:36Z</time>
      </trkpt>
      <trkpt lat="42.99245" lon="-0.20399">
        <ele>1383</ele>
        <time>2018-01-12T13:48:37Z</time>
      </trkpt>
      <trkpt lat="42.9924" lon="-0.20395">
        <ele>1382.6</ele>
        <time>2018-01-12T13:48:38Z</time>
      </trkpt>
      <trkpt lat="42.99236" lon="-0.20392">
        <ele>1381.1</ele>
        <time>2018-01-12T13:48:39Z</time>
      </trkpt>
      <trkpt lat="42.99228" lon="-0.20386">
        <ele>1379.2</ele>
        <time>2018-01-12T13:48:41Z</time>
      </trkpt>
      <trkpt lat="42.99224" lon="-0.20382">
        <ele>1378.6</ele>
        <time>2018-01-12T13:48:42Z</time>
      </trkpt>
      <trkpt lat="42.9922" lon="-0.20378">
        <ele>1378.1</ele>
        <time>2018-01-12T13:48:43Z</time>
      </trkpt>
      <trkpt lat="42.99215" lon="-0.20374">
        <ele>1377.6</ele>
        <time>2018-01-12T13:48:44Z</time>
      </trkpt>
      <trkpt lat="42.99211" lon="-0.20369">
        <ele>1377.3</ele>
        <time>2018-01-12T13:48:45Z</time>
      </trkpt>
      <trkpt lat="42.99206" lon="-0.20365">
        <ele>1376.6</ele>
        <time>2018-01-12T13:48:46Z</time>
      </trkpt>
      <trkpt lat="42.992" lon="-0.2036">
        <ele>1376</ele>
        <time>2018-01-12T13:48:47Z</time>
      </trkpt>
      <trkpt lat="42.99194" lon="-0.20356">
        <ele>1375.6</ele>
        <time>2018-01-12T13:48:48Z</time>
      </trkpt>
      <trkpt lat="42.99189" lon="-0.2035">
        <ele>1374.5</ele>
        <time>2018-01-12T13:48:49Z</time>
      </trkpt>
      <trkpt lat="42.99183" lon="-0.20346">
        <ele>1373.7</ele>
        <time>2018-01-12T13:48:50Z</time>
      </trkpt>
      <trkpt lat="42.99177" lon="-0.20344">
        <ele>1373.1</ele>
        <time>2018-01-12T13:48:51Z</time>
      </trkpt>
      <trkpt lat="42.99169" lon="-0.20343">
        <ele>1372</ele>
        <time>2018-01-12T13:48:53Z</time>
      </trkpt>
      <trkpt lat="42.99161" lon="-0.20344">
        <ele>1371.6</ele>
        <time>2018-01-12T13:48:55Z</time>
      </trkpt>
      <trkpt lat="42.99153" lon="-0.20345">
        <ele>1371.5</ele>
        <time>2018-01-12T13:48:58Z</time>
      </trkpt>
      <trkpt lat="42.99146" lon="-0.20344">
        <ele>1371.8</ele>
        <time>2018-01-12T13:49:02Z</time>
      </trkpt>
      <trkpt lat="42.99138" lon="-0.20339">
        <ele>1372</ele>
        <time>2018-01-12T13:49:07Z</time>
      </trkpt>
      <trkpt lat="42.99135" lon="-0.20329">
        <ele>1370.4</ele>
        <time>2018-01-12T13:49:11Z</time>
      </trkpt>
      <trkpt lat="42.99133" lon="-0.20326">
        <ele>1370</ele>
        <time>2018-01-12T13:49:12Z</time>
      </trkpt>
      <trkpt lat="42.99127" lon="-0.20313">
        <ele>1368.9</ele>
        <time>2018-01-12T13:49:16Z</time>
      </trkpt>
      <trkpt lat="42.99123" lon="-0.20305">
        <ele>1368.1</ele>
        <time>2018-01-12T13:49:18Z</time>
      </trkpt>
      <trkpt lat="42.99115" lon="-0.20302">
        <ele>1366.7</ele>
        <time>2018-01-12T13:49:23Z</time>
      </trkpt>
      <trkpt lat="42.99106" lon="-0.20302">
        <ele>1367.7</ele>
        <time>2018-01-12T13:49:57Z</time>
      </trkpt>
      <trkpt lat="42.99104" lon="-0.203">
        <ele>1367.6</ele>
        <time>2018-01-12T13:50:22Z</time>
      </trkpt>
      <trkpt lat="42.99104" lon="-0.203">
        <ele>1367.6</ele>
        <time>2018-01-12T13:50:22Z</time>
      </trkpt>
    </trkseg>
  </trk>
</gpx>